﻿<?xml version="1.0" encoding="utf-8"?><gpx creator="Garmin Desktop App" version="1.1" xsi:schemaLocation="http://www.topografix.com/GPX/1/1 http://www.topografix.com/GPX/1/1/gpx.xsd http://www.garmin.com/xmlschemas/WaypointExtension/v1 http://www8.garmin.com/xmlschemas/WaypointExtensionv1.xsd http://www.garmin.com/xmlschemas/TrackPointExtension/v1 http://www.garmin.com/xmlschemas/TrackPointExtensionv1.xsd http://www.garmin.com/xmlschemas/GpxExtensions/v3 http://www8.garmin.com/xmlschemas/GpxExtensionsv3.xsd http://www.garmin.com/xmlschemas/ActivityExtension/v1 http://www8.garmin.com/xmlschemas/ActivityExtensionv1.xsd http://www.garmin.com/xmlschemas/AdventuresExtensions/v1 http://www8.garmin.com/xmlschemas/AdventuresExtensionv1.xsd http://www.garmin.com/xmlschemas/PressureExtension/v1 http://www.garmin.com/xmlschemas/PressureExtensionv1.xsd http://www.garmin.com/xmlschemas/TripExtensions/v1 http://www.garmin.com/xmlschemas/TripExtensionsv1.xsd http://www.garmin.com/xmlschemas/TripMetaDataExtensions/v1 http://www.garmin.com/xmlschemas/TripMetaDataExtensionsv1.xsd http://www.garmin.com/xmlschemas/ViaPointTransportationModeExtensions/v1 http://www.garmin.com/xmlschemas/ViaPointTransportationModeExtensionsv1.xsd http://www.garmin.com/xmlschemas/CreationTimeExtension/v1 http://www.garmin.com/xmlschemas/CreationTimeExtensionsv1.xsd http://www.garmin.com/xmlschemas/AccelerationExtension/v1 http://www.garmin.com/xmlschemas/AccelerationExtensionv1.xsd http://www.garmin.com/xmlschemas/PowerExtension/v1 http://www.garmin.com/xmlschemas/PowerExtensionv1.xsd http://www.garmin.com/xmlschemas/VideoExtension/v1 http://www.garmin.com/xmlschemas/VideoExtensionv1.xsd" xmlns="http://www.topografix.com/GPX/1/1" xmlns:xsi="http://www.w3.org/2001/XMLSchema-instance" xmlns:wptx1="http://www.garmin.com/xmlschemas/WaypointExtension/v1" xmlns:gpxtrx="http://www.garmin.com/xmlschemas/GpxExtensions/v3" xmlns:gpxtpx="http://www.garmin.com/xmlschemas/TrackPointExtension/v1" xmlns:gpxx="http://www.garmin.com/xmlschemas/GpxExtensions/v3" xmlns:trp="http://www.garmin.com/xmlschemas/TripExtensions/v1" xmlns:adv="http://www.garmin.com/xmlschemas/AdventuresExtensions/v1" xmlns:prs="http://www.garmin.com/xmlschemas/PressureExtension/v1" xmlns:tmd="http://www.garmin.com/xmlschemas/TripMetaDataExtensions/v1" xmlns:vptm="http://www.garmin.com/xmlschemas/ViaPointTransportationModeExtensions/v1" xmlns:ctx="http://www.garmin.com/xmlschemas/CreationTimeExtension/v1" xmlns:gpxacc="http://www.garmin.com/xmlschemas/AccelerationExtension/v1" xmlns:gpxpx="http://www.garmin.com/xmlschemas/PowerExtension/v1" xmlns:vidx1="http://www.garmin.com/xmlschemas/VideoExtension/v1">

  <metadata>
    <link href="http://www.garmin.com">
      <text>Garmin International</text>
    </link>
    <time>2025-08-15T13:43:30Z</time>
    <bounds maxlat="45.887079192325473" maxlon="8.000268582254648" minlat="45.868610758334398" minlon="7.970357174053788" />
  </metadata>

  <trk>
    <name>Tagliaferro2015-09-19</name>
    <extensions>
      <gpxx:TrackExtension>
        <gpxx:DisplayColor>Yellow</gpxx:DisplayColor>
      </gpxx:TrackExtension>
      <gpxtrkx:TrackStatsExtension xmlns:gpxtrkx="http://www.garmin.com/xmlschemas/TrackStatsExtension/v1">
        <gpxtrkx:Distance>16092</gpxtrkx:Distance>
        <gpxtrkx:TotalElapsedTime>29089</gpxtrkx:TotalElapsedTime>
        <gpxtrkx:MovingTime>21633</gpxtrkx:MovingTime>
        <gpxtrkx:StoppedTime>7444</gpxtrkx:StoppedTime>
        <gpxtrkx:MovingSpeed>1</gpxtrkx:MovingSpeed>
        <gpxtrkx:MaxSpeed>2</gpxtrkx:MaxSpeed>
        <gpxtrkx:MaxElevation>2970</gpxtrkx:MaxElevation>
        <gpxtrkx:MinElevation>1397</gpxtrkx:MinElevation>
        <gpxtrkx:Ascent>1620</gpxtrkx:Ascent>
        <gpxtrkx:Descent>1598</gpxtrkx:Descent>
        <gpxtrkx:AvgAscentRate>0</gpxtrkx:AvgAscentRate>
        <gpxtrkx:MaxAscentRate>1</gpxtrkx:MaxAscentRate>
        <gpxtrkx:AvgDescentRate>0</gpxtrkx:AvgDescentRate>
        <gpxtrkx:MaxDescentRate>-0</gpxtrkx:MaxDescentRate>
      </gpxtrkx:TrackStatsExtension>
    </extensions>
    <trkseg>
      <trkpt lat="45.885077258571982" lon="8.000268582254648">
        <ele>1399.3399999999999</ele>
        <time>2015-09-19T06:32:06Z</time>
      </trkpt>
      <trkpt lat="45.885075246915221" lon="8.000267157331109">
        <ele>1399.3399999999999</ele>
        <time>2015-09-19T06:32:07Z</time>
      </trkpt>
      <trkpt lat="45.88506736792624" lon="8.000232707709074">
        <ele>1396.9300000000001</ele>
        <time>2015-09-19T06:32:23Z</time>
      </trkpt>
      <trkpt lat="45.885056219995022" lon="8.000177638605237">
        <ele>1396.9300000000001</ele>
        <time>2015-09-19T06:32:28Z</time>
      </trkpt>
      <trkpt lat="45.885057142004371" lon="8.000130280852318">
        <ele>1398.3699999999999</ele>
        <time>2015-09-19T06:32:31Z</time>
      </trkpt>
      <trkpt lat="45.885058818385005" lon="8.000119468197227">
        <ele>1398.3699999999999</ele>
        <time>2015-09-19T06:32:32Z</time>
      </trkpt>
      <trkpt lat="45.885065859183669" lon="8.000042773783207">
        <ele>1398.8599999999999</ele>
        <time>2015-09-19T06:32:39Z</time>
      </trkpt>
      <trkpt lat="45.885073402896523" lon="7.999987620860338">
        <ele>1399.8199999999999</ele>
        <time>2015-09-19T06:32:43Z</time>
      </trkpt>
      <trkpt lat="45.885137943550944" lon="7.999931462109089">
        <ele>1400.78</ele>
        <time>2015-09-19T06:32:50Z</time>
      </trkpt>
      <trkpt lat="45.885192006826401" lon="7.999958032742143">
        <ele>1401.74</ele>
        <time>2015-09-19T06:32:57Z</time>
      </trkpt>
      <trkpt lat="45.885220002382994" lon="7.999987788498402">
        <ele>1401.26</ele>
        <time>2015-09-19T06:33:00Z</time>
      </trkpt>
      <trkpt lat="45.885323602706194" lon="8.000006983056665">
        <ele>1402.22</ele>
        <time>2015-09-19T06:33:08Z</time>
      </trkpt>
      <trkpt lat="45.885392837226391" lon="7.999855689704418">
        <ele>1405.0999999999999</ele>
        <time>2015-09-19T06:33:20Z</time>
      </trkpt>
      <trkpt lat="45.885424520820379" lon="7.99972333945334">
        <ele>1406.55</ele>
        <time>2015-09-19T06:33:31Z</time>
      </trkpt>
      <trkpt lat="45.885437345132232" lon="7.999609764665365">
        <ele>1409.9100000000001</ele>
        <time>2015-09-19T06:33:42Z</time>
      </trkpt>
      <trkpt lat="45.885485708713531" lon="7.999593252316117">
        <ele>1412.79</ele>
        <time>2015-09-19T06:33:50Z</time>
      </trkpt>
      <trkpt lat="45.885497527197003" lon="7.999587217345834">
        <ele>1412.79</ele>
        <time>2015-09-19T06:33:55Z</time>
      </trkpt>
      <trkpt lat="45.88566156104207" lon="7.999577159062028">
        <ele>1412.79</ele>
        <time>2015-09-19T06:34:09Z</time>
      </trkpt>
      <trkpt lat="45.885727275162935" lon="7.999554025009275">
        <ele>1412.79</ele>
        <time>2015-09-19T06:34:20Z</time>
      </trkpt>
      <trkpt lat="45.885727778077126" lon="7.99955134280026">
        <ele>1417.1199999999999</ele>
        <time>2015-09-19T06:34:21Z</time>
      </trkpt>
      <trkpt lat="45.885731047019362" lon="7.99954111687839">
        <ele>1418.0799999999999</ele>
        <time>2015-09-19T06:34:23Z</time>
      </trkpt>
      <trkpt lat="45.885762060061097" lon="7.999468194320798">
        <ele>1419.52</ele>
        <time>2015-09-19T06:34:30Z</time>
      </trkpt>
      <trkpt lat="45.885736159980297" lon="7.999393343925476">
        <ele>1419.52</ele>
        <time>2015-09-19T06:34:41Z</time>
      </trkpt>
      <trkpt lat="45.885736998170614" lon="7.999385800212622">
        <ele>1419.52</ele>
        <time>2015-09-19T06:34:52Z</time>
      </trkpt>
      <trkpt lat="45.885722162202001" lon="7.999342465773225">
        <ele>1420</ele>
        <time>2015-09-19T06:35:00Z</time>
      </trkpt>
      <trkpt lat="45.885715959593654" lon="7.999324696138501">
        <ele>1420</ele>
        <time>2015-09-19T06:35:02Z</time>
      </trkpt>
      <trkpt lat="45.885710846632719" lon="7.999300137162209">
        <ele>1420</ele>
        <time>2015-09-19T06:35:04Z</time>
      </trkpt>
      <trkpt lat="45.885681761428714" lon="7.999215312302113">
        <ele>1421.45</ele>
        <time>2015-09-19T06:35:14Z</time>
      </trkpt>
      <trkpt lat="45.885619400069118" lon="7.999201063066721">
        <ele>1421.9300000000001</ele>
        <time>2015-09-19T06:35:19Z</time>
      </trkpt>
      <trkpt lat="45.885557038709521" lon="7.999153370037675">
        <ele>1421.9300000000001</ele>
        <time>2015-09-19T06:35:26Z</time>
      </trkpt>
      <trkpt lat="45.885529378429055" lon="7.999119004234672">
        <ele>1422.4100000000001</ele>
        <time>2015-09-19T06:35:30Z</time>
      </trkpt>
      <trkpt lat="45.8854890614748" lon="7.99910475499928">
        <ele>1422.4100000000001</ele>
        <time>2015-09-19T06:35:34Z</time>
      </trkpt>
      <trkpt lat="45.885446481406689" lon="7.999059660360217">
        <ele>1422.4100000000001</ele>
        <time>2015-09-19T06:35:37Z</time>
      </trkpt>
      <trkpt lat="45.885388478636742" lon="7.998940050601959">
        <ele>1423.8499999999999</ele>
        <time>2015-09-19T06:35:50Z</time>
      </trkpt>
      <trkpt lat="45.885445643216372" lon="7.998796887695789">
        <ele>1425.77</ele>
        <time>2015-09-19T06:35:59Z</time>
      </trkpt>
      <trkpt lat="45.88545092381537" lon="7.998711727559567">
        <ele>1427.21</ele>
        <time>2015-09-19T06:36:06Z</time>
      </trkpt>
      <trkpt lat="45.885411025956273" lon="7.998536713421345">
        <ele>1428.1800000000001</ele>
        <time>2015-09-19T06:36:19Z</time>
      </trkpt>
      <trkpt lat="45.885425610467792" lon="7.998510226607323">
        <ele>1427.7</ele>
        <time>2015-09-19T06:36:28Z</time>
      </trkpt>
      <trkpt lat="45.885502053424716" lon="7.998541407287121">
        <ele>1427.21</ele>
        <time>2015-09-19T06:36:40Z</time>
      </trkpt>
      <trkpt lat="45.885579586029053" lon="7.998563786968589">
        <ele>1427.7</ele>
        <time>2015-09-19T06:36:52Z</time>
      </trkpt>
      <trkpt lat="45.885713528841734" lon="7.998608546331525">
        <ele>1427.7</ele>
        <time>2015-09-19T06:37:03Z</time>
      </trkpt>
      <trkpt lat="45.885766167193651" lon="7.998637044802308">
        <ele>1428.1800000000001</ele>
        <time>2015-09-19T06:37:07Z</time>
      </trkpt>
      <trkpt lat="45.885884268209338" lon="7.998688593506813">
        <ele>1429.1400000000001</ele>
        <time>2015-09-19T06:37:20Z</time>
      </trkpt>
      <trkpt lat="45.885904552415013" lon="7.998598823323846">
        <ele>1429.1400000000001</ele>
        <time>2015-09-19T06:37:26Z</time>
      </trkpt>
      <trkpt lat="45.885984851047397" lon="7.998398579657078">
        <ele>1428.1800000000001</ele>
        <time>2015-09-19T06:37:39Z</time>
      </trkpt>
      <trkpt lat="45.886017791926861" lon="7.99835566431284">
        <ele>1427.7</ele>
        <time>2015-09-19T06:37:51Z</time>
      </trkpt>
      <trkpt lat="45.886083673685789" lon="7.99822230823338">
        <ele>1425.29</ele>
        <time>2015-09-19T06:38:03Z</time>
      </trkpt>
      <trkpt lat="45.886113680899143" lon="7.998151145875454">
        <ele>1426.25</ele>
        <time>2015-09-19T06:38:09Z</time>
      </trkpt>
      <trkpt lat="45.886217532679439" lon="7.998030111193657">
        <ele>1426.25</ele>
        <time>2015-09-19T06:38:20Z</time>
      </trkpt>
      <trkpt lat="45.886182747781277" lon="7.99794863909483">
        <ele>1426.73</ele>
        <time>2015-09-19T06:38:31Z</time>
      </trkpt>
      <trkpt lat="45.88617704808712" lon="7.997882924973965">
        <ele>1426.73</ele>
        <time>2015-09-19T06:38:35Z</time>
      </trkpt>
      <trkpt lat="45.886155338957906" lon="7.997774044051766">
        <ele>1428.1800000000001</ele>
        <time>2015-09-19T06:38:46Z</time>
      </trkpt>
      <trkpt lat="45.886171264573932" lon="7.997712688520551">
        <ele>1429.1400000000001</ele>
        <time>2015-09-19T06:38:54Z</time>
      </trkpt>
      <trkpt lat="45.886232787743211" lon="7.997598024085164">
        <ele>1431.0599999999999</ele>
        <time>2015-09-19T06:39:04Z</time>
      </trkpt>
      <trkpt lat="45.886317528784275" lon="7.997534740716219">
        <ele>1432.5</ele>
        <time>2015-09-19T06:39:15Z</time>
      </trkpt>
      <trkpt lat="45.886443173512816" lon="7.997539518401027">
        <ele>1433.46</ele>
        <time>2015-09-19T06:39:28Z</time>
      </trkpt>
      <trkpt lat="45.886497404426336" lon="7.997533064335585">
        <ele>1433.9400000000001</ele>
        <time>2015-09-19T06:39:38Z</time>
      </trkpt>
      <trkpt lat="45.886570829898119" lon="7.997572459280491">
        <ele>1434.9100000000001</ele>
        <time>2015-09-19T06:39:48Z</time>
      </trkpt>
      <trkpt lat="45.886658001691103" lon="7.997534237802029">
        <ele>1436.8299999999999</ele>
        <time>2015-09-19T06:40:00Z</time>
      </trkpt>
      <trkpt lat="45.886755231767893" lon="7.997467936947942">
        <ele>1439.23</ele>
        <time>2015-09-19T06:40:12Z</time>
      </trkpt>
      <trkpt lat="45.886805020272732" lon="7.997363330796361">
        <ele>1441.1500000000001</ele>
        <time>2015-09-19T06:40:22Z</time>
      </trkpt>
      <trkpt lat="45.886848689988256" lon="7.997252186760306">
        <ele>1442.5999999999999</ele>
        <time>2015-09-19T06:40:32Z</time>
      </trkpt>
      <trkpt lat="45.886879283934832" lon="7.997152023017407">
        <ele>1444.52</ele>
        <time>2015-09-19T06:40:43Z</time>
      </trkpt>
      <trkpt lat="45.886923121288419" lon="7.997018750756979">
        <ele>1446.4400000000001</ele>
        <time>2015-09-19T06:40:54Z</time>
      </trkpt>
      <trkpt lat="45.886958995833993" lon="7.996901236474514">
        <ele>1448.3599999999999</ele>
        <time>2015-09-19T06:41:05Z</time>
      </trkpt>
      <trkpt lat="45.886997049674392" lon="7.99681993201375">
        <ele>1449.3199999999999</ele>
        <time>2015-09-19T06:41:15Z</time>
      </trkpt>
      <trkpt lat="45.886983973905444" lon="7.996689509600401">
        <ele>1449.3199999999999</ele>
        <time>2015-09-19T06:41:25Z</time>
      </trkpt>
      <trkpt lat="45.886984644457698" lon="7.996619520708919">
        <ele>1451.73</ele>
        <time>2015-09-19T06:41:36Z</time>
      </trkpt>
      <trkpt lat="45.886977603659034" lon="7.996494378894568">
        <ele>1453.1700000000001</ele>
        <time>2015-09-19T06:41:46Z</time>
      </trkpt>
      <trkpt lat="45.886934688314795" lon="7.996365716680884">
        <ele>1455.5699999999999</ele>
        <time>2015-09-19T06:42:00Z</time>
      </trkpt>
      <trkpt lat="45.886862184852362" lon="7.996286423876882">
        <ele>1457.98</ele>
        <time>2015-09-19T06:42:13Z</time>
      </trkpt>
      <trkpt lat="45.886842906475067" lon="7.996221464127302">
        <ele>1458.9400000000001</ele>
        <time>2015-09-19T06:42:23Z</time>
      </trkpt>
      <trkpt lat="45.886765541508794" lon="7.996134124696255">
        <ele>1460.8599999999999</ele>
        <time>2015-09-19T06:42:36Z</time>
      </trkpt>
      <trkpt lat="45.886687925085425" lon="7.996067572385073">
        <ele>1462.78</ele>
        <time>2015-09-19T06:42:49Z</time>
      </trkpt>
      <trkpt lat="45.886633107438684" lon="7.99597897566855">
        <ele>1464.71</ele>
        <time>2015-09-19T06:43:01Z</time>
      </trkpt>
      <trkpt lat="45.886550210416317" lon="7.995955087244511">
        <ele>1466.1500000000001</ele>
        <time>2015-09-19T06:43:12Z</time>
      </trkpt>
      <trkpt lat="45.886472593992949" lon="7.995947627350688">
        <ele>1467.5899999999999</ele>
        <time>2015-09-19T06:43:22Z</time>
      </trkpt>
      <trkpt lat="45.886382404714823" lon="7.995865484699607">
        <ele>1469.03</ele>
        <time>2015-09-19T06:43:34Z</time>
      </trkpt>
      <trkpt lat="45.886308392509818" lon="7.995788287371397">
        <ele>1470.47</ele>
        <time>2015-09-19T06:43:46Z</time>
      </trkpt>
      <trkpt lat="45.886241421103477" lon="7.995667168870568">
        <ele>1472.4000000000001</ele>
        <time>2015-09-19T06:43:59Z</time>
      </trkpt>
      <trkpt lat="45.886136060580611" lon="7.995588546618819">
        <ele>1473.8399999999999</ele>
        <time>2015-09-19T06:44:13Z</time>
      </trkpt>
      <trkpt lat="45.886032041162252" lon="7.995561053976417">
        <ele>1474.8</ele>
        <time>2015-09-19T06:44:24Z</time>
      </trkpt>
      <trkpt lat="45.885995328426361" lon="7.995561808347702">
        <ele>1475.76</ele>
        <time>2015-09-19T06:44:29Z</time>
      </trkpt>
      <trkpt lat="45.885879406705499" lon="7.99548989161849">
        <ele>1476.24</ele>
        <time>2015-09-19T06:44:42Z</time>
      </trkpt>
      <trkpt lat="45.885843532159925" lon="7.995407246053219">
        <ele>1477.2</ele>
        <time>2015-09-19T06:44:55Z</time>
      </trkpt>
      <trkpt lat="45.885776979848742" lon="7.995348991826177">
        <ele>1478.6500000000001</ele>
        <time>2015-09-19T06:45:04Z</time>
      </trkpt>
      <trkpt lat="45.885692741721869" lon="7.995269279927015">
        <ele>1480.0899999999999</ele>
        <time>2015-09-19T06:45:15Z</time>
      </trkpt>
      <trkpt lat="45.885646222159266" lon="7.995270285755396">
        <ele>1480.0899999999999</ele>
        <time>2015-09-19T06:45:28Z</time>
      </trkpt>
      <trkpt lat="45.88563272729516" lon="7.995229884982109">
        <ele>1481.05</ele>
        <time>2015-09-19T06:45:37Z</time>
      </trkpt>
      <trkpt lat="45.885559972375631" lon="7.995133828371763">
        <ele>1482.97</ele>
        <time>2015-09-19T06:45:49Z</time>
      </trkpt>
      <trkpt lat="45.88551102206111" lon="7.995081776753068">
        <ele>1484.8900000000001</ele>
        <time>2015-09-19T06:46:01Z</time>
      </trkpt>
      <trkpt lat="45.885428125038743" lon="7.995029725134373">
        <ele>1486.8199999999999</ele>
        <time>2015-09-19T06:46:14Z</time>
      </trkpt>
      <trkpt lat="45.885418318212032" lon="7.995029473677278">
        <ele>1486.8199999999999</ele>
        <time>2015-09-19T06:46:15Z</time>
      </trkpt>
      <trkpt lat="45.885341623798013" lon="7.994981277734041">
        <ele>1488.74</ele>
        <time>2015-09-19T06:46:28Z</time>
      </trkpt>
      <trkpt lat="45.885261995717883" lon="7.994989911094308">
        <ele>1490.1800000000001</ele>
        <time>2015-09-19T06:46:39Z</time>
      </trkpt>
      <trkpt lat="45.885200556367636" lon="7.995017319917679">
        <ele>1490.6600000000001</ele>
        <time>2015-09-19T06:46:49Z</time>
      </trkpt>
      <trkpt lat="45.885085053741932" lon="7.994992258027196">
        <ele>1492.5799999999999</ele>
        <time>2015-09-19T06:47:02Z</time>
      </trkpt>
      <trkpt lat="45.884977011010051" lon="7.994921933859587">
        <ele>1494.51</ele>
        <time>2015-09-19T06:47:16Z</time>
      </trkpt>
      <trkpt lat="45.884874165058136" lon="7.994898296892643">
        <ele>1495.47</ele>
        <time>2015-09-19T06:47:26Z</time>
      </trkpt>
      <trkpt lat="45.884805852547288" lon="7.994836270809174">
        <ele>1496.9100000000001</ele>
        <time>2015-09-19T06:47:36Z</time>
      </trkpt>
      <trkpt lat="45.884759416803718" lon="7.994814729318023">
        <ele>1498.3499999999999</ele>
        <time>2015-09-19T06:47:43Z</time>
      </trkpt>
      <trkpt lat="45.884694959968328" lon="7.994784219190478">
        <ele>1499.79</ele>
        <time>2015-09-19T06:47:53Z</time>
      </trkpt>
      <trkpt lat="45.884678112342954" lon="7.994689922779799">
        <ele>1502.2</ele>
        <time>2015-09-19T06:48:03Z</time>
      </trkpt>
      <trkpt lat="45.884633772075176" lon="7.994596464559436">
        <ele>1503.6400000000001</ele>
        <time>2015-09-19T06:48:13Z</time>
      </trkpt>
      <trkpt lat="45.884603513404727" lon="7.994484566152096">
        <ele>1505.5599999999999</ele>
        <time>2015-09-19T06:48:23Z</time>
      </trkpt>
      <trkpt lat="45.884569985792041" lon="7.994369650259614">
        <ele>1507.48</ele>
        <time>2015-09-19T06:48:34Z</time>
      </trkpt>
      <trkpt lat="45.884520784020424" lon="7.99430737271905">
        <ele>1508.9300000000001</ele>
        <time>2015-09-19T06:48:43Z</time>
      </trkpt>
      <trkpt lat="45.884455321356654" lon="7.994267055764794">
        <ele>1509.8900000000001</ele>
        <time>2015-09-19T06:48:53Z</time>
      </trkpt>
      <trkpt lat="45.884433193132281" lon="7.994285663589835">
        <ele>1510.3699999999999</ele>
        <time>2015-09-19T06:48:55Z</time>
      </trkpt>
      <trkpt lat="45.884408885613084" lon="7.994283400475979">
        <ele>1509.8900000000001</ele>
        <time>2015-09-19T06:48:57Z</time>
      </trkpt>
      <trkpt lat="45.8842958137393" lon="7.994280215352774">
        <ele>1512.29</ele>
        <time>2015-09-19T06:49:09Z</time>
      </trkpt>
      <trkpt lat="45.884331772103906" lon="7.99425414763391">
        <ele>1513.73</ele>
        <time>2015-09-19T06:49:19Z</time>
      </trkpt>
      <trkpt lat="45.884368903934956" lon="7.994205700233579">
        <ele>1514.6900000000001</ele>
        <time>2015-09-19T06:49:29Z</time>
      </trkpt>
      <trkpt lat="45.884308973327279" lon="7.99421894364059">
        <ele>1516.1400000000001</ele>
        <time>2015-09-19T06:49:38Z</time>
      </trkpt>
      <trkpt lat="45.884336046874523" lon="7.994170160964131">
        <ele>1518.54</ele>
        <time>2015-09-19T06:49:50Z</time>
      </trkpt>
      <trkpt lat="45.88437594473362" lon="7.994152475148439">
        <ele>1520.46</ele>
        <time>2015-09-19T06:50:00Z</time>
      </trkpt>
      <trkpt lat="45.884361108765006" lon="7.994111906737089">
        <ele>1521.4200000000001</ele>
        <time>2015-09-19T06:50:08Z</time>
      </trkpt>
      <trkpt lat="45.884331772103906" lon="7.994076032191515">
        <ele>1522.3900000000001</ele>
        <time>2015-09-19T06:50:17Z</time>
      </trkpt>
      <trkpt lat="45.884311739355326" lon="7.994020041078329">
        <ele>1523.8299999999999</ele>
        <time>2015-09-19T06:50:26Z</time>
      </trkpt>
      <trkpt lat="45.884365048259497" lon="7.994016520678997">
        <ele>1525.27</ele>
        <time>2015-09-19T06:50:36Z</time>
      </trkpt>
      <trkpt lat="45.884423134848475" lon="7.994026578962803">
        <ele>1526.23</ele>
        <time>2015-09-19T06:50:47Z</time>
      </trkpt>
      <trkpt lat="45.884392876178026" lon="7.994014928117394">
        <ele>1527.6700000000001</ele>
        <time>2015-09-19T06:51:00Z</time>
      </trkpt>
      <trkpt lat="45.884335627779365" lon="7.993973102420569">
        <ele>1529.1099999999999</ele>
        <time>2015-09-19T06:51:11Z</time>
      </trkpt>
      <trkpt lat="45.88428265415132" lon="7.99398492090404">
        <ele>1530.5599999999999</ele>
        <time>2015-09-19T06:51:21Z</time>
      </trkpt>
      <trkpt lat="45.884277038276196" lon="7.993985256180167">
        <ele>1531.04</ele>
        <time>2015-09-19T06:51:22Z</time>
      </trkpt>
      <trkpt lat="45.884183160960674" lon="7.993985172361136">
        <ele>1532.48</ele>
        <time>2015-09-19T06:51:34Z</time>
      </trkpt>
      <trkpt lat="45.884108897298574" lon="7.993955751881003">
        <ele>1534.4000000000001</ele>
        <time>2015-09-19T06:51:45Z</time>
      </trkpt>
      <trkpt lat="45.884074447676539" lon="7.993896240368486">
        <ele>1536.3199999999999</ele>
        <time>2015-09-19T06:51:55Z</time>
      </trkpt>
      <trkpt lat="45.884113926440477" lon="7.993878638371825">
        <ele>1537.77</ele>
        <time>2015-09-19T06:52:05Z</time>
      </trkpt>
      <trkpt lat="45.884177545085549" lon="7.993849301710725">
        <ele>1539.21</ele>
        <time>2015-09-19T06:52:15Z</time>
      </trkpt>
      <trkpt lat="45.884145945310593" lon="7.993819545954466">
        <ele>1540.1700000000001</ele>
        <time>2015-09-19T06:52:25Z</time>
      </trkpt>
      <trkpt lat="45.884098252281547" lon="7.993806637823582">
        <ele>1541.1300000000001</ele>
        <time>2015-09-19T06:52:31Z</time>
      </trkpt>
      <trkpt lat="45.88403295725584" lon="7.993774535134435">
        <ele>1542.0899999999999</ele>
        <time>2015-09-19T06:52:41Z</time>
      </trkpt>
      <trkpt lat="45.88405491784215" lon="7.993722567334771">
        <ele>1544.98</ele>
        <time>2015-09-19T06:52:52Z</time>
      </trkpt>
      <trkpt lat="45.884121218696237" lon="7.993734972551465">
        <ele>1546.9000000000001</ele>
        <time>2015-09-19T06:53:04Z</time>
      </trkpt>
      <trkpt lat="45.884124236181378" lon="7.993737068027258">
        <ele>1547.3800000000001</ele>
        <time>2015-09-19T06:53:05Z</time>
      </trkpt>
      <trkpt lat="45.884079225361347" lon="7.993723573163152">
        <ele>1548.8199999999999</ele>
        <time>2015-09-19T06:53:17Z</time>
      </trkpt>
      <trkpt lat="45.884021893143654" lon="7.993702618405223">
        <ele>1550.74</ele>
        <time>2015-09-19T06:53:28Z</time>
      </trkpt>
      <trkpt lat="45.88399725034833" lon="7.993607735261321">
        <ele>1552.6700000000001</ele>
        <time>2015-09-19T06:53:40Z</time>
      </trkpt>
      <trkpt lat="45.884046955034137" lon="7.993585607036948">
        <ele>1554.5899999999999</ele>
        <time>2015-09-19T06:53:52Z</time>
      </trkpt>
      <trkpt lat="45.884088780730963" lon="7.993570687249303">
        <ele>1556.03</ele>
        <time>2015-09-19T06:54:01Z</time>
      </trkpt>
      <trkpt lat="45.884066820144653" lon="7.993561467155814">
        <ele>1556.99</ele>
        <time>2015-09-19T06:54:10Z</time>
      </trkpt>
      <trkpt lat="45.884029855951667" lon="7.993534561246634">
        <ele>1557.95</ele>
        <time>2015-09-19T06:54:18Z</time>
      </trkpt>
      <trkpt lat="45.883991969749331" lon="7.993493154644966">
        <ele>1559.4000000000001</ele>
        <time>2015-09-19T06:54:28Z</time>
      </trkpt>
      <trkpt lat="45.883953245356679" lon="7.993460884317756">
        <ele>1560.8399999999999</ele>
        <time>2015-09-19T06:54:38Z</time>
      </trkpt>
      <trkpt lat="45.883940421044827" lon="7.993451245129108">
        <ele>1561.3199999999999</ele>
        <time>2015-09-19T06:54:40Z</time>
      </trkpt>
      <trkpt lat="45.883866911754012" lon="7.993383519351482">
        <ele>1563.24</ele>
        <time>2015-09-19T06:54:51Z</time>
      </trkpt>
      <trkpt lat="45.883813854306936" lon="7.993310512974858">
        <ele>1565.1600000000001</ele>
        <time>2015-09-19T06:55:03Z</time>
      </trkpt>
      <trkpt lat="45.883742105215788" lon="7.993307579308748">
        <ele>1566.1199999999999</ele>
        <time>2015-09-19T06:55:13Z</time>
      </trkpt>
      <trkpt lat="45.8836913947016" lon="7.993314284831286">
        <ele>1567.5699999999999</ele>
        <time>2015-09-19T06:55:24Z</time>
      </trkpt>
      <trkpt lat="45.883638085797429" lon="7.993370946496725">
        <ele>1569.49</ele>
        <time>2015-09-19T06:55:35Z</time>
      </trkpt>
      <trkpt lat="45.883599612861872" lon="7.993372119963169">
        <ele>1570.9300000000001</ele>
        <time>2015-09-19T06:55:43Z</time>
      </trkpt>
      <trkpt lat="45.883516883477569" lon="7.99336432479322">
        <ele>1572.8499999999999</ele>
        <time>2015-09-19T06:55:55Z</time>
      </trkpt>
      <trkpt lat="45.883475979790092" lon="7.993385614827275">
        <ele>1574.3</ele>
        <time>2015-09-19T06:56:01Z</time>
      </trkpt>
      <trkpt lat="45.883464496582747" lon="7.993315709754825">
        <ele>1575.74</ele>
        <time>2015-09-19T06:56:10Z</time>
      </trkpt>
      <trkpt lat="45.883485954254866" lon="7.993221329525113">
        <ele>1578.1400000000001</ele>
        <time>2015-09-19T06:56:22Z</time>
      </trkpt>
      <trkpt lat="45.88342459872365" lon="7.993226610124111">
        <ele>1580.54</ele>
        <time>2015-09-19T06:56:35Z</time>
      </trkpt>
      <trkpt lat="45.883371289819479" lon="7.993222251534462">
        <ele>1581.51</ele>
        <time>2015-09-19T06:56:43Z</time>
      </trkpt>
      <trkpt lat="45.883393082767725" lon="7.993086380884051">
        <ele>1583.9100000000001</ele>
        <time>2015-09-19T06:56:54Z</time>
      </trkpt>
      <trkpt lat="45.883442703634501" lon="7.993003819137812">
        <ele>1585.3499999999999</ele>
        <time>2015-09-19T06:57:06Z</time>
      </trkpt>
      <trkpt lat="45.8834841940552" lon="7.992942966520786">
        <ele>1586.79</ele>
        <time>2015-09-19T06:57:16Z</time>
      </trkpt>
      <trkpt lat="45.883483942598104" lon="7.992859231308103">
        <ele>1588.24</ele>
        <time>2015-09-19T06:57:27Z</time>
      </trkpt>
      <trkpt lat="45.883464328944683" lon="7.992926454171538">
        <ele>1589.6800000000001</ele>
        <time>2015-09-19T06:57:37Z</time>
      </trkpt>
      <trkpt lat="45.883392160758376" lon="7.992940032854676">
        <ele>1591.1199999999999</ele>
        <time>2015-09-19T06:57:47Z</time>
      </trkpt>
      <trkpt lat="45.883307754993439" lon="7.99295243807137">
        <ele>1593.04</ele>
        <time>2015-09-19T06:57:58Z</time>
      </trkpt>
      <trkpt lat="45.883338265120983" lon="7.992875827476382">
        <ele>1594.48</ele>
        <time>2015-09-19T06:58:08Z</time>
      </trkpt>
      <trkpt lat="45.883369529619813" lon="7.992789410054684">
        <ele>1595.9300000000001</ele>
        <time>2015-09-19T06:58:17Z</time>
      </trkpt>
      <trkpt lat="45.883393250405788" lon="7.992722857743502">
        <ele>1597.3699999999999</ele>
        <time>2015-09-19T06:58:29Z</time>
      </trkpt>
      <trkpt lat="45.883328877389431" lon="7.992761498317123">
        <ele>1599.77</ele>
        <time>2015-09-19T06:58:41Z</time>
      </trkpt>
      <trkpt lat="45.883272048085928" lon="7.992788907140493">
        <ele>1600.73</ele>
        <time>2015-09-19T06:58:50Z</time>
      </trkpt>
      <trkpt lat="45.883255619555712" lon="7.992713637650013">
        <ele>1602.1700000000001</ele>
        <time>2015-09-19T06:59:00Z</time>
      </trkpt>
      <trkpt lat="45.883299456909299" lon="7.992601739242673">
        <ele>1605.0599999999999</ele>
        <time>2015-09-19T06:59:14Z</time>
      </trkpt>
      <trkpt lat="45.883271461352706" lon="7.992612551897764">
        <ele>1606.5</ele>
        <time>2015-09-19T06:59:24Z</time>
      </trkpt>
      <trkpt lat="45.883204489946365" lon="7.992636524140835">
        <ele>1607.9400000000001</ele>
        <time>2015-09-19T06:59:35Z</time>
      </trkpt>
      <trkpt lat="45.883186887949705" lon="7.992649516090751">
        <ele>1608.4200000000001</ele>
        <time>2015-09-19T06:59:40Z</time>
      </trkpt>
      <trkpt lat="45.883112037554383" lon="7.992682373151183">
        <ele>1609.8599999999999</ele>
        <time>2015-09-19T06:59:51Z</time>
      </trkpt>
      <trkpt lat="45.88310114108026" lon="7.992649348452687">
        <ele>1611.3099999999999</ele>
        <time>2015-09-19T06:59:59Z</time>
      </trkpt>
      <trkpt lat="45.883161490783095" lon="7.992553794756532">
        <ele>1613.23</ele>
        <time>2015-09-19T07:00:11Z</time>
      </trkpt>
      <trkpt lat="45.883177500218153" lon="7.992489421740174">
        <ele>1615.1500000000001</ele>
        <time>2015-09-19T07:00:23Z</time>
      </trkpt>
      <trkpt lat="45.883169118314981" lon="7.992534348741174">
        <ele>1615.6300000000001</ele>
        <time>2015-09-19T07:00:29Z</time>
      </trkpt>
      <trkpt lat="45.883129723370075" lon="7.992552621290088">
        <ele>1617.0699999999999</ele>
        <time>2015-09-19T07:00:39Z</time>
      </trkpt>
      <trkpt lat="45.883150426670909" lon="7.992475675418973">
        <ele>1618.52</ele>
        <time>2015-09-19T07:00:49Z</time>
      </trkpt>
      <trkpt lat="45.883125867694616" lon="7.992475591599941">
        <ele>1620.4400000000001</ele>
        <time>2015-09-19T07:01:00Z</time>
      </trkpt>
      <trkpt lat="45.8830869756639" lon="7.992496965453029">
        <ele>1621.4000000000001</ele>
        <time>2015-09-19T07:01:09Z</time>
      </trkpt>
      <trkpt lat="45.883103823289275" lon="7.9924310836941">
        <ele>1623.3199999999999</ele>
        <time>2015-09-19T07:01:19Z</time>
      </trkpt>
      <trkpt lat="45.883064763620496" lon="7.992376936599612">
        <ele>1625.25</ele>
        <time>2015-09-19T07:01:29Z</time>
      </trkpt>
      <trkpt lat="45.883023859933019" lon="7.992393197491765">
        <ele>1626.6900000000001</ele>
        <time>2015-09-19T07:01:39Z</time>
      </trkpt>
      <trkpt lat="45.882983710616827" lon="7.992370733991265">
        <ele>1628.1300000000001</ele>
        <time>2015-09-19T07:01:50Z</time>
      </trkpt>
      <trkpt lat="45.883008353412151" lon="7.99230057746172">
        <ele>1629.0899999999999</ele>
        <time>2015-09-19T07:01:58Z</time>
      </trkpt>
      <trkpt lat="45.883076079189777" lon="7.992237126454711">
        <ele>1631.49</ele>
        <time>2015-09-19T07:02:10Z</time>
      </trkpt>
      <trkpt lat="45.883060656487942" lon="7.992199910804629">
        <ele>1632.9400000000001</ele>
        <time>2015-09-19T07:02:20Z</time>
      </trkpt>
      <trkpt lat="45.882989913225174" lon="7.992171412333846">
        <ele>1634.8599999999999</ele>
        <time>2015-09-19T07:02:32Z</time>
      </trkpt>
      <trkpt lat="45.882910788059235" lon="7.992198318243027">
        <ele>1636.78</ele>
        <time>2015-09-19T07:02:43Z</time>
      </trkpt>
      <trkpt lat="45.882846415042877" lon="7.992123970761895">
        <ele>1638.7</ele>
        <time>2015-09-19T07:02:53Z</time>
      </trkpt>
      <trkpt lat="45.882864687591791" lon="7.99205188639462">
        <ele>1640.1500000000001</ele>
        <time>2015-09-19T07:03:03Z</time>
      </trkpt>
      <trkpt lat="45.882934592664242" lon="7.992004947736859">
        <ele>1641.5899999999999</ele>
        <time>2015-09-19T07:03:14Z</time>
      </trkpt>
      <trkpt lat="45.882994858548045" lon="7.991957254707813">
        <ele>1643.51</ele>
        <time>2015-09-19T07:03:26Z</time>
      </trkpt>
      <trkpt lat="45.883048754185438" lon="7.99189212732017">
        <ele>1644.95</ele>
        <time>2015-09-19T07:03:37Z</time>
      </trkpt>
      <trkpt lat="45.883117318153381" lon="7.991800848394632">
        <ele>1646.8800000000001</ele>
        <time>2015-09-19T07:03:50Z</time>
      </trkpt>
      <trkpt lat="45.883113211020827" lon="7.991803111508489">
        <ele>1646.8800000000001</ele>
        <time>2015-09-19T07:03:51Z</time>
      </trkpt>
      <trkpt lat="45.883090496063232" lon="7.991846110671759">
        <ele>1648.3199999999999</ele>
        <time>2015-09-19T07:04:01Z</time>
      </trkpt>
      <trkpt lat="45.883049760013819" lon="7.991829682141542">
        <ele>1649.76</ele>
        <time>2015-09-19T07:04:11Z</time>
      </trkpt>
      <trkpt lat="45.882993685081601" lon="7.991818031296134">
        <ele>1650.72</ele>
        <time>2015-09-19T07:04:19Z</time>
      </trkpt>
      <trkpt lat="45.882919169962406" lon="7.991811661049724">
        <ele>1652.6400000000001</ele>
        <time>2015-09-19T07:04:31Z</time>
      </trkpt>
      <trkpt lat="45.882875751703978" lon="7.991765476763248">
        <ele>1654.0899999999999</ele>
        <time>2015-09-19T07:04:41Z</time>
      </trkpt>
      <trkpt lat="45.882923612371087" lon="7.991761537268758">
        <ele>1656.01</ele>
        <time>2015-09-19T07:04:51Z</time>
      </trkpt>
      <trkpt lat="45.88294817134738" lon="7.99170152284205">
        <ele>1656.97</ele>
        <time>2015-09-19T07:05:05Z</time>
      </trkpt>
      <trkpt lat="45.882992846891284" lon="7.991630025207996">
        <ele>1658.4100000000001</ele>
        <time>2015-09-19T07:05:17Z</time>
      </trkpt>
      <trkpt lat="45.883008940145373" lon="7.991598509252071">
        <ele>1659.8499999999999</ele>
        <time>2015-09-19T07:05:28Z</time>
      </trkpt>
      <trkpt lat="45.88306593708694" lon="7.991528436541557">
        <ele>1661.3</ele>
        <time>2015-09-19T07:05:41Z</time>
      </trkpt>
      <trkpt lat="45.883097453042865" lon="7.991539500653744">
        <ele>1661.3</ele>
        <time>2015-09-19T07:05:50Z</time>
      </trkpt>
      <trkpt lat="45.88309527374804" lon="7.991545451804996">
        <ele>1661.78</ele>
        <time>2015-09-19T07:05:51Z</time>
      </trkpt>
      <trkpt lat="45.88302394375205" lon="7.991537321358919">
        <ele>1663.22</ele>
        <time>2015-09-19T07:06:02Z</time>
      </trkpt>
      <trkpt lat="45.882958397269249" lon="7.991536064073443">
        <ele>1665.6199999999999</ele>
        <time>2015-09-19T07:06:13Z</time>
      </trkpt>
      <trkpt lat="45.8828832115978" lon="7.991458447650075">
        <ele>1667.54</ele>
        <time>2015-09-19T07:06:23Z</time>
      </trkpt>
      <trkpt lat="45.882840882986784" lon="7.991411592811346">
        <ele>1668.99</ele>
        <time>2015-09-19T07:06:33Z</time>
      </trkpt>
      <trkpt lat="45.882779946550727" lon="7.991361888125539">
        <ele>1670.4300000000001</ele>
        <time>2015-09-19T07:06:44Z</time>
      </trkpt>
      <trkpt lat="45.882711885496974" lon="7.991357278078795">
        <ele>1671.8699999999999</ele>
        <time>2015-09-19T07:06:56Z</time>
      </trkpt>
      <trkpt lat="45.882660755887628" lon="7.991343196481466">
        <ele>1673.79</ele>
        <time>2015-09-19T07:07:05Z</time>
      </trkpt>
      <trkpt lat="45.882608368992805" lon="7.991351913660765">
        <ele>1674.75</ele>
        <time>2015-09-19T07:07:14Z</time>
      </trkpt>
      <trkpt lat="45.882586324587464" lon="7.991356523707509">
        <ele>1676.6800000000001</ele>
        <time>2015-09-19T07:07:18Z</time>
      </trkpt>
      <trkpt lat="45.882496386766434" lon="7.991370605304837">
        <ele>1677.1600000000001</ele>
        <time>2015-09-19T07:07:28Z</time>
      </trkpt>
      <trkpt lat="45.882407119497657" lon="7.991356607526541">
        <ele>1679.0799999999999</ele>
        <time>2015-09-19T07:07:41Z</time>
      </trkpt>
      <trkpt lat="45.882403431460261" lon="7.991353841498494">
        <ele>1679.0799999999999</ele>
        <time>2015-09-19T07:07:42Z</time>
      </trkpt>
      <trkpt lat="45.882325815036893" lon="7.99136146903038">
        <ele>1681</ele>
        <time>2015-09-19T07:07:52Z</time>
      </trkpt>
      <trkpt lat="45.882303267717361" lon="7.991367252543569">
        <ele>1681.48</ele>
        <time>2015-09-19T07:07:55Z</time>
      </trkpt>
      <trkpt lat="45.88220939040184" lon="7.991416957229376">
        <ele>1683.4100000000001</ele>
        <time>2015-09-19T07:08:08Z</time>
      </trkpt>
      <trkpt lat="45.88214049115777" lon="7.991402875632048">
        <ele>1685.3299999999999</ele>
        <time>2015-09-19T07:08:18Z</time>
      </trkpt>
      <trkpt lat="45.882091959938407" lon="7.991411676630378">
        <ele>1686.29</ele>
        <time>2015-09-19T07:08:29Z</time>
      </trkpt>
      <trkpt lat="45.88205055333674" lon="7.991416286677122">
        <ele>1685.8099999999999</ele>
        <time>2015-09-19T07:08:37Z</time>
      </trkpt>
      <trkpt lat="45.882040243595839" lon="7.991409748792648">
        <ele>1685.8099999999999</ele>
        <time>2015-09-19T07:08:38Z</time>
      </trkpt>
      <trkpt lat="45.881951814517379" lon="7.99141326919198">
        <ele>1685.8099999999999</ele>
        <time>2015-09-19T07:08:48Z</time>
      </trkpt>
      <trkpt lat="45.881903115659952" lon="7.991508487612009">
        <ele>1685.3299999999999</ele>
        <time>2015-09-19T07:08:59Z</time>
      </trkpt>
      <trkpt lat="45.881889620795846" lon="7.991496920585632">
        <ele>1685.3299999999999</ele>
        <time>2015-09-19T07:09:01Z</time>
      </trkpt>
      <trkpt lat="45.881824912503362" lon="7.991527263075113">
        <ele>1685.3299999999999</ele>
        <time>2015-09-19T07:09:10Z</time>
      </trkpt>
      <trkpt lat="45.881799096241593" lon="7.991484934464097">
        <ele>1683.8900000000001</ele>
        <time>2015-09-19T07:09:18Z</time>
      </trkpt>
      <trkpt lat="45.88173589669168" lon="7.991435481235385">
        <ele>1681.96</ele>
        <time>2015-09-19T07:09:28Z</time>
      </trkpt>
      <trkpt lat="45.881697926670313" lon="7.991445036605001">
        <ele>1680.52</ele>
        <time>2015-09-19T07:09:38Z</time>
      </trkpt>
      <trkpt lat="45.881651993840933" lon="7.99142156727612">
        <ele>1680.04</ele>
        <time>2015-09-19T07:09:48Z</time>
      </trkpt>
      <trkpt lat="45.881641013547778" lon="7.991447048261762">
        <ele>1680.04</ele>
        <time>2015-09-19T07:09:57Z</time>
      </trkpt>
      <trkpt lat="45.881600780412555" lon="7.991500021889806">
        <ele>1680.04</ele>
        <time>2015-09-19T07:10:03Z</time>
      </trkpt>
      <trkpt lat="45.881613353267312" lon="7.991584930568934">
        <ele>1680.04</ele>
        <time>2015-09-19T07:10:12Z</time>
      </trkpt>
      <trkpt lat="45.881611257791519" lon="7.99162968993187">
        <ele>1679.5599999999999</ele>
        <time>2015-09-19T07:10:15Z</time>
      </trkpt>
      <trkpt lat="45.881602540612221" lon="7.991674700751901">
        <ele>1679.5599999999999</ele>
        <time>2015-09-19T07:10:17Z</time>
      </trkpt>
      <trkpt lat="45.881604300811887" lon="7.991705127060413">
        <ele>1680.04</ele>
        <time>2015-09-19T07:10:19Z</time>
      </trkpt>
      <trkpt lat="45.881663728505373" lon="7.991967229172587">
        <ele>1679.5599999999999</ele>
        <time>2015-09-19T07:10:35Z</time>
      </trkpt>
      <trkpt lat="45.88165819644928" lon="7.992113409563899">
        <ele>1679.5599999999999</ele>
        <time>2015-09-19T07:10:45Z</time>
      </trkpt>
      <trkpt lat="45.881633721292019" lon="7.992205861955881">
        <ele>1680.04</ele>
        <time>2015-09-19T07:10:54Z</time>
      </trkpt>
      <trkpt lat="45.881633218377829" lon="7.992249196395278">
        <ele>1680.04</ele>
        <time>2015-09-19T07:10:57Z</time>
      </trkpt>
      <trkpt lat="45.881647216156125" lon="7.992263613268733">
        <ele>1680.04</ele>
        <time>2015-09-19T07:11:07Z</time>
      </trkpt>
      <trkpt lat="45.88164109736681" lon="7.99228448420763">
        <ele>1680.04</ele>
        <time>2015-09-19T07:11:18Z</time>
      </trkpt>
      <trkpt lat="45.881629278883338" lon="7.992311054840684">
        <ele>1680.04</ele>
        <time>2015-09-19T07:11:28Z</time>
      </trkpt>
      <trkpt lat="45.881586028262973" lon="7.992459163069725">
        <ele>1680.04</ele>
        <time>2015-09-19T07:11:38Z</time>
      </trkpt>
      <trkpt lat="45.881553003564477" lon="7.992585897445679">
        <ele>1680.04</ele>
        <time>2015-09-19T07:11:50Z</time>
      </trkpt>
      <trkpt lat="45.88152869604528" lon="7.992744399234653">
        <ele>1680.04</ele>
        <time>2015-09-19T07:12:02Z</time>
      </trkpt>
      <trkpt lat="45.881519308313727" lon="7.992813382297754">
        <ele>1680.04</ele>
        <time>2015-09-19T07:12:12Z</time>
      </trkpt>
      <trkpt lat="45.881476979702711" lon="7.992928298190236">
        <ele>1680.52</ele>
        <time>2015-09-19T07:12:21Z</time>
      </trkpt>
      <trkpt lat="45.881445463746786" lon="7.992987558245659">
        <ele>1680.52</ele>
        <time>2015-09-19T07:12:26Z</time>
      </trkpt>
      <trkpt lat="45.881442110985518" lon="7.993014045059681">
        <ele>1680.52</ele>
        <time>2015-09-19T07:12:28Z</time>
      </trkpt>
      <trkpt lat="45.881418809294701" lon="7.993152597919107">
        <ele>1680.04</ele>
        <time>2015-09-19T07:12:38Z</time>
      </trkpt>
      <trkpt lat="45.881395842880011" lon="7.993278075009584">
        <ele>1680.52</ele>
        <time>2015-09-19T07:12:49Z</time>
      </trkpt>
      <trkpt lat="45.88139190338552" lon="7.993289055302739">
        <ele>1680.52</ele>
        <time>2015-09-19T07:12:50Z</time>
      </trkpt>
      <trkpt lat="45.881388718262315" lon="7.993305148556829">
        <ele>1680.52</ele>
        <time>2015-09-19T07:12:51Z</time>
      </trkpt>
      <trkpt lat="45.881374049931765" lon="7.993441605940461">
        <ele>1680.04</ele>
        <time>2015-09-19T07:13:02Z</time>
      </trkpt>
      <trkpt lat="45.881372876465321" lon="7.993538249284029">
        <ele>1680.04</ele>
        <time>2015-09-19T07:13:12Z</time>
      </trkpt>
      <trkpt lat="45.881383856758475" lon="7.993591809645295">
        <ele>1679.0799999999999</ele>
        <time>2015-09-19T07:13:19Z</time>
      </trkpt>
      <trkpt lat="45.881387377157807" lon="7.993612848222256">
        <ele>1678.5999999999999</ele>
        <time>2015-09-19T07:13:20Z</time>
      </trkpt>
      <trkpt lat="45.881387293338776" lon="7.993629695847631">
        <ele>1678.5999999999999</ele>
        <time>2015-09-19T07:13:21Z</time>
      </trkpt>
      <trkpt lat="45.881389724090695" lon="7.993693733587861">
        <ele>1678.5999999999999</ele>
        <time>2015-09-19T07:13:25Z</time>
      </trkpt>
      <trkpt lat="45.881385449320078" lon="7.993740756064653">
        <ele>1678.1199999999999</ele>
        <time>2015-09-19T07:13:29Z</time>
      </trkpt>
      <trkpt lat="45.881392657756805" lon="7.993756681680679">
        <ele>1677.6400000000001</ele>
        <time>2015-09-19T07:13:30Z</time>
      </trkpt>
      <trkpt lat="45.881400033831596" lon="7.993772523477674">
        <ele>1677.6400000000001</ele>
        <time>2015-09-19T07:13:31Z</time>
      </trkpt>
      <trkpt lat="45.88140606880188" lon="7.993789538741112">
        <ele>1677.6400000000001</ele>
        <time>2015-09-19T07:13:32Z</time>
      </trkpt>
      <trkpt lat="45.881407745182514" lon="7.993806470185518">
        <ele>1677.1600000000001</ele>
        <time>2015-09-19T07:13:33Z</time>
      </trkpt>
      <trkpt lat="45.881404392421246" lon="7.993871178478003">
        <ele>1676.6800000000001</ele>
        <time>2015-09-19T07:13:38Z</time>
      </trkpt>
      <trkpt lat="45.881406655535102" lon="7.993886517360807">
        <ele>1676.6800000000001</ele>
        <time>2015-09-19T07:13:39Z</time>
      </trkpt>
      <trkpt lat="45.881410008296371" lon="7.993901688605547">
        <ele>1676.6800000000001</ele>
        <time>2015-09-19T07:13:40Z</time>
      </trkpt>
      <trkpt lat="45.881415959447622" lon="7.994042672216892">
        <ele>1677.1600000000001</ele>
        <time>2015-09-19T07:13:51Z</time>
      </trkpt>
      <trkpt lat="45.881392573937774" lon="7.994106626138091">
        <ele>1678.5999999999999</ele>
        <time>2015-09-19T07:14:01Z</time>
      </trkpt>
      <trkpt lat="45.881395759060979" lon="7.994131352752447">
        <ele>1678.5999999999999</ele>
        <time>2015-09-19T07:14:03Z</time>
      </trkpt>
      <trkpt lat="45.88139240629971" lon="7.994196815416217">
        <ele>1678.5999999999999</ele>
        <time>2015-09-19T07:14:08Z</time>
      </trkpt>
      <trkpt lat="45.881424508988857" lon="7.99436847679317">
        <ele>1677.1600000000001</ele>
        <time>2015-09-19T07:14:20Z</time>
      </trkpt>
      <trkpt lat="45.881430460140109" lon="7.994526224210858">
        <ele>1676.6800000000001</ele>
        <time>2015-09-19T07:14:32Z</time>
      </trkpt>
      <trkpt lat="45.881438422948122" lon="7.994685983285308">
        <ele>1676.6800000000001</ele>
        <time>2015-09-19T07:14:43Z</time>
      </trkpt>
      <trkpt lat="45.881437417119741" lon="7.994706518948078">
        <ele>1677.1600000000001</ele>
        <time>2015-09-19T07:14:45Z</time>
      </trkpt>
      <trkpt lat="45.881407577544451" lon="7.994858231395483">
        <ele>1679.0799999999999</ele>
        <time>2015-09-19T07:14:59Z</time>
      </trkpt>
      <trkpt lat="45.881383940577507" lon="7.994919503107667">
        <ele>1679.5599999999999</ele>
        <time>2015-09-19T07:15:05Z</time>
      </trkpt>
      <trkpt lat="45.881321243941784" lon="7.995081692934036">
        <ele>1680.04</ele>
        <time>2015-09-19T07:15:16Z</time>
      </trkpt>
      <trkpt lat="45.881288051605225" lon="7.995212618261576">
        <ele>1680.04</ele>
        <time>2015-09-19T07:15:27Z</time>
      </trkpt>
      <trkpt lat="45.881274305284023" lon="7.995299873873591">
        <ele>1681.48</ele>
        <time>2015-09-19T07:15:40Z</time>
      </trkpt>
      <trkpt lat="45.881254775449634" lon="7.995347734540701">
        <ele>1681.96</ele>
        <time>2015-09-19T07:15:44Z</time>
      </trkpt>
      <trkpt lat="45.881161820143461" lon="7.995400121435523">
        <ele>1683.4100000000001</ele>
        <time>2015-09-19T07:15:56Z</time>
      </trkpt>
      <trkpt lat="45.881098201498389" lon="7.995402133092284">
        <ele>1684.8499999999999</ele>
        <time>2015-09-19T07:16:05Z</time>
      </trkpt>
      <trkpt lat="45.881075318902731" lon="7.995376065373421">
        <ele>1685.8099999999999</ele>
        <time>2015-09-19T07:16:14Z</time>
      </trkpt>
      <trkpt lat="45.881067859008908" lon="7.995379082858563">
        <ele>1685.8099999999999</ele>
        <time>2015-09-19T07:16:27Z</time>
      </trkpt>
      <trkpt lat="45.881011197343469" lon="7.995384279638529">
        <ele>1686.29</ele>
        <time>2015-09-19T07:16:43Z</time>
      </trkpt>
      <trkpt lat="45.88099418208003" lon="7.995386961847544">
        <ele>1686.77</ele>
        <time>2015-09-19T07:16:46Z</time>
      </trkpt>
      <trkpt lat="45.880941040813923" lon="7.995429961010814">
        <ele>1688.6900000000001</ele>
        <time>2015-09-19T07:16:56Z</time>
      </trkpt>
      <trkpt lat="45.880931066349149" lon="7.995446054264903">
        <ele>1688.21</ele>
        <time>2015-09-19T07:16:57Z</time>
      </trkpt>
      <trkpt lat="45.880864514037967" lon="7.99553582444787">
        <ele>1689.1700000000001</ele>
        <time>2015-09-19T07:17:08Z</time>
      </trkpt>
      <trkpt lat="45.880801230669022" lon="7.995588043704629">
        <ele>1689.6500000000001</ele>
        <time>2015-09-19T07:17:18Z</time>
      </trkpt>
      <trkpt lat="45.880745742470026" lon="7.995697092264891">
        <ele>1691.0999999999999</ele>
        <time>2015-09-19T07:17:30Z</time>
      </trkpt>
      <trkpt lat="45.880719088017941" lon="7.995732799172401">
        <ele>1692.0599999999999</ele>
        <time>2015-09-19T07:17:36Z</time>
      </trkpt>
      <trkpt lat="45.880693439394236" lon="7.995778229087591">
        <ele>1692.54</ele>
        <time>2015-09-19T07:17:40Z</time>
      </trkpt>
      <trkpt lat="45.880686230957508" lon="7.995791640132666">
        <ele>1692.54</ele>
        <time>2015-09-19T07:17:41Z</time>
      </trkpt>
      <trkpt lat="45.880626384168863" lon="7.995835728943348">
        <ele>1692.54</ele>
        <time>2015-09-19T07:17:51Z</time>
      </trkpt>
      <trkpt lat="45.88057835586369" lon="7.995961122214794">
        <ele>1694.9400000000001</ele>
        <time>2015-09-19T07:18:04Z</time>
      </trkpt>
      <trkpt lat="45.880506690591574" lon="7.996071176603437">
        <ele>1695.4200000000001</ele>
        <time>2015-09-19T07:18:17Z</time>
      </trkpt>
      <trkpt lat="45.880443910136819" lon="7.996154995635152">
        <ele>1695.4200000000001</ele>
        <time>2015-09-19T07:18:26Z</time>
      </trkpt>
      <trkpt lat="45.880361096933484" lon="7.996255327016115">
        <ele>1695.9000000000001</ele>
        <time>2015-09-19T07:18:36Z</time>
      </trkpt>
      <trkpt lat="45.880295131355524" lon="7.996303858235478">
        <ele>1697.3399999999999</ele>
        <time>2015-09-19T07:18:46Z</time>
      </trkpt>
      <trkpt lat="45.880244253203273" lon="7.996283574029803">
        <ele>1698.3099999999999</ele>
        <time>2015-09-19T07:18:57Z</time>
      </trkpt>
      <trkpt lat="45.880144173279405" lon="7.996226493269205">
        <ele>1698.79</ele>
        <time>2015-09-19T07:19:10Z</time>
      </trkpt>
      <trkpt lat="45.880107544362545" lon="7.996180644258857">
        <ele>1701.1900000000001</ele>
        <time>2015-09-19T07:19:19Z</time>
      </trkpt>
      <trkpt lat="45.880064964294434" lon="7.996142338961363">
        <ele>1702.1500000000001</ele>
        <time>2015-09-19T07:19:32Z</time>
      </trkpt>
      <trkpt lat="45.880055576562881" lon="7.996164048090577">
        <ele>1702.6300000000001</ele>
        <time>2015-09-19T07:19:40Z</time>
      </trkpt>
      <trkpt lat="45.880033867433667" lon="7.996167568489909">
        <ele>1702.1500000000001</ele>
        <time>2015-09-19T07:19:43Z</time>
      </trkpt>
      <trkpt lat="45.880028754472733" lon="7.996126916259527">
        <ele>1702.6300000000001</ele>
        <time>2015-09-19T07:19:53Z</time>
      </trkpt>
      <trkpt lat="45.880050547420979" lon="7.99610017798841">
        <ele>1703.1099999999999</ele>
        <time>2015-09-19T07:20:14Z</time>
      </trkpt>
      <trkpt lat="45.880073765292764" lon="7.996093304827809">
        <ele>1703.1099999999999</ele>
        <time>2015-09-19T07:20:38Z</time>
      </trkpt>
      <trkpt lat="45.880057252943516" lon="7.99611191265285">
        <ele>1703.1099999999999</ele>
        <time>2015-09-19T07:21:03Z</time>
      </trkpt>
      <trkpt lat="45.880046188831329" lon="7.996128425002098">
        <ele>1703.1099999999999</ele>
        <time>2015-09-19T07:21:25Z</time>
      </trkpt>
      <trkpt lat="45.880062617361546" lon="7.996129430830479">
        <ele>1703.5899999999999</ele>
        <time>2015-09-19T07:21:51Z</time>
      </trkpt>
      <trkpt lat="45.880054654553533" lon="7.996123060584068">
        <ele>1704.0699999999999</ele>
        <time>2015-09-19T07:22:16Z</time>
      </trkpt>
      <trkpt lat="45.880050798878074" lon="7.996103698387742">
        <ele>1704.0699999999999</ele>
        <time>2015-09-19T07:22:28Z</time>
      </trkpt>
      <trkpt lat="45.8800476975739" lon="7.996104368939996">
        <ele>1704.0699999999999</ele>
        <time>2015-09-19T07:22:48Z</time>
      </trkpt>
      <trkpt lat="45.880052978172898" lon="7.996116187423468">
        <ele>1704.0699999999999</ele>
        <time>2015-09-19T07:23:02Z</time>
      </trkpt>
      <trkpt lat="45.880027916282415" lon="7.99611484631896">
        <ele>1704.0699999999999</ele>
        <time>2015-09-19T07:23:26Z</time>
      </trkpt>
      <trkpt lat="45.880025653168559" lon="7.9961265809834">
        <ele>1704.55</ele>
        <time>2015-09-19T07:23:46Z</time>
      </trkpt>
      <trkpt lat="45.880024144425988" lon="7.996138986200094">
        <ele>1704.55</ele>
        <time>2015-09-19T07:23:59Z</time>
      </trkpt>
      <trkpt lat="45.880068736150861" lon="7.996125239878893">
        <ele>1704.55</ele>
        <time>2015-09-19T07:24:29Z</time>
      </trkpt>
      <trkpt lat="45.880068149417639" lon="7.996126748621464">
        <ele>1704.55</ele>
        <time>2015-09-19T07:24:58Z</time>
      </trkpt>
      <trkpt lat="45.880064461380243" lon="7.996124317869544">
        <ele>1704.55</ele>
        <time>2015-09-19T07:25:16Z</time>
      </trkpt>
      <trkpt lat="45.88005792349577" lon="7.9961197078228">
        <ele>1704.55</ele>
        <time>2015-09-19T07:25:38Z</time>
      </trkpt>
      <trkpt lat="45.88005842640996" lon="7.996120462194085">
        <ele>1704.55</ele>
        <time>2015-09-19T07:26:03Z</time>
      </trkpt>
      <trkpt lat="45.880037806928158" lon="7.996107218787074">
        <ele>1705.04</ele>
        <time>2015-09-19T07:26:27Z</time>
      </trkpt>
      <trkpt lat="45.880062030628324" lon="7.996109984815121">
        <ele>1705.04</ele>
        <time>2015-09-19T07:26:47Z</time>
      </trkpt>
      <trkpt lat="45.880033951252699" lon="7.996111242100596">
        <ele>1705.52</ele>
        <time>2015-09-19T07:27:04Z</time>
      </trkpt>
      <trkpt lat="45.880022384226322" lon="7.996117109432817">
        <ele>1704.55</ele>
        <time>2015-09-19T07:27:22Z</time>
      </trkpt>
      <trkpt lat="45.880011739209294" lon="7.996125658974052">
        <ele>1705.52</ele>
        <time>2015-09-19T07:27:40Z</time>
      </trkpt>
      <trkpt lat="45.880021210759878" lon="7.99612364731729">
        <ele>1705.52</ele>
        <time>2015-09-19T07:27:55Z</time>
      </trkpt>
      <trkpt lat="45.880058510228992" lon="7.996130352839828">
        <ele>1705.04</ele>
        <time>2015-09-19T07:28:16Z</time>
      </trkpt>
      <trkpt lat="45.880085751414299" lon="7.99611727707088">
        <ele>1705.52</ele>
        <time>2015-09-19T07:28:43Z</time>
      </trkpt>
      <trkpt lat="45.880081057548523" lon="7.996118031442165">
        <ele>1706</ele>
        <time>2015-09-19T07:29:05Z</time>
      </trkpt>
      <trkpt lat="45.88006236590445" lon="7.996133621782064">
        <ele>1706</ele>
        <time>2015-09-19T07:29:30Z</time>
      </trkpt>
      <trkpt lat="45.880094300955534" lon="7.996125239878893">
        <ele>1706.48</ele>
        <time>2015-09-19T07:29:56Z</time>
      </trkpt>
      <trkpt lat="45.880074854940176" lon="7.996135549619794">
        <ele>1706.48</ele>
        <time>2015-09-19T07:30:22Z</time>
      </trkpt>
      <trkpt lat="45.880065048113465" lon="7.996145356446505">
        <ele>1706</ele>
        <time>2015-09-19T07:30:24Z</time>
      </trkpt>
      <trkpt lat="45.880059683695436" lon="7.996149798855186">
        <ele>1707.4400000000001</ele>
        <time>2015-09-19T07:30:32Z</time>
      </trkpt>
      <trkpt lat="45.880031771957874" lon="7.996170753613114">
        <ele>1707.4400000000001</ele>
        <time>2015-09-19T07:30:46Z</time>
      </trkpt>
      <trkpt lat="45.880011990666389" lon="7.996126497164369">
        <ele>1707.4400000000001</ele>
        <time>2015-09-19T07:31:03Z</time>
      </trkpt>
      <trkpt lat="45.879988186061382" lon="7.996149715036154">
        <ele>1707.4400000000001</ele>
        <time>2015-09-19T07:31:17Z</time>
      </trkpt>
      <trkpt lat="45.879937475547194" lon="7.99611191265285">
        <ele>1708.8800000000001</ele>
        <time>2015-09-19T07:31:28Z</time>
      </trkpt>
      <trkpt lat="45.879925740882754" lon="7.99606254324317">
        <ele>1710.3199999999999</ele>
        <time>2015-09-19T07:31:38Z</time>
      </trkpt>
      <trkpt lat="45.87991283275187" lon="7.995971599593759">
        <ele>1712.73</ele>
        <time>2015-09-19T07:31:50Z</time>
      </trkpt>
      <trkpt lat="45.879799760878086" lon="7.995933629572392">
        <ele>1713.21</ele>
        <time>2015-09-19T07:32:01Z</time>
      </trkpt>
      <trkpt lat="45.879753408953547" lon="7.995796501636505">
        <ele>1715.6099999999999</ele>
        <time>2015-09-19T07:32:13Z</time>
      </trkpt>
      <trkpt lat="45.879760533571243" lon="7.995739001780748">
        <ele>1717.05</ele>
        <time>2015-09-19T07:32:23Z</time>
      </trkpt>
      <trkpt lat="45.879709906876087" lon="7.995680747553706">
        <ele>1718.97</ele>
        <time>2015-09-19T07:32:34Z</time>
      </trkpt>
      <trkpt lat="45.879648551344872" lon="7.995617799460888">
        <ele>1720.9000000000001</ele>
        <time>2015-09-19T07:32:45Z</time>
      </trkpt>
      <trkpt lat="45.879610078409314" lon="7.995484275743365">
        <ele>1723.3</ele>
        <time>2015-09-19T07:32:59Z</time>
      </trkpt>
      <trkpt lat="45.879616281017661" lon="7.995416047051549">
        <ele>1725.7</ele>
        <time>2015-09-19T07:33:11Z</time>
      </trkpt>
      <trkpt lat="45.879515195265412" lon="7.995418896898627">
        <ele>1726.6700000000001</ele>
        <time>2015-09-19T07:33:22Z</time>
      </trkpt>
      <trkpt lat="45.879395920783281" lon="7.995371036231518">
        <ele>1727.1500000000001</ele>
        <time>2015-09-19T07:33:34Z</time>
      </trkpt>
      <trkpt lat="45.879292236641049" lon="7.995313871651888">
        <ele>1729.55</ele>
        <time>2015-09-19T07:33:49Z</time>
      </trkpt>
      <trkpt lat="45.879193330183625" lon="7.99531253054738">
        <ele>1730.99</ele>
        <time>2015-09-19T07:34:00Z</time>
      </trkpt>
      <trkpt lat="45.879109846428037" lon="7.995271123945713">
        <ele>1731.95</ele>
        <time>2015-09-19T07:34:12Z</time>
      </trkpt>
      <trkpt lat="45.879042036831379" lon="7.995223011821508">
        <ele>1733.8800000000001</ele>
        <time>2015-09-19T07:34:24Z</time>
      </trkpt>
      <trkpt lat="45.878992080688477" lon="7.99516199156642">
        <ele>1734.3599999999999</ele>
        <time>2015-09-19T07:34:33Z</time>
      </trkpt>
      <trkpt lat="45.87895997799933" lon="7.995101725682616">
        <ele>1736.28</ele>
        <time>2015-09-19T07:34:43Z</time>
      </trkpt>
      <trkpt lat="45.878943549469113" lon="7.995084542781115">
        <ele>1738.2</ele>
        <time>2015-09-19T07:34:54Z</time>
      </trkpt>
      <trkpt lat="45.878884037956595" lon="7.995095271617174">
        <ele>1739.1600000000001</ele>
        <time>2015-09-19T07:35:04Z</time>
      </trkpt>
      <trkpt lat="45.87881731800735" lon="7.995044644922018">
        <ele>1741.5699999999999</ele>
        <time>2015-09-19T07:35:15Z</time>
      </trkpt>
      <trkpt lat="45.878735845908523" lon="7.995015727356076">
        <ele>1743.97</ele>
        <time>2015-09-19T07:35:27Z</time>
      </trkpt>
      <trkpt lat="45.878691421821713" lon="7.994925370439887">
        <ele>1746.8499999999999</ele>
        <time>2015-09-19T07:35:40Z</time>
      </trkpt>
      <trkpt lat="45.878641968593001" lon="7.994884718209505">
        <ele>1747.8099999999999</ele>
        <time>2015-09-19T07:35:50Z</time>
      </trkpt>
      <trkpt lat="45.878624115139246" lon="7.994848173111677">
        <ele>1747.8099999999999</ele>
        <time>2015-09-19T07:36:01Z</time>
      </trkpt>
      <trkpt lat="45.878562675788999" lon="7.994850520044565">
        <ele>1751.1800000000001</ele>
        <time>2015-09-19T07:36:12Z</time>
      </trkpt>
      <trkpt lat="45.878469301387668" lon="7.994836019352078">
        <ele>1752.1400000000001</ele>
        <time>2015-09-19T07:36:23Z</time>
      </trkpt>
      <trkpt lat="45.878419177606702" lon="7.99489519558847">
        <ele>1751.1800000000001</ele>
        <time>2015-09-19T07:36:31Z</time>
      </trkpt>
      <trkpt lat="45.878334436565638" lon="7.994880611076951">
        <ele>1752.1400000000001</ele>
        <time>2015-09-19T07:36:41Z</time>
      </trkpt>
      <trkpt lat="45.878272075206041" lon="7.994884131476283">
        <ele>1753.5799999999999</ele>
        <time>2015-09-19T07:36:50Z</time>
      </trkpt>
      <trkpt lat="45.878239218145609" lon="7.994911707937717">
        <ele>1752.6199999999999</ele>
        <time>2015-09-19T07:37:00Z</time>
      </trkpt>
      <trkpt lat="45.878191441297531" lon="7.994946073740721">
        <ele>1752.1400000000001</ele>
        <time>2015-09-19T07:37:06Z</time>
      </trkpt>
      <trkpt lat="45.878116926178336" lon="7.99494800157845">
        <ele>1752.1400000000001</ele>
        <time>2015-09-19T07:37:16Z</time>
      </trkpt>
      <trkpt lat="45.878087589517236" lon="7.994889747351408">
        <ele>1753.0999999999999</ele>
        <time>2015-09-19T07:37:28Z</time>
      </trkpt>
      <trkpt lat="45.878021372482181" lon="7.994861248880625">
        <ele>1754.0599999999999</ele>
        <time>2015-09-19T07:37:40Z</time>
      </trkpt>
      <trkpt lat="45.878011900931597" lon="7.994785644114018">
        <ele>1755.5</ele>
        <time>2015-09-19T07:37:49Z</time>
      </trkpt>
      <trkpt lat="45.878036795184016" lon="7.994709871709347">
        <ele>1757.9100000000001</ele>
        <time>2015-09-19T07:37:59Z</time>
      </trkpt>
      <trkpt lat="45.877998741343617" lon="7.994650527834892">
        <ele>1759.8299999999999</ele>
        <time>2015-09-19T07:38:10Z</time>
      </trkpt>
      <trkpt lat="45.87798667140305" lon="7.994584143161774">
        <ele>1761.75</ele>
        <time>2015-09-19T07:38:22Z</time>
      </trkpt>
      <trkpt lat="45.877924980595708" lon="7.994496216997504">
        <ele>1763.6800000000001</ele>
        <time>2015-09-19T07:38:35Z</time>
      </trkpt>
      <trkpt lat="45.877847447991371" lon="7.994414241984487">
        <ele>1766.0799999999999</ele>
        <time>2015-09-19T07:38:48Z</time>
      </trkpt>
      <trkpt lat="45.877797659486532" lon="7.994376355782151">
        <ele>1767.52</ele>
        <time>2015-09-19T07:38:58Z</time>
      </trkpt>
      <trkpt lat="45.877759605646133" lon="7.994374679401517">
        <ele>1768.96</ele>
        <time>2015-09-19T07:39:07Z</time>
      </trkpt>
      <trkpt lat="45.877729766070843" lon="7.994345426559448">
        <ele>1769.9200000000001</ele>
        <time>2015-09-19T07:39:17Z</time>
      </trkpt>
      <trkpt lat="45.877723563462496" lon="7.994296979159117">
        <ele>1770.4100000000001</ele>
        <time>2015-09-19T07:39:33Z</time>
      </trkpt>
      <trkpt lat="45.877697076648474" lon="7.994285076856613">
        <ele>1772.3299999999999</ele>
        <time>2015-09-19T07:39:45Z</time>
      </trkpt>
      <trkpt lat="45.877690874040127" lon="7.994293542578816">
        <ele>1772.3299999999999</ele>
        <time>2015-09-19T07:39:46Z</time>
      </trkpt>
      <trkpt lat="45.877676121890545" lon="7.994217099621892">
        <ele>1774.25</ele>
        <time>2015-09-19T07:39:55Z</time>
      </trkpt>
      <trkpt lat="45.877682911232114" lon="7.994173094630241">
        <ele>1776.6500000000001</ele>
        <time>2015-09-19T07:40:08Z</time>
      </trkpt>
      <trkpt lat="45.877639492973685" lon="7.994155241176486">
        <ele>1778.0999999999999</ele>
        <time>2015-09-19T07:40:18Z</time>
      </trkpt>
      <trkpt lat="45.87762113660574" lon="7.994160270318389">
        <ele>1778.5799999999999</ele>
        <time>2015-09-19T07:40:21Z</time>
      </trkpt>
      <trkpt lat="45.877553494647145" lon="7.994146943092346">
        <ele>1780.5</ele>
        <time>2015-09-19T07:40:32Z</time>
      </trkpt>
      <trkpt lat="45.877495910972357" lon="7.994179297238588">
        <ele>1781.46</ele>
        <time>2015-09-19T07:40:41Z</time>
      </trkpt>
      <trkpt lat="45.877452157437801" lon="7.994166137650609">
        <ele>1782.9000000000001</ele>
        <time>2015-09-19T07:40:51Z</time>
      </trkpt>
      <trkpt lat="45.877435896545649" lon="7.994095142930746">
        <ele>1785.3099999999999</ele>
        <time>2015-09-19T07:41:02Z</time>
      </trkpt>
      <trkpt lat="45.877416115254164" lon="7.994049042463303">
        <ele>1786.75</ele>
        <time>2015-09-19T07:41:11Z</time>
      </trkpt>
      <trkpt lat="45.877384850755334" lon="7.993971928954125">
        <ele>1788.1900000000001</ele>
        <time>2015-09-19T07:41:22Z</time>
      </trkpt>
      <trkpt lat="45.877374457195401" lon="7.993908561766148">
        <ele>1790.5899999999999</ele>
        <time>2015-09-19T07:41:32Z</time>
      </trkpt>
      <trkpt lat="45.877354508265853" lon="7.993804458528757">
        <ele>1793</ele>
        <time>2015-09-19T07:41:46Z</time>
      </trkpt>
      <trkpt lat="45.877313772216439" lon="7.99382315017283">
        <ele>1793.96</ele>
        <time>2015-09-19T07:41:57Z</time>
      </trkpt>
      <trkpt lat="45.877293320372701" lon="7.993743605911732">
        <ele>1796.3599999999999</ele>
        <time>2015-09-19T07:42:09Z</time>
      </trkpt>
      <trkpt lat="45.87728007696569" lon="7.993684681132436">
        <ele>1797.8</ele>
        <time>2015-09-19T07:42:19Z</time>
      </trkpt>
      <trkpt lat="45.87729424238205" lon="7.993636401370168">
        <ele>1799.73</ele>
        <time>2015-09-19T07:42:30Z</time>
      </trkpt>
      <trkpt lat="45.87725518271327" lon="7.993601448833942">
        <ele>1801.6500000000001</ele>
        <time>2015-09-19T07:42:41Z</time>
      </trkpt>
      <trkpt lat="45.877248980104923" lon="7.993576051667333">
        <ele>1803.0899999999999</ele>
        <time>2015-09-19T07:42:51Z</time>
      </trkpt>
      <trkpt lat="45.877224756404757" lon="7.993533136323094">
        <ele>1804.53</ele>
        <time>2015-09-19T07:43:01Z</time>
      </trkpt>
      <trkpt lat="45.877232132479548" lon="7.993435990065336">
        <ele>1807.4200000000001</ele>
        <time>2015-09-19T07:43:16Z</time>
      </trkpt>
      <trkpt lat="45.877229366451502" lon="7.993395002558827">
        <ele>1809.3399999999999</ele>
        <time>2015-09-19T07:43:27Z</time>
      </trkpt>
      <trkpt lat="45.877185026183724" lon="7.993395086377859">
        <ele>1811.26</ele>
        <time>2015-09-19T07:43:38Z</time>
      </trkpt>
      <trkpt lat="45.877128532156348" lon="7.993370527401567">
        <ele>1813.1800000000001</ele>
        <time>2015-09-19T07:43:49Z</time>
      </trkpt>
      <trkpt lat="45.877131717279553" lon="7.99327690154314">
        <ele>1815.5899999999999</ele>
        <time>2015-09-19T07:44:00Z</time>
      </trkpt>
      <trkpt lat="45.877155857160687" lon="7.993217390030623">
        <ele>1817.51</ele>
        <time>2015-09-19T07:44:12Z</time>
      </trkpt>
      <trkpt lat="45.877105901017785" lon="7.993211522698402">
        <ele>1818.95</ele>
        <time>2015-09-19T07:44:21Z</time>
      </trkpt>
      <trkpt lat="45.877092992886901" lon="7.993131224066019">
        <ele>1820.8699999999999</ele>
        <time>2015-09-19T07:44:32Z</time>
      </trkpt>
      <trkpt lat="45.877033229917288" lon="7.993093840777874">
        <ele>1822.8</ele>
        <time>2015-09-19T07:44:44Z</time>
      </trkpt>
      <trkpt lat="45.876995092257857" lon="7.993004573509097">
        <ele>1825.2</ele>
        <time>2015-09-19T07:44:56Z</time>
      </trkpt>
      <trkpt lat="45.876965587958694" lon="7.992942547425628">
        <ele>1826.6400000000001</ele>
        <time>2015-09-19T07:45:04Z</time>
      </trkpt>
      <trkpt lat="45.87695024907589" lon="7.992895524948835">
        <ele>1827.5999999999999</ele>
        <time>2015-09-19T07:45:15Z</time>
      </trkpt>
      <trkpt lat="45.876957038417459" lon="7.9928835388273">
        <ele>1827.5999999999999</ele>
        <time>2015-09-19T07:45:28Z</time>
      </trkpt>
      <trkpt lat="45.876950416713953" lon="7.992889657616615">
        <ele>1827.5999999999999</ele>
        <time>2015-09-19T07:45:29Z</time>
      </trkpt>
      <trkpt lat="45.876896856352687" lon="7.992913629859686">
        <ele>1828.5599999999999</ele>
        <time>2015-09-19T07:45:38Z</time>
      </trkpt>
      <trkpt lat="45.876879254356027" lon="7.992931064218283">
        <ele>1828.5599999999999</ele>
        <time>2015-09-19T07:45:41Z</time>
      </trkpt>
      <trkpt lat="45.876857042312622" lon="7.992979595437646">
        <ele>1830.49</ele>
        <time>2015-09-19T07:45:51Z</time>
      </trkpt>
      <trkpt lat="45.876857880502939" lon="7.992897536605597">
        <ele>1831.9300000000001</ele>
        <time>2015-09-19T07:46:00Z</time>
      </trkpt>
      <trkpt lat="45.876853186637163" lon="7.992858393117786">
        <ele>1833.3699999999999</ele>
        <time>2015-09-19T07:46:09Z</time>
      </trkpt>
      <trkpt lat="45.876803062856197" lon="7.992878677323461">
        <ele>1833.3699999999999</ele>
        <time>2015-09-19T07:46:27Z</time>
      </trkpt>
      <trkpt lat="45.876803146675229" lon="7.992893848568201">
        <ele>1834.3299999999999</ele>
        <time>2015-09-19T07:46:40Z</time>
      </trkpt>
      <trkpt lat="45.876834411174059" lon="7.9928317386657">
        <ele>1836.26</ele>
        <time>2015-09-19T07:46:50Z</time>
      </trkpt>
      <trkpt lat="45.876831142231822" lon="7.992862835526466">
        <ele>1836.26</ele>
        <time>2015-09-19T07:47:13Z</time>
      </trkpt>
      <trkpt lat="45.876822508871555" lon="7.992781447246671">
        <ele>1837.7</ele>
        <time>2015-09-19T07:47:29Z</time>
      </trkpt>
      <trkpt lat="45.876801386475563" lon="7.992675499990583">
        <ele>1840.5799999999999</ele>
        <time>2015-09-19T07:47:38Z</time>
      </trkpt>
      <trkpt lat="45.876765344291925" lon="7.992606936022639">
        <ele>1842.98</ele>
        <time>2015-09-19T07:47:48Z</time>
      </trkpt>
      <trkpt lat="45.87673575617373" lon="7.992533594369888">
        <ele>1845.3900000000001</ele>
        <time>2015-09-19T07:47:59Z</time>
      </trkpt>
      <trkpt lat="45.876717483624816" lon="7.992505263537169">
        <ele>1846.8299999999999</ele>
        <time>2015-09-19T07:48:03Z</time>
      </trkpt>
      <trkpt lat="45.876680854707956" lon="7.992441225796938">
        <ele>1848.75</ele>
        <time>2015-09-19T07:48:13Z</time>
      </trkpt>
      <trkpt lat="45.876640034839511" lon="7.992405015975237">
        <ele>1851.1600000000001</ele>
        <time>2015-09-19T07:48:22Z</time>
      </trkpt>
      <trkpt lat="45.876584043726325" lon="7.992441477254033">
        <ele>1853.0799999999999</ele>
        <time>2015-09-19T07:48:32Z</time>
      </trkpt>
      <trkpt lat="45.876570800319314" lon="7.992475004866719">
        <ele>1853.0799999999999</ele>
        <time>2015-09-19T07:48:35Z</time>
      </trkpt>
      <trkpt lat="45.8765041641891" lon="7.992469137534499">
        <ele>1855</ele>
        <time>2015-09-19T07:48:45Z</time>
      </trkpt>
      <trkpt lat="45.87646946310997" lon="7.992479195818305">
        <ele>1855.48</ele>
        <time>2015-09-19T07:48:49Z</time>
      </trkpt>
      <trkpt lat="45.876402659341693" lon="7.99251951277256">
        <ele>1857.4000000000001</ele>
        <time>2015-09-19T07:48:59Z</time>
      </trkpt>
      <trkpt lat="45.876342477276921" lon="7.992527643218637">
        <ele>1858.3699999999999</ele>
        <time>2015-09-19T07:49:08Z</time>
      </trkpt>
      <trkpt lat="45.87625689804554" lon="7.992529487237334">
        <ele>1859.8099999999999</ele>
        <time>2015-09-19T07:49:19Z</time>
      </trkpt>
      <trkpt lat="45.87617626413703" lon="7.99255664460361">
        <ele>1863.1700000000001</ele>
        <time>2015-09-19T07:49:32Z</time>
      </trkpt>
      <trkpt lat="45.876102251932025" lon="7.992588914930821">
        <ele>1863.1700000000001</ele>
        <time>2015-09-19T07:49:42Z</time>
      </trkpt>
      <trkpt lat="45.876098312437534" lon="7.992641301825643">
        <ele>1863.6500000000001</ele>
        <time>2015-09-19T07:49:47Z</time>
      </trkpt>
      <trkpt lat="45.876061180606484" lon="7.992687737569213">
        <ele>1863.6500000000001</ele>
        <time>2015-09-19T07:49:53Z</time>
      </trkpt>
      <trkpt lat="45.876041064038873" lon="7.992674326524139">
        <ele>1864.1300000000001</ele>
        <time>2015-09-19T07:49:56Z</time>
      </trkpt>
      <trkpt lat="45.87599890306592" lon="7.992689749225974">
        <ele>1865.0899999999999</ele>
        <time>2015-09-19T07:50:01Z</time>
      </trkpt>
      <trkpt lat="45.875960765406489" lon="7.99263627268374">
        <ele>1866.0599999999999</ele>
        <time>2015-09-19T07:50:10Z</time>
      </trkpt>
      <trkpt lat="45.875904690474272" lon="7.992608780041337">
        <ele>1868.46</ele>
        <time>2015-09-19T07:50:20Z</time>
      </trkpt>
      <trkpt lat="45.875861020758748" lon="7.992531666532159">
        <ele>1869.9000000000001</ele>
        <time>2015-09-19T07:50:30Z</time>
      </trkpt>
      <trkpt lat="45.875807292759418" lon="7.99249118193984">
        <ele>1871.3399999999999</ele>
        <time>2015-09-19T07:50:41Z</time>
      </trkpt>
      <trkpt lat="45.875793294981122" lon="7.992428401485086">
        <ele>1873.27</ele>
        <time>2015-09-19T07:50:50Z</time>
      </trkpt>
      <trkpt lat="45.875767897814512" lon="7.992357239127159">
        <ele>1875.1900000000001</ele>
        <time>2015-09-19T07:51:00Z</time>
      </trkpt>
      <trkpt lat="45.875735711306334" lon="7.992401747033">
        <ele>1877.1099999999999</ele>
        <time>2015-09-19T07:51:12Z</time>
      </trkpt>
      <trkpt lat="45.875692628324032" lon="7.99231817945838">
        <ele>1879.51</ele>
        <time>2015-09-19T07:51:23Z</time>
      </trkpt>
      <trkpt lat="45.875628758221865" lon="7.992336954921484">
        <ele>1880</ele>
        <time>2015-09-19T07:51:34Z</time>
      </trkpt>
      <trkpt lat="45.875586932525039" lon="7.992359083145857">
        <ele>1880.96</ele>
        <time>2015-09-19T07:51:46Z</time>
      </trkpt>
      <trkpt lat="45.875550555065274" lon="7.992354137822986">
        <ele>1881.4400000000001</ele>
        <time>2015-09-19T07:51:56Z</time>
      </trkpt>
      <trkpt lat="45.875515770167112" lon="7.992412811145186">
        <ele>1882.8800000000001</ele>
        <time>2015-09-19T07:52:06Z</time>
      </trkpt>
      <trkpt lat="45.875472351908684" lon="7.992410464212298">
        <ele>1884.3199999999999</ele>
        <time>2015-09-19T07:52:18Z</time>
      </trkpt>
      <trkpt lat="45.875459695234895" lon="7.992448350414634">
        <ele>1885.28</ele>
        <time>2015-09-19T07:52:25Z</time>
      </trkpt>
      <trkpt lat="45.875396328046918" lon="7.992477770894766">
        <ele>1887.21</ele>
        <time>2015-09-19T07:52:36Z</time>
      </trkpt>
      <trkpt lat="45.875339917838573" lon="7.992500402033329">
        <ele>1888.6500000000001</ele>
        <time>2015-09-19T07:52:47Z</time>
      </trkpt>
      <trkpt lat="45.875306725502014" lon="7.992570726200938">
        <ele>1889.6099999999999</ele>
        <time>2015-09-19T07:52:58Z</time>
      </trkpt>
      <trkpt lat="45.875272108241916" lon="7.99260308034718">
        <ele>1890.0899999999999</ele>
        <time>2015-09-19T07:53:07Z</time>
      </trkpt>
      <trkpt lat="45.875228522345424" lon="7.992593860253692">
        <ele>1891.05</ele>
        <time>2015-09-19T07:53:20Z</time>
      </trkpt>
      <trkpt lat="45.875148139894009" lon="7.992641972377896">
        <ele>1892.49</ele>
        <time>2015-09-19T07:53:32Z</time>
      </trkpt>
      <trkpt lat="45.87512232363224" lon="7.99257860518992">
        <ele>1893.9300000000001</ele>
        <time>2015-09-19T07:53:43Z</time>
      </trkpt>
      <trkpt lat="45.875109918415546" lon="7.992486488074064">
        <ele>1896.3399999999999</ele>
        <time>2015-09-19T07:53:55Z</time>
      </trkpt>
      <trkpt lat="45.875093908980489" lon="7.992494869977236">
        <ele>1897.78</ele>
        <time>2015-09-19T07:54:04Z</time>
      </trkpt>
      <trkpt lat="45.875065661966801" lon="7.992514902725816">
        <ele>1898.74</ele>
        <time>2015-09-19T07:54:11Z</time>
      </trkpt>
      <trkpt lat="45.874983351677656" lon="7.992536276578903">
        <ele>1900.6600000000001</ele>
        <time>2015-09-19T07:54:23Z</time>
      </trkpt>
      <trkpt lat="45.874934736639261" lon="7.992562763392925">
        <ele>1902.1099999999999</ele>
        <time>2015-09-19T07:54:32Z</time>
      </trkpt>
      <trkpt lat="45.874881763011217" lon="7.99253418110311">
        <ele>1904.03</ele>
        <time>2015-09-19T07:54:43Z</time>
      </trkpt>
      <trkpt lat="45.8749068249017" lon="7.992476848885417">
        <ele>1904.99</ele>
        <time>2015-09-19T07:54:57Z</time>
      </trkpt>
      <trkpt lat="45.874910261482" lon="7.992445416748524">
        <ele>1905.47</ele>
        <time>2015-09-19T07:55:21Z</time>
      </trkpt>
      <trkpt lat="45.874876566231251" lon="7.992476848885417">
        <ele>1906.9100000000001</ele>
        <time>2015-09-19T07:55:33Z</time>
      </trkpt>
      <trkpt lat="45.874828286468983" lon="7.992523033171892">
        <ele>1907.3900000000001</ele>
        <time>2015-09-19T07:55:43Z</time>
      </trkpt>
      <trkpt lat="45.874762991443276" lon="7.992504676803947">
        <ele>1909.8</ele>
        <time>2015-09-19T07:55:55Z</time>
      </trkpt>
      <trkpt lat="45.874710101634264" lon="7.992494199424982">
        <ele>1911.72</ele>
        <time>2015-09-19T07:56:06Z</time>
      </trkpt>
      <trkpt lat="45.874696942046285" lon="7.992576761171222">
        <ele>1912.6800000000001</ele>
        <time>2015-09-19T07:56:14Z</time>
      </trkpt>
      <trkpt lat="45.874684955924749" lon="7.992652868852019">
        <ele>1913.6400000000001</ele>
        <time>2015-09-19T07:56:22Z</time>
      </trkpt>
      <trkpt lat="45.874608848243952" lon="7.992688743397594">
        <ele>1913.1600000000001</ele>
        <time>2015-09-19T07:56:33Z</time>
      </trkpt>
      <trkpt lat="45.874571548774838" lon="7.992739537730813">
        <ele>1914.1199999999999</ele>
        <time>2015-09-19T07:56:43Z</time>
      </trkpt>
      <trkpt lat="45.874576410278678" lon="7.992760241031647">
        <ele>1915.5599999999999</ele>
        <time>2015-09-19T07:56:54Z</time>
      </trkpt>
      <trkpt lat="45.874579092487693" lon="7.992742387577891">
        <ele>1915.5599999999999</ele>
        <time>2015-09-19T07:57:09Z</time>
      </trkpt>
      <trkpt lat="45.874587306752801" lon="7.992743812501431">
        <ele>1915.5599999999999</ele>
        <time>2015-09-19T07:57:41Z</time>
      </trkpt>
      <trkpt lat="45.874567944556475" lon="7.99276334233582">
        <ele>1915.5599999999999</ele>
        <time>2015-09-19T07:58:13Z</time>
      </trkpt>
      <trkpt lat="45.874577248468995" lon="7.992775579914451">
        <ele>1916.04</ele>
        <time>2015-09-19T07:58:26Z</time>
      </trkpt>
      <trkpt lat="45.87454472668469" lon="7.992824865505099">
        <ele>1917.01</ele>
        <time>2015-09-19T07:58:41Z</time>
      </trkpt>
      <trkpt lat="45.874533327296376" lon="7.992862919345498">
        <ele>1917.49</ele>
        <time>2015-09-19T07:58:44Z</time>
      </trkpt>
      <trkpt lat="45.874478844925761" lon="7.992909522727132">
        <ele>1918.9300000000001</ele>
        <time>2015-09-19T07:58:54Z</time>
      </trkpt>
      <trkpt lat="45.874450597912073" lon="7.992897536605597">
        <ele>1919.8900000000001</ele>
        <time>2015-09-19T07:59:04Z</time>
      </trkpt>
      <trkpt lat="45.874462919309735" lon="7.992827547714114">
        <ele>1920.8499999999999</ele>
        <time>2015-09-19T07:59:16Z</time>
      </trkpt>
      <trkpt lat="45.874472139403224" lon="7.992838025093079">
        <ele>1921.3299999999999</ele>
        <time>2015-09-19T07:59:27Z</time>
      </trkpt>
      <trkpt lat="45.874441042542458" lon="7.992825787514448">
        <ele>1921.3299999999999</ele>
        <time>2015-09-19T07:59:39Z</time>
      </trkpt>
      <trkpt lat="45.874424362555146" lon="7.992873983457685">
        <ele>1922.77</ele>
        <time>2015-09-19T07:59:44Z</time>
      </trkpt>
      <trkpt lat="45.874372478574514" lon="7.99288303591311">
        <ele>1922.77</ele>
        <time>2015-09-19T07:59:55Z</time>
      </trkpt>
      <trkpt lat="45.874378010630608" lon="7.992842635139823">
        <ele>1925.6600000000001</ele>
        <time>2015-09-19T08:00:01Z</time>
      </trkpt>
      <trkpt lat="45.874379351735115" lon="7.992835510522127">
        <ele>1926.1400000000001</ele>
        <time>2015-09-19T08:00:02Z</time>
      </trkpt>
      <trkpt lat="45.874377256259322" lon="7.992754876613617">
        <ele>1928.0599999999999</ele>
        <time>2015-09-19T08:00:12Z</time>
      </trkpt>
      <trkpt lat="45.874344734475017" lon="7.992734676226974">
        <ele>1928.54</ele>
        <time>2015-09-19T08:00:23Z</time>
      </trkpt>
      <trkpt lat="45.874361246824265" lon="7.992787146940827">
        <ele>1929.98</ele>
        <time>2015-09-19T08:00:34Z</time>
      </trkpt>
      <trkpt lat="45.874352110549808" lon="7.992774825543165">
        <ele>1929.98</ele>
        <time>2015-09-19T08:00:42Z</time>
      </trkpt>
      <trkpt lat="45.874329563230276" lon="7.992763090878725">
        <ele>1929.98</ele>
        <time>2015-09-19T08:00:56Z</time>
      </trkpt>
      <trkpt lat="45.874303579330444" lon="7.992760157212615">
        <ele>1931.4300000000001</ele>
        <time>2015-09-19T08:01:05Z</time>
      </trkpt>
      <trkpt lat="45.874281954020262" lon="7.992819333449006">
        <ele>1932.8699999999999</ele>
        <time>2015-09-19T08:01:15Z</time>
      </trkpt>
      <trkpt lat="45.874248007312417" lon="7.992871552705765">
        <ele>1933.8299999999999</ele>
        <time>2015-09-19T08:01:24Z</time>
      </trkpt>
      <trkpt lat="45.874213557690382" lon="7.99295193515718">
        <ele>1934.3099999999999</ele>
        <time>2015-09-19T08:01:33Z</time>
      </trkpt>
      <trkpt lat="45.874185562133789" lon="7.993035670369864">
        <ele>1934.79</ele>
        <time>2015-09-19T08:01:44Z</time>
      </trkpt>
      <trkpt lat="45.874192519113421" lon="7.99305310472846">
        <ele>1934.79</ele>
        <time>2015-09-19T08:01:56Z</time>
      </trkpt>
      <trkpt lat="45.87419779971242" lon="7.993066599592567">
        <ele>1934.79</ele>
        <time>2015-09-19T08:02:10Z</time>
      </trkpt>
      <trkpt lat="45.874197296798229" lon="7.99311806447804">
        <ele>1935.75</ele>
        <time>2015-09-19T08:02:18Z</time>
      </trkpt>
      <trkpt lat="45.874222693964839" lon="7.993155866861343">
        <ele>1935.27</ele>
        <time>2015-09-19T08:02:23Z</time>
      </trkpt>
      <trkpt lat="45.874232668429613" lon="7.993188891559839">
        <ele>1935.27</ele>
        <time>2015-09-19T08:02:26Z</time>
      </trkpt>
      <trkpt lat="45.874260412529111" lon="7.993293916806579">
        <ele>1936.71</ele>
        <time>2015-09-19T08:02:37Z</time>
      </trkpt>
      <trkpt lat="45.87427013553679" lon="7.993410173803568">
        <ele>1939.1199999999999</ele>
        <time>2015-09-19T08:02:50Z</time>
      </trkpt>
      <trkpt lat="45.874262005090714" lon="7.993486365303397">
        <ele>1939.5999999999999</ele>
        <time>2015-09-19T08:02:56Z</time>
      </trkpt>
      <trkpt lat="45.874214898794889" lon="7.99353682436049">
        <ele>1940.0799999999999</ele>
        <time>2015-09-19T08:03:05Z</time>
      </trkpt>
      <trkpt lat="45.874191597104073" lon="7.99357739277184">
        <ele>1941.52</ele>
        <time>2015-09-19T08:03:14Z</time>
      </trkpt>
      <trkpt lat="45.874173576012254" lon="7.993638999760151">
        <ele>1942.48</ele>
        <time>2015-09-19T08:03:25Z</time>
      </trkpt>
      <trkpt lat="45.87415287271142" lon="7.993708485737443">
        <ele>1944.4000000000001</ele>
        <time>2015-09-19T08:03:38Z</time>
      </trkpt>
      <trkpt lat="45.874170558527112" lon="7.993703540414572">
        <ele>1944.4000000000001</ele>
        <time>2015-09-19T08:03:57Z</time>
      </trkpt>
      <trkpt lat="45.874124458059669" lon="7.993753580376506">
        <ele>1945.3599999999999</ele>
        <time>2015-09-19T08:04:06Z</time>
      </trkpt>
      <trkpt lat="45.874058492481709" lon="7.993757100775838">
        <ele>1947.29</ele>
        <time>2015-09-19T08:04:16Z</time>
      </trkpt>
      <trkpt lat="45.87402337230742" lon="7.993807392194867">
        <ele>1947.29</ele>
        <time>2015-09-19T08:04:27Z</time>
      </trkpt>
      <trkpt lat="45.874024881049991" lon="7.99382952041924">
        <ele>1948.73</ele>
        <time>2015-09-19T08:04:35Z</time>
      </trkpt>
      <trkpt lat="45.874019013717771" lon="7.993928929790855">
        <ele>1949.6900000000001</ele>
        <time>2015-09-19T08:04:47Z</time>
      </trkpt>
      <trkpt lat="45.8740209415555" lon="7.993997074663639">
        <ele>1951.1300000000001</ele>
        <time>2015-09-19T08:04:58Z</time>
      </trkpt>
      <trkpt lat="45.873973499983549" lon="7.994082570075989">
        <ele>1952.5699999999999</ele>
        <time>2015-09-19T08:05:10Z</time>
      </trkpt>
      <trkpt lat="45.873945755884051" lon="7.994110314175487">
        <ele>1954.02</ele>
        <time>2015-09-19T08:05:15Z</time>
      </trkpt>
      <trkpt lat="45.87388264015317" lon="7.994175106287003">
        <ele>1954.98</ele>
        <time>2015-09-19T08:05:26Z</time>
      </trkpt>
      <trkpt lat="45.873825056478381" lon="7.99418474547565">
        <ele>1956.9000000000001</ele>
        <time>2015-09-19T08:05:37Z</time>
      </trkpt>
      <trkpt lat="45.873783146962523" lon="7.994222547858954">
        <ele>1959.3</ele>
        <time>2015-09-19T08:05:47Z</time>
      </trkpt>
      <trkpt lat="45.873754061758518" lon="7.994213411584497">
        <ele>1960.27</ele>
        <time>2015-09-19T08:05:56Z</time>
      </trkpt>
      <trkpt lat="45.873737214133143" lon="7.994189606979489">
        <ele>1962.1900000000001</ele>
        <time>2015-09-19T08:06:05Z</time>
      </trkpt>
      <trkpt lat="45.873671667650342" lon="7.994215423241258">
        <ele>1964.5899999999999</ele>
        <time>2015-09-19T08:06:16Z</time>
      </trkpt>
      <trkpt lat="45.87362464517355" lon="7.994229504838586">
        <ele>1966.03</ele>
        <time>2015-09-19T08:06:26Z</time>
      </trkpt>
      <trkpt lat="45.873589692637324" lon="7.994241658598185">
        <ele>1967.48</ele>
        <time>2015-09-19T08:06:35Z</time>
      </trkpt>
      <trkpt lat="45.87354744784534" lon="7.994231851771474">
        <ele>1968.9200000000001</ele>
        <time>2015-09-19T08:06:47Z</time>
      </trkpt>
      <trkpt lat="45.873551219701767" lon="7.994164042174816">
        <ele>1970.8399999999999</ele>
        <time>2015-09-19T08:06:58Z</time>
      </trkpt>
      <trkpt lat="45.873574856668711" lon="7.994087934494019">
        <ele>1972.28</ele>
        <time>2015-09-19T08:07:10Z</time>
      </trkpt>
      <trkpt lat="45.873568570241332" lon="7.994018448516727">
        <ele>1974.2</ele>
        <time>2015-09-19T08:07:22Z</time>
      </trkpt>
      <trkpt lat="45.873590027913451" lon="7.99396438524127">
        <ele>1976.1300000000001</ele>
        <time>2015-09-19T08:07:33Z</time>
      </trkpt>
      <trkpt lat="45.873600589111447" lon="7.993901604786515">
        <ele>1978.05</ele>
        <time>2015-09-19T08:07:45Z</time>
      </trkpt>
      <trkpt lat="45.873589273542166" lon="7.993901185691357">
        <ele>1979.97</ele>
        <time>2015-09-19T08:07:55Z</time>
      </trkpt>
      <trkpt lat="45.873537808656693" lon="7.993929348886013">
        <ele>1981.9000000000001</ele>
        <time>2015-09-19T08:08:05Z</time>
      </trkpt>
      <trkpt lat="45.873479973524809" lon="7.993936138227582">
        <ele>1983.8199999999999</ele>
        <time>2015-09-19T08:08:17Z</time>
      </trkpt>
      <trkpt lat="45.873438315466046" lon="7.993947118520737">
        <ele>1985.74</ele>
        <time>2015-09-19T08:08:29Z</time>
      </trkpt>
      <trkpt lat="45.873391460627317" lon="7.99394921399653">
        <ele>1987.6600000000001</ele>
        <time>2015-09-19T08:08:39Z</time>
      </trkpt>
      <trkpt lat="45.873336140066385" lon="7.993988357484341">
        <ele>1989.5899999999999</ele>
        <time>2015-09-19T08:08:51Z</time>
      </trkpt>
      <trkpt lat="45.873294230550528" lon="7.993982406333089">
        <ele>1991.03</ele>
        <time>2015-09-19T08:09:00Z</time>
      </trkpt>
      <trkpt lat="45.873245615512133" lon="7.993989028036594">
        <ele>1993.4300000000001</ele>
        <time>2015-09-19T08:09:10Z</time>
      </trkpt>
      <trkpt lat="45.873205466195941" lon="7.994023896753788">
        <ele>1994.8699999999999</ele>
        <time>2015-09-19T08:09:20Z</time>
      </trkpt>
      <trkpt lat="45.873165065422654" lon="7.994004534557462">
        <ele>1996.8</ele>
        <time>2015-09-19T08:09:30Z</time>
      </trkpt>
      <trkpt lat="45.873144529759884" lon="7.993973856791854">
        <ele>1997.76</ele>
        <time>2015-09-19T08:09:37Z</time>
      </trkpt>
      <trkpt lat="45.873174453154206" lon="7.993920715525746">
        <ele>1999.6800000000001</ele>
        <time>2015-09-19T08:09:47Z</time>
      </trkpt>
      <trkpt lat="45.873172860592604" lon="7.993831112980843">
        <ele>2002.0799999999999</ele>
        <time>2015-09-19T08:09:59Z</time>
      </trkpt>
      <trkpt lat="45.873180739581585" lon="7.993779899552465">
        <ele>2004.01</ele>
        <time>2015-09-19T08:10:07Z</time>
      </trkpt>
      <trkpt lat="45.873155258595943" lon="7.993704797700048">
        <ele>2005.45</ele>
        <time>2015-09-19T08:10:17Z</time>
      </trkpt>
      <trkpt lat="45.873110583052039" lon="7.99367512576282">
        <ele>2007.8499999999999</ele>
        <time>2015-09-19T08:10:27Z</time>
      </trkpt>
      <trkpt lat="45.873087365180254" lon="7.993634976446629">
        <ele>2008.3299999999999</ele>
        <time>2015-09-19T08:10:42Z</time>
      </trkpt>
      <trkpt lat="45.873092142865062" lon="7.993642268702388">
        <ele>2008.3299999999999</ele>
        <time>2015-09-19T08:11:04Z</time>
      </trkpt>
      <trkpt lat="45.873084599152207" lon="7.993627432733774">
        <ele>2009.29</ele>
        <time>2015-09-19T08:11:22Z</time>
      </trkpt>
      <trkpt lat="45.873031290248036" lon="7.993575632572174">
        <ele>2011.22</ele>
        <time>2015-09-19T08:11:34Z</time>
      </trkpt>
      <trkpt lat="45.873029362410307" lon="7.993619721382856">
        <ele>2013.6199999999999</ele>
        <time>2015-09-19T08:11:46Z</time>
      </trkpt>
      <trkpt lat="45.872987201437354" lon="7.99365945160389">
        <ele>2016.5</ele>
        <time>2015-09-19T08:11:58Z</time>
      </trkpt>
      <trkpt lat="45.87296549230814" lon="7.993733799085021">
        <ele>2018.4300000000001</ele>
        <time>2015-09-19T08:12:10Z</time>
      </trkpt>
      <trkpt lat="45.87290933355689" lon="7.993750981986523">
        <ele>2019.8699999999999</ele>
        <time>2015-09-19T08:12:20Z</time>
      </trkpt>
      <trkpt lat="45.872888881713152" lon="7.993763973936439">
        <ele>2021.3099999999999</ele>
        <time>2015-09-19T08:12:30Z</time>
      </trkpt>
      <trkpt lat="45.872836662456393" lon="7.993768248707056">
        <ele>2022.75</ele>
        <time>2015-09-19T08:12:47Z</time>
      </trkpt>
      <trkpt lat="45.872838590294123" lon="7.993728769943118">
        <ele>2024.6700000000001</ele>
        <time>2015-09-19T08:12:56Z</time>
      </trkpt>
      <trkpt lat="45.872814618051052" lon="7.993725836277008">
        <ele>2025.6400000000001</ele>
        <time>2015-09-19T08:13:05Z</time>
      </trkpt>
      <trkpt lat="45.872809505090117" lon="7.993726339191198">
        <ele>2027.0799999999999</ele>
        <time>2015-09-19T08:13:07Z</time>
      </trkpt>
      <trkpt lat="45.872784024104476" lon="7.993666660040617">
        <ele>2029</ele>
        <time>2015-09-19T08:13:19Z</time>
      </trkpt>
      <trkpt lat="45.872735073789954" lon="7.993674539029598">
        <ele>2030.9200000000001</ele>
        <time>2015-09-19T08:13:29Z</time>
      </trkpt>
      <trkpt lat="45.872718393802643" lon="7.993610501289368">
        <ele>2032.3599999999999</ele>
        <time>2015-09-19T08:13:39Z</time>
      </trkpt>
      <trkpt lat="45.872679501771927" lon="7.993609244003892">
        <ele>2034.29</ele>
        <time>2015-09-19T08:13:50Z</time>
      </trkpt>
      <trkpt lat="45.872668521478772" lon="7.99368342384696">
        <ele>2036.21</ele>
        <time>2015-09-19T08:14:00Z</time>
      </trkpt>
      <trkpt lat="45.872646057978272" lon="7.993708653375506">
        <ele>2037.1700000000001</ele>
        <time>2015-09-19T08:14:03Z</time>
      </trkpt>
      <trkpt lat="45.872570956125855" lon="7.993770679458976">
        <ele>2038.1300000000001</ele>
        <time>2015-09-19T08:14:15Z</time>
      </trkpt>
      <trkpt lat="45.872536087408662" lon="7.993789119645953">
        <ele>2040.54</ele>
        <time>2015-09-19T08:14:28Z</time>
      </trkpt>
      <trkpt lat="45.872488478198647" lon="7.993848547339439">
        <ele>2042.46</ele>
        <time>2015-09-19T08:14:38Z</time>
      </trkpt>
      <trkpt lat="45.872439946979284" lon="7.993828933686018">
        <ele>2044.8599999999999</ele>
        <time>2015-09-19T08:14:50Z</time>
      </trkpt>
      <trkpt lat="45.872401893138885" lon="7.993788532912731">
        <ele>2045.8199999999999</ele>
        <time>2015-09-19T08:15:00Z</time>
      </trkpt>
      <trkpt lat="45.872369538992643" lon="7.99382365308702">
        <ele>2047.75</ele>
        <time>2015-09-19T08:15:11Z</time>
      </trkpt>
      <trkpt lat="45.872328719124198" lon="7.993827508762479">
        <ele>2050.1500000000001</ele>
        <time>2015-09-19T08:15:22Z</time>
      </trkpt>
      <trkpt lat="45.872260658070445" lon="7.993813930079341">
        <ele>2052.0700000000002</ele>
        <time>2015-09-19T08:15:35Z</time>
      </trkpt>
      <trkpt lat="45.872250599786639" lon="7.993730697780848">
        <ele>2053.9899999999998</ele>
        <time>2015-09-19T08:15:47Z</time>
      </trkpt>
      <trkpt lat="45.872226962819695" lon="7.993672024458647">
        <ele>2055.9200000000001</ele>
        <time>2015-09-19T08:15:58Z</time>
      </trkpt>
      <trkpt lat="45.872246576473117" lon="7.993632629513741">
        <ele>2056.8800000000001</ele>
        <time>2015-09-19T08:16:07Z</time>
      </trkpt>
      <trkpt lat="45.87225697003305" lon="7.993544787168503">
        <ele>2059.2800000000002</ele>
        <time>2015-09-19T08:16:18Z</time>
      </trkpt>
      <trkpt lat="45.872288150712848" lon="7.993421154096723">
        <ele>2059.7600000000002</ele>
        <time>2015-09-19T08:16:29Z</time>
      </trkpt>
      <trkpt lat="45.872264429926872" lon="7.993291234597564">
        <ele>2062.1700000000001</ele>
        <time>2015-09-19T08:16:41Z</time>
      </trkpt>
      <trkpt lat="45.872252946719527" lon="7.99321630038321">
        <ele>2064.0900000000001</ele>
        <time>2015-09-19T08:16:53Z</time>
      </trkpt>
      <trkpt lat="45.872273733839393" lon="7.993161734193564">
        <ele>2066.0100000000002</ele>
        <time>2015-09-19T08:17:06Z</time>
      </trkpt>
      <trkpt lat="45.872297622263432" lon="7.993117142468691">
        <ele>2067.9299999999998</ele>
        <time>2015-09-19T08:17:18Z</time>
      </trkpt>
      <trkpt lat="45.872297119349241" lon="7.993086548522115">
        <ele>2068.8899999999999</ele>
        <time>2015-09-19T08:17:32Z</time>
      </trkpt>
      <trkpt lat="45.872300555929542" lon="7.993053188547492">
        <ele>2068.8899999999999</ele>
        <time>2015-09-19T08:17:48Z</time>
      </trkpt>
      <trkpt lat="45.872293598949909" lon="7.992996862158179">
        <ele>2070.3400000000001</ele>
        <time>2015-09-19T08:17:57Z</time>
      </trkpt>
      <trkpt lat="45.872315056622028" lon="7.992927962914109">
        <ele>2072.2600000000002</ele>
        <time>2015-09-19T08:18:08Z</time>
      </trkpt>
      <trkpt lat="45.872298963367939" lon="7.992868535220623">
        <ele>2073.6999999999998</ele>
        <time>2015-09-19T08:18:19Z</time>
      </trkpt>
      <trkpt lat="45.87228287011385" lon="7.992796367034316">
        <ele>2076.0999999999999</ele>
        <time>2015-09-19T08:18:31Z</time>
      </trkpt>
      <trkpt lat="45.87232444435358" lon="7.992709279060364">
        <ele>2077.5500000000002</ele>
        <time>2015-09-19T08:18:42Z</time>
      </trkpt>
      <trkpt lat="45.872306004166603" lon="7.99264851026237">
        <ele>2079.4699999999998</ele>
        <time>2015-09-19T08:18:53Z</time>
      </trkpt>
      <trkpt lat="45.872301394119859" lon="7.992589250206947">
        <ele>2080.9099999999999</ele>
        <time>2015-09-19T08:19:04Z</time>
      </trkpt>
      <trkpt lat="45.872315391898155" lon="7.992507694289088">
        <ele>2082.3499999999999</ele>
        <time>2015-09-19T08:19:14Z</time>
      </trkpt>
      <trkpt lat="45.872276751324534" lon="7.99247114919126">
        <ele>2084.2800000000002</ele>
        <time>2015-09-19T08:19:25Z</time>
      </trkpt>
      <trkpt lat="45.872240206226707" lon="7.99250434152782">
        <ele>2086.1999999999998</ele>
        <time>2015-09-19T08:19:36Z</time>
      </trkpt>
      <trkpt lat="45.872202068567276" lon="7.992545245215297">
        <ele>2087.6399999999999</ele>
        <time>2015-09-19T08:19:45Z</time>
      </trkpt>
      <trkpt lat="45.872164936736226" lon="7.992527894675732">
        <ele>2089.5599999999999</ele>
        <time>2015-09-19T08:19:54Z</time>
      </trkpt>
      <trkpt lat="45.872124955058098" lon="7.992505850270391">
        <ele>2091</ele>
        <time>2015-09-19T08:20:05Z</time>
      </trkpt>
      <trkpt lat="45.872082123532891" lon="7.992510879412293">
        <ele>2092.9299999999998</ele>
        <time>2015-09-19T08:20:14Z</time>
      </trkpt>
      <trkpt lat="45.872056474909186" lon="7.992498893290758">
        <ele>2093.8899999999999</ele>
        <time>2015-09-19T08:20:24Z</time>
      </trkpt>
      <trkpt lat="45.872047673910856" lon="7.99247894436121">
        <ele>2094.3699999999999</ele>
        <time>2015-09-19T08:20:36Z</time>
      </trkpt>
      <trkpt lat="45.872039962559938" lon="7.992470311000943">
        <ele>2094.3699999999999</ele>
        <time>2015-09-19T08:20:54Z</time>
      </trkpt>
      <trkpt lat="45.872057061642408" lon="7.992493193596602">
        <ele>2094.3699999999999</ele>
        <time>2015-09-19T08:21:00Z</time>
      </trkpt>
      <trkpt lat="45.872061420232058" lon="7.992514315992594">
        <ele>2094.3699999999999</ele>
        <time>2015-09-19T08:21:11Z</time>
      </trkpt>
      <trkpt lat="45.872051948681474" lon="7.99244474619627">
        <ele>2095.8099999999999</ele>
        <time>2015-09-19T08:21:19Z</time>
      </trkpt>
      <trkpt lat="45.872052032500505" lon="7.992479866370559">
        <ele>2095.8099999999999</ele>
        <time>2015-09-19T08:21:29Z</time>
      </trkpt>
      <trkpt lat="45.872048260644078" lon="7.992484141141176">
        <ele>2095.8099999999999</ele>
        <time>2015-09-19T08:21:39Z</time>
      </trkpt>
      <trkpt lat="45.872053289785981" lon="7.992485146969557">
        <ele>2095.3299999999999</ele>
        <time>2015-09-19T08:21:50Z</time>
      </trkpt>
      <trkpt lat="45.87206301279366" lon="7.992471819743514">
        <ele>2095.3299999999999</ele>
        <time>2015-09-19T08:22:16Z</time>
      </trkpt>
      <trkpt lat="45.872047590091825" lon="7.992474669590592">
        <ele>2095.3299999999999</ele>
        <time>2015-09-19T08:22:33Z</time>
      </trkpt>
      <trkpt lat="45.872038202360272" lon="7.992478022351861">
        <ele>2095.3299999999999</ele>
        <time>2015-09-19T08:22:50Z</time>
      </trkpt>
      <trkpt lat="45.872035603970289" lon="7.992483135312796">
        <ele>2095.8099999999999</ele>
        <time>2015-09-19T08:23:03Z</time>
      </trkpt>
      <trkpt lat="45.872043315321207" lon="7.992471819743514">
        <ele>2095.8099999999999</ele>
        <time>2015-09-19T08:23:24Z</time>
      </trkpt>
      <trkpt lat="45.872011044993997" lon="7.992506939917803">
        <ele>2095.3299999999999</ele>
        <time>2015-09-19T08:23:34Z</time>
      </trkpt>
      <trkpt lat="45.871992856264114" lon="7.992435023188591">
        <ele>2096.77</ele>
        <time>2015-09-19T08:23:44Z</time>
      </trkpt>
      <trkpt lat="45.871988832950592" lon="7.992408452555537">
        <ele>2098.6999999999998</ele>
        <time>2015-09-19T08:23:54Z</time>
      </trkpt>
      <trkpt lat="45.871930746361613" lon="7.9924051836133">
        <ele>2100.6199999999999</ele>
        <time>2015-09-19T08:24:05Z</time>
      </trkpt>
      <trkpt lat="45.871904930099845" lon="7.992297811433673">
        <ele>2102.54</ele>
        <time>2015-09-19T08:24:17Z</time>
      </trkpt>
      <trkpt lat="45.871920017525554" lon="7.992173172533512">
        <ele>2103.98</ele>
        <time>2015-09-19T08:24:28Z</time>
      </trkpt>
      <trkpt lat="45.871911635622382" lon="7.992113325744867">
        <ele>2105.4200000000001</ele>
        <time>2015-09-19T08:24:35Z</time>
      </trkpt>
      <trkpt lat="45.871924208477139" lon="7.992015173658729">
        <ele>2106.8699999999999</ele>
        <time>2015-09-19T08:24:47Z</time>
      </trkpt>
      <trkpt lat="45.871930243447423" lon="7.991919619962573">
        <ele>2107.8299999999999</ele>
        <time>2015-09-19T08:24:59Z</time>
      </trkpt>
      <trkpt lat="45.871926052495837" lon="7.991895982995629">
        <ele>2109.27</ele>
        <time>2015-09-19T08:25:01Z</time>
      </trkpt>
      <trkpt lat="45.871924040839076" lon="7.9918491281569">
        <ele>2109.75</ele>
        <time>2015-09-19T08:25:11Z</time>
      </trkpt>
      <trkpt lat="45.871930243447423" lon="7.991814678534865">
        <ele>2108.79</ele>
        <time>2015-09-19T08:25:19Z</time>
      </trkpt>
      <trkpt lat="45.871914988383651" lon="7.991726333275437">
        <ele>2109.27</ele>
        <time>2015-09-19T08:25:29Z</time>
      </trkpt>
      <trkpt lat="45.871893698349595" lon="7.991679981350899">
        <ele>2110.71</ele>
        <time>2015-09-19T08:25:39Z</time>
      </trkpt>
      <trkpt lat="45.871899146586657" lon="7.991628851741552">
        <ele>2111.6700000000001</ele>
        <time>2015-09-19T08:25:49Z</time>
      </trkpt>
      <trkpt lat="45.871915156021714" lon="7.991539500653744">
        <ele>2113.1199999999999</ele>
        <time>2015-09-19T08:25:59Z</time>
      </trkpt>
      <trkpt lat="45.871919430792332" lon="7.991482838988304">
        <ele>2113.5999999999999</ele>
        <time>2015-09-19T08:26:07Z</time>
      </trkpt>
      <trkpt lat="45.87192814797163" lon="7.991413353011012">
        <ele>2115.52</ele>
        <time>2015-09-19T08:26:17Z</time>
      </trkpt>
      <trkpt lat="45.871934685856104" lon="7.991355685517192">
        <ele>2116.48</ele>
        <time>2015-09-19T08:26:25Z</time>
      </trkpt>
      <trkpt lat="45.871938709169626" lon="7.991278655827045">
        <ele>2117.9200000000001</ele>
        <time>2015-09-19T08:26:34Z</time>
      </trkpt>
      <trkpt lat="45.871966453269124" lon="7.991170277819037">
        <ele>2119.3600000000001</ele>
        <time>2015-09-19T08:26:46Z</time>
      </trkpt>
      <trkpt lat="45.87198531255126" lon="7.991083608940244">
        <ele>2120.3200000000002</ele>
        <time>2015-09-19T08:26:54Z</time>
      </trkpt>
      <trkpt lat="45.872032167389989" lon="7.990938685834408">
        <ele>2120.3200000000002</ele>
        <time>2015-09-19T08:27:06Z</time>
      </trkpt>
      <trkpt lat="45.872068712487817" lon="7.990852352231741">
        <ele>2120.3200000000002</ele>
        <time>2015-09-19T08:27:17Z</time>
      </trkpt>
      <trkpt lat="45.872106850147247" lon="7.990770041942596">
        <ele>2119.8400000000001</ele>
        <time>2015-09-19T08:27:28Z</time>
      </trkpt>
      <trkpt lat="45.87210844270885" lon="7.990714218467474">
        <ele>2121.29</ele>
        <time>2015-09-19T08:27:34Z</time>
      </trkpt>
      <trkpt lat="45.872124871239066" lon="7.990617575123906">
        <ele>2122.73</ele>
        <time>2015-09-19T08:27:44Z</time>
      </trkpt>
      <trkpt lat="45.872134091332555" lon="7.990521267056465">
        <ele>2124.1700000000001</ele>
        <time>2015-09-19T08:27:56Z</time>
      </trkpt>
      <trkpt lat="45.872138952836394" lon="7.990429736673832">
        <ele>2125.6100000000001</ele>
        <time>2015-09-19T08:28:07Z</time>
      </trkpt>
      <trkpt lat="45.872157979756594" lon="7.9903744161129">
        <ele>2126.5700000000002</ele>
        <time>2015-09-19T08:28:15Z</time>
      </trkpt>
      <trkpt lat="45.872161332517862" lon="7.990315994247794">
        <ele>2128.5</ele>
        <time>2015-09-19T08:28:26Z</time>
      </trkpt>
      <trkpt lat="45.872158231213689" lon="7.990243071690202">
        <ele>2129.46</ele>
        <time>2015-09-19T08:28:37Z</time>
      </trkpt>
      <trkpt lat="45.872170887887478" lon="7.990186493843794">
        <ele>2130.9000000000001</ele>
        <time>2015-09-19T08:28:46Z</time>
      </trkpt>
      <trkpt lat="45.872180024161935" lon="7.990106781944633">
        <ele>2132.3400000000001</ele>
        <time>2015-09-19T08:28:56Z</time>
      </trkpt>
      <trkpt lat="45.872172815725207" lon="7.990076942369342">
        <ele>2133.7800000000002</ele>
        <time>2015-09-19T08:29:04Z</time>
      </trkpt>
      <trkpt lat="45.872153956443071" lon="7.990061100572348">
        <ele>2134.7399999999998</ele>
        <time>2015-09-19T08:29:13Z</time>
      </trkpt>
      <trkpt lat="45.872146831825376" lon="7.990010725334287">
        <ele>2136.1900000000001</ele>
        <time>2015-09-19T08:29:23Z</time>
      </trkpt>
      <trkpt lat="45.872127050533891" lon="7.990007204934955">
        <ele>2137.6300000000001</ele>
        <time>2015-09-19T08:29:32Z</time>
      </trkpt>
      <trkpt lat="45.872067790478468" lon="7.989992704242468">
        <ele>2138.5900000000001</ele>
        <time>2015-09-19T08:29:41Z</time>
      </trkpt>
      <trkpt lat="45.872046500444412" lon="7.989949453622103">
        <ele>2140.0300000000002</ele>
        <time>2015-09-19T08:29:51Z</time>
      </trkpt>
      <trkpt lat="45.872058486565948" lon="7.989926487207413">
        <ele>2140.5100000000002</ele>
        <time>2015-09-19T08:30:00Z</time>
      </trkpt>
      <trkpt lat="45.872036274522543" lon="7.989963702857494">
        <ele>2141.4699999999998</ele>
        <time>2015-09-19T08:30:12Z</time>
      </trkpt>
      <trkpt lat="45.872006351128221" lon="7.990018604323268">
        <ele>2142.9200000000001</ele>
        <time>2015-09-19T08:30:22Z</time>
      </trkpt>
      <trkpt lat="45.87196578271687" lon="7.990022879093885">
        <ele>2143.8800000000001</ele>
        <time>2015-09-19T08:30:32Z</time>
      </trkpt>
      <trkpt lat="45.871964106336236" lon="7.990020029246807">
        <ele>2144.8400000000001</ele>
        <time>2015-09-19T08:30:44Z</time>
      </trkpt>
      <trkpt lat="45.871943989768624" lon="7.990025142207742">
        <ele>2145.3200000000002</ele>
        <time>2015-09-19T08:31:04Z</time>
      </trkpt>
      <trkpt lat="45.871946839615703" lon="7.989938221871853">
        <ele>2147.2399999999998</ele>
        <time>2015-09-19T08:31:15Z</time>
      </trkpt>
      <trkpt lat="45.871931165456772" lon="7.989924727007747">
        <ele>2148.6799999999998</ele>
        <time>2015-09-19T08:31:24Z</time>
      </trkpt>
      <trkpt lat="45.87191398255527" lon="7.989870915189385">
        <ele>2151.0900000000001</ele>
        <time>2015-09-19T08:31:36Z</time>
      </trkpt>
      <trkpt lat="45.871923202648759" lon="7.989782402291894">
        <ele>2152.5300000000002</ele>
        <time>2015-09-19T08:31:47Z</time>
      </trkpt>
      <trkpt lat="45.87193937972188" lon="7.989706881344318">
        <ele>2154.4499999999998</ele>
        <time>2015-09-19T08:31:57Z</time>
      </trkpt>
      <trkpt lat="45.872002663090825" lon="7.989673940464854">
        <ele>2154.4499999999998</ele>
        <time>2015-09-19T08:32:07Z</time>
      </trkpt>
      <trkpt lat="45.872047757729888" lon="7.989633958786726">
        <ele>2154.4499999999998</ele>
        <time>2015-09-19T08:32:14Z</time>
      </trkpt>
      <trkpt lat="45.872070137411356" lon="7.989612249657512">
        <ele>2154.4499999999998</ele>
        <time>2015-09-19T08:32:17Z</time>
      </trkpt>
      <trkpt lat="45.872133672237396" lon="7.989519042894244">
        <ele>2153.4899999999998</ele>
        <time>2015-09-19T08:32:28Z</time>
      </trkpt>
      <trkpt lat="45.872193435207009" lon="7.989467326551676">
        <ele>2153.9699999999998</ele>
        <time>2015-09-19T08:32:37Z</time>
      </trkpt>
      <trkpt lat="45.87224330753088" lon="7.989396583288908">
        <ele>2153.9699999999998</ele>
        <time>2015-09-19T08:32:45Z</time>
      </trkpt>
      <trkpt lat="45.87228094227612" lon="7.989321984350681">
        <ele>2153.4899999999998</ele>
        <time>2015-09-19T08:32:54Z</time>
      </trkpt>
      <trkpt lat="45.872278595343232" lon="7.989298766478896">
        <ele>2153.0100000000002</ele>
        <time>2015-09-19T08:33:01Z</time>
      </trkpt>
      <trkpt lat="45.872305417433381" lon="7.989183347672224">
        <ele>2153.4899999999998</ele>
        <time>2015-09-19T08:33:08Z</time>
      </trkpt>
      <trkpt lat="45.872405497357249" lon="7.989118807017803">
        <ele>2153.4899999999998</ele>
        <time>2015-09-19T08:33:19Z</time>
      </trkpt>
      <trkpt lat="45.872487472370267" lon="7.98906248062849">
        <ele>2154.9299999999998</ele>
        <time>2015-09-19T08:33:29Z</time>
      </trkpt>
      <trkpt lat="45.872506499290466" lon="7.98905267380178">
        <ele>2154.9299999999998</ele>
        <time>2015-09-19T08:33:31Z</time>
      </trkpt>
      <trkpt lat="45.872550588101149" lon="7.988923843950033">
        <ele>2155.8899999999999</ele>
        <time>2015-09-19T08:33:43Z</time>
      </trkpt>
      <trkpt lat="45.872566010802984" lon="7.988901548087597">
        <ele>2155.4099999999999</ele>
        <time>2015-09-19T08:33:47Z</time>
      </trkpt>
      <trkpt lat="45.872590402141213" lon="7.98881228081882">
        <ele>2155.4099999999999</ele>
        <time>2015-09-19T08:33:56Z</time>
      </trkpt>
      <trkpt lat="45.872609009966254" lon="7.988762157037854">
        <ele>2156.3699999999999</ele>
        <time>2015-09-19T08:34:03Z</time>
      </trkpt>
      <trkpt lat="45.872657205909491" lon="7.988772969692946">
        <ele>2156.8600000000001</ele>
        <time>2015-09-19T08:34:13Z</time>
      </trkpt>
      <trkpt lat="45.872694924473763" lon="7.988754864782095">
        <ele>2157.8200000000002</ele>
        <time>2015-09-19T08:34:21Z</time>
      </trkpt>
      <trkpt lat="45.872724764049053" lon="7.98877120949328">
        <ele>2159.2600000000002</ele>
        <time>2015-09-19T08:34:29Z</time>
      </trkpt>
      <trkpt lat="45.872739348560572" lon="7.988816387951374">
        <ele>2160.2199999999998</ele>
        <time>2015-09-19T08:34:36Z</time>
      </trkpt>
      <trkpt lat="45.872803386300802" lon="7.988887801766396">
        <ele>2160.6999999999998</ele>
        <time>2015-09-19T08:34:46Z</time>
      </trkpt>
      <trkpt lat="45.872810510918498" lon="7.988892830908299">
        <ele>2161.1799999999998</ele>
        <time>2015-09-19T08:34:56Z</time>
      </trkpt>
      <trkpt lat="45.872816294431686" lon="7.988900793716312">
        <ele>2160.2199999999998</ele>
        <time>2015-09-19T08:35:04Z</time>
      </trkpt>
      <trkpt lat="45.872800284996629" lon="7.988902637735009">
        <ele>2160.2199999999998</ele>
        <time>2015-09-19T08:35:32Z</time>
      </trkpt>
      <trkpt lat="45.872806739062071" lon="7.988912528380752">
        <ele>2160.2199999999998</ele>
        <time>2015-09-19T08:36:02Z</time>
      </trkpt>
      <trkpt lat="45.872809002175927" lon="7.98887288197875">
        <ele>2159.7399999999998</ele>
        <time>2015-09-19T08:36:25Z</time>
      </trkpt>
      <trkpt lat="45.872812019661069" lon="7.988914456218481">
        <ele>2160.2199999999998</ele>
        <time>2015-09-19T08:36:54Z</time>
      </trkpt>
      <trkpt lat="45.872803470119834" lon="7.988891992717981">
        <ele>2159.7399999999998</ele>
        <time>2015-09-19T08:37:21Z</time>
      </trkpt>
      <trkpt lat="45.872810930013657" lon="7.98887824639678">
        <ele>2160.2199999999998</ele>
        <time>2015-09-19T08:37:25Z</time>
      </trkpt>
      <trkpt lat="45.872812606394291" lon="7.988861063495278">
        <ele>2160.6999999999998</ele>
        <time>2015-09-19T08:37:27Z</time>
      </trkpt>
      <trkpt lat="45.872876895591617" lon="7.988912612199783">
        <ele>2163.0999999999999</ele>
        <time>2015-09-19T08:37:36Z</time>
      </trkpt>
      <trkpt lat="45.872899191454053" lon="7.98891487531364">
        <ele>2162.1399999999999</ele>
        <time>2015-09-19T08:37:39Z</time>
      </trkpt>
      <trkpt lat="45.872948812320828" lon="7.988950498402119">
        <ele>2161.6599999999999</ele>
        <time>2015-09-19T08:37:46Z</time>
      </trkpt>
      <trkpt lat="45.873022992163897" lon="7.989012775942683">
        <ele>2161.6599999999999</ele>
        <time>2015-09-19T08:37:58Z</time>
      </trkpt>
      <trkpt lat="45.87301972322166" lon="7.98899358138442">
        <ele>2162.1399999999999</ele>
        <time>2015-09-19T08:38:09Z</time>
      </trkpt>
      <trkpt lat="45.873011676594615" lon="7.989000119268894">
        <ele>2162.1399999999999</ele>
        <time>2015-09-19T08:38:18Z</time>
      </trkpt>
      <trkpt lat="45.873016035184264" lon="7.98900481313467">
        <ele>2163.5799999999999</ele>
        <time>2015-09-19T08:38:29Z</time>
      </trkpt>
      <trkpt lat="45.873024249449372" lon="7.988975141197443">
        <ele>2162.6199999999999</ele>
        <time>2015-09-19T08:38:51Z</time>
      </trkpt>
      <trkpt lat="45.873005306348205" lon="7.988965585827828">
        <ele>2162.6199999999999</ele>
        <time>2015-09-19T08:39:00Z</time>
      </trkpt>
      <trkpt lat="45.872962642461061" lon="7.988879587501288">
        <ele>2163.0999999999999</ele>
        <time>2015-09-19T08:39:10Z</time>
      </trkpt>
      <trkpt lat="45.872932467609644" lon="7.988863242790103">
        <ele>2164.0599999999999</ele>
        <time>2015-09-19T08:39:15Z</time>
      </trkpt>
      <trkpt lat="45.872862730175257" lon="7.988818231970072">
        <ele>2165.5100000000002</ele>
        <time>2015-09-19T08:39:24Z</time>
      </trkpt>
      <trkpt lat="45.872841691598296" lon="7.98879174515605">
        <ele>2166.4699999999998</ele>
        <time>2015-09-19T08:39:35Z</time>
      </trkpt>
      <trkpt lat="45.872838422656059" lon="7.988757798448205">
        <ele>2166.4699999999998</ele>
        <time>2015-09-19T08:39:45Z</time>
      </trkpt>
      <trkpt lat="45.872807744890451" lon="7.988729551434517">
        <ele>2167.4299999999998</ele>
        <time>2015-09-19T08:39:57Z</time>
      </trkpt>
      <trkpt lat="45.872792908921838" lon="7.98871798440814">
        <ele>2166.9499999999998</ele>
        <time>2015-09-19T08:39:59Z</time>
      </trkpt>
      <trkpt lat="45.872773630544543" lon="7.98869744874537">
        <ele>2166.9499999999998</ele>
        <time>2015-09-19T08:40:02Z</time>
      </trkpt>
      <trkpt lat="45.872744880616665" lon="7.988656964153051">
        <ele>2166.4699999999998</ele>
        <time>2015-09-19T08:40:08Z</time>
      </trkpt>
      <trkpt lat="45.872740773484111" lon="7.988629974424839">
        <ele>2167.4299999999998</ele>
        <time>2015-09-19T08:40:20Z</time>
      </trkpt>
      <trkpt lat="45.872719399631023" lon="7.988589908927679">
        <ele>2166.9499999999998</ele>
        <time>2015-09-19T08:40:32Z</time>
      </trkpt>
      <trkpt lat="45.872716046869755" lon="7.988583790138364">
        <ele>2166.9499999999998</ele>
        <time>2015-09-19T08:40:33Z</time>
      </trkpt>
      <trkpt lat="45.872682770714164" lon="7.988568115979433">
        <ele>2166.9499999999998</ele>
        <time>2015-09-19T08:40:41Z</time>
      </trkpt>
      <trkpt lat="45.872663576155901" lon="7.988540036603808">
        <ele>2165.0300000000002</ele>
        <time>2015-09-19T08:40:53Z</time>
      </trkpt>
      <trkpt lat="45.872622421011329" lon="7.98853081651032">
        <ele>2166.9499999999998</ele>
        <time>2015-09-19T08:41:02Z</time>
      </trkpt>
      <trkpt lat="45.872577326372266" lon="7.988507347181439">
        <ele>2169.8299999999999</ele>
        <time>2015-09-19T08:41:11Z</time>
      </trkpt>
      <trkpt lat="45.872581349685788" lon="7.988501479849219">
        <ele>2169.3499999999999</ele>
        <time>2015-09-19T08:41:23Z</time>
      </trkpt>
      <trkpt lat="45.872575901448727" lon="7.988502150401473">
        <ele>2170.3099999999999</ele>
        <time>2015-09-19T08:41:24Z</time>
      </trkpt>
      <trkpt lat="45.872552180662751" lon="7.988435262814164">
        <ele>2171.7600000000002</ele>
        <time>2015-09-19T08:41:34Z</time>
      </trkpt>
      <trkpt lat="45.872542876750231" lon="7.988370889797807">
        <ele>2174.1599999999999</ele>
        <time>2015-09-19T08:41:44Z</time>
      </trkpt>
      <trkpt lat="45.87250079959631" lon="7.988355550915003">
        <ele>2176.5599999999999</ele>
        <time>2015-09-19T08:41:53Z</time>
      </trkpt>
      <trkpt lat="45.872432067990303" lon="7.988391760736704">
        <ele>2178</ele>
        <time>2015-09-19T08:42:04Z</time>
      </trkpt>
      <trkpt lat="45.872378423810005" lon="7.988401064649224">
        <ele>2179.9299999999998</ele>
        <time>2015-09-19T08:42:15Z</time>
      </trkpt>
      <trkpt lat="45.872324109077454" lon="7.988385809585452">
        <ele>2181.3699999999999</ele>
        <time>2015-09-19T08:42:27Z</time>
      </trkpt>
      <trkpt lat="45.872256718575954" lon="7.9884023219347">
        <ele>2182.8099999999999</ele>
        <time>2015-09-19T08:42:38Z</time>
      </trkpt>
      <trkpt lat="45.872258814051747" lon="7.988387318328023">
        <ele>2183.29</ele>
        <time>2015-09-19T08:42:49Z</time>
      </trkpt>
      <trkpt lat="45.872229728847742" lon="7.988405004143715">
        <ele>2183.77</ele>
        <time>2015-09-19T08:42:59Z</time>
      </trkpt>
      <trkpt lat="45.872163008898497" lon="7.988435262814164">
        <ele>2187.1399999999999</ele>
        <time>2015-09-19T08:43:09Z</time>
      </trkpt>
      <trkpt lat="45.872112130746245" lon="7.988450434058905">
        <ele>2189.0599999999999</ele>
        <time>2015-09-19T08:43:17Z</time>
      </trkpt>
      <trkpt lat="45.872023114934564" lon="7.988514136523008">
        <ele>2189.54</ele>
        <time>2015-09-19T08:43:28Z</time>
      </trkpt>
      <trkpt lat="45.872018253430724" lon="7.988501898944378">
        <ele>2189.54</ele>
        <time>2015-09-19T08:43:40Z</time>
      </trkpt>
      <trkpt lat="45.872017666697502" lon="7.988441046327353">
        <ele>2190.02</ele>
        <time>2015-09-19T08:43:52Z</time>
      </trkpt>
      <trkpt lat="45.872003920376301" lon="7.988445237278938">
        <ele>2190.5</ele>
        <time>2015-09-19T08:44:03Z</time>
      </trkpt>
      <trkpt lat="45.872001573443413" lon="7.988444063812494">
        <ele>2190.5</ele>
        <time>2015-09-19T08:44:17Z</time>
      </trkpt>
      <trkpt lat="45.872013056650758" lon="7.988451272249222">
        <ele>2191.46</ele>
        <time>2015-09-19T08:44:33Z</time>
      </trkpt>
      <trkpt lat="45.872032837942243" lon="7.988471472635865">
        <ele>2190.5</ele>
        <time>2015-09-19T08:44:45Z</time>
      </trkpt>
      <trkpt lat="45.872026970610023" lon="7.988484967499971">
        <ele>2190.5</ele>
        <time>2015-09-19T08:45:03Z</time>
      </trkpt>
      <trkpt lat="45.872032837942243" lon="7.988476837053895">
        <ele>2190.98</ele>
        <time>2015-09-19T08:45:16Z</time>
      </trkpt>
      <trkpt lat="45.872004339471459" lon="7.98846292309463">
        <ele>2190.98</ele>
        <time>2015-09-19T08:45:30Z</time>
      </trkpt>
      <trkpt lat="45.872020600363612" lon="7.988434843719006">
        <ele>2190.98</ele>
        <time>2015-09-19T08:45:36Z</time>
      </trkpt>
      <trkpt lat="45.872020684182644" lon="7.988371895626187">
        <ele>2192.4200000000001</ele>
        <time>2015-09-19T08:45:45Z</time>
      </trkpt>
      <trkpt lat="45.871953377500176" lon="7.988333338871598">
        <ele>2195.3099999999999</ele>
        <time>2015-09-19T08:45:58Z</time>
      </trkpt>
      <trkpt lat="45.871979361400008" lon="7.988255890086293">
        <ele>2196.75</ele>
        <time>2015-09-19T08:46:09Z</time>
      </trkpt>
      <trkpt lat="45.872014816850424" lon="7.988160001114011">
        <ele>2198.6700000000001</ele>
        <time>2015-09-19T08:46:21Z</time>
      </trkpt>
      <trkpt lat="45.872031580656767" lon="7.98807199113071">
        <ele>2200.1100000000001</ele>
        <time>2015-09-19T08:46:33Z</time>
      </trkpt>
      <trkpt lat="45.872055720537901" lon="7.988001080229878">
        <ele>2201.0799999999999</ele>
        <time>2015-09-19T08:46:45Z</time>
      </trkpt>
      <trkpt lat="45.87205613963306" lon="7.988021867349744">
        <ele>2201.0799999999999</ele>
        <time>2015-09-19T08:46:57Z</time>
      </trkpt>
      <trkpt lat="45.872051445767283" lon="7.987952213734388">
        <ele>2203</ele>
        <time>2015-09-19T08:47:08Z</time>
      </trkpt>
      <trkpt lat="45.872075669467449" lon="7.987883649766445">
        <ele>2204.9200000000001</ele>
        <time>2015-09-19T08:47:18Z</time>
      </trkpt>
      <trkpt lat="45.872040633112192" lon="7.987858420237899">
        <ele>2207.3200000000002</ele>
        <time>2015-09-19T08:47:28Z</time>
      </trkpt>
      <trkpt lat="45.872053457424045" lon="7.987798321992159">
        <ele>2209.25</ele>
        <time>2015-09-19T08:47:38Z</time>
      </trkpt>
      <trkpt lat="45.872090924531221" lon="7.987738642841578">
        <ele>2211.6500000000001</ele>
        <time>2015-09-19T08:47:53Z</time>
      </trkpt>
      <trkpt lat="45.872138617560267" lon="7.987659852951765">
        <ele>2213.5700000000002</ele>
        <time>2015-09-19T08:48:04Z</time>
      </trkpt>
      <trkpt lat="45.872159907594323" lon="7.98758190125227">
        <ele>2215.98</ele>
        <time>2015-09-19T08:48:16Z</time>
      </trkpt>
      <trkpt lat="45.872155884280801" lon="7.987501518800855">
        <ele>2217.4200000000001</ele>
        <time>2015-09-19T08:48:28Z</time>
      </trkpt>
      <trkpt lat="45.872175246477127" lon="7.987456591799855">
        <ele>2219.3400000000001</ele>
        <time>2015-09-19T08:48:38Z</time>
      </trkpt>
      <trkpt lat="45.872198380529881" lon="7.987446533516049">
        <ele>2219.8200000000002</ele>
        <time>2015-09-19T08:48:47Z</time>
      </trkpt>
      <trkpt lat="45.872206259518862" lon="7.987452987581492">
        <ele>2219.8200000000002</ele>
        <time>2015-09-19T08:48:50Z</time>
      </trkpt>
      <trkpt lat="45.872239284217358" lon="7.987365899607539">
        <ele>2221.2600000000002</ele>
        <time>2015-09-19T08:48:59Z</time>
      </trkpt>
      <trkpt lat="45.872248420491815" lon="7.987350644543767">
        <ele>2221.7399999999998</ele>
        <time>2015-09-19T08:49:01Z</time>
      </trkpt>
      <trkpt lat="45.872270800173283" lon="7.987242182716727">
        <ele>2223.1900000000001</ele>
        <time>2015-09-19T08:49:12Z</time>
      </trkpt>
      <trkpt lat="45.872296113520861" lon="7.987138414755464">
        <ele>2225.5900000000001</ele>
        <time>2015-09-19T08:49:25Z</time>
      </trkpt>
      <trkpt lat="45.872303573414683" lon="7.987064318731427">
        <ele>2227.5100000000002</ele>
        <time>2015-09-19T08:49:34Z</time>
      </trkpt>
      <trkpt lat="45.872340369969606" lon="7.9870087467134">
        <ele>2228.9499999999998</ele>
        <time>2015-09-19T08:49:44Z</time>
      </trkpt>
      <trkpt lat="45.872278427705169" lon="7.986972201615572">
        <ele>2230.8800000000001</ele>
        <time>2015-09-19T08:49:57Z</time>
      </trkpt>
      <trkpt lat="45.872240625321865" lon="7.986938087269664">
        <ele>2232.8000000000002</ele>
        <time>2015-09-19T08:50:09Z</time>
      </trkpt>
      <trkpt lat="45.872221179306507" lon="7.986871702596545">
        <ele>2235.1999999999998</ele>
        <time>2015-09-19T08:50:21Z</time>
      </trkpt>
      <trkpt lat="45.872223107144237" lon="7.986860303208232">
        <ele>2236.1599999999999</ele>
        <time>2015-09-19T08:50:32Z</time>
      </trkpt>
      <trkpt lat="45.872243894264102" lon="7.986774723976851">
        <ele>2237.6100000000001</ele>
        <time>2015-09-19T08:50:43Z</time>
      </trkpt>
      <trkpt lat="45.872266693040729" lon="7.986699286848307">
        <ele>2239.0500000000002</ele>
        <time>2015-09-19T08:50:52Z</time>
      </trkpt>
      <trkpt lat="45.872295526787639" lon="7.986615970730782">
        <ele>2240.9699999999998</ele>
        <time>2015-09-19T08:51:05Z</time>
      </trkpt>
      <trkpt lat="45.872232327237725" lon="7.986556207761169">
        <ele>2243.8499999999999</ele>
        <time>2015-09-19T08:51:20Z</time>
      </trkpt>
      <trkpt lat="45.872178850695491" lon="7.986500300467014">
        <ele>2244.8200000000002</ele>
        <time>2015-09-19T08:51:32Z</time>
      </trkpt>
      <trkpt lat="45.872167032212019" lon="7.986479764804244">
        <ele>2246.7399999999998</ele>
        <time>2015-09-19T08:51:36Z</time>
      </trkpt>
      <trkpt lat="45.872175078839064" lon="7.986396783962846">
        <ele>2249.1399999999999</ele>
        <time>2015-09-19T08:51:47Z</time>
      </trkpt>
      <trkpt lat="45.872177928686142" lon="7.986318580806255">
        <ele>2250.5799999999999</ele>
        <time>2015-09-19T08:51:59Z</time>
      </trkpt>
      <trkpt lat="45.872154626995325" lon="7.986274156719446">
        <ele>2252.5100000000002</ele>
        <time>2015-09-19T08:52:09Z</time>
      </trkpt>
      <trkpt lat="45.872108023613691" lon="7.986262086778879">
        <ele>2253.4699999999998</ele>
        <time>2015-09-19T08:52:22Z</time>
      </trkpt>
      <trkpt lat="45.872078686952591" lon="7.986276419833303">
        <ele>2253.4699999999998</ele>
        <time>2015-09-19T08:52:26Z</time>
      </trkpt>
      <trkpt lat="45.872043063864112" lon="7.986295865848661">
        <ele>2253.9499999999998</ele>
        <time>2015-09-19T08:52:31Z</time>
      </trkpt>
      <trkpt lat="45.871963771060109" lon="7.986271558329463">
        <ele>2254.9099999999999</ele>
        <time>2015-09-19T08:52:43Z</time>
      </trkpt>
      <trkpt lat="45.871946923434734" lon="7.986198468133807">
        <ele>2256.3499999999999</ele>
        <time>2015-09-19T08:52:55Z</time>
      </trkpt>
      <trkpt lat="45.871929991990328" lon="7.986108949407935">
        <ele>2257.3099999999999</ele>
        <time>2015-09-19T08:53:07Z</time>
      </trkpt>
      <trkpt lat="45.871920436620712" lon="7.986066285520792">
        <ele>2259.7199999999998</ele>
        <time>2015-09-19T08:53:13Z</time>
      </trkpt>
      <trkpt lat="45.871902583166957" lon="7.985979784280062">
        <ele>2260.6799999999998</ele>
        <time>2015-09-19T08:53:23Z</time>
      </trkpt>
      <trkpt lat="45.87188707664609" lon="7.985968301072717">
        <ele>2261.6399999999999</ele>
        <time>2015-09-19T08:53:38Z</time>
      </trkpt>
      <trkpt lat="45.871910378336906" lon="7.985921949148178">
        <ele>2262.5999999999999</ele>
        <time>2015-09-19T08:53:50Z</time>
      </trkpt>
      <trkpt lat="45.871895458549261" lon="7.985903173685074">
        <ele>2263.0799999999999</ele>
        <time>2015-09-19T08:54:03Z</time>
      </trkpt>
      <trkpt lat="45.871894033625722" lon="7.985829412937164">
        <ele>2264.52</ele>
        <time>2015-09-19T08:54:14Z</time>
      </trkpt>
      <trkpt lat="45.87188171222806" lon="7.985835950821638">
        <ele>2263.5599999999999</ele>
        <time>2015-09-19T08:54:24Z</time>
      </trkpt>
      <trkpt lat="45.871894536539912" lon="7.985834274441004">
        <ele>2264.04</ele>
        <time>2015-09-19T08:54:38Z</time>
      </trkpt>
      <trkpt lat="45.87188171222806" lon="7.985839890316129">
        <ele>2265</ele>
        <time>2015-09-19T08:54:47Z</time>
      </trkpt>
      <trkpt lat="45.871854638680816" lon="7.985736625269055">
        <ele>2265.96</ele>
        <time>2015-09-19T08:55:00Z</time>
      </trkpt>
      <trkpt lat="45.871845334768295" lon="7.985636293888092">
        <ele>2268.3699999999999</ele>
        <time>2015-09-19T08:55:12Z</time>
      </trkpt>
      <trkpt lat="45.87188271805644" lon="7.985565718263388">
        <ele>2269.8099999999999</ele>
        <time>2015-09-19T08:55:22Z</time>
      </trkpt>
      <trkpt lat="45.871874419972301" lon="7.985494639724493">
        <ele>2272.21</ele>
        <time>2015-09-19T08:55:32Z</time>
      </trkpt>
      <trkpt lat="45.871872659772635" lon="7.985410736873746">
        <ele>2274.1399999999999</ele>
        <time>2015-09-19T08:55:44Z</time>
      </trkpt>
      <trkpt lat="45.871875593438745" lon="7.985304621979594">
        <ele>2277.5</ele>
        <time>2015-09-19T08:55:59Z</time>
      </trkpt>
      <trkpt lat="45.871859919279814" lon="7.98523647710681">
        <ele>2279.4200000000001</ele>
        <time>2015-09-19T08:56:11Z</time>
      </trkpt>
      <trkpt lat="45.871827816590667" lon="7.985183084383607">
        <ele>2281.8299999999999</ele>
        <time>2015-09-19T08:56:23Z</time>
      </trkpt>
      <trkpt lat="45.871836533769965" lon="7.985103875398636">
        <ele>2283.75</ele>
        <time>2015-09-19T08:56:34Z</time>
      </trkpt>
      <trkpt lat="45.871825469657779" lon="7.985031120479107">
        <ele>2285.6700000000001</ele>
        <time>2015-09-19T08:56:47Z</time>
      </trkpt>
      <trkpt lat="45.871812310069799" lon="7.984962053596973">
        <ele>2287.1100000000001</ele>
        <time>2015-09-19T08:56:58Z</time>
      </trkpt>
      <trkpt lat="45.871774256229401" lon="7.98487932421267">
        <ele>2289.04</ele>
        <time>2015-09-19T08:57:10Z</time>
      </trkpt>
      <trkpt lat="45.87173905223608" lon="7.98479818738997">
        <ele>2291.4400000000001</ele>
        <time>2015-09-19T08:57:23Z</time>
      </trkpt>
      <trkpt lat="45.871708961203694" lon="7.984742112457752">
        <ele>2293.3600000000001</ele>
        <time>2015-09-19T08:57:34Z</time>
      </trkpt>
      <trkpt lat="45.871697645634413" lon="7.984674302861095">
        <ele>2295.2800000000002</ele>
        <time>2015-09-19T08:57:46Z</time>
      </trkpt>
      <trkpt lat="45.871694292873144" lon="7.984598781913519">
        <ele>2297.21</ele>
        <time>2015-09-19T08:57:57Z</time>
      </trkpt>
      <trkpt lat="45.871702255681157" lon="7.984523177146912">
        <ele>2299.6100000000001</ele>
        <time>2015-09-19T08:58:09Z</time>
      </trkpt>
      <trkpt lat="45.871726060286164" lon="7.98447766341269">
        <ele>2301.5300000000002</ele>
        <time>2015-09-19T08:58:18Z</time>
      </trkpt>
      <trkpt lat="45.871768807992339" lon="7.984450170770288">
        <ele>2302.98</ele>
        <time>2015-09-19T08:58:27Z</time>
      </trkpt>
      <trkpt lat="45.871809292584658" lon="7.984393090009689">
        <ele>2305.3800000000001</ele>
        <time>2015-09-19T08:58:38Z</time>
      </trkpt>
      <trkpt lat="45.871829995885491" lon="7.984352940693498">
        <ele>2305.8600000000001</ele>
        <time>2015-09-19T08:58:47Z</time>
      </trkpt>
      <trkpt lat="45.871892524883151" lon="7.9843476600945">
        <ele>2308.2600000000002</ele>
        <time>2015-09-19T08:58:59Z</time>
      </trkpt>
      <trkpt lat="45.871891770511866" lon="7.984266104176641">
        <ele>2310.1900000000001</ele>
        <time>2015-09-19T08:59:12Z</time>
      </trkpt>
      <trkpt lat="45.871908282861114" lon="7.984194522723556">
        <ele>2312.1100000000001</ele>
        <time>2015-09-19T08:59:24Z</time>
      </trkpt>
      <trkpt lat="45.871934937313199" lon="7.984123695641756">
        <ele>2314.0300000000002</ele>
        <time>2015-09-19T08:59:36Z</time>
      </trkpt>
      <trkpt lat="45.871954131871462" lon="7.984085893258452">
        <ele>2315.9499999999998</ele>
        <time>2015-09-19T08:59:42Z</time>
      </trkpt>
      <trkpt lat="45.871939212083817" lon="7.984012719243765">
        <ele>2317.4000000000001</ele>
        <time>2015-09-19T08:59:51Z</time>
      </trkpt>
      <trkpt lat="45.871932506561279" lon="7.983922613784671">
        <ele>2319.8000000000002</ele>
        <time>2015-09-19T09:00:04Z</time>
      </trkpt>
      <trkpt lat="45.871920520439744" lon="7.983895372599363">
        <ele>2321.7199999999998</ele>
        <time>2015-09-19T09:00:14Z</time>
      </trkpt>
      <trkpt lat="45.87189931422472" lon="7.983907274901867">
        <ele>2322.1999999999998</ele>
        <time>2015-09-19T09:00:30Z</time>
      </trkpt>
      <trkpt lat="45.871908031404018" lon="7.98388590104878">
        <ele>2321.7199999999998</ele>
        <time>2015-09-19T09:00:44Z</time>
      </trkpt>
      <trkpt lat="45.871892021968961" lon="7.983893109485507">
        <ele>2322.1999999999998</ele>
        <time>2015-09-19T09:01:00Z</time>
      </trkpt>
      <trkpt lat="45.871895374730229" lon="7.983909789472818">
        <ele>2322.1999999999998</ele>
        <time>2015-09-19T09:01:14Z</time>
      </trkpt>
      <trkpt lat="45.871903086081147" lon="7.983896881341934">
        <ele>2322.1999999999998</ele>
        <time>2015-09-19T09:01:43Z</time>
      </trkpt>
      <trkpt lat="45.871910126879811" lon="7.983873998746276">
        <ele>2322.1999999999998</ele>
        <time>2015-09-19T09:01:58Z</time>
      </trkpt>
      <trkpt lat="45.871884729713202" lon="7.983840052038431">
        <ele>2323.1599999999999</ele>
        <time>2015-09-19T09:02:12Z</time>
      </trkpt>
      <trkpt lat="45.871858159080148" lon="7.983766878023744">
        <ele>2325.5700000000002</ele>
        <time>2015-09-19T09:02:21Z</time>
      </trkpt>
      <trkpt lat="45.871818428859115" lon="7.983727566897869">
        <ele>2327.9699999999998</ele>
        <time>2015-09-19T09:02:31Z</time>
      </trkpt>
      <trkpt lat="45.871786493808031" lon="7.983716083690524">
        <ele>2328.9299999999998</ele>
        <time>2015-09-19T09:02:42Z</time>
      </trkpt>
      <trkpt lat="45.871784230694175" lon="7.983662439510226">
        <ele>2330.8499999999999</ele>
        <time>2015-09-19T09:02:55Z</time>
      </trkpt>
      <trkpt lat="45.87177031673491" lon="7.983613405376673">
        <ele>2332.3000000000002</ele>
        <time>2015-09-19T09:03:06Z</time>
      </trkpt>
      <trkpt lat="45.871733436360955" lon="7.983548948541284">
        <ele>2333.7399999999998</ele>
        <time>2015-09-19T09:03:18Z</time>
      </trkpt>
      <trkpt lat="45.871718600392342" lon="7.98353754915297">
        <ele>2334.2199999999998</ele>
        <time>2015-09-19T09:03:21Z</time>
      </trkpt>
      <trkpt lat="45.871645510196686" lon="7.983450293540955">
        <ele>2335.1799999999998</ele>
        <time>2015-09-19T09:03:34Z</time>
      </trkpt>
      <trkpt lat="45.871634278446436" lon="7.983388183638454">
        <ele>2337.5799999999999</ele>
        <time>2015-09-19T09:03:43Z</time>
      </trkpt>
      <trkpt lat="45.871648527681828" lon="7.983327331021428">
        <ele>2339.5100000000002</ele>
        <time>2015-09-19T09:03:53Z</time>
      </trkpt>
      <trkpt lat="45.871617179363966" lon="7.983265891671181">
        <ele>2340.9499999999998</ele>
        <time>2015-09-19T09:04:03Z</time>
      </trkpt>
      <trkpt lat="45.871581891551614" lon="7.983206631615758">
        <ele>2342.8699999999999</ele>
        <time>2015-09-19T09:04:14Z</time>
      </trkpt>
      <trkpt lat="45.871579879894853" lon="7.983136307448149">
        <ele>2345.27</ele>
        <time>2015-09-19T09:04:26Z</time>
      </trkpt>
      <trkpt lat="45.871582059189677" lon="7.983116861432791">
        <ele>2346.7199999999998</ele>
        <time>2015-09-19T09:04:35Z</time>
      </trkpt>
      <trkpt lat="45.871566887944937" lon="7.983110072091222">
        <ele>2347.6799999999998</ele>
        <time>2015-09-19T09:04:45Z</time>
      </trkpt>
      <trkpt lat="45.871562696993351" lon="7.983113927766681">
        <ele>2347.1999999999998</ele>
        <time>2015-09-19T09:05:05Z</time>
      </trkpt>
      <trkpt lat="45.87153185158968" lon="7.983113843947649">
        <ele>2348.6399999999999</ele>
        <time>2015-09-19T09:05:19Z</time>
      </trkpt>
      <trkpt lat="45.87150159291923" lon="7.983036981895566">
        <ele>2351.52</ele>
        <time>2015-09-19T09:05:30Z</time>
      </trkpt>
      <trkpt lat="45.871474854648113" lon="7.982984511181712">
        <ele>2353.4400000000001</ele>
        <time>2015-09-19T09:05:39Z</time>
      </trkpt>
      <trkpt lat="45.871468652039766" lon="7.98294578678906">
        <ele>2354.4099999999999</ele>
        <time>2015-09-19T09:05:50Z</time>
      </trkpt>
      <trkpt lat="45.871455995365977" lon="7.982880659401417">
        <ele>2355.8499999999999</ele>
        <time>2015-09-19T09:05:58Z</time>
      </trkpt>
      <trkpt lat="45.871411236003041" lon="7.98286272212863">
        <ele>2357.29</ele>
        <time>2015-09-19T09:06:08Z</time>
      </trkpt>
      <trkpt lat="45.87136865593493" lon="7.982813939452171">
        <ele>2359.6900000000001</ele>
        <time>2015-09-19T09:06:17Z</time>
      </trkpt>
      <trkpt lat="45.871338648721576" lon="7.982802959159017">
        <ele>2361.1399999999999</ele>
        <time>2015-09-19T09:06:29Z</time>
      </trkpt>
      <trkpt lat="45.871317191049457" lon="7.982791140675545">
        <ele>2361.1399999999999</ele>
        <time>2015-09-19T09:06:39Z</time>
      </trkpt>
      <trkpt lat="45.871310653164983" lon="7.982788123190403">
        <ele>2360.6500000000001</ele>
        <time>2015-09-19T09:06:59Z</time>
      </trkpt>
      <trkpt lat="45.871345605701208" lon="7.982781669124961">
        <ele>2361.1399999999999</ele>
        <time>2015-09-19T09:07:22Z</time>
      </trkpt>
      <trkpt lat="45.871334541589022" lon="7.982778903096914">
        <ele>2361.1399999999999</ele>
        <time>2015-09-19T09:07:44Z</time>
      </trkpt>
      <trkpt lat="45.871330266818404" lon="7.98279482871294">
        <ele>2361.1399999999999</ele>
        <time>2015-09-19T09:07:57Z</time>
      </trkpt>
      <trkpt lat="45.871332278475165" lon="7.982813268899918">
        <ele>2360.6500000000001</ele>
        <time>2015-09-19T09:08:05Z</time>
      </trkpt>
      <trkpt lat="45.871326746419072" lon="7.98282508738339">
        <ele>2360.1700000000001</ele>
        <time>2015-09-19T09:08:26Z</time>
      </trkpt>
      <trkpt lat="45.871321801096201" lon="7.98281142488122">
        <ele>2360.6500000000001</ele>
        <time>2015-09-19T09:08:54Z</time>
      </trkpt>
      <trkpt lat="45.871316436678171" lon="7.982812933623791">
        <ele>2360.6500000000001</ele>
        <time>2015-09-19T09:09:18Z</time>
      </trkpt>
      <trkpt lat="45.871318364515901" lon="7.982820561155677">
        <ele>2360.6500000000001</ele>
        <time>2015-09-19T09:09:47Z</time>
      </trkpt>
      <trkpt lat="45.871314089745283" lon="7.982832295820117">
        <ele>2360.6500000000001</ele>
        <time>2015-09-19T09:10:20Z</time>
      </trkpt>
      <trkpt lat="45.871329260990024" lon="7.982835480943322">
        <ele>2360.6500000000001</ele>
        <time>2015-09-19T09:10:52Z</time>
      </trkpt>
      <trkpt lat="45.871345018967986" lon="7.982823243364692">
        <ele>2360.1700000000001</ele>
        <time>2015-09-19T09:11:16Z</time>
      </trkpt>
      <trkpt lat="45.871338648721576" lon="7.982834056019783">
        <ele>2360.1700000000001</ele>
        <time>2015-09-19T09:11:35Z</time>
      </trkpt>
      <trkpt lat="45.871336134150624" lon="7.982828440144658">
        <ele>2360.1700000000001</ele>
        <time>2015-09-19T09:11:36Z</time>
      </trkpt>
      <trkpt lat="45.871335295960307" lon="7.982824752107263">
        <ele>2361.1399999999999</ele>
        <time>2015-09-19T09:11:43Z</time>
      </trkpt>
      <trkpt lat="45.871308222413063" lon="7.982752583920956">
        <ele>2361.1399999999999</ele>
        <time>2015-09-19T09:11:53Z</time>
      </trkpt>
      <trkpt lat="45.871316269040108" lon="7.982736323028803">
        <ele>2361.1399999999999</ele>
        <time>2015-09-19T09:12:06Z</time>
      </trkpt>
      <trkpt lat="45.871295565739274" lon="7.982730874791741">
        <ele>2361.1399999999999</ele>
        <time>2015-09-19T09:12:20Z</time>
      </trkpt>
      <trkpt lat="45.871310401707888" lon="7.982742777094245">
        <ele>2361.1399999999999</ele>
        <time>2015-09-19T09:12:34Z</time>
      </trkpt>
      <trkpt lat="45.871315347030759" lon="7.982729701325297">
        <ele>2361.1399999999999</ele>
        <time>2015-09-19T09:12:47Z</time>
      </trkpt>
      <trkpt lat="45.871289782226086" lon="7.982603302225471">
        <ele>2362.0999999999999</ele>
        <time>2015-09-19T09:12:58Z</time>
      </trkpt>
      <trkpt lat="45.871271090582013" lon="7.982537671923637">
        <ele>2363.54</ele>
        <time>2015-09-19T09:13:07Z</time>
      </trkpt>
      <trkpt lat="45.871253572404385" lon="7.982453014701605">
        <ele>2365.46</ele>
        <time>2015-09-19T09:13:18Z</time>
      </trkpt>
      <trkpt lat="45.871242843568325" lon="7.982408590614796">
        <ele>2366.4200000000001</ele>
        <time>2015-09-19T09:13:27Z</time>
      </trkpt>
      <trkpt lat="45.871219709515572" lon="7.982331644743681">
        <ele>2367.8600000000001</ele>
        <time>2015-09-19T09:13:37Z</time>
      </trkpt>
      <trkpt lat="45.871196072548628" lon="7.982279676944017">
        <ele>2369.3099999999999</ele>
        <time>2015-09-19T09:13:45Z</time>
      </trkpt>
      <trkpt lat="45.871206130832434" lon="7.982204910367727">
        <ele>2370.27</ele>
        <time>2015-09-19T09:13:56Z</time>
      </trkpt>
      <trkpt lat="45.871170507743955" lon="7.982174986973405">
        <ele>2371.23</ele>
        <time>2015-09-19T09:14:01Z</time>
      </trkpt>
      <trkpt lat="45.871126838028431" lon="7.982097789645195">
        <ele>2372.1900000000001</ele>
        <time>2015-09-19T09:14:12Z</time>
      </trkpt>
      <trkpt lat="45.87108476087451" lon="7.982045402750373">
        <ele>2373.1500000000001</ele>
        <time>2015-09-19T09:14:25Z</time>
      </trkpt>
      <trkpt lat="45.871089957654476" lon="7.982039786875248">
        <ele>2373.1500000000001</ele>
        <time>2015-09-19T09:14:47Z</time>
      </trkpt>
      <trkpt lat="45.871093478053808" lon="7.982042217627168">
        <ele>2373.1500000000001</ele>
        <time>2015-09-19T09:15:00Z</time>
      </trkpt>
      <trkpt lat="45.87107059545815" lon="7.982005001977086">
        <ele>2373.1500000000001</ele>
        <time>2015-09-19T09:15:13Z</time>
      </trkpt>
      <trkpt lat="45.871064644306898" lon="7.981974240392447">
        <ele>2374.1100000000001</ele>
        <time>2015-09-19T09:15:23Z</time>
      </trkpt>
      <trkpt lat="45.871053747832775" lon="7.981957057490945">
        <ele>2374.5900000000001</ele>
        <time>2015-09-19T09:15:42Z</time>
      </trkpt>
      <trkpt lat="45.871044443920255" lon="7.981878854334354">
        <ele>2376.04</ele>
        <time>2015-09-19T09:15:53Z</time>
      </trkpt>
      <trkpt lat="45.871049892157316" lon="7.981776595115662">
        <ele>2377.96</ele>
        <time>2015-09-19T09:16:03Z</time>
      </trkpt>
      <trkpt lat="45.871044946834445" lon="7.981760501861572">
        <ele>2377.96</ele>
        <time>2015-09-19T09:16:05Z</time>
      </trkpt>
      <trkpt lat="45.871033295989037" lon="7.98167291097343">
        <ele>2379.4000000000001</ele>
        <time>2015-09-19T09:16:15Z</time>
      </trkpt>
      <trkpt lat="45.871017957106233" lon="7.981555815786123">
        <ele>2381.3200000000002</ele>
        <time>2015-09-19T09:16:27Z</time>
      </trkpt>
      <trkpt lat="45.870993146672845" lon="7.981513570994139">
        <ele>2381.8000000000002</ele>
        <time>2015-09-19T09:16:32Z</time>
      </trkpt>
      <trkpt lat="45.870949979871511" lon="7.981421118602157">
        <ele>2381.8000000000002</ele>
        <time>2015-09-19T09:16:42Z</time>
      </trkpt>
      <trkpt lat="45.870948974043131" lon="7.981346435844898">
        <ele>2382.2800000000002</ele>
        <time>2015-09-19T09:16:52Z</time>
      </trkpt>
      <trkpt lat="45.870944866910577" lon="7.981295473873615">
        <ele>2382.7600000000002</ele>
        <time>2015-09-19T09:16:58Z</time>
      </trkpt>
      <trkpt lat="45.87094746530056" lon="7.981252307072282">
        <ele>2383.25</ele>
        <time>2015-09-19T09:17:02Z</time>
      </trkpt>
      <trkpt lat="45.870953416451812" lon="7.981141582131386">
        <ele>2384.6900000000001</ele>
        <time>2015-09-19T09:17:13Z</time>
      </trkpt>
      <trkpt lat="45.870925756171346" lon="7.981040580198169">
        <ele>2385.1700000000001</ele>
        <time>2015-09-19T09:17:24Z</time>
      </trkpt>
      <trkpt lat="45.870900945737958" lon="7.980971680954099">
        <ele>2386.1300000000001</ele>
        <time>2015-09-19T09:17:33Z</time>
      </trkpt>
      <trkpt lat="45.87088736705482" lon="7.980879731476307">
        <ele>2387.5700000000002</ele>
        <time>2015-09-19T09:17:44Z</time>
      </trkpt>
      <trkpt lat="45.870871609076858" lon="7.98079289495945">
        <ele>2389.4899999999998</ele>
        <time>2015-09-19T09:17:55Z</time>
      </trkpt>
      <trkpt lat="45.87086096405983" lon="7.980715027078986">
        <ele>2390.9400000000001</ele>
        <time>2015-09-19T09:18:05Z</time>
      </trkpt>
      <trkpt lat="45.870849061757326" lon="7.980663310736418">
        <ele>2391.9000000000001</ele>
        <time>2015-09-19T09:18:13Z</time>
      </trkpt>
      <trkpt lat="45.870829364284873" lon="7.980614360421896">
        <ele>2392.8600000000001</ele>
        <time>2015-09-19T09:18:21Z</time>
      </trkpt>
      <trkpt lat="45.870804972946644" lon="7.980562392622232">
        <ele>2393.3400000000001</ele>
        <time>2015-09-19T09:18:31Z</time>
      </trkpt>
      <trkpt lat="45.870795752853155" lon="7.980484776198864">
        <ele>2395.2600000000002</ele>
        <time>2015-09-19T09:18:42Z</time>
      </trkpt>
      <trkpt lat="45.870821066200733" lon="7.980419397354126">
        <ele>2397.1799999999998</ele>
        <time>2015-09-19T09:18:52Z</time>
      </trkpt>
      <trkpt lat="45.870838332921267" lon="7.980381343513727">
        <ele>2398.6300000000001</ele>
        <time>2015-09-19T09:19:05Z</time>
      </trkpt>
      <trkpt lat="45.870852330699563" lon="7.980324681848288">
        <ele>2400.0700000000002</ele>
        <time>2015-09-19T09:19:14Z</time>
      </trkpt>
      <trkpt lat="45.870882337912917" lon="7.98025687225163">
        <ele>2401.5100000000002</ele>
        <time>2015-09-19T09:19:24Z</time>
      </trkpt>
      <trkpt lat="45.870862808078527" lon="7.98020213842392">
        <ele>2403.4299999999998</ele>
        <time>2015-09-19T09:19:36Z</time>
      </trkpt>
      <trkpt lat="45.870879320427775" lon="7.980134328827262">
        <ele>2403.9099999999999</ele>
        <time>2015-09-19T09:19:48Z</time>
      </trkpt>
      <trkpt lat="45.870831375941634" lon="7.980061154812574">
        <ele>2404.3899999999999</ele>
        <time>2015-09-19T09:19:59Z</time>
      </trkpt>
      <trkpt lat="45.870796171948314" lon="7.979985382407904">
        <ele>2405.8400000000001</ele>
        <time>2015-09-19T09:20:08Z</time>
      </trkpt>
      <trkpt lat="45.870774714276195" lon="7.979910364374518">
        <ele>2407.7600000000002</ele>
        <time>2015-09-19T09:20:18Z</time>
      </trkpt>
      <trkpt lat="45.870738588273525" lon="7.979847583919764">
        <ele>2408.2399999999998</ele>
        <time>2015-09-19T09:20:28Z</time>
      </trkpt>
      <trkpt lat="45.870694750919938" lon="7.979802573099732">
        <ele>2405.8400000000001</ele>
        <time>2015-09-19T09:20:38Z</time>
      </trkpt>
      <trkpt lat="45.870628785341978" lon="7.979739625006914">
        <ele>2407.7600000000002</ele>
        <time>2015-09-19T09:20:49Z</time>
      </trkpt>
      <trkpt lat="45.870609171688557" lon="7.979673156514764">
        <ele>2408.2399999999998</ele>
        <time>2015-09-19T09:20:57Z</time>
      </trkpt>
      <trkpt lat="45.870562987402081" lon="7.979590846225619">
        <ele>2410.6399999999999</ele>
        <time>2015-09-19T09:21:08Z</time>
      </trkpt>
      <trkpt lat="45.870516551658511" lon="7.979556312784553">
        <ele>2411.5999999999999</ele>
        <time>2015-09-19T09:21:18Z</time>
      </trkpt>
      <trkpt lat="45.870488556101918" lon="7.979484731331468">
        <ele>2413.5300000000002</ele>
        <time>2015-09-19T09:21:28Z</time>
      </trkpt>
      <trkpt lat="45.8704998716712" lon="7.979441732168198">
        <ele>2414.9699999999998</ele>
        <time>2015-09-19T09:21:40Z</time>
      </trkpt>
      <trkpt lat="45.870518479496241" lon="7.97945749014616">
        <ele>2414.4899999999998</ele>
        <time>2015-09-19T09:22:00Z</time>
      </trkpt>
      <trkpt lat="45.870476318523288" lon="7.979447683319449">
        <ele>2414.9699999999998</ele>
        <time>2015-09-19T09:22:12Z</time>
      </trkpt>
      <trkpt lat="45.870443880558014" lon="7.979380628094077">
        <ele>2416.8899999999999</ele>
        <time>2015-09-19T09:22:21Z</time>
      </trkpt>
      <trkpt lat="45.870439438149333" lon="7.979333437979221">
        <ele>2418.3299999999999</ele>
        <time>2015-09-19T09:22:31Z</time>
      </trkpt>
      <trkpt lat="45.870415633544326" lon="7.979310723021627">
        <ele>2419.7800000000002</ele>
        <time>2015-09-19T09:22:39Z</time>
      </trkpt>
      <trkpt lat="45.87041194550693" lon="7.979319356381893">
        <ele>2420.2600000000002</ele>
        <time>2015-09-19T09:22:56Z</time>
      </trkpt>
      <trkpt lat="45.87040901184082" lon="7.979321870952845">
        <ele>2419.7800000000002</ele>
        <time>2015-09-19T09:22:59Z</time>
      </trkpt>
      <trkpt lat="45.870410688221455" lon="7.979314997792244">
        <ele>2419.3000000000002</ele>
        <time>2015-09-19T09:23:10Z</time>
      </trkpt>
      <trkpt lat="45.870422003790736" lon="7.979326900094748">
        <ele>2420.2600000000002</ele>
        <time>2015-09-19T09:23:30Z</time>
      </trkpt>
      <trkpt lat="45.870420159772038" lon="7.979308543726802">
        <ele>2420.2600000000002</ele>
        <time>2015-09-19T09:23:38Z</time>
      </trkpt>
      <trkpt lat="45.870392750948668" lon="7.979278536513448">
        <ele>2421.6999999999998</ele>
        <time>2015-09-19T09:23:49Z</time>
      </trkpt>
      <trkpt lat="45.870325611904263" lon="7.97923126257956">
        <ele>2422.6599999999999</ele>
        <time>2015-09-19T09:24:00Z</time>
      </trkpt>
      <trkpt lat="45.870280433446169" lon="7.979174265637994">
        <ele>2425.0599999999999</ele>
        <time>2015-09-19T09:24:10Z</time>
      </trkpt>
      <trkpt lat="45.870257299393415" lon="7.97914132475853">
        <ele>2425.0599999999999</ele>
        <time>2015-09-19T09:24:14Z</time>
      </trkpt>
      <trkpt lat="45.870203403756022" lon="7.979122046381235">
        <ele>2425.0599999999999</ele>
        <time>2015-09-19T09:24:25Z</time>
      </trkpt>
      <trkpt lat="45.87019007652998" lon="7.979111233726144">
        <ele>2424.5799999999999</ele>
        <time>2015-09-19T09:24:38Z</time>
      </trkpt>
      <trkpt lat="45.87017985060811" lon="7.979111652821302">
        <ele>2424.5799999999999</ele>
        <time>2015-09-19T09:24:47Z</time>
      </trkpt>
      <trkpt lat="45.870163422077894" lon="7.979093547910452">
        <ele>2424.5799999999999</ele>
        <time>2015-09-19T09:24:50Z</time>
      </trkpt>
      <trkpt lat="45.870137689635158" lon="7.97901576384902">
        <ele>2425.0599999999999</ele>
        <time>2015-09-19T09:24:59Z</time>
      </trkpt>
      <trkpt lat="45.870127128437161" lon="7.9790064599365">
        <ele>2424.5799999999999</ele>
        <time>2015-09-19T09:25:01Z</time>
      </trkpt>
      <trkpt lat="45.870127296075225" lon="7.978999838232994">
        <ele>2424.5799999999999</ele>
        <time>2015-09-19T09:25:12Z</time>
      </trkpt>
      <trkpt lat="45.870123608037829" lon="7.978984834626317">
        <ele>2424.0999999999999</ele>
        <time>2015-09-19T09:25:22Z</time>
      </trkpt>
      <trkpt lat="45.870152609422803" lon="7.978953318670392">
        <ele>2424.5799999999999</ele>
        <time>2015-09-19T09:25:31Z</time>
      </trkpt>
      <trkpt lat="45.870158141478896" lon="7.978979805484414">
        <ele>2425.0599999999999</ele>
        <time>2015-09-19T09:25:46Z</time>
      </trkpt>
      <trkpt lat="45.870161997154355" lon="7.978931609541178">
        <ele>2426.02</ele>
        <time>2015-09-19T09:25:59Z</time>
      </trkpt>
      <trkpt lat="45.870172809809446" lon="7.978886933997273">
        <ele>2427.4699999999998</ele>
        <time>2015-09-19T09:26:05Z</time>
      </trkpt>
      <trkpt lat="45.870170462876558" lon="7.978803282603622">
        <ele>2429.3899999999999</ele>
        <time>2015-09-19T09:26:15Z</time>
      </trkpt>
      <trkpt lat="45.87013098411262" lon="7.978750225156546">
        <ele>2430.8299999999999</ele>
        <time>2015-09-19T09:26:25Z</time>
      </trkpt>
      <trkpt lat="45.870099468156695" lon="7.978684008121491">
        <ele>2433.23</ele>
        <time>2015-09-19T09:26:36Z</time>
      </trkpt>
      <trkpt lat="45.870108939707279" lon="7.978633129969239">
        <ele>2435.1599999999999</ele>
        <time>2015-09-19T09:26:45Z</time>
      </trkpt>
      <trkpt lat="45.870127463713288" lon="7.978627178817987">
        <ele>2435.6399999999999</ele>
        <time>2015-09-19T09:26:57Z</time>
      </trkpt>
      <trkpt lat="45.870123775675893" lon="7.978575378656387">
        <ele>2437.5599999999999</ele>
        <time>2015-09-19T09:27:06Z</time>
      </trkpt>
      <trkpt lat="45.870121093466878" lon="7.978524584323168">
        <ele>2439.48</ele>
        <time>2015-09-19T09:27:15Z</time>
      </trkpt>
      <trkpt lat="45.870101060718298" lon="7.978476556017995">
        <ele>2440.4400000000001</ele>
        <time>2015-09-19T09:27:23Z</time>
      </trkpt>
      <trkpt lat="45.870058229193091" lon="7.978449482470751">
        <ele>2439.96</ele>
        <time>2015-09-19T09:27:29Z</time>
      </trkpt>
      <trkpt lat="45.870008859783411" lon="7.978392066434026">
        <ele>2440.4400000000001</ele>
        <time>2015-09-19T09:27:36Z</time>
      </trkpt>
      <trkpt lat="45.869964938610792" lon="7.978309839963913">
        <ele>2441.4099999999999</ele>
        <time>2015-09-19T09:27:46Z</time>
      </trkpt>
      <trkpt lat="45.869953623041511" lon="7.978294501081109">
        <ele>2441.8899999999999</ele>
        <time>2015-09-19T09:27:49Z</time>
      </trkpt>
      <trkpt lat="45.869903666898608" lon="7.978270193561912">
        <ele>2443.3299999999999</ele>
        <time>2015-09-19T09:27:58Z</time>
      </trkpt>
      <trkpt lat="45.869896374642849" lon="7.978208754211664">
        <ele>2444.77</ele>
        <time>2015-09-19T09:28:07Z</time>
      </trkpt>
      <trkpt lat="45.869892602786422" lon="7.978141950443387">
        <ele>2445.73</ele>
        <time>2015-09-19T09:28:17Z</time>
      </trkpt>
      <trkpt lat="45.869897799566388" lon="7.978119570761919">
        <ele>2447.1700000000001</ele>
        <time>2015-09-19T09:28:21Z</time>
      </trkpt>
      <trkpt lat="45.869903415441513" lon="7.978072464466095">
        <ele>2449.0999999999999</ele>
        <time>2015-09-19T09:28:29Z</time>
      </trkpt>
      <trkpt lat="45.86988371796906" lon="7.978041283786297">
        <ele>2451.5</ele>
        <time>2015-09-19T09:28:42Z</time>
      </trkpt>
      <trkpt lat="45.869793696328998" lon="7.978004235774279">
        <ele>2451.98</ele>
        <time>2015-09-19T09:28:54Z</time>
      </trkpt>
      <trkpt lat="45.869782464578748" lon="7.977958973497152">
        <ele>2453.9000000000001</ele>
        <time>2015-09-19T09:29:05Z</time>
      </trkpt>
      <trkpt lat="45.869734436273575" lon="7.977898037061095">
        <ele>2455.3400000000001</ele>
        <time>2015-09-19T09:29:14Z</time>
      </trkpt>
      <trkpt lat="45.86973711848259" lon="7.977839950472117">
        <ele>2456.79</ele>
        <time>2015-09-19T09:29:24Z</time>
      </trkpt>
      <trkpt lat="45.86972345598042" lon="7.977843722328544">
        <ele>2456.79</ele>
        <time>2015-09-19T09:29:34Z</time>
      </trkpt>
      <trkpt lat="45.869713732972741" lon="7.97781421802938">
        <ele>2456.79</ele>
        <time>2015-09-19T09:29:42Z</time>
      </trkpt>
      <trkpt lat="45.869694286957383" lon="7.977756299078465">
        <ele>2458.23</ele>
        <time>2015-09-19T09:29:51Z</time>
      </trkpt>
      <trkpt lat="45.869682636111975" lon="7.977723777294159">
        <ele>2459.1900000000001</ele>
        <time>2015-09-19T09:30:02Z</time>
      </trkpt>
      <trkpt lat="45.869681546464562" lon="7.977723358199">
        <ele>2459.1900000000001</ele>
        <time>2015-09-19T09:30:17Z</time>
      </trkpt>
      <trkpt lat="45.869667716324329" lon="7.977718748152256">
        <ele>2460.1500000000001</ele>
        <time>2015-09-19T09:30:29Z</time>
      </trkpt>
      <trkpt lat="45.869661848992109" lon="7.977671222761273">
        <ele>2460.6300000000001</ele>
        <time>2015-09-19T09:30:41Z</time>
      </trkpt>
      <trkpt lat="45.869621615856886" lon="7.977597881108522">
        <ele>2462.0700000000002</ele>
        <time>2015-09-19T09:30:52Z</time>
      </trkpt>
      <trkpt lat="45.8696364518255" lon="7.977611040696502">
        <ele>2463.04</ele>
        <time>2015-09-19T09:31:01Z</time>
      </trkpt>
      <trkpt lat="45.86959739215672" lon="7.977573741227388">
        <ele>2463.52</ele>
        <time>2015-09-19T09:31:11Z</time>
      </trkpt>
      <trkpt lat="45.869584903120995" lon="7.977489670738578">
        <ele>2465.9200000000001</ele>
        <time>2015-09-19T09:31:21Z</time>
      </trkpt>
      <trkpt lat="45.869593536481261" lon="7.977406941354275">
        <ele>2467.3600000000001</ele>
        <time>2015-09-19T09:31:31Z</time>
      </trkpt>
      <trkpt lat="45.869594709947705" lon="7.977326726540923">
        <ele>2469.7600000000002</ele>
        <time>2015-09-19T09:31:43Z</time>
      </trkpt>
      <trkpt lat="45.869585825130343" lon="7.977284733206034">
        <ele>2473.1300000000001</ele>
        <time>2015-09-19T09:31:53Z</time>
      </trkpt>
      <trkpt lat="45.869595715776086" lon="7.977251624688506">
        <ele>2473.6100000000001</ele>
        <time>2015-09-19T09:32:04Z</time>
      </trkpt>
      <trkpt lat="45.869595296680927" lon="7.977206278592348">
        <ele>2474.5700000000002</ele>
        <time>2015-09-19T09:32:19Z</time>
      </trkpt>
      <trkpt lat="45.869593285024166" lon="7.977199070155621">
        <ele>2475.5300000000002</ele>
        <time>2015-09-19T09:32:28Z</time>
      </trkpt>
      <trkpt lat="45.86959982290864" lon="7.97714576125145">
        <ele>2476.4899999999998</ele>
        <time>2015-09-19T09:32:40Z</time>
      </trkpt>
      <trkpt lat="45.869564199820161" lon="7.97709982842207">
        <ele>2478.4200000000001</ele>
        <time>2015-09-19T09:32:51Z</time>
      </trkpt>
      <trkpt lat="45.869584148749709" lon="7.977030929178">
        <ele>2480.8200000000002</ele>
        <time>2015-09-19T09:33:01Z</time>
      </trkpt>
      <trkpt lat="45.869588339701295" lon="7.976967813447118">
        <ele>2483.2199999999998</ele>
        <time>2015-09-19T09:33:13Z</time>
      </trkpt>
      <trkpt lat="45.869572833180428" lon="7.976910816505551">
        <ele>2485.1500000000001</ele>
        <time>2015-09-19T09:33:26Z</time>
      </trkpt>
      <trkpt lat="45.869562271982431" lon="7.976862788200378">
        <ele>2486.5900000000001</ele>
        <time>2015-09-19T09:33:38Z</time>
      </trkpt>
      <trkpt lat="45.869554812088609" lon="7.976840576156974">
        <ele>2486.5900000000001</ele>
        <time>2015-09-19T09:33:56Z</time>
      </trkpt>
      <trkpt lat="45.869573587551713" lon="7.976848036050797">
        <ele>2486.5900000000001</ele>
        <time>2015-09-19T09:34:08Z</time>
      </trkpt>
      <trkpt lat="45.869584735482931" lon="7.976802522316575">
        <ele>2488.5100000000002</ele>
        <time>2015-09-19T09:34:22Z</time>
      </trkpt>
      <trkpt lat="45.869590686634183" lon="7.976767234504223">
        <ele>2488.5100000000002</ele>
        <time>2015-09-19T09:34:31Z</time>
      </trkpt>
      <trkpt lat="45.869622370228171" lon="7.976741334423423">
        <ele>2490.9099999999999</ele>
        <time>2015-09-19T09:34:40Z</time>
      </trkpt>
      <trkpt lat="45.869616167619824" lon="7.976701352745295">
        <ele>2492.8400000000001</ele>
        <time>2015-09-19T09:34:49Z</time>
      </trkpt>
      <trkpt lat="45.869604265317321" lon="7.976646367460489">
        <ele>2494.7600000000002</ele>
        <time>2015-09-19T09:34:59Z</time>
      </trkpt>
      <trkpt lat="45.869629327207804" lon="7.976597165688872">
        <ele>2496.6799999999998</ele>
        <time>2015-09-19T09:35:10Z</time>
      </trkpt>
      <trkpt lat="45.869641983881593" lon="7.97654477879405">
        <ele>2498.1199999999999</ele>
        <time>2015-09-19T09:35:19Z</time>
      </trkpt>
      <trkpt lat="45.869652042165399" lon="7.97649784013629">
        <ele>2500.5300000000002</ele>
        <time>2015-09-19T09:35:31Z</time>
      </trkpt>
      <trkpt lat="45.869630584493279" lon="7.976450314745307">
        <ele>2501.4899999999998</ele>
        <time>2015-09-19T09:35:43Z</time>
      </trkpt>
      <trkpt lat="45.869645671918988" lon="7.976392563432455">
        <ele>2505.3299999999999</ele>
        <time>2015-09-19T09:35:56Z</time>
      </trkpt>
      <trkpt lat="45.869648940861225" lon="7.976346546784043">
        <ele>2505.8099999999999</ele>
        <time>2015-09-19T09:36:06Z</time>
      </trkpt>
      <trkpt lat="45.869623124599457" lon="7.976334141567349">
        <ele>2507.2600000000002</ele>
        <time>2015-09-19T09:36:21Z</time>
      </trkpt>
      <trkpt lat="45.869636535644531" lon="7.97626331448555">
        <ele>2509.1799999999998</ele>
        <time>2015-09-19T09:36:33Z</time>
      </trkpt>
      <trkpt lat="45.869639217853546" lon="7.976188380271196">
        <ele>2511.5799999999999</ele>
        <time>2015-09-19T09:36:46Z</time>
      </trkpt>
      <trkpt lat="45.869634356349707" lon="7.976146386936307">
        <ele>2513.98</ele>
        <time>2015-09-19T09:36:56Z</time>
      </trkpt>
      <trkpt lat="45.869630165398121" lon="7.976092910394073">
        <ele>2516.8699999999999</ele>
        <time>2015-09-19T09:37:08Z</time>
      </trkpt>
      <trkpt lat="45.869629075750709" lon="7.976030046120286">
        <ele>2519.27</ele>
        <time>2015-09-19T09:37:20Z</time>
      </trkpt>
      <trkpt lat="45.869588758796453" lon="7.976024346426129">
        <ele>2520.71</ele>
        <time>2015-09-19T09:37:29Z</time>
      </trkpt>
      <trkpt lat="45.869585322216153" lon="7.976035410538316">
        <ele>2520.71</ele>
        <time>2015-09-19T09:37:42Z</time>
      </trkpt>
      <trkpt lat="45.869581885635853" lon="7.976033734157682">
        <ele>2520.71</ele>
        <time>2015-09-19T09:37:59Z</time>
      </trkpt>
      <trkpt lat="45.869582975283265" lon="7.976038176566362">
        <ele>2520.71</ele>
        <time>2015-09-19T09:38:00Z</time>
      </trkpt>
      <trkpt lat="45.869607450440526" lon="7.975963829085231">
        <ele>2523.1199999999999</ele>
        <time>2015-09-19T09:38:12Z</time>
      </trkpt>
      <trkpt lat="45.869632679969072" lon="7.975916555151343">
        <ele>2525.52</ele>
        <time>2015-09-19T09:38:23Z</time>
      </trkpt>
      <trkpt lat="45.869638463482261" lon="7.975844303146005">
        <ele>2527.9200000000001</ele>
        <time>2015-09-19T09:38:33Z</time>
      </trkpt>
      <trkpt lat="45.86965941824019" lon="7.975788312032819">
        <ele>2529.8499999999999</ele>
        <time>2015-09-19T09:38:45Z</time>
      </trkpt>
      <trkpt lat="45.869629997760057" lon="7.97577565535903">
        <ele>2531.29</ele>
        <time>2015-09-19T09:38:58Z</time>
      </trkpt>
      <trkpt lat="45.869620945304632" lon="7.975738439708948">
        <ele>2532.25</ele>
        <time>2015-09-19T09:39:16Z</time>
      </trkpt>
      <trkpt lat="45.869633685797453" lon="7.97570776194334">
        <ele>2533.6900000000001</ele>
        <time>2015-09-19T09:39:20Z</time>
      </trkpt>
      <trkpt lat="45.869621448218822" lon="7.975689824670553">
        <ele>2535.1300000000001</ele>
        <time>2015-09-19T09:39:30Z</time>
      </trkpt>
      <trkpt lat="45.869586998596787" lon="7.975689489394426">
        <ele>2537.54</ele>
        <time>2015-09-19T09:39:39Z</time>
      </trkpt>
      <trkpt lat="45.869562020525336" lon="7.975637270137668">
        <ele>2539.46</ele>
        <time>2015-09-19T09:39:49Z</time>
      </trkpt>
      <trkpt lat="45.869572246447206" lon="7.975584715604782">
        <ele>2542.3400000000001</ele>
        <time>2015-09-19T09:39:58Z</time>
      </trkpt>
      <trkpt lat="45.869577694684267" lon="7.975519001483917">
        <ele>2543.3099999999999</ele>
        <time>2015-09-19T09:40:09Z</time>
      </trkpt>
      <trkpt lat="45.869554225355387" lon="7.975502153858542">
        <ele>2545.23</ele>
        <time>2015-09-19T09:40:19Z</time>
      </trkpt>
      <trkpt lat="45.869544837623835" lon="7.975462088361383">
        <ele>2547.1500000000001</ele>
        <time>2015-09-19T09:40:29Z</time>
      </trkpt>
      <trkpt lat="45.869538215920329" lon="7.97544096596539">
        <ele>2548.5900000000001</ele>
        <time>2015-09-19T09:40:40Z</time>
      </trkpt>
      <trkpt lat="45.869515417143703" lon="7.975452616810799">
        <ele>2549.0700000000002</ele>
        <time>2015-09-19T09:40:56Z</time>
      </trkpt>
      <trkpt lat="45.869501587003469" lon="7.975423531606793">
        <ele>2550.0300000000002</ele>
        <time>2015-09-19T09:41:02Z</time>
      </trkpt>
      <trkpt lat="45.869497731328011" lon="7.975368043407798">
        <ele>2552.4400000000001</ele>
        <time>2015-09-19T09:41:12Z</time>
      </trkpt>
      <trkpt lat="45.869458504021168" lon="7.975335186347365">
        <ele>2554.8400000000001</ele>
        <time>2015-09-19T09:41:23Z</time>
      </trkpt>
      <trkpt lat="45.86943956092" lon="7.975328229367733">
        <ele>2556.2800000000002</ele>
        <time>2015-09-19T09:41:28Z</time>
      </trkpt>
      <trkpt lat="45.86946445517242" lon="7.975272824987769">
        <ele>2558.6900000000001</ele>
        <time>2015-09-19T09:41:38Z</time>
      </trkpt>
      <trkpt lat="45.869458252564073" lon="7.975217336788774">
        <ele>2559.6500000000001</ele>
        <time>2015-09-19T09:41:47Z</time>
      </trkpt>
      <trkpt lat="45.869447020813823" lon="7.975217085331678">
        <ele>2560.1300000000001</ele>
        <time>2015-09-19T09:41:58Z</time>
      </trkpt>
      <trkpt lat="45.869424557313323" lon="7.975227478891611">
        <ele>2561.0900000000001</ele>
        <time>2015-09-19T09:42:09Z</time>
      </trkpt>
      <trkpt lat="45.869398154318333" lon="7.975199734792113">
        <ele>2563.4899999999998</ele>
        <time>2015-09-19T09:42:19Z</time>
      </trkpt>
      <trkpt lat="45.86937652900815" lon="7.975155645981431">
        <ele>2565.4200000000001</ele>
        <time>2015-09-19T09:42:30Z</time>
      </trkpt>
      <trkpt lat="45.869363788515329" lon="7.975136619061232">
        <ele>2567.3400000000001</ele>
        <time>2015-09-19T09:42:40Z</time>
      </trkpt>
      <trkpt lat="45.869358088821173" lon="7.975140474736691">
        <ele>2566.8600000000001</ele>
        <time>2015-09-19T09:42:52Z</time>
      </trkpt>
      <trkpt lat="45.869346689432859" lon="7.975136367604137">
        <ele>2568.7800000000002</ele>
        <time>2015-09-19T09:43:12Z</time>
      </trkpt>
      <trkpt lat="45.869298158213496" lon="7.975124884396792">
        <ele>2571.6599999999999</ele>
        <time>2015-09-19T09:43:24Z</time>
      </trkpt>
      <trkpt lat="45.869247447699308" lon="7.975123124197125">
        <ele>2573.5900000000001</ele>
        <time>2015-09-19T09:43:36Z</time>
      </trkpt>
      <trkpt lat="45.869199503213167" lon="7.975132344290614">
        <ele>2575.9899999999998</ele>
        <time>2015-09-19T09:43:47Z</time>
      </trkpt>
      <trkpt lat="45.869223810732365" lon="7.975073922425509">
        <ele>2577.4299999999998</ele>
        <time>2015-09-19T09:43:58Z</time>
      </trkpt>
      <trkpt lat="45.869206544011831" lon="7.975055817514658">
        <ele>2578.8699999999999</ele>
        <time>2015-09-19T09:44:07Z</time>
      </trkpt>
      <trkpt lat="45.869222469627857" lon="7.975032683461905">
        <ele>2580.8000000000002</ele>
        <time>2015-09-19T09:44:17Z</time>
      </trkpt>
      <trkpt lat="45.869255578145385" lon="7.974998401477933">
        <ele>2582.7199999999998</ele>
        <time>2015-09-19T09:44:25Z</time>
      </trkpt>
      <trkpt lat="45.86925390176475" lon="7.975044837221503">
        <ele>2582.7199999999998</ele>
        <time>2015-09-19T09:44:36Z</time>
      </trkpt>
      <trkpt lat="45.869280137121677" lon="7.974983314052224">
        <ele>2584.1599999999999</ele>
        <time>2015-09-19T09:44:54Z</time>
      </trkpt>
      <trkpt lat="45.86931886151433" lon="7.974960263818502">
        <ele>2585.5999999999999</ele>
        <time>2015-09-19T09:45:03Z</time>
      </trkpt>
      <trkpt lat="45.869280472397804" lon="7.974944589659572">
        <ele>2587.04</ele>
        <time>2015-09-19T09:45:10Z</time>
      </trkpt>
      <trkpt lat="45.869250297546387" lon="7.974925898015499">
        <ele>2589.4499999999998</ele>
        <time>2015-09-19T09:45:19Z</time>
      </trkpt>
      <trkpt lat="45.869222721084952" lon="7.974906368181109">
        <ele>2588.9699999999998</ele>
        <time>2015-09-19T09:45:38Z</time>
      </trkpt>
      <trkpt lat="45.869219116866589" lon="7.974877534434199">
        <ele>2589.9299999999998</ele>
        <time>2015-09-19T09:45:49Z</time>
      </trkpt>
      <trkpt lat="45.86927343159914" lon="7.974886083975434">
        <ele>2592.8099999999999</ele>
        <time>2015-09-19T09:46:01Z</time>
      </trkpt>
      <trkpt lat="45.869313832372427" lon="7.97484090551734">
        <ele>2593.29</ele>
        <time>2015-09-19T09:46:12Z</time>
      </trkpt>
      <trkpt lat="45.869312072172761" lon="7.97477887943387">
        <ele>2595.6999999999998</ele>
        <time>2015-09-19T09:46:25Z</time>
      </trkpt>
      <trkpt lat="45.86930712684989" lon="7.974736215546727">
        <ele>2598.0999999999999</ele>
        <time>2015-09-19T09:46:35Z</time>
      </trkpt>
      <trkpt lat="45.86929690092802" lon="7.97472171485424">
        <ele>2599.0599999999999</ele>
        <time>2015-09-19T09:46:43Z</time>
      </trkpt>
      <trkpt lat="45.869284579530358" lon="7.974679889157414">
        <ele>2599.0599999999999</ele>
        <time>2015-09-19T09:46:58Z</time>
      </trkpt>
      <trkpt lat="45.869298912584782" lon="7.974680475890636">
        <ele>2600.5</ele>
        <time>2015-09-19T09:47:10Z</time>
      </trkpt>
      <trkpt lat="45.869291368871927" lon="7.974699335172772">
        <ele>2600.5</ele>
        <time>2015-09-19T09:47:27Z</time>
      </trkpt>
      <trkpt lat="45.86928709410131" lon="7.974659604951739">
        <ele>2602.4299999999998</ele>
        <time>2015-09-19T09:47:38Z</time>
      </trkpt>
      <trkpt lat="45.869281813502312" lon="7.974645774811506">
        <ele>2603.8699999999999</ele>
        <time>2015-09-19T09:47:41Z</time>
      </trkpt>
      <trkpt lat="45.869246860966086" lon="7.974635381251574">
        <ele>2605.3099999999999</ele>
        <time>2015-09-19T09:47:53Z</time>
      </trkpt>
      <trkpt lat="45.869197575375438" lon="7.974618198350072">
        <ele>2607.23</ele>
        <time>2015-09-19T09:48:04Z</time>
      </trkpt>
      <trkpt lat="45.869202353060246" lon="7.974555836990476">
        <ele>2608.6700000000001</ele>
        <time>2015-09-19T09:48:13Z</time>
      </trkpt>
      <trkpt lat="45.869186846539378" lon="7.974515436217189">
        <ele>2611.5599999999999</ele>
        <time>2015-09-19T09:48:26Z</time>
      </trkpt>
      <trkpt lat="45.869186846539378" lon="7.97444511204958">
        <ele>2613.48</ele>
        <time>2015-09-19T09:48:38Z</time>
      </trkpt>
      <trkpt lat="45.869165388867259" lon="7.974418876692653">
        <ele>2615.4000000000001</ele>
        <time>2015-09-19T09:48:47Z</time>
      </trkpt>
      <trkpt lat="45.869148038327694" lon="7.974392473697662">
        <ele>2617.3299999999999</ele>
        <time>2015-09-19T09:49:00Z</time>
      </trkpt>
      <trkpt lat="45.869168490171432" lon="7.974354671314359">
        <ele>2619.25</ele>
        <time>2015-09-19T09:49:12Z</time>
      </trkpt>
      <trkpt lat="45.869145356118679" lon="7.97431418672204">
        <ele>2621.1700000000001</ele>
        <time>2015-09-19T09:49:21Z</time>
      </trkpt>
      <trkpt lat="45.86914493702352" lon="7.9743542522192">
        <ele>2621.6500000000001</ele>
        <time>2015-09-19T09:49:32Z</time>
      </trkpt>
      <trkpt lat="45.869161700829864" lon="7.97435475513339">
        <ele>2621.1700000000001</ele>
        <time>2015-09-19T09:49:51Z</time>
      </trkpt>
      <trkpt lat="45.869146026670933" lon="7.974341511726379">
        <ele>2621.6500000000001</ele>
        <time>2015-09-19T09:50:07Z</time>
      </trkpt>
      <trkpt lat="45.869154073297977" lon="7.974304715171456">
        <ele>2622.6100000000001</ele>
        <time>2015-09-19T09:50:16Z</time>
      </trkpt>
      <trkpt lat="45.869164885953069" lon="7.974346708506346">
        <ele>2622.1300000000001</ele>
        <time>2015-09-19T09:50:34Z</time>
      </trkpt>
      <trkpt lat="45.869183074682951" lon="7.974357940256596">
        <ele>2622.1300000000001</ele>
        <time>2015-09-19T09:50:47Z</time>
      </trkpt>
      <trkpt lat="45.869126999750733" lon="7.974299350753427">
        <ele>2622.6100000000001</ele>
        <time>2015-09-19T09:51:02Z</time>
      </trkpt>
      <trkpt lat="45.869046030566096" lon="7.974259285256267">
        <ele>2624.0599999999999</ele>
        <time>2015-09-19T09:51:12Z</time>
      </trkpt>
      <trkpt lat="45.868988698348403" lon="7.974218130111694">
        <ele>2625.02</ele>
        <time>2015-09-19T09:51:22Z</time>
      </trkpt>
      <trkpt lat="45.868954919278622" lon="7.974190302193165">
        <ele>2626.46</ele>
        <time>2015-09-19T09:51:32Z</time>
      </trkpt>
      <trkpt lat="45.868906304240227" lon="7.974179908633232">
        <ele>2627.9000000000001</ele>
        <time>2015-09-19T09:51:40Z</time>
      </trkpt>
      <trkpt lat="45.868847966194153" lon="7.97419591806829">
        <ele>2629.8200000000002</ele>
        <time>2015-09-19T09:51:51Z</time>
      </trkpt>
      <trkpt lat="45.868795830756426" lon="7.974206646904349">
        <ele>2631.75</ele>
        <time>2015-09-19T09:52:01Z</time>
      </trkpt>
      <trkpt lat="45.868747718632221" lon="7.974192649126053">
        <ele>2633.6700000000001</ele>
        <time>2015-09-19T09:52:12Z</time>
      </trkpt>
      <trkpt lat="45.86870756931603" lon="7.974186697974801">
        <ele>2636.0700000000002</ele>
        <time>2015-09-19T09:52:24Z</time>
      </trkpt>
      <trkpt lat="45.868673203513026" lon="7.974197678267956">
        <ele>2637.5100000000002</ele>
        <time>2015-09-19T09:52:34Z</time>
      </trkpt>
      <trkpt lat="45.86866021156311" lon="7.97416515648365">
        <ele>2639.9200000000001</ele>
        <time>2015-09-19T09:52:46Z</time>
      </trkpt>
      <trkpt lat="45.868631880730391" lon="7.974128527566791">
        <ele>2641.3600000000001</ele>
        <time>2015-09-19T09:52:56Z</time>
      </trkpt>
      <trkpt lat="45.868610758334398" lon="7.974112099036574">
        <ele>2643.2800000000002</ele>
        <time>2015-09-19T09:53:06Z</time>
      </trkpt>
      <trkpt lat="45.868628611788154" lon="7.974124839529395">
        <ele>2643.7600000000002</ele>
        <time>2015-09-19T09:53:21Z</time>
      </trkpt>
      <trkpt lat="45.868640514090657" lon="7.974126432090998">
        <ele>2644.2399999999998</ele>
        <time>2015-09-19T09:53:40Z</time>
      </trkpt>
      <trkpt lat="45.86864017881453" lon="7.974076895043254">
        <ele>2645.6900000000001</ele>
        <time>2015-09-19T09:53:50Z</time>
      </trkpt>
      <trkpt lat="45.868636826053262" lon="7.974038673564792">
        <ele>2648.0900000000001</ele>
        <time>2015-09-19T09:54:01Z</time>
      </trkpt>
      <trkpt lat="45.868632132187486" lon="7.974019143730402">
        <ele>2650.0100000000002</ele>
        <time>2015-09-19T09:54:13Z</time>
      </trkpt>
      <trkpt lat="45.868645459413528" lon="7.973950328305364">
        <ele>2652.9000000000001</ele>
        <time>2015-09-19T09:54:26Z</time>
      </trkpt>
      <trkpt lat="45.868642693385482" lon="7.97395795583725">
        <ele>2654.3400000000001</ele>
        <time>2015-09-19T09:54:39Z</time>
      </trkpt>
      <trkpt lat="45.868631880730391" lon="7.973926607519388">
        <ele>2656.2600000000002</ele>
        <time>2015-09-19T09:54:50Z</time>
      </trkpt>
      <trkpt lat="45.868649482727051" lon="7.973912861198187">
        <ele>2657.2199999999998</ele>
        <time>2015-09-19T09:55:00Z</time>
      </trkpt>
      <trkpt lat="45.868670772761106" lon="7.973914705216885">
        <ele>2657.6999999999998</ele>
        <time>2015-09-19T09:55:20Z</time>
      </trkpt>
      <trkpt lat="45.868678484112024" lon="7.97392132692039">
        <ele>2657.6999999999998</ele>
        <time>2015-09-19T09:55:32Z</time>
      </trkpt>
      <trkpt lat="45.868690637871623" lon="7.973901377990842">
        <ele>2660.5900000000001</ele>
        <time>2015-09-19T09:55:44Z</time>
      </trkpt>
      <trkpt lat="45.868685273453593" lon="7.973862234503031">
        <ele>2662.5100000000002</ele>
        <time>2015-09-19T09:55:54Z</time>
      </trkpt>
      <trkpt lat="45.868671275675297" lon="7.973829712718725">
        <ele>2663.9499999999998</ele>
        <time>2015-09-19T09:56:03Z</time>
      </trkpt>
      <trkpt lat="45.868664737790823" lon="7.973842704668641">
        <ele>2666.8299999999999</ele>
        <time>2015-09-19T09:56:12Z</time>
      </trkpt>
      <trkpt lat="45.868654763326049" lon="7.97380892559886">
        <ele>2668.7600000000002</ele>
        <time>2015-09-19T09:56:21Z</time>
      </trkpt>
      <trkpt lat="45.868698768317699" lon="7.973800795152783">
        <ele>2670.1999999999998</ele>
        <time>2015-09-19T09:56:32Z</time>
      </trkpt>
      <trkpt lat="45.868706731125712" lon="7.973812781274319">
        <ele>2669.7199999999998</ele>
        <time>2015-09-19T09:56:45Z</time>
      </trkpt>
      <trkpt lat="45.868702204898" lon="7.973822169005871">
        <ele>2670.1999999999998</ele>
        <time>2015-09-19T09:57:00Z</time>
      </trkpt>
      <trkpt lat="45.868733134120703" lon="7.973775314167142">
        <ele>2670.6799999999998</ele>
        <time>2015-09-19T09:57:12Z</time>
      </trkpt>
      <trkpt lat="45.86875936947763" lon="7.973700631409884">
        <ele>2673.5599999999999</ele>
        <time>2015-09-19T09:57:22Z</time>
      </trkpt>
      <trkpt lat="45.868722908198833" lon="7.973717981949449">
        <ele>2675.4899999999998</ele>
        <time>2015-09-19T09:57:33Z</time>
      </trkpt>
      <trkpt lat="45.868699941784143" lon="7.973689483478665">
        <ele>2677.4099999999999</ele>
        <time>2015-09-19T09:57:43Z</time>
      </trkpt>
      <trkpt lat="45.868700109422207" lon="7.973655285313726">
        <ele>2680.77</ele>
        <time>2015-09-19T09:57:53Z</time>
      </trkpt>
      <trkpt lat="45.868714945390821" lon="7.973648747429252">
        <ele>2681.25</ele>
        <time>2015-09-19T09:58:01Z</time>
      </trkpt>
      <trkpt lat="45.868751155212522" lon="7.973644388839603">
        <ele>2681.25</ele>
        <time>2015-09-19T09:58:21Z</time>
      </trkpt>
      <trkpt lat="45.868739001452923" lon="7.973620248958468">
        <ele>2682.2199999999998</ele>
        <time>2015-09-19T09:58:33Z</time>
      </trkpt>
      <trkpt lat="45.868733301758766" lon="7.973586637526751">
        <ele>2684.1399999999999</ele>
        <time>2015-09-19T09:58:43Z</time>
      </trkpt>
      <trkpt lat="45.868728440254927" lon="7.973625026643276">
        <ele>2685.0999999999999</ele>
        <time>2015-09-19T09:58:53Z</time>
      </trkpt>
      <trkpt lat="45.868740426376462" lon="7.973650256171823">
        <ele>2684.1399999999999</ele>
        <time>2015-09-19T09:59:06Z</time>
      </trkpt>
      <trkpt lat="45.868741348385811" lon="7.973597114905715">
        <ele>2686.54</ele>
        <time>2015-09-19T09:59:15Z</time>
      </trkpt>
      <trkpt lat="45.868729026988149" lon="7.973553529009223">
        <ele>2688.46</ele>
        <time>2015-09-19T09:59:29Z</time>
      </trkpt>
      <trkpt lat="45.868731290102005" lon="7.973569203168154">
        <ele>2688.9400000000001</ele>
        <time>2015-09-19T09:59:40Z</time>
      </trkpt>
      <trkpt lat="45.868694745004177" lon="7.973573310300708">
        <ele>2689.9099999999999</ele>
        <time>2015-09-19T09:59:57Z</time>
      </trkpt>
      <trkpt lat="45.86868217214942" lon="7.973533915355802">
        <ele>2692.3099999999999</ele>
        <time>2015-09-19T10:00:06Z</time>
      </trkpt>
      <trkpt lat="45.868672365322709" lon="7.973552104085684">
        <ele>2693.75</ele>
        <time>2015-09-19T10:00:11Z</time>
      </trkpt>
      <trkpt lat="45.868686614558101" lon="7.973508685827255">
        <ele>2694.23</ele>
        <time>2015-09-19T10:00:25Z</time>
      </trkpt>
      <trkpt lat="45.86866457015276" lon="7.973534502089024">
        <ele>2694.71</ele>
        <time>2015-09-19T10:00:35Z</time>
      </trkpt>
      <trkpt lat="45.868679406121373" lon="7.973465686663985">
        <ele>2696.6399999999999</ele>
        <time>2015-09-19T10:00:44Z</time>
      </trkpt>
      <trkpt lat="45.868711927905679" lon="7.973416987806559">
        <ele>2698.5599999999999</ele>
        <time>2015-09-19T10:00:54Z</time>
      </trkpt>
      <trkpt lat="45.868755597621202" lon="7.973373737186194">
        <ele>2700.96</ele>
        <time>2015-09-19T10:01:06Z</time>
      </trkpt>
      <trkpt lat="45.868792813271284" lon="7.97335890121758">
        <ele>2703.3600000000001</ele>
        <time>2015-09-19T10:01:16Z</time>
      </trkpt>
      <trkpt lat="45.868792561814189" lon="7.973344149067998">
        <ele>2705.29</ele>
        <time>2015-09-19T10:01:27Z</time>
      </trkpt>
      <trkpt lat="45.868805050849915" lon="7.973336186259985">
        <ele>2706.73</ele>
        <time>2015-09-19T10:01:37Z</time>
      </trkpt>
      <trkpt lat="45.868800524622202" lon="7.973314393311739">
        <ele>2707.6900000000001</ele>
        <time>2015-09-19T10:01:46Z</time>
      </trkpt>
      <trkpt lat="45.868795830756426" lon="7.973306262865663">
        <ele>2708.1700000000001</ele>
        <time>2015-09-19T10:02:01Z</time>
      </trkpt>
      <trkpt lat="45.868821479380131" lon="7.97327826730907">
        <ele>2711.54</ele>
        <time>2015-09-19T10:02:11Z</time>
      </trkpt>
      <trkpt lat="45.868836063891649" lon="7.973337611183524">
        <ele>2710.5700000000002</ele>
        <time>2015-09-19T10:02:32Z</time>
      </trkpt>
      <trkpt lat="45.868805218487978" lon="7.973331157118082">
        <ele>2712.5</ele>
        <time>2015-09-19T10:02:43Z</time>
      </trkpt>
      <trkpt lat="45.86880044080317" lon="7.9732870683074">
        <ele>2714.4200000000001</ele>
        <time>2015-09-19T10:02:49Z</time>
      </trkpt>
      <trkpt lat="45.868810499086976" lon="7.973214061930776">
        <ele>2716.8200000000002</ele>
        <time>2015-09-19T10:02:59Z</time>
      </trkpt>
      <trkpt lat="45.868823491036892" lon="7.973175337538123">
        <ele>2718.75</ele>
        <time>2015-09-19T10:03:10Z</time>
      </trkpt>
      <trkpt lat="45.868821144104004" lon="7.973206099122763">
        <ele>2718.75</ele>
        <time>2015-09-19T10:03:26Z</time>
      </trkpt>
      <trkpt lat="45.868798093870282" lon="7.973203165456653">
        <ele>2719.71</ele>
        <time>2015-09-19T10:03:38Z</time>
      </trkpt>
      <trkpt lat="45.868788454681635" lon="7.973195789381862">
        <ele>2721.1500000000001</ele>
        <time>2015-09-19T10:03:41Z</time>
      </trkpt>
      <trkpt lat="45.868780156597495" lon="7.973148599267006">
        <ele>2723.5500000000002</ele>
        <time>2015-09-19T10:03:51Z</time>
      </trkpt>
      <trkpt lat="45.868738917633891" lon="7.973124207928777">
        <ele>2725.96</ele>
        <time>2015-09-19T10:04:01Z</time>
      </trkpt>
      <trkpt lat="45.868751239031553" lon="7.973066288977861">
        <ele>2728.3600000000001</ele>
        <time>2015-09-19T10:04:10Z</time>
      </trkpt>
      <trkpt lat="45.868750903755426" lon="7.973059164360166">
        <ele>2729.3200000000002</ele>
        <time>2015-09-19T10:04:20Z</time>
      </trkpt>
      <trkpt lat="45.86875693872571" lon="7.973016584292054">
        <ele>2731.2399999999998</ele>
        <time>2015-09-19T10:04:32Z</time>
      </trkpt>
      <trkpt lat="45.868734139949083" lon="7.972962437197566">
        <ele>2733.1700000000001</ele>
        <time>2015-09-19T10:04:40Z</time>
      </trkpt>
      <trkpt lat="45.86873053573072" lon="7.972964365035296">
        <ele>2733.6500000000001</ele>
        <time>2015-09-19T10:04:45Z</time>
      </trkpt>
      <trkpt lat="45.868734056130052" lon="7.972916755825281">
        <ele>2732.6799999999998</ele>
        <time>2015-09-19T10:04:55Z</time>
      </trkpt>
      <trkpt lat="45.868770433589816" lon="7.972931507974863">
        <ele>2733.1700000000001</ele>
        <time>2015-09-19T10:05:14Z</time>
      </trkpt>
      <trkpt lat="45.868781413882971" lon="7.972965035587549">
        <ele>2732.6799999999998</ele>
        <time>2015-09-19T10:05:22Z</time>
      </trkpt>
      <trkpt lat="45.868799518793821" lon="7.972972076386213">
        <ele>2732.6799999999998</ele>
        <time>2015-09-19T10:05:47Z</time>
      </trkpt>
      <trkpt lat="45.868774373084307" lon="7.972969729453325">
        <ele>2732.6799999999998</ele>
        <time>2015-09-19T10:06:18Z</time>
      </trkpt>
      <trkpt lat="45.868778564035892" lon="7.972968304529786">
        <ele>2733.1700000000001</ele>
        <time>2015-09-19T10:06:49Z</time>
      </trkpt>
      <trkpt lat="45.868783174082637" lon="7.972976015880704">
        <ele>2733.1700000000001</ele>
        <time>2015-09-19T10:07:20Z</time>
      </trkpt>
      <trkpt lat="45.868788622319698" lon="7.972978446632624">
        <ele>2733.1700000000001</ele>
        <time>2015-09-19T10:07:54Z</time>
      </trkpt>
      <trkpt lat="45.86878920905292" lon="7.972957659512758">
        <ele>2733.6500000000001</ele>
        <time>2015-09-19T10:08:23Z</time>
      </trkpt>
      <trkpt lat="45.868779066950083" lon="7.972959671169519">
        <ele>2733.6500000000001</ele>
        <time>2015-09-19T10:08:49Z</time>
      </trkpt>
      <trkpt lat="45.868761213496327" lon="7.972913989797235">
        <ele>2733.6500000000001</ele>
        <time>2015-09-19T10:09:09Z</time>
      </trkpt>
      <trkpt lat="45.868756351992488" lon="7.972895968705416">
        <ele>2734.1300000000001</ele>
        <time>2015-09-19T10:09:31Z</time>
      </trkpt>
      <trkpt lat="45.868754172697663" lon="7.972891610115767">
        <ele>2734.1300000000001</ele>
        <time>2015-09-19T10:09:51Z</time>
      </trkpt>
      <trkpt lat="45.868731625378132" lon="7.972872080281377">
        <ele>2734.1300000000001</ele>
        <time>2015-09-19T10:10:22Z</time>
      </trkpt>
      <trkpt lat="45.868717459961772" lon="7.972855484113097">
        <ele>2734.1300000000001</ele>
        <time>2015-09-19T10:10:35Z</time>
      </trkpt>
      <trkpt lat="45.868752663955092" lon="7.972887502983213">
        <ele>2735.5700000000002</ele>
        <time>2015-09-19T10:10:54Z</time>
      </trkpt>
      <trkpt lat="45.868771858513355" lon="7.972878199070692">
        <ele>2736.0500000000002</ele>
        <time>2015-09-19T10:10:57Z</time>
      </trkpt>
      <trkpt lat="45.868845200166106" lon="7.972756829112768">
        <ele>2736.0500000000002</ele>
        <time>2015-09-19T10:11:09Z</time>
      </trkpt>
      <trkpt lat="45.868856515735388" lon="7.972749704495072">
        <ele>2736.5300000000002</ele>
        <time>2015-09-19T10:11:19Z</time>
      </trkpt>
      <trkpt lat="45.868856683373451" lon="7.972746267914772">
        <ele>2736.5300000000002</ele>
        <time>2015-09-19T10:11:36Z</time>
      </trkpt>
      <trkpt lat="45.868852576240897" lon="7.972753141075373">
        <ele>2736.5300000000002</ele>
        <time>2015-09-19T10:11:55Z</time>
      </trkpt>
      <trkpt lat="45.868844529613853" lon="7.972764791920781">
        <ele>2736.5300000000002</ele>
        <time>2015-09-19T10:12:11Z</time>
      </trkpt>
      <trkpt lat="45.868841679766774" lon="7.972753643989563">
        <ele>2736.5300000000002</ele>
        <time>2015-09-19T10:12:26Z</time>
      </trkpt>
      <trkpt lat="45.868849391117692" lon="7.972741574048996">
        <ele>2736.0500000000002</ele>
        <time>2015-09-19T10:12:39Z</time>
      </trkpt>
      <trkpt lat="45.868827011436224" lon="7.972732605412602">
        <ele>2737.0100000000002</ele>
        <time>2015-09-19T10:13:00Z</time>
      </trkpt>
      <trkpt lat="45.86884637363255" lon="7.972766133025289">
        <ele>2737.0100000000002</ele>
        <time>2015-09-19T10:13:21Z</time>
      </trkpt>
      <trkpt lat="45.868859784677625" lon="7.972758589312434">
        <ele>2737.0100000000002</ele>
        <time>2015-09-19T10:13:36Z</time>
      </trkpt>
      <trkpt lat="45.868857773020864" lon="7.972786081954837">
        <ele>2737.4899999999998</ele>
        <time>2015-09-19T10:13:59Z</time>
      </trkpt>
      <trkpt lat="45.868868082761765" lon="7.972799828276038">
        <ele>2737.4899999999998</ele>
        <time>2015-09-19T10:14:20Z</time>
      </trkpt>
      <trkpt lat="45.868884930387139" lon="7.972791362553835">
        <ele>2737.4899999999998</ele>
        <time>2015-09-19T10:14:46Z</time>
      </trkpt>
      <trkpt lat="45.868877051398158" lon="7.972797229886055">
        <ele>2737.4899999999998</ele>
        <time>2015-09-19T10:15:01Z</time>
      </trkpt>
      <trkpt lat="45.8688800688833" lon="7.972801672294736">
        <ele>2737.4899999999998</ele>
        <time>2015-09-19T10:15:21Z</time>
      </trkpt>
      <trkpt lat="45.868867998942733" lon="7.97279111109674">
        <ele>2737.4899999999998</ele>
        <time>2015-09-19T10:15:34Z</time>
      </trkpt>
      <trkpt lat="45.868865316733718" lon="7.972779460251331">
        <ele>2737.4899999999998</ele>
        <time>2015-09-19T10:15:57Z</time>
      </trkpt>
      <trkpt lat="45.868867998942733" lon="7.97279404476285">
        <ele>2737.4899999999998</ele>
        <time>2015-09-19T10:16:25Z</time>
      </trkpt>
      <trkpt lat="45.86889180354774" lon="7.972754230722785">
        <ele>2737.4899999999998</ele>
        <time>2015-09-19T10:16:42Z</time>
      </trkpt>
      <trkpt lat="45.86892013438046" lon="7.972673010081053">
        <ele>2736.0500000000002</ele>
        <time>2015-09-19T10:16:51Z</time>
      </trkpt>
      <trkpt lat="45.868971850723028" lon="7.972580892965198">
        <ele>2735.0900000000001</ele>
        <time>2015-09-19T10:17:02Z</time>
      </trkpt>
      <trkpt lat="45.8689871057868" lon="7.972555411979556">
        <ele>2735.0900000000001</ele>
        <time>2015-09-19T10:17:12Z</time>
      </trkpt>
      <trkpt lat="45.869036475196481" lon="7.972470251843333">
        <ele>2734.6100000000001</ele>
        <time>2015-09-19T10:17:22Z</time>
      </trkpt>
      <trkpt lat="45.869036391377449" lon="7.972462121397257">
        <ele>2734.6100000000001</ele>
        <time>2015-09-19T10:17:23Z</time>
      </trkpt>
      <trkpt lat="45.869050808250904" lon="7.972379643470049">
        <ele>2733.1700000000001</ele>
        <time>2015-09-19T10:17:32Z</time>
      </trkpt>
      <trkpt lat="45.869102524593472" lon="7.972285766154528">
        <ele>2733.1700000000001</ele>
        <time>2015-09-19T10:17:43Z</time>
      </trkpt>
      <trkpt lat="45.869143512099981" lon="7.972172107547522">
        <ele>2733.1700000000001</ele>
        <time>2015-09-19T10:17:54Z</time>
      </trkpt>
      <trkpt lat="45.869153486564755" lon="7.972149811685085">
        <ele>2734.1300000000001</ele>
        <time>2015-09-19T10:18:04Z</time>
      </trkpt>
      <trkpt lat="45.869167484343052" lon="7.972143776714802">
        <ele>2734.6100000000001</ele>
        <time>2015-09-19T10:18:09Z</time>
      </trkpt>
      <trkpt lat="45.869170418009162" lon="7.972075212746859">
        <ele>2734.6100000000001</ele>
        <time>2015-09-19T10:18:19Z</time>
      </trkpt>
      <trkpt lat="45.869181146845222" lon="7.972083929926157">
        <ele>2734.6100000000001</ele>
        <time>2015-09-19T10:18:29Z</time>
      </trkpt>
      <trkpt lat="45.869199084118009" lon="7.972071524709463">
        <ele>2736.0500000000002</ele>
        <time>2015-09-19T10:18:39Z</time>
      </trkpt>
      <trkpt lat="45.869209561496973" lon="7.972000194713473">
        <ele>2736.0500000000002</ele>
        <time>2015-09-19T10:18:47Z</time>
      </trkpt>
      <trkpt lat="45.869243508204818" lon="7.971979156136513">
        <ele>2737.4899999999998</ele>
        <time>2015-09-19T10:18:56Z</time>
      </trkpt>
      <trkpt lat="45.869267480447888" lon="7.971916710957885">
        <ele>2738.4499999999998</ele>
        <time>2015-09-19T10:19:05Z</time>
      </trkpt>
      <trkpt lat="45.869270078837872" lon="7.971910424530506">
        <ele>2738.4499999999998</ele>
        <time>2015-09-19T10:19:06Z</time>
      </trkpt>
      <trkpt lat="45.869294470176101" lon="7.97187739983201">
        <ele>2738.9299999999998</ele>
        <time>2015-09-19T10:19:17Z</time>
      </trkpt>
      <trkpt lat="45.869347443804145" lon="7.971894918009639">
        <ele>2739.4099999999999</ele>
        <time>2015-09-19T10:19:26Z</time>
      </trkpt>
      <trkpt lat="45.869372170418501" lon="7.971904641017318">
        <ele>2740.8600000000001</ele>
        <time>2015-09-19T10:19:37Z</time>
      </trkpt>
      <trkpt lat="45.869382563978434" lon="7.9719003662467">
        <ele>2742.3000000000002</ele>
        <time>2015-09-19T10:19:47Z</time>
      </trkpt>
      <trkpt lat="45.869398238137364" lon="7.971923584118486">
        <ele>2743.2600000000002</ele>
        <time>2015-09-19T10:19:56Z</time>
      </trkpt>
      <trkpt lat="45.869423551484942" lon="7.971903719007969">
        <ele>2744.6999999999998</ele>
        <time>2015-09-19T10:20:07Z</time>
      </trkpt>
      <trkpt lat="45.869451379403472" lon="7.971898270770907">
        <ele>2746.6199999999999</ele>
        <time>2015-09-19T10:20:18Z</time>
      </trkpt>
      <trkpt lat="45.869483230635524" lon="7.971929283812642">
        <ele>2748.0700000000002</ele>
        <time>2015-09-19T10:20:27Z</time>
      </trkpt>
      <trkpt lat="45.869503347203135" lon="7.97188762575388">
        <ele>2749.9899999999998</ele>
        <time>2015-09-19T10:20:37Z</time>
      </trkpt>
      <trkpt lat="45.869519105181098" lon="7.97186566516757">
        <ele>2750.4699999999998</ele>
        <time>2015-09-19T10:20:48Z</time>
      </trkpt>
      <trkpt lat="45.869556572288275" lon="7.971866335719824">
        <ele>2752.8699999999999</ele>
        <time>2015-09-19T10:21:09Z</time>
      </trkpt>
      <trkpt lat="45.869583478197455" lon="7.971843285486102">
        <ele>2753.8299999999999</ele>
        <time>2015-09-19T10:21:13Z</time>
      </trkpt>
      <trkpt lat="45.869625974446535" lon="7.97182316891849">
        <ele>2755.7600000000002</ele>
        <time>2015-09-19T10:21:21Z</time>
      </trkpt>
      <trkpt lat="45.869646174833179" lon="7.971807243302465">
        <ele>2757.6799999999998</ele>
        <time>2015-09-19T10:21:30Z</time>
      </trkpt>
      <trkpt lat="45.869662938639522" lon="7.971752677112818">
        <ele>2758.6399999999999</ele>
        <time>2015-09-19T10:21:38Z</time>
      </trkpt>
      <trkpt lat="45.869673416018486" lon="7.971731470897794">
        <ele>2760.0799999999999</ele>
        <time>2015-09-19T10:21:48Z</time>
      </trkpt>
      <trkpt lat="45.869699148461223" lon="7.971741613000631">
        <ele>2761.04</ele>
        <time>2015-09-19T10:22:02Z</time>
      </trkpt>
      <trkpt lat="45.869736364111304" lon="7.971701547503471">
        <ele>2762.4899999999998</ele>
        <time>2015-09-19T10:22:11Z</time>
      </trkpt>
      <trkpt lat="45.86977475322783" lon="7.971692159771919">
        <ele>2764.4099999999999</ele>
        <time>2015-09-19T10:22:21Z</time>
      </trkpt>
      <trkpt lat="45.869782716035843" lon="7.971694506704807">
        <ele>2765.3699999999999</ele>
        <time>2015-09-19T10:22:24Z</time>
      </trkpt>
      <trkpt lat="45.869795456528664" lon="7.971688890829682">
        <ele>2765.3699999999999</ele>
        <time>2015-09-19T10:22:34Z</time>
      </trkpt>
      <trkpt lat="45.869797552004457" lon="7.971679251641035">
        <ele>2766.8099999999999</ele>
        <time>2015-09-19T10:22:38Z</time>
      </trkpt>
      <trkpt lat="45.869831833988428" lon="7.971698278561235">
        <ele>2768.25</ele>
        <time>2015-09-19T10:22:49Z</time>
      </trkpt>
      <trkpt lat="45.869848849251866" lon="7.97166533768177">
        <ele>2770.1799999999998</ele>
        <time>2015-09-19T10:22:59Z</time>
      </trkpt>
      <trkpt lat="45.869870474562049" lon="7.971643628552556">
        <ele>2772.0999999999999</ele>
        <time>2015-09-19T10:23:08Z</time>
      </trkpt>
      <trkpt lat="45.86989251896739" lon="7.971598282456398">
        <ele>2772.5799999999999</ele>
        <time>2015-09-19T10:23:17Z</time>
      </trkpt>
      <trkpt lat="45.869911713525653" lon="7.971585458144546">
        <ele>2774.02</ele>
        <time>2015-09-19T10:23:25Z</time>
      </trkpt>
      <trkpt lat="45.869937529787421" lon="7.971547404304147">
        <ele>2775.9400000000001</ele>
        <time>2015-09-19T10:23:35Z</time>
      </trkpt>
      <trkpt lat="45.869955467060208" lon="7.97148990444839">
        <ele>2776.4200000000001</ele>
        <time>2015-09-19T10:23:45Z</time>
      </trkpt>
      <trkpt lat="45.869959658011794" lon="7.971514631062746">
        <ele>2775.9400000000001</ele>
        <time>2015-09-19T10:23:49Z</time>
      </trkpt>
      <trkpt lat="45.869942642748356" lon="7.971526449546218">
        <ele>2775.46</ele>
        <time>2015-09-19T10:24:11Z</time>
      </trkpt>
      <trkpt lat="45.869945995509624" lon="7.971531394869089">
        <ele>2776.4200000000001</ele>
        <time>2015-09-19T10:24:39Z</time>
      </trkpt>
      <trkpt lat="45.869976170361042" lon="7.971522510051727">
        <ele>2776.9099999999999</ele>
        <time>2015-09-19T10:24:48Z</time>
      </trkpt>
      <trkpt lat="45.870025875046849" lon="7.971503399312496">
        <ele>2778.3499999999999</ele>
        <time>2015-09-19T10:24:56Z</time>
      </trkpt>
      <trkpt lat="45.870058732107282" lon="7.971465261653066">
        <ele>2780.27</ele>
        <time>2015-09-19T10:25:08Z</time>
      </trkpt>
      <trkpt lat="45.870066359639168" lon="7.971442881971598">
        <ele>2781.71</ele>
        <time>2015-09-19T10:25:23Z</time>
      </trkpt>
      <trkpt lat="45.87007381953299" lon="7.971438355743885">
        <ele>2782.1900000000001</ele>
        <time>2015-09-19T10:25:35Z</time>
      </trkpt>
      <trkpt lat="45.870094522833824" lon="7.971424525603652">
        <ele>2783.1500000000001</ele>
        <time>2015-09-19T10:25:44Z</time>
      </trkpt>
      <trkpt lat="45.870112208649516" lon="7.971372473984957">
        <ele>2784.1199999999999</ele>
        <time>2015-09-19T10:25:55Z</time>
      </trkpt>
      <trkpt lat="45.870114471763372" lon="7.971348585560918">
        <ele>2784.5999999999999</ele>
        <time>2015-09-19T10:26:05Z</time>
      </trkpt>
      <trkpt lat="45.870141629129648" lon="7.971360320225358">
        <ele>2785.0799999999999</ele>
        <time>2015-09-19T10:26:14Z</time>
      </trkpt>
      <trkpt lat="45.870160656049848" lon="7.971333749592304">
        <ele>2786.52</ele>
        <time>2015-09-19T10:26:23Z</time>
      </trkpt>
      <trkpt lat="45.870184460654855" lon="7.971303407102823">
        <ele>2787.96</ele>
        <time>2015-09-19T10:26:34Z</time>
      </trkpt>
      <trkpt lat="45.870185717940331" lon="7.97128614038229">
        <ele>2788.4400000000001</ele>
        <time>2015-09-19T10:26:46Z</time>
      </trkpt>
      <trkpt lat="45.870182868093252" lon="7.971229813992977">
        <ele>2789.4000000000001</ele>
        <time>2015-09-19T10:26:57Z</time>
      </trkpt>
      <trkpt lat="45.870210947468877" lon="7.971211960539222">
        <ele>2789.8800000000001</ele>
        <time>2015-09-19T10:27:06Z</time>
      </trkpt>
      <trkpt lat="45.870232572779059" lon="7.971164016053081">
        <ele>2790.3600000000001</ele>
        <time>2015-09-19T10:27:16Z</time>
      </trkpt>
      <trkpt lat="45.870261071249843" lon="7.971183126792312">
        <ele>2792.29</ele>
        <time>2015-09-19T10:27:24Z</time>
      </trkpt>
      <trkpt lat="45.870279595255852" lon="7.971192849799991">
        <ele>2793.73</ele>
        <time>2015-09-19T10:27:33Z</time>
      </trkpt>
      <trkpt lat="45.870301304385066" lon="7.971187150105834">
        <ele>2794.6900000000001</ele>
        <time>2015-09-19T10:27:41Z</time>
      </trkpt>
      <trkpt lat="45.870326450094581" lon="7.971165524795651">
        <ele>2796.6100000000001</ele>
        <time>2015-09-19T10:27:52Z</time>
      </trkpt>
      <trkpt lat="45.870361151173711" lon="7.971216989681125">
        <ele>2798.54</ele>
        <time>2015-09-19T10:28:03Z</time>
      </trkpt>
      <trkpt lat="45.870371712371707" lon="7.971241129562259">
        <ele>2799.5</ele>
        <time>2015-09-19T10:28:11Z</time>
      </trkpt>
      <trkpt lat="45.870383614674211" lon="7.97125537879765">
        <ele>2801.4200000000001</ele>
        <time>2015-09-19T10:28:23Z</time>
      </trkpt>
      <trkpt lat="45.870374981313944" lon="7.971219085156918">
        <ele>2801.9000000000001</ele>
        <time>2015-09-19T10:28:32Z</time>
      </trkpt>
      <trkpt lat="45.870378920808434" lon="7.971235932782292">
        <ele>2802.8600000000001</ele>
        <time>2015-09-19T10:28:44Z</time>
      </trkpt>
      <trkpt lat="45.870398366823792" lon="7.971243308857083">
        <ele>2802.8600000000001</ele>
        <time>2015-09-19T10:28:59Z</time>
      </trkpt>
      <trkpt lat="45.87040557526052" lon="7.971197962760925">
        <ele>2804.7800000000002</ele>
        <time>2015-09-19T10:29:08Z</time>
      </trkpt>
      <trkpt lat="45.870421500876546" lon="7.971152029931545">
        <ele>2806.23</ele>
        <time>2015-09-19T10:29:17Z</time>
      </trkpt>
      <trkpt lat="45.870445473119617" lon="7.971170889213681">
        <ele>2808.1500000000001</ele>
        <time>2015-09-19T10:29:28Z</time>
      </trkpt>
      <trkpt lat="45.870465505868196" lon="7.971219839528203">
        <ele>2809.1100000000001</ele>
        <time>2015-09-19T10:29:40Z</time>
      </trkpt>
      <trkpt lat="45.870477743446827" lon="7.971204500645399">
        <ele>2810.5500000000002</ele>
        <time>2015-09-19T10:29:48Z</time>
      </trkpt>
      <trkpt lat="45.870510851964355" lon="7.971182959154248">
        <ele>2811.9899999999998</ele>
        <time>2015-09-19T10:29:58Z</time>
      </trkpt>
      <trkpt lat="45.870508505031466" lon="7.971233418211341">
        <ele>2813.4400000000001</ele>
        <time>2015-09-19T10:30:07Z</time>
      </trkpt>
      <trkpt lat="45.870533399283886" lon="7.971270298585296">
        <ele>2814.4000000000001</ele>
        <time>2015-09-19T10:30:18Z</time>
      </trkpt>
      <trkpt lat="45.870563155040145" lon="7.97129737213254">
        <ele>2815.8400000000001</ele>
        <time>2015-09-19T10:30:33Z</time>
      </trkpt>
      <trkpt lat="45.870560137555003" lon="7.971282787621021">
        <ele>2817.7600000000002</ele>
        <time>2015-09-19T10:30:42Z</time>
      </trkpt>
      <trkpt lat="45.870583103969693" lon="7.971251187846065">
        <ele>2819.1999999999998</ele>
        <time>2015-09-19T10:30:50Z</time>
      </trkpt>
      <trkpt lat="45.870596934109926" lon="7.97123190946877">
        <ele>2820.6500000000001</ele>
        <time>2015-09-19T10:31:01Z</time>
      </trkpt>
      <trkpt lat="45.87061570957303" lon="7.971244147047401">
        <ele>2821.6100000000001</ele>
        <time>2015-09-19T10:31:08Z</time>
      </trkpt>
      <trkpt lat="45.870626857504249" lon="7.971251104027033">
        <ele>2822.0900000000001</ele>
        <time>2015-09-19T10:31:21Z</time>
      </trkpt>
      <trkpt lat="45.870636915788054" lon="7.971222102642059">
        <ele>2824.0100000000002</ele>
        <time>2015-09-19T10:31:31Z</time>
      </trkpt>
      <trkpt lat="45.87065233848989" lon="7.971193939447403">
        <ele>2825.4499999999998</ele>
        <time>2015-09-19T10:31:43Z</time>
      </trkpt>
      <trkpt lat="45.870672957971692" lon="7.971191257238388">
        <ele>2825.9299999999998</ele>
        <time>2015-09-19T10:31:54Z</time>
      </trkpt>
      <trkpt lat="45.870689302682877" lon="7.971181031316519">
        <ele>2826.8899999999999</ele>
        <time>2015-09-19T10:32:13Z</time>
      </trkpt>
      <trkpt lat="45.870711514726281" lon="7.971222689375281">
        <ele>2828.8200000000002</ele>
        <time>2015-09-19T10:32:21Z</time>
      </trkpt>
      <trkpt lat="45.870714029297233" lon="7.971205338835716">
        <ele>2831.6999999999998</ele>
        <time>2015-09-19T10:32:29Z</time>
      </trkpt>
      <trkpt lat="45.870729284361005" lon="7.971258228644729">
        <ele>2832.1799999999998</ele>
        <time>2015-09-19T10:32:39Z</time>
      </trkpt>
      <trkpt lat="45.870740432292223" lon="7.971248757094145">
        <ele>2834.0999999999999</ele>
        <time>2015-09-19T10:32:49Z</time>
      </trkpt>
      <trkpt lat="45.870744623243809" lon="7.971269292756915">
        <ele>2834.5799999999999</ele>
        <time>2015-09-19T10:33:00Z</time>
      </trkpt>
      <trkpt lat="45.87074663490057" lon="7.971269208937883">
        <ele>2836.0300000000002</ele>
        <time>2015-09-19T10:33:11Z</time>
      </trkpt>
      <trkpt lat="45.870768930763006" lon="7.971260994672775">
        <ele>2837.4699999999998</ele>
        <time>2015-09-19T10:33:20Z</time>
      </trkpt>
      <trkpt lat="45.870774714276195" lon="7.971246242523193">
        <ele>2837.9499999999998</ele>
        <time>2015-09-19T10:33:25Z</time>
      </trkpt>
      <trkpt lat="45.870793405920267" lon="7.971236184239388">
        <ele>2839.3899999999999</ele>
        <time>2015-09-19T10:33:33Z</time>
      </trkpt>
      <trkpt lat="45.870812181383371" lon="7.971230065450072">
        <ele>2840.8299999999999</ele>
        <time>2015-09-19T10:33:43Z</time>
      </trkpt>
      <trkpt lat="45.87083606980741" lon="7.971235681325197">
        <ele>2842.2800000000002</ele>
        <time>2015-09-19T10:33:53Z</time>
      </trkpt>
      <trkpt lat="45.870859706774354" lon="7.971258815377951">
        <ele>2843.7199999999998</ele>
        <time>2015-09-19T10:34:03Z</time>
      </trkpt>
      <trkpt lat="45.870898263528943" lon="7.971242805942893">
        <ele>2845.6399999999999</ele>
        <time>2015-09-19T10:34:18Z</time>
      </trkpt>
      <trkpt lat="45.870932545512915" lon="7.971255797892809">
        <ele>2846.5999999999999</ele>
        <time>2015-09-19T10:34:28Z</time>
      </trkpt>
      <trkpt lat="45.870950147509575" lon="7.97127247788012">
        <ele>2848.04</ele>
        <time>2015-09-19T10:34:38Z</time>
      </trkpt>
      <trkpt lat="45.870973784476519" lon="7.97126904129982">
        <ele>2849</ele>
        <time>2015-09-19T10:34:48Z</time>
      </trkpt>
      <trkpt lat="45.870976550504565" lon="7.97124657779932">
        <ele>2849.48</ele>
        <time>2015-09-19T10:35:06Z</time>
      </trkpt>
      <trkpt lat="45.870975125581026" lon="7.971215732395649">
        <ele>2849.9699999999998</ele>
        <time>2015-09-19T10:35:16Z</time>
      </trkpt>
      <trkpt lat="45.871011335402727" lon="7.971211960539222">
        <ele>2850.9299999999998</ele>
        <time>2015-09-19T10:35:27Z</time>
      </trkpt>
      <trkpt lat="45.871049053966999" lon="7.971206931397319">
        <ele>2851.8899999999999</ele>
        <time>2015-09-19T10:35:36Z</time>
      </trkpt>
      <trkpt lat="45.871103117242455" lon="7.971158316358924">
        <ele>2853.3299999999999</ele>
        <time>2015-09-19T10:35:46Z</time>
      </trkpt>
      <trkpt lat="45.871134884655476" lon="7.971139121800661">
        <ele>2855.73</ele>
        <time>2015-09-19T10:35:56Z</time>
      </trkpt>
      <trkpt lat="45.871163550764322" lon="7.971132919192314">
        <ele>2857.6599999999999</ele>
        <time>2015-09-19T10:36:04Z</time>
      </trkpt>
      <trkpt lat="45.871196072548628" lon="7.971109952777624">
        <ele>2859.0999999999999</ele>
        <time>2015-09-19T10:36:13Z</time>
      </trkpt>
      <trkpt lat="45.871212668716908" lon="7.971131578087807">
        <ele>2858.6199999999999</ele>
        <time>2015-09-19T10:36:31Z</time>
      </trkpt>
      <trkpt lat="45.871215853840113" lon="7.971123112365603">
        <ele>2860.0599999999999</ele>
        <time>2015-09-19T10:36:33Z</time>
      </trkpt>
      <trkpt lat="45.871213506907225" lon="7.971050692722201">
        <ele>2861.5</ele>
        <time>2015-09-19T10:36:43Z</time>
      </trkpt>
      <trkpt lat="45.871266731992364" lon="7.971070138737559">
        <ele>2863.4200000000001</ele>
        <time>2015-09-19T10:36:54Z</time>
      </trkpt>
      <trkpt lat="45.871283076703548" lon="7.97101934440434">
        <ele>2864.8699999999999</ele>
        <time>2015-09-19T10:37:03Z</time>
      </trkpt>
      <trkpt lat="45.871316604316235" lon="7.97097927890718">
        <ele>2866.3099999999999</ele>
        <time>2015-09-19T10:37:13Z</time>
      </trkpt>
      <trkpt lat="45.871364129707217" lon="7.97099880874157">
        <ele>2867.75</ele>
        <time>2015-09-19T10:37:22Z</time>
      </trkpt>
      <trkpt lat="45.871384581550956" lon="7.970988331362605">
        <ele>2868.71</ele>
        <time>2015-09-19T10:37:31Z</time>
      </trkpt>
      <trkpt lat="45.871390365064144" lon="7.970962766557932">
        <ele>2869.1900000000001</ele>
        <time>2015-09-19T10:37:42Z</time>
      </trkpt>
      <trkpt lat="45.871421042829752" lon="7.970998976379633">
        <ele>2870.6300000000001</ele>
        <time>2015-09-19T10:37:52Z</time>
      </trkpt>
      <trkpt lat="45.871448954567313" lon="7.971004508435726">
        <ele>2871.5999999999999</ele>
        <time>2015-09-19T10:38:03Z</time>
      </trkpt>
      <trkpt lat="45.871458677574992" lon="7.971016494557262">
        <ele>2872.0799999999999</ele>
        <time>2015-09-19T10:38:15Z</time>
      </trkpt>
      <trkpt lat="45.871466053649783" lon="7.97104180790484">
        <ele>2873.04</ele>
        <time>2015-09-19T10:38:25Z</time>
      </trkpt>
      <trkpt lat="45.871473765000701" lon="7.971059745177627">
        <ele>2873.52</ele>
        <time>2015-09-19T10:38:37Z</time>
      </trkpt>
      <trkpt lat="45.871490444988012" lon="7.971029570326209">
        <ele>2874.96</ele>
        <time>2015-09-19T10:38:47Z</time>
      </trkpt>
      <trkpt lat="45.871521960943937" lon="7.971033593639731">
        <ele>2876.8800000000001</ele>
        <time>2015-09-19T10:38:59Z</time>
      </trkpt>
      <trkpt lat="45.871537467464805" lon="7.971073910593987">
        <ele>2877.8400000000001</ele>
        <time>2015-09-19T10:39:09Z</time>
      </trkpt>
      <trkpt lat="45.87156118825078" lon="7.971061924472451">
        <ele>2879.29</ele>
        <time>2015-09-19T10:39:18Z</time>
      </trkpt>
      <trkpt lat="45.871573006734252" lon="7.971081621944904">
        <ele>2880.25</ele>
        <time>2015-09-19T10:39:32Z</time>
      </trkpt>
      <trkpt lat="45.871594296768308" lon="7.971057733520865">
        <ele>2882.1700000000001</ele>
        <time>2015-09-19T10:39:41Z</time>
      </trkpt>
      <trkpt lat="45.871617598459125" lon="7.971068881452084">
        <ele>2883.6100000000001</ele>
        <time>2015-09-19T10:39:51Z</time>
      </trkpt>
      <trkpt lat="45.871625728905201" lon="7.97106041572988">
        <ele>2885.0500000000002</ele>
        <time>2015-09-19T10:40:01Z</time>
      </trkpt>
      <trkpt lat="45.87162472307682" lon="7.971001323312521">
        <ele>2885.5300000000002</ele>
        <time>2015-09-19T10:40:15Z</time>
      </trkpt>
      <trkpt lat="45.871655149385333" lon="7.970993611961603">
        <ele>2886.5</ele>
        <time>2015-09-19T10:40:26Z</time>
      </trkpt>
      <trkpt lat="45.871668392792344" lon="7.970963269472122">
        <ele>2887.9400000000001</ele>
        <time>2015-09-19T10:40:37Z</time>
      </trkpt>
      <trkpt lat="45.871679037809372" lon="7.970914738252759">
        <ele>2888.9000000000001</ele>
        <time>2015-09-19T10:40:46Z</time>
      </trkpt>
      <trkpt lat="45.871713235974312" lon="7.970943404361606">
        <ele>2889.8600000000001</ele>
        <time>2015-09-19T10:40:53Z</time>
      </trkpt>
      <trkpt lat="45.871714074164629" lon="7.970913397148252">
        <ele>2891.7800000000002</ele>
        <time>2015-09-19T10:41:05Z</time>
      </trkpt>
      <trkpt lat="45.871727736666799" lon="7.970872661098838">
        <ele>2893.23</ele>
        <time>2015-09-19T10:41:16Z</time>
      </trkpt>
      <trkpt lat="45.871738297864795" lon="7.970810048282147">
        <ele>2895.1500000000001</ele>
        <time>2015-09-19T10:41:25Z</time>
      </trkpt>
      <trkpt lat="45.871777357533574" lon="7.970838295295835">
        <ele>2896.5900000000001</ele>
        <time>2015-09-19T10:41:34Z</time>
      </trkpt>
      <trkpt lat="45.871796887367964" lon="7.970849862322211">
        <ele>2898.0300000000002</ele>
        <time>2015-09-19T10:41:44Z</time>
      </trkpt>
      <trkpt lat="45.871807197108865" lon="7.970846174284816">
        <ele>2898.9899999999998</ele>
        <time>2015-09-19T10:41:54Z</time>
      </trkpt>
      <trkpt lat="45.871831085532904" lon="7.970878109335899">
        <ele>2899.9499999999998</ele>
        <time>2015-09-19T10:42:04Z</time>
      </trkpt>
      <trkpt lat="45.871843909844756" lon="7.970889257267118">
        <ele>2901.8800000000001</ele>
        <time>2015-09-19T10:42:15Z</time>
      </trkpt>
      <trkpt lat="45.871871402487159" lon="7.970918342471123">
        <ele>2903.3200000000002</ele>
        <time>2015-09-19T10:42:24Z</time>
      </trkpt>
      <trkpt lat="45.871885567903519" lon="7.970895208418369">
        <ele>2904.2800000000002</ele>
        <time>2015-09-19T10:42:32Z</time>
      </trkpt>
      <trkpt lat="45.871872995048761" lon="7.97083561308682">
        <ele>2905.2399999999998</ele>
        <time>2015-09-19T10:42:41Z</time>
      </trkpt>
      <trkpt lat="45.871912306174636" lon="7.970855813473463">
        <ele>2906.6799999999998</ele>
        <time>2015-09-19T10:42:50Z</time>
      </trkpt>
      <trkpt lat="45.871914066374302" lon="7.970801079645753">
        <ele>2907.6500000000001</ele>
        <time>2015-09-19T10:43:01Z</time>
      </trkpt>
      <trkpt lat="45.87192177772522" lon="7.97074475325644">
        <ele>2909.5700000000002</ele>
        <time>2015-09-19T10:43:11Z</time>
      </trkpt>
      <trkpt lat="45.871949102729559" lon="7.970732431858778">
        <ele>2910.5300000000002</ele>
        <time>2015-09-19T10:43:19Z</time>
      </trkpt>
      <trkpt lat="45.871977768838406" lon="7.970732599496841">
        <ele>2910.5300000000002</ele>
        <time>2015-09-19T10:43:28Z</time>
      </trkpt>
      <trkpt lat="45.871988581493497" lon="7.970735030248761">
        <ele>2912.4499999999998</ele>
        <time>2015-09-19T10:43:41Z</time>
      </trkpt>
      <trkpt lat="45.872018001973629" lon="7.970734862610698">
        <ele>2913.8899999999999</ele>
        <time>2015-09-19T10:43:50Z</time>
      </trkpt>
      <trkpt lat="45.872002327814698" lon="7.970701586455107">
        <ele>2914.8499999999999</ele>
        <time>2015-09-19T10:43:59Z</time>
      </trkpt>
      <trkpt lat="45.872015571221709" lon="7.970675099641085">
        <ele>2915.8200000000002</ele>
        <time>2015-09-19T10:44:07Z</time>
      </trkpt>
      <trkpt lat="45.872048931196332" lon="7.970709968358278">
        <ele>2916.7800000000002</ele>
        <time>2015-09-19T10:44:19Z</time>
      </trkpt>
      <trkpt lat="45.872070305049419" lon="7.970718517899513">
        <ele>2918.2199999999998</ele>
        <time>2015-09-19T10:44:30Z</time>
      </trkpt>
      <trkpt lat="45.872104000300169" lon="7.970700077712536">
        <ele>2919.6599999999999</ele>
        <time>2015-09-19T10:44:42Z</time>
      </trkpt>
      <trkpt lat="45.872111627832055" lon="7.970698149874806">
        <ele>2920.6199999999999</ele>
        <time>2015-09-19T10:44:52Z</time>
      </trkpt>
      <trkpt lat="45.87211774662137" lon="7.97072178684175">
        <ele>2920.6199999999999</ele>
        <time>2015-09-19T10:45:05Z</time>
      </trkpt>
      <trkpt lat="45.872144736349583" lon="7.970711980015039">
        <ele>2922.54</ele>
        <time>2015-09-19T10:45:15Z</time>
      </trkpt>
      <trkpt lat="45.87214850820601" lon="7.970640901476145">
        <ele>2923.9899999999998</ele>
        <time>2015-09-19T10:45:25Z</time>
      </trkpt>
      <trkpt lat="45.872143562883139" lon="7.970579043030739">
        <ele>2923.9899999999998</ele>
        <time>2015-09-19T10:45:34Z</time>
      </trkpt>
      <trkpt lat="45.87216317653656" lon="7.970502767711878">
        <ele>2924.9499999999998</ele>
        <time>2015-09-19T10:45:43Z</time>
      </trkpt>
      <trkpt lat="45.872181281447411" lon="7.970453901216388">
        <ele>2926.3899999999999</ele>
        <time>2015-09-19T10:45:53Z</time>
      </trkpt>
      <trkpt lat="45.872196536511183" lon="7.970413835719228">
        <ele>2928.3099999999999</ele>
        <time>2015-09-19T10:46:01Z</time>
      </trkpt>
      <trkpt lat="45.872227801010013" lon="7.970424145460129">
        <ele>2929.27</ele>
        <time>2015-09-19T10:46:08Z</time>
      </trkpt>
      <trkpt lat="45.872249091044068" lon="7.970388438552618">
        <ele>2931.1999999999998</ele>
        <time>2015-09-19T10:46:20Z</time>
      </trkpt>
      <trkpt lat="45.872257724404335" lon="7.97036362811923">
        <ele>2932.6399999999999</ele>
        <time>2015-09-19T10:46:28Z</time>
      </trkpt>
      <trkpt lat="45.872295526787639" lon="7.970362538471818">
        <ele>2934.0799999999999</ele>
        <time>2015-09-19T10:46:39Z</time>
      </trkpt>
      <trkpt lat="45.872314469888806" lon="7.970419200137258">
        <ele>2935.52</ele>
        <time>2015-09-19T10:46:48Z</time>
      </trkpt>
      <trkpt lat="45.872342716902494" lon="7.970447028055787">
        <ele>2937.4499999999998</ele>
        <time>2015-09-19T10:46:59Z</time>
      </trkpt>
      <trkpt lat="45.872350763529539" lon="7.970497822389007">
        <ele>2938.4099999999999</ele>
        <time>2015-09-19T10:47:07Z</time>
      </trkpt>
      <trkpt lat="45.872351936995983" lon="7.970536379143596">
        <ele>2940.3299999999999</ele>
        <time>2015-09-19T10:47:20Z</time>
      </trkpt>
      <trkpt lat="45.87236157618463" lon="7.970486423000693">
        <ele>2939.3699999999999</ele>
        <time>2015-09-19T10:47:39Z</time>
      </trkpt>
      <trkpt lat="45.872372640296817" lon="7.970473179593682">
        <ele>2939.3699999999999</ele>
        <time>2015-09-19T10:47:55Z</time>
      </trkpt>
      <trkpt lat="45.872363923117518" lon="7.970482734963298">
        <ele>2940.3299999999999</ele>
        <time>2015-09-19T10:48:10Z</time>
      </trkpt>
      <trkpt lat="45.87238940410316" lon="7.970458259806037">
        <ele>2941.77</ele>
        <time>2015-09-19T10:48:21Z</time>
      </trkpt>
      <trkpt lat="45.872396947816014" lon="7.970553729683161">
        <ele>2942.73</ele>
        <time>2015-09-19T10:48:32Z</time>
      </trkpt>
      <trkpt lat="45.872419998049736" lon="7.970534535124898">
        <ele>2944.1700000000001</ele>
        <time>2015-09-19T10:48:41Z</time>
      </trkpt>
      <trkpt lat="45.872443467378616" lon="7.97052875161171">
        <ele>2945.1399999999999</ele>
        <time>2015-09-19T10:48:51Z</time>
      </trkpt>
      <trkpt lat="45.87246760725975" lon="7.970497738569975">
        <ele>2947.0599999999999</ele>
        <time>2015-09-19T10:49:05Z</time>
      </trkpt>
      <trkpt lat="45.8724978659302" lon="7.970556998625398">
        <ele>2948.5</ele>
        <time>2015-09-19T10:49:15Z</time>
      </trkpt>
      <trkpt lat="45.872546564787626" lon="7.97058641910553">
        <ele>2947.0599999999999</ele>
        <time>2015-09-19T10:49:26Z</time>
      </trkpt>
      <trkpt lat="45.872550588101149" lon="7.970586167648435">
        <ele>2947.0599999999999</ele>
        <time>2015-09-19T10:49:27Z</time>
      </trkpt>
      <trkpt lat="45.872577158734202" lon="7.970598405227065">
        <ele>2949.9400000000001</ele>
        <time>2015-09-19T10:49:33Z</time>
      </trkpt>
      <trkpt lat="45.87258193641901" lon="7.970599327236414">
        <ele>2950.4200000000001</ele>
        <time>2015-09-19T10:49:34Z</time>
      </trkpt>
      <trkpt lat="45.872607920318842" lon="7.970623048022389">
        <ele>2951.8699999999999</ele>
        <time>2015-09-19T10:49:46Z</time>
      </trkpt>
      <trkpt lat="45.87262786924839" lon="7.970668477937579">
        <ele>2953.79</ele>
        <time>2015-09-19T10:49:55Z</time>
      </trkpt>
      <trkpt lat="45.87265963666141" lon="7.970718517899513">
        <ele>2954.27</ele>
        <time>2015-09-19T10:50:04Z</time>
      </trkpt>
      <trkpt lat="45.8726826030761" lon="7.970750033855438">
        <ele>2955.71</ele>
        <time>2015-09-19T10:50:13Z</time>
      </trkpt>
      <trkpt lat="45.872700037434697" lon="7.970733102411032">
        <ele>2956.6700000000001</ele>
        <time>2015-09-19T10:50:21Z</time>
      </trkpt>
      <trkpt lat="45.872724764049053" lon="7.970725055783987">
        <ele>2958.1100000000001</ele>
        <time>2015-09-19T10:50:30Z</time>
      </trkpt>
      <trkpt lat="45.872761644423008" lon="7.970712063834071">
        <ele>2959.5599999999999</ele>
        <time>2015-09-19T10:50:40Z</time>
      </trkpt>
      <trkpt lat="45.87277295999229" lon="7.970702759921551">
        <ele>2960.52</ele>
        <time>2015-09-19T10:50:50Z</time>
      </trkpt>
      <trkpt lat="45.872773043811321" lon="7.970676105469465">
        <ele>2961.48</ele>
        <time>2015-09-19T10:51:00Z</time>
      </trkpt>
      <trkpt lat="45.872786287218332" lon="7.970660850405693">
        <ele>2962.4400000000001</ele>
        <time>2015-09-19T10:51:11Z</time>
      </trkpt>
      <trkpt lat="45.872799698263407" lon="7.970670321956277">
        <ele>2962.9200000000001</ele>
        <time>2015-09-19T10:51:27Z</time>
      </trkpt>
      <trkpt lat="45.872798105701804" lon="7.970702340826392">
        <ele>2963.4000000000001</ele>
        <time>2015-09-19T10:51:38Z</time>
      </trkpt>
      <trkpt lat="45.872821239754558" lon="7.97069245018065">
        <ele>2963.8800000000001</ele>
        <time>2015-09-19T10:52:00Z</time>
      </trkpt>
      <trkpt lat="45.872816713526845" lon="7.970662945881486">
        <ele>2964.3600000000001</ele>
        <time>2015-09-19T10:52:23Z</time>
      </trkpt>
      <trkpt lat="45.872821072116494" lon="7.970645930618048">
        <ele>2964.3600000000001</ele>
        <time>2015-09-19T10:52:49Z</time>
      </trkpt>
      <trkpt lat="45.87284336797893" lon="7.970627406612039">
        <ele>2965.8000000000002</ele>
        <time>2015-09-19T10:52:59Z</time>
      </trkpt>
      <trkpt lat="45.872852671891451" lon="7.970634866505861">
        <ele>2965.8000000000002</ele>
        <time>2015-09-19T10:53:22Z</time>
      </trkpt>
      <trkpt lat="45.872836746275425" lon="7.970594130456448">
        <ele>2966.77</ele>
        <time>2015-09-19T10:53:33Z</time>
      </trkpt>
      <trkpt lat="45.87282333523035" lon="7.970569990575314">
        <ele>2966.77</ele>
        <time>2015-09-19T10:53:41Z</time>
      </trkpt>
      <trkpt lat="45.872837165370584" lon="7.97058692201972">
        <ele>2967.25</ele>
        <time>2015-09-19T10:53:45Z</time>
      </trkpt>
      <trkpt lat="45.872864406555891" lon="7.970617096871138">
        <ele>2966.77</ele>
        <time>2015-09-19T10:53:55Z</time>
      </trkpt>
      <trkpt lat="45.872851833701134" lon="7.97063042409718">
        <ele>2965.8000000000002</ele>
        <time>2015-09-19T10:54:02Z</time>
      </trkpt>
      <trkpt lat="45.872840182855725" lon="7.970645427703857">
        <ele>2965.8000000000002</ele>
        <time>2015-09-19T10:54:18Z</time>
      </trkpt>
      <trkpt lat="45.872831884771585" lon="7.970672752708197">
        <ele>2966.29</ele>
        <time>2015-09-19T10:54:43Z</time>
      </trkpt>
      <trkpt lat="45.872827190905809" lon="7.970669651404023">
        <ele>2965.8000000000002</ele>
        <time>2015-09-19T10:55:18Z</time>
      </trkpt>
      <trkpt lat="45.872831549495459" lon="7.970671243965626">
        <ele>2965.8000000000002</ele>
        <time>2015-09-19T10:55:50Z</time>
      </trkpt>
      <trkpt lat="45.872825849801302" lon="7.970672082155943">
        <ele>2965.8000000000002</ele>
        <time>2015-09-19T10:56:17Z</time>
      </trkpt>
      <trkpt lat="45.872825346887112" lon="7.970655150711536">
        <ele>2966.29</ele>
        <time>2015-09-19T10:56:44Z</time>
      </trkpt>
      <trkpt lat="45.872826436534524" lon="7.970657246187329">
        <ele>2966.29</ele>
        <time>2015-09-19T10:57:12Z</time>
      </trkpt>
      <trkpt lat="45.872833896428347" lon="7.970629502087832">
        <ele>2966.29</ele>
        <time>2015-09-19T10:57:41Z</time>
      </trkpt>
      <trkpt lat="45.872831214219332" lon="7.970631262287498">
        <ele>2966.29</ele>
        <time>2015-09-19T10:58:13Z</time>
      </trkpt>
      <trkpt lat="45.872825430706143" lon="7.970632771030068">
        <ele>2966.29</ele>
        <time>2015-09-19T10:58:54Z</time>
      </trkpt>
      <trkpt lat="45.872826017439365" lon="7.970625814050436">
        <ele>2966.29</ele>
        <time>2015-09-19T10:59:30Z</time>
      </trkpt>
      <trkpt lat="45.872831214219332" lon="7.970625059679151">
        <ele>2965.8000000000002</ele>
        <time>2015-09-19T11:00:02Z</time>
      </trkpt>
      <trkpt lat="45.872836662456393" lon="7.970632519572973">
        <ele>2965.8000000000002</ele>
        <time>2015-09-19T11:00:32Z</time>
      </trkpt>
      <trkpt lat="45.872830795124173" lon="7.970626233145595">
        <ele>2966.77</ele>
        <time>2015-09-19T11:00:36Z</time>
      </trkpt>
      <trkpt lat="45.872847056016326" lon="7.970627909526229">
        <ele>2967.25</ele>
        <time>2015-09-19T11:00:46Z</time>
      </trkpt>
      <trkpt lat="45.872840518131852" lon="7.970627993345261">
        <ele>2966.77</ele>
        <time>2015-09-19T11:01:11Z</time>
      </trkpt>
      <trkpt lat="45.87284822948277" lon="7.970622042194009">
        <ele>2965.8000000000002</ele>
        <time>2015-09-19T11:01:24Z</time>
      </trkpt>
      <trkpt lat="45.872857784852386" lon="7.97061525285244">
        <ele>2966.77</ele>
        <time>2015-09-19T11:01:47Z</time>
      </trkpt>
      <trkpt lat="45.872846469283104" lon="7.970566134899855">
        <ele>2967.25</ele>
        <time>2015-09-19T11:02:04Z</time>
      </trkpt>
      <trkpt lat="45.87287169881165" lon="7.9705810546875">
        <ele>2967.73</ele>
        <time>2015-09-19T11:02:15Z</time>
      </trkpt>
      <trkpt lat="45.872878907248378" lon="7.970589520409703">
        <ele>2968.21</ele>
        <time>2015-09-19T11:02:28Z</time>
      </trkpt>
      <trkpt lat="45.872882511466742" lon="7.970597818493843">
        <ele>2968.21</ele>
        <time>2015-09-19T11:02:41Z</time>
      </trkpt>
      <trkpt lat="45.872888378798962" lon="7.970591029152274">
        <ele>2968.21</ele>
        <time>2015-09-19T11:02:56Z</time>
      </trkpt>
      <trkpt lat="45.872875470668077" lon="7.970605110749602">
        <ele>2968.21</ele>
        <time>2015-09-19T11:03:17Z</time>
      </trkpt>
      <trkpt lat="45.872885193675756" lon="7.9706069547683">
        <ele>2968.21</ele>
        <time>2015-09-19T11:03:31Z</time>
      </trkpt>
      <trkpt lat="45.872861472889781" lon="7.97062061727047">
        <ele>2967.73</ele>
        <time>2015-09-19T11:03:44Z</time>
      </trkpt>
      <trkpt lat="45.87285753339529" lon="7.970639392733574">
        <ele>2968.21</ele>
        <time>2015-09-19T11:03:57Z</time>
      </trkpt>
      <trkpt lat="45.872858287766576" lon="7.97063578851521">
        <ele>2968.21</ele>
        <time>2015-09-19T11:04:12Z</time>
      </trkpt>
      <trkpt lat="45.87286289781332" lon="7.970630005002022">
        <ele>2967.73</ele>
        <time>2015-09-19T11:04:24Z</time>
      </trkpt>
      <trkpt lat="45.872854432091117" lon="7.970629166811705">
        <ele>2967.25</ele>
        <time>2015-09-19T11:04:38Z</time>
      </trkpt>
      <trkpt lat="45.872866418212652" lon="7.970604440197349">
        <ele>2966.77</ele>
        <time>2015-09-19T11:04:57Z</time>
      </trkpt>
      <trkpt lat="45.872867256402969" lon="7.970606870949268">
        <ele>2967.73</ele>
        <time>2015-09-19T11:05:25Z</time>
      </trkpt>
      <trkpt lat="45.872858706861734" lon="7.970590023323894">
        <ele>2967.25</ele>
        <time>2015-09-19T11:05:31Z</time>
      </trkpt>
      <trkpt lat="45.87283892557025" lon="7.970591196790338">
        <ele>2967.25</ele>
        <time>2015-09-19T11:05:48Z</time>
      </trkpt>
      <trkpt lat="45.872834734618664" lon="7.970599327236414">
        <ele>2966.77</ele>
        <time>2015-09-19T11:06:07Z</time>
      </trkpt>
      <trkpt lat="45.872837752103806" lon="7.970599578693509">
        <ele>2967.25</ele>
        <time>2015-09-19T11:06:30Z</time>
      </trkpt>
      <trkpt lat="45.872844289988279" lon="7.970608212053776">
        <ele>2967.73</ele>
        <time>2015-09-19T11:06:37Z</time>
      </trkpt>
      <trkpt lat="45.872842613607645" lon="7.970637045800686">
        <ele>2967.73</ele>
        <time>2015-09-19T11:06:57Z</time>
      </trkpt>
      <trkpt lat="45.872867340222001" lon="7.970673758536577">
        <ele>2965.8000000000002</ele>
        <time>2015-09-19T11:07:10Z</time>
      </trkpt>
      <trkpt lat="45.872855521738529" lon="7.970714997500181">
        <ele>2964.3600000000001</ele>
        <time>2015-09-19T11:07:21Z</time>
      </trkpt>
      <trkpt lat="45.872842278331518" lon="7.970737712457776">
        <ele>2963.4000000000001</ele>
        <time>2015-09-19T11:07:28Z</time>
      </trkpt>
      <trkpt lat="45.872820988297462" lon="7.970730504021049">
        <ele>2962.9200000000001</ele>
        <time>2015-09-19T11:07:30Z</time>
      </trkpt>
      <trkpt lat="45.87277153506875" lon="7.970748776569963">
        <ele>2961.48</ele>
        <time>2015-09-19T11:07:38Z</time>
      </trkpt>
      <trkpt lat="45.872743288055062" lon="7.970719523727894">
        <ele>2961</ele>
        <time>2015-09-19T11:07:46Z</time>
      </trkpt>
      <trkpt lat="45.872705653309822" lon="7.970725558698177">
        <ele>2959.5599999999999</ele>
        <time>2015-09-19T11:07:55Z</time>
      </trkpt>
      <trkpt lat="45.872700456529856" lon="7.970725391060114">
        <ele>2959.5599999999999</ele>
        <time>2015-09-19T11:07:56Z</time>
      </trkpt>
      <trkpt lat="45.872664246708155" lon="7.970729833468795">
        <ele>2958.1100000000001</ele>
        <time>2015-09-19T11:08:04Z</time>
      </trkpt>
      <trkpt lat="45.872626695781946" lon="7.970703095197678">
        <ele>2955.71</ele>
        <time>2015-09-19T11:08:10Z</time>
      </trkpt>
      <trkpt lat="45.872603310272098" lon="7.970632519572973">
        <ele>2954.75</ele>
        <time>2015-09-19T11:08:20Z</time>
      </trkpt>
      <trkpt lat="45.872571459040046" lon="7.970601338893175">
        <ele>2953.3099999999999</ele>
        <time>2015-09-19T11:08:30Z</time>
      </trkpt>
      <trkpt lat="45.872544636949897" lon="7.970584407448769">
        <ele>2951.8699999999999</ele>
        <time>2015-09-19T11:08:34Z</time>
      </trkpt>
      <trkpt lat="45.87253550067544" lon="7.97057862393558">
        <ele>2951.3800000000001</ele>
        <time>2015-09-19T11:08:35Z</time>
      </trkpt>
      <trkpt lat="45.872469283640385" lon="7.970530847087503">
        <ele>2949.9400000000001</ele>
        <time>2015-09-19T11:08:45Z</time>
      </trkpt>
      <trkpt lat="45.872424691915512" lon="7.970465552061796">
        <ele>2948.02</ele>
        <time>2015-09-19T11:08:55Z</time>
      </trkpt>
      <trkpt lat="45.872393259778619" lon="7.970431856811047">
        <ele>2945.6199999999999</ele>
        <time>2015-09-19T11:09:06Z</time>
      </trkpt>
      <trkpt lat="45.872376076877117" lon="7.970473598688841">
        <ele>2944.1700000000001</ele>
        <time>2015-09-19T11:09:12Z</time>
      </trkpt>
      <trkpt lat="45.872337855398655" lon="7.970476783812046">
        <ele>2942.25</ele>
        <time>2015-09-19T11:09:19Z</time>
      </trkpt>
      <trkpt lat="45.872320588678122" lon="7.970417523756623">
        <ele>2939.8499999999999</ele>
        <time>2015-09-19T11:09:29Z</time>
      </trkpt>
      <trkpt lat="45.872302567586303" lon="7.970392629504204">
        <ele>2938.8899999999999</ele>
        <time>2015-09-19T11:09:40Z</time>
      </trkpt>
      <trkpt lat="45.872291000559926" lon="7.970381062477827">
        <ele>2938.4099999999999</ele>
        <time>2015-09-19T11:09:52Z</time>
      </trkpt>
      <trkpt lat="45.872261747717857" lon="7.970358682796359">
        <ele>2936</ele>
        <time>2015-09-19T11:10:01Z</time>
      </trkpt>
      <trkpt lat="45.872250348329544" lon="7.970357174053788">
        <ele>2935.04</ele>
        <time>2015-09-19T11:10:11Z</time>
      </trkpt>
      <trkpt lat="45.872235847637057" lon="7.970387600362301">
        <ele>2933.5999999999999</ele>
        <time>2015-09-19T11:10:20Z</time>
      </trkpt>
      <trkpt lat="45.872207265347242" lon="7.970412913709879">
        <ele>2932.6399999999999</ele>
        <time>2015-09-19T11:10:30Z</time>
      </trkpt>
      <trkpt lat="45.872213216498494" lon="7.970411237329245">
        <ele>2932.1599999999999</ele>
        <time>2015-09-19T11:10:47Z</time>
      </trkpt>
      <trkpt lat="45.872187400236726" lon="7.970429677516222">
        <ele>2930.2399999999998</ele>
        <time>2015-09-19T11:10:56Z</time>
      </trkpt>
      <trkpt lat="45.872181868180633" lon="7.970491368323565">
        <ele>2928.3099999999999</ele>
        <time>2015-09-19T11:11:05Z</time>
      </trkpt>
      <trkpt lat="45.872186897322536" lon="7.970515340566635">
        <ele>2929.27</ele>
        <time>2015-09-19T11:11:08Z</time>
      </trkpt>
      <trkpt lat="45.872177425771952" lon="7.970531182363629">
        <ele>2928.79</ele>
        <time>2015-09-19T11:11:19Z</time>
      </trkpt>
      <trkpt lat="45.872159237042069" lon="7.97061525285244">
        <ele>2927.8299999999999</ele>
        <time>2015-09-19T11:11:28Z</time>
      </trkpt>
      <trkpt lat="45.872139288112521" lon="7.970635704696178">
        <ele>2926.8699999999999</ele>
        <time>2015-09-19T11:11:35Z</time>
      </trkpt>
      <trkpt lat="45.87211674079299" lon="7.970701837912202">
        <ele>2925.4299999999998</ele>
        <time>2015-09-19T11:11:47Z</time>
      </trkpt>
      <trkpt lat="45.872111544013023" lon="7.970726815983653">
        <ele>2924.9499999999998</ele>
        <time>2015-09-19T11:12:04Z</time>
      </trkpt>
      <trkpt lat="45.872081285342574" lon="7.970720194280148">
        <ele>2923.5100000000002</ele>
        <time>2015-09-19T11:12:11Z</time>
      </trkpt>
      <trkpt lat="45.872033843770623" lon="7.970689013600349">
        <ele>2920.6199999999999</ele>
        <time>2015-09-19T11:12:20Z</time>
      </trkpt>
      <trkpt lat="45.872016241773963" lon="7.970697898417711">
        <ele>2919.6599999999999</ele>
        <time>2015-09-19T11:12:30Z</time>
      </trkpt>
      <trkpt lat="45.87199461646378" lon="7.970685409381986">
        <ele>2918.2199999999998</ele>
        <time>2015-09-19T11:12:40Z</time>
      </trkpt>
      <trkpt lat="45.872001154348254" lon="7.970708627253771">
        <ele>2917.7399999999998</ele>
        <time>2015-09-19T11:12:58Z</time>
      </trkpt>
      <trkpt lat="45.871993359178305" lon="7.970750033855438">
        <ele>2916.3000000000002</ele>
        <time>2015-09-19T11:13:07Z</time>
      </trkpt>
      <trkpt lat="45.871979696676135" lon="7.970746597275138">
        <ele>2916.3000000000002</ele>
        <time>2015-09-19T11:13:19Z</time>
      </trkpt>
      <trkpt lat="45.871950443834066" lon="7.970732767134905">
        <ele>2914.8499999999999</ele>
        <time>2015-09-19T11:13:31Z</time>
      </trkpt>
      <trkpt lat="45.871946588158607" lon="7.970745339989662">
        <ele>2913.8899999999999</ele>
        <time>2015-09-19T11:13:42Z</time>
      </trkpt>
      <trkpt lat="45.871940050274134" lon="7.970724385231733">
        <ele>2913.8899999999999</ele>
        <time>2015-09-19T11:13:51Z</time>
      </trkpt>
      <trkpt lat="45.871938792988658" lon="7.970738299190998">
        <ele>2913.8899999999999</ele>
        <time>2015-09-19T11:14:06Z</time>
      </trkpt>
      <trkpt lat="45.871920855715871" lon="7.970754895359278">
        <ele>2912.4499999999998</ele>
        <time>2015-09-19T11:14:13Z</time>
      </trkpt>
      <trkpt lat="45.87190710939467" lon="7.970801666378975">
        <ele>2911.4899999999998</ele>
        <time>2015-09-19T11:14:24Z</time>
      </trkpt>
      <trkpt lat="45.871868133544922" lon="7.970838882029057">
        <ele>2909.0900000000001</ele>
        <time>2015-09-19T11:14:34Z</time>
      </trkpt>
      <trkpt lat="45.871854135766625" lon="7.970920940861106">
        <ele>2907.6500000000001</ele>
        <time>2015-09-19T11:14:45Z</time>
      </trkpt>
      <trkpt lat="45.871813986450434" lon="7.970898896455765">
        <ele>2905.2399999999998</ele>
        <time>2015-09-19T11:14:54Z</time>
      </trkpt>
      <trkpt lat="45.871804095804691" lon="7.970900572836399">
        <ele>2904.7600000000002</ele>
        <time>2015-09-19T11:14:55Z</time>
      </trkpt>
      <trkpt lat="45.871802167966962" lon="7.970856484025717">
        <ele>2903.8000000000002</ele>
        <time>2015-09-19T11:15:04Z</time>
      </trkpt>
      <trkpt lat="45.871762437745929" lon="7.97083125449717">
        <ele>2901.4000000000001</ele>
        <time>2015-09-19T11:15:13Z</time>
      </trkpt>
      <trkpt lat="45.871730502694845" lon="7.970820860937238">
        <ele>2899.4699999999998</ele>
        <time>2015-09-19T11:15:24Z</time>
      </trkpt>
      <trkpt lat="45.87173318490386" lon="7.970865033566952">
        <ele>2898.0300000000002</ele>
        <time>2015-09-19T11:15:34Z</time>
      </trkpt>
      <trkpt lat="45.8717190194875" lon="7.970881629735231">
        <ele>2897.5500000000002</ele>
        <time>2015-09-19T11:15:50Z</time>
      </trkpt>
      <trkpt lat="45.871699238196015" lon="7.970941979438067">
        <ele>2895.1500000000001</ele>
        <time>2015-09-19T11:15:59Z</time>
      </trkpt>
      <trkpt lat="45.871688844636083" lon="7.970942817628384">
        <ele>2894.6700000000001</ele>
        <time>2015-09-19T11:16:00Z</time>
      </trkpt>
      <trkpt lat="45.871668895706534" lon="7.970935693010688">
        <ele>2893.71</ele>
        <time>2015-09-19T11:16:03Z</time>
      </trkpt>
      <trkpt lat="45.871664537116885" lon="7.970977434888482">
        <ele>2892.2600000000002</ele>
        <time>2015-09-19T11:16:10Z</time>
      </trkpt>
      <trkpt lat="45.871636206284165" lon="7.971014399081469">
        <ele>2891.3000000000002</ele>
        <time>2015-09-19T11:16:15Z</time>
      </trkpt>
      <trkpt lat="45.871580550447106" lon="7.971064271405339">
        <ele>2887.9400000000001</ele>
        <time>2015-09-19T11:16:24Z</time>
      </trkpt>
      <trkpt lat="45.87154945358634" lon="7.971061589196324">
        <ele>2885.5300000000002</ele>
        <time>2015-09-19T11:16:32Z</time>
      </trkpt>
      <trkpt lat="45.871543753892183" lon="7.971060834825039">
        <ele>2885.5300000000002</ele>
        <time>2015-09-19T11:16:33Z</time>
      </trkpt>
      <trkpt lat="45.871526319533587" lon="7.971065109595656">
        <ele>2884.0900000000001</ele>
        <time>2015-09-19T11:16:41Z</time>
      </trkpt>
      <trkpt lat="45.871495557948947" lon="7.971037281677127">
        <ele>2882.1700000000001</ele>
        <time>2015-09-19T11:16:50Z</time>
      </trkpt>
      <trkpt lat="45.871475441381335" lon="7.971019595861435">
        <ele>2880.25</ele>
        <time>2015-09-19T11:17:00Z</time>
      </trkpt>
      <trkpt lat="45.871493378654122" lon="7.971010711044073">
        <ele>2880.73</ele>
        <time>2015-09-19T11:17:16Z</time>
      </trkpt>
      <trkpt lat="45.87145809084177" lon="7.971051027998328">
        <ele>2878.8099999999999</ele>
        <time>2015-09-19T11:17:28Z</time>
      </trkpt>
      <trkpt lat="45.871424898505211" lon="7.971090339124203">
        <ele>2876.4000000000001</ele>
        <time>2015-09-19T11:17:37Z</time>
      </trkpt>
      <trkpt lat="45.871376199647784" lon="7.97106477431953">
        <ele>2874</ele>
        <time>2015-09-19T11:17:47Z</time>
      </trkpt>
      <trkpt lat="45.871364632621408" lon="7.971038622781634">
        <ele>2873.52</ele>
        <time>2015-09-19T11:17:53Z</time>
      </trkpt>
      <trkpt lat="45.871336804702878" lon="7.971022445708513">
        <ele>2872.5599999999999</ele>
        <time>2015-09-19T11:17:57Z</time>
      </trkpt>
      <trkpt lat="45.871318364515901" lon="7.971006184816361">
        <ele>2872.0799999999999</ele>
        <time>2015-09-19T11:18:00Z</time>
      </trkpt>
      <trkpt lat="45.871327081695199" lon="7.970962934195995">
        <ele>2872.0799999999999</ele>
        <time>2015-09-19T11:18:08Z</time>
      </trkpt>
      <trkpt lat="45.871307551860809" lon="7.970986068248749">
        <ele>2872.0799999999999</ele>
        <time>2015-09-19T11:18:18Z</time>
      </trkpt>
      <trkpt lat="45.871302438899875" lon="7.970994953066111">
        <ele>2872.0799999999999</ele>
        <time>2015-09-19T11:18:35Z</time>
      </trkpt>
      <trkpt lat="45.871314508840442" lon="7.971001910045743">
        <ele>2872.0799999999999</ele>
        <time>2015-09-19T11:18:45Z</time>
      </trkpt>
      <trkpt lat="45.871277712285519" lon="7.971021607518196">
        <ele>2870.6300000000001</ele>
        <time>2015-09-19T11:18:53Z</time>
      </trkpt>
      <trkpt lat="45.871237562969327" lon="7.971072485670447">
        <ele>2868.23</ele>
        <time>2015-09-19T11:19:06Z</time>
      </trkpt>
      <trkpt lat="45.871207136660814" lon="7.971117999404669">
        <ele>2865.3499999999999</ele>
        <time>2015-09-19T11:19:16Z</time>
      </trkpt>
      <trkpt lat="45.871150894090533" lon="7.971141217276454">
        <ele>2862.9400000000001</ele>
        <time>2015-09-19T11:19:25Z</time>
      </trkpt>
      <trkpt lat="45.871095070615411" lon="7.971174661070108">
        <ele>2860.0599999999999</ele>
        <time>2015-09-19T11:19:34Z</time>
      </trkpt>
      <trkpt lat="45.871076714247465" lon="7.971185222268105">
        <ele>2859.0999999999999</ele>
        <time>2015-09-19T11:19:37Z</time>
      </trkpt>
      <trkpt lat="45.871066488325596" lon="7.971191927790642">
        <ele>2858.6199999999999</ele>
        <time>2015-09-19T11:19:38Z</time>
      </trkpt>
      <trkpt lat="45.871053747832775" lon="7.97120357863605">
        <ele>2857.6599999999999</ele>
        <time>2015-09-19T11:19:40Z</time>
      </trkpt>
      <trkpt lat="45.871016616001725" lon="7.971254708245397">
        <ele>2855.73</ele>
        <time>2015-09-19T11:19:48Z</time>
      </trkpt>
      <trkpt lat="45.871005384251475" lon="7.971266442909837">
        <ele>2856.21</ele>
        <time>2015-09-19T11:19:49Z</time>
      </trkpt>
      <trkpt lat="45.870956350117922" lon="7.971279434859753">
        <ele>2853.8099999999999</ele>
        <time>2015-09-19T11:19:58Z</time>
      </trkpt>
      <trkpt lat="45.870966911315918" lon="7.971280189231038">
        <ele>2853.8099999999999</ele>
        <time>2015-09-19T11:20:08Z</time>
      </trkpt>
      <trkpt lat="45.870955344289541" lon="7.971268789842725">
        <ele>2853.8099999999999</ele>
        <time>2015-09-19T11:20:25Z</time>
      </trkpt>
      <trkpt lat="45.870903544127941" lon="7.971288738772273">
        <ele>2851.4099999999999</ele>
        <time>2015-09-19T11:20:34Z</time>
      </trkpt>
      <trkpt lat="45.870853420346975" lon="7.971297958865762">
        <ele>2849</ele>
        <time>2015-09-19T11:20:43Z</time>
      </trkpt>
      <trkpt lat="45.870844535529613" lon="7.971269963309169">
        <ele>2847.5599999999999</ele>
        <time>2015-09-19T11:20:51Z</time>
      </trkpt>
      <trkpt lat="45.870840093120933" lon="7.971287816762924">
        <ele>2846.5999999999999</ele>
        <time>2015-09-19T11:21:04Z</time>
      </trkpt>
      <trkpt lat="45.87080916389823" lon="7.971262084320188">
        <ele>2844.6799999999998</ele>
        <time>2015-09-19T11:21:12Z</time>
      </trkpt>
      <trkpt lat="45.870764655992389" lon="7.97128857113421">
        <ele>2842.2800000000002</ele>
        <time>2015-09-19T11:21:22Z</time>
      </trkpt>
      <trkpt lat="45.870747640728951" lon="7.971280440688133">
        <ele>2839.8699999999999</ele>
        <time>2015-09-19T11:21:31Z</time>
      </trkpt>
      <trkpt lat="45.870750490576029" lon="7.971268203109503">
        <ele>2839.8699999999999</ele>
        <time>2015-09-19T11:21:32Z</time>
      </trkpt>
      <trkpt lat="45.870737666264176" lon="7.971266359090805">
        <ele>2838.4299999999998</ele>
        <time>2015-09-19T11:21:41Z</time>
      </trkpt>
      <trkpt lat="45.870732301846147" lon="7.971250433474779">
        <ele>2837.9499999999998</ele>
        <time>2015-09-19T11:21:49Z</time>
      </trkpt>
      <trkpt lat="45.870717214420438" lon="7.971242554485798">
        <ele>2837.4699999999998</ele>
        <time>2015-09-19T11:22:07Z</time>
      </trkpt>
      <trkpt lat="45.870719812810421" lon="7.971195112913847">
        <ele>2835.5500000000002</ele>
        <time>2015-09-19T11:22:18Z</time>
      </trkpt>
      <trkpt lat="45.870688380673528" lon="7.97122897580266">
        <ele>2833.6199999999999</ele>
        <time>2015-09-19T11:22:28Z</time>
      </trkpt>
      <trkpt lat="45.870665414258838" lon="7.971204081550241">
        <ele>2832.1799999999998</ele>
        <time>2015-09-19T11:22:37Z</time>
      </trkpt>
      <trkpt lat="45.870629707351327" lon="7.971257725730538">
        <ele>2829.3000000000002</ele>
        <time>2015-09-19T11:22:47Z</time>
      </trkpt>
      <trkpt lat="45.870613614097238" lon="7.971278764307499">
        <ele>2827.8499999999999</ele>
        <time>2015-09-19T11:22:55Z</time>
      </trkpt>
      <trkpt lat="45.870624175295234" lon="7.971244063228369">
        <ele>2827.3699999999999</ele>
        <time>2015-09-19T11:23:07Z</time>
      </trkpt>
      <trkpt lat="45.870607830584049" lon="7.9712407104671">
        <ele>2826.8899999999999</ele>
        <time>2015-09-19T11:23:21Z</time>
      </trkpt>
      <trkpt lat="45.870580337941647" lon="7.971267113462091">
        <ele>2824.4899999999998</ele>
        <time>2015-09-19T11:23:29Z</time>
      </trkpt>
      <trkpt lat="45.870570782572031" lon="7.971294522285461">
        <ele>2823.0500000000002</ele>
        <time>2015-09-19T11:23:37Z</time>
      </trkpt>
      <trkpt lat="45.870550414547324" lon="7.971295192837715">
        <ele>2821.6100000000001</ele>
        <time>2015-09-19T11:23:45Z</time>
      </trkpt>
      <trkpt lat="45.870511438697577" lon="7.971211709082127">
        <ele>2818.2399999999998</ele>
        <time>2015-09-19T11:23:57Z</time>
      </trkpt>
      <trkpt lat="45.870500626042485" lon="7.971239034086466">
        <ele>2816.3200000000002</ele>
        <time>2015-09-19T11:24:08Z</time>
      </trkpt>
      <trkpt lat="45.870484281331301" lon="7.971262419596314">
        <ele>2815.3600000000001</ele>
        <time>2015-09-19T11:24:17Z</time>
      </trkpt>
      <trkpt lat="45.870463829487562" lon="7.971223443746567">
        <ele>2813.4400000000001</ele>
        <time>2015-09-19T11:24:26Z</time>
      </trkpt>
      <trkpt lat="45.87045444175601" lon="7.971196537837386">
        <ele>2812.4699999999998</ele>
        <time>2015-09-19T11:24:33Z</time>
      </trkpt>
      <trkpt lat="45.87045687250793" lon="7.971229981631041">
        <ele>2811.0300000000002</ele>
        <time>2015-09-19T11:24:44Z</time>
      </trkpt>
      <trkpt lat="45.870429882779717" lon="7.97128370963037">
        <ele>2809.5900000000001</ele>
        <time>2015-09-19T11:24:52Z</time>
      </trkpt>
      <trkpt lat="45.870403228327632" lon="7.971266191452742">
        <ele>2808.1500000000001</ele>
        <time>2015-09-19T11:24:59Z</time>
      </trkpt>
      <trkpt lat="45.870384285226464" lon="7.971274154260755">
        <ele>2806.23</ele>
        <time>2015-09-19T11:25:06Z</time>
      </trkpt>
      <trkpt lat="45.870364001020789" lon="7.971251271665096">
        <ele>2803.8200000000002</ele>
        <time>2015-09-19T11:25:12Z</time>
      </trkpt>
      <trkpt lat="45.870343800634146" lon="7.971224114298821">
        <ele>2801.9000000000001</ele>
        <time>2015-09-19T11:25:21Z</time>
      </trkpt>
      <trkpt lat="45.870302226394415" lon="7.971247835084796">
        <ele>2799.98</ele>
        <time>2015-09-19T11:25:29Z</time>
      </trkpt>
      <trkpt lat="45.870294095948339" lon="7.971243392676115">
        <ele>2798.0500000000002</ele>
        <time>2015-09-19T11:25:36Z</time>
      </trkpt>
      <trkpt lat="45.870286216959357" lon="7.971231155097485">
        <ele>2798.0500000000002</ele>
        <time>2015-09-19T11:25:45Z</time>
      </trkpt>
      <trkpt lat="45.870271883904934" lon="7.971206093207002">
        <ele>2797.0900000000001</ele>
        <time>2015-09-19T11:25:51Z</time>
      </trkpt>
      <trkpt lat="45.870267692953348" lon="7.971209865063429">
        <ele>2796.6100000000001</ele>
        <time>2015-09-19T11:26:01Z</time>
      </trkpt>
      <trkpt lat="45.870266016572714" lon="7.97123777680099">
        <ele>2795.1700000000001</ele>
        <time>2015-09-19T11:26:13Z</time>
      </trkpt>
      <trkpt lat="45.87027900852263" lon="7.971259402111173">
        <ele>2795.1700000000001</ele>
        <time>2015-09-19T11:26:29Z</time>
      </trkpt>
      <trkpt lat="45.870251432061195" lon="7.971253450959921">
        <ele>2795.6500000000001</ele>
        <time>2015-09-19T11:26:43Z</time>
      </trkpt>
      <trkpt lat="45.870232153683901" lon="7.971235932782292">
        <ele>2795.1700000000001</ele>
        <time>2015-09-19T11:27:09Z</time>
      </trkpt>
      <trkpt lat="45.870233662426472" lon="7.971213972195983">
        <ele>2795.6500000000001</ele>
        <time>2015-09-19T11:27:35Z</time>
      </trkpt>
      <trkpt lat="45.870245145633817" lon="7.971235597506166">
        <ele>2795.6500000000001</ele>
        <time>2015-09-19T11:27:50Z</time>
      </trkpt>
      <trkpt lat="45.870229220017791" lon="7.971290750429034">
        <ele>2794.6900000000001</ele>
        <time>2015-09-19T11:28:00Z</time>
      </trkpt>
      <trkpt lat="45.870197536423802" lon="7.97134380787611">
        <ele>2793.73</ele>
        <time>2015-09-19T11:28:08Z</time>
      </trkpt>
      <trkpt lat="45.87015344761312" lon="7.971383957192302">
        <ele>2791.8099999999999</ele>
        <time>2015-09-19T11:28:16Z</time>
      </trkpt>
      <trkpt lat="45.8701475802809" lon="7.971396027132869">
        <ele>2790.8400000000001</ele>
        <time>2015-09-19T11:28:23Z</time>
      </trkpt>
      <trkpt lat="45.870147664099932" lon="7.971385885030031">
        <ele>2789.8800000000001</ele>
        <time>2015-09-19T11:28:31Z</time>
      </trkpt>
      <trkpt lat="45.870165433734655" lon="7.971410946920514">
        <ele>2789.8800000000001</ele>
        <time>2015-09-19T11:28:46Z</time>
      </trkpt>
      <trkpt lat="45.870159482583404" lon="7.971425782889128">
        <ele>2789.8800000000001</ele>
        <time>2015-09-19T11:29:02Z</time>
      </trkpt>
      <trkpt lat="45.870121261104941" lon="7.971439445391297">
        <ele>2789.4000000000001</ele>
        <time>2015-09-19T11:29:14Z</time>
      </trkpt>
      <trkpt lat="45.870123691856861" lon="7.971459142863751">
        <ele>2788.9200000000001</ele>
        <time>2015-09-19T11:29:25Z</time>
      </trkpt>
      <trkpt lat="45.870107430964708" lon="7.971482360735536">
        <ele>2788.9200000000001</ele>
        <time>2015-09-19T11:29:33Z</time>
      </trkpt>
      <trkpt lat="45.870086560025811" lon="7.971493005752564">
        <ele>2787.48</ele>
        <time>2015-09-19T11:29:40Z</time>
      </trkpt>
      <trkpt lat="45.870083039626479" lon="7.971489233896136">
        <ele>2787.48</ele>
        <time>2015-09-19T11:29:53Z</time>
      </trkpt>
      <trkpt lat="45.870076669380069" lon="7.971508344635367">
        <ele>2786.52</ele>
        <time>2015-09-19T11:30:03Z</time>
      </trkpt>
      <trkpt lat="45.870058396831155" lon="7.971514966338873">
        <ele>2786.04</ele>
        <time>2015-09-19T11:30:15Z</time>
      </trkpt>
      <trkpt lat="45.87004934437573" lon="7.971529383212328">
        <ele>2785.5599999999999</ele>
        <time>2015-09-19T11:30:19Z</time>
      </trkpt>
      <trkpt lat="45.870010955259204" lon="7.971569364890456">
        <ele>2784.1199999999999</ele>
        <time>2015-09-19T11:30:26Z</time>
      </trkpt>
      <trkpt lat="45.869975415989757" lon="7.971576154232025">
        <ele>2782.1900000000001</ele>
        <time>2015-09-19T11:30:34Z</time>
      </trkpt>
      <trkpt lat="45.869965776801109" lon="7.971602138131857">
        <ele>2782.1900000000001</ele>
        <time>2015-09-19T11:30:45Z</time>
      </trkpt>
      <trkpt lat="45.869918586686254" lon="7.971638012677431">
        <ele>2779.79</ele>
        <time>2015-09-19T11:30:53Z</time>
      </trkpt>
      <trkpt lat="45.869882041588426" lon="7.971685789525509">
        <ele>2777.8699999999999</ele>
        <time>2015-09-19T11:31:02Z</time>
      </trkpt>
      <trkpt lat="45.869854968041182" lon="7.971722166985273">
        <ele>2776.9099999999999</ele>
        <time>2015-09-19T11:31:12Z</time>
      </trkpt>
      <trkpt lat="45.869819512590766" lon="7.971748234704137">
        <ele>2774.98</ele>
        <time>2015-09-19T11:31:21Z</time>
      </trkpt>
      <trkpt lat="45.869791433215141" lon="7.971745217218995">
        <ele>2773.0599999999999</ele>
        <time>2015-09-19T11:31:29Z</time>
      </trkpt>
      <trkpt lat="45.86975228972733" lon="7.971758712083101">
        <ele>2770.1799999999998</ele>
        <time>2015-09-19T11:31:40Z</time>
      </trkpt>
      <trkpt lat="45.869720187038183" lon="7.971789641305804">
        <ele>2768.25</ele>
        <time>2015-09-19T11:31:51Z</time>
      </trkpt>
      <trkpt lat="45.869709877297282" lon="7.971804980188608">
        <ele>2766.8099999999999</ele>
        <time>2015-09-19T11:32:01Z</time>
      </trkpt>
      <trkpt lat="45.869689425453544" lon="7.9717933293432">
        <ele>2765.8499999999999</ele>
        <time>2015-09-19T11:32:13Z</time>
      </trkpt>
      <trkpt lat="45.869675846770406" lon="7.97182023525238">
        <ele>2764.8899999999999</ele>
        <time>2015-09-19T11:32:24Z</time>
      </trkpt>
      <trkpt lat="45.869621867313981" lon="7.971862815320492">
        <ele>2762</ele>
        <time>2015-09-19T11:32:33Z</time>
      </trkpt>
      <trkpt lat="45.869589764624834" lon="7.971878992393613">
        <ele>2761.04</ele>
        <time>2015-09-19T11:32:39Z</time>
      </trkpt>
      <trkpt lat="45.86958272382617" lon="7.971844123676419">
        <ele>2760.0799999999999</ele>
        <time>2015-09-19T11:32:48Z</time>
      </trkpt>
      <trkpt lat="45.869574090465903" lon="7.97185149975121">
        <ele>2760.0799999999999</ele>
        <time>2015-09-19T11:32:50Z</time>
      </trkpt>
      <trkpt lat="45.869559925049543" lon="7.971873879432678">
        <ele>2760.5599999999999</ele>
        <time>2015-09-19T11:32:52Z</time>
      </trkpt>
      <trkpt lat="45.869506448507309" lon="7.971928110346198">
        <ele>2757.6799999999998</ele>
        <time>2015-09-19T11:33:01Z</time>
      </trkpt>
      <trkpt lat="45.869498737156391" lon="7.971935821697116">
        <ele>2756.7199999999998</ele>
        <time>2015-09-19T11:33:02Z</time>
      </trkpt>
      <trkpt lat="45.869462778791785" lon="7.971914699301124">
        <ele>2753.8299999999999</ele>
        <time>2015-09-19T11:33:09Z</time>
      </trkpt>
      <trkpt lat="45.869413912296295" lon="7.971950741484761">
        <ele>2751.4299999999998</ele>
        <time>2015-09-19T11:33:18Z</time>
      </trkpt>
      <trkpt lat="45.869406620040536" lon="7.971968008205295">
        <ele>2751.4299999999998</ele>
        <time>2015-09-19T11:33:26Z</time>
      </trkpt>
      <trkpt lat="45.869401674717665" lon="7.971926685422659">
        <ele>2750.4699999999998</ele>
        <time>2015-09-19T11:33:35Z</time>
      </trkpt>
      <trkpt lat="45.869391364976764" lon="7.971915788948536">
        <ele>2749.9899999999998</ele>
        <time>2015-09-19T11:33:47Z</time>
      </trkpt>
      <trkpt lat="45.869379714131355" lon="7.971924673765898">
        <ele>2749.0300000000002</ele>
        <time>2015-09-19T11:33:49Z</time>
      </trkpt>
      <trkpt lat="45.869348617270589" lon="7.971907071769238">
        <ele>2747.0999999999999</ele>
        <time>2015-09-19T11:33:55Z</time>
      </trkpt>
      <trkpt lat="45.869331015273929" lon="7.971898689866066">
        <ele>2746.1399999999999</ele>
        <time>2015-09-19T11:33:57Z</time>
      </trkpt>
      <trkpt lat="45.869299415498972" lon="7.971922410652041">
        <ele>2745.6599999999999</ele>
        <time>2015-09-19T11:34:03Z</time>
      </trkpt>
      <trkpt lat="45.869288435205817" lon="7.971932049840689">
        <ele>2745.1799999999998</ele>
        <time>2015-09-19T11:34:04Z</time>
      </trkpt>
      <trkpt lat="45.869264798238873" lon="7.972023244947195">
        <ele>2744.2199999999998</ele>
        <time>2015-09-19T11:34:14Z</time>
      </trkpt>
      <trkpt lat="45.869239736348391" lon="7.972053335979581">
        <ele>2743.2600000000002</ele>
        <time>2015-09-19T11:34:17Z</time>
      </trkpt>
      <trkpt lat="45.869208974763751" lon="7.972130198031664">
        <ele>2742.3000000000002</ele>
        <time>2015-09-19T11:34:27Z</time>
      </trkpt>
      <trkpt lat="45.86921090260148" lon="7.972139166668057">
        <ele>2742.3000000000002</ele>
        <time>2015-09-19T11:34:40Z</time>
      </trkpt>
      <trkpt lat="45.869209058582783" lon="7.972160456702113">
        <ele>2741.8200000000002</ele>
        <time>2015-09-19T11:34:44Z</time>
      </trkpt>
      <trkpt lat="45.869188355281949" lon="7.972200019285083">
        <ele>2741.8200000000002</ele>
        <time>2015-09-19T11:34:48Z</time>
      </trkpt>
      <trkpt lat="45.869163880124688" lon="7.972211670130491">
        <ele>2740.8600000000001</ele>
        <time>2015-09-19T11:34:55Z</time>
      </trkpt>
      <trkpt lat="45.869185421615839" lon="7.972179902717471">
        <ele>2741.3400000000001</ele>
        <time>2015-09-19T11:35:02Z</time>
      </trkpt>
      <trkpt lat="45.869187852367759" lon="7.972183423116803">
        <ele>2740.8600000000001</ele>
        <time>2015-09-19T11:35:13Z</time>
      </trkpt>
      <trkpt lat="45.869172848761082" lon="7.972210999578238">
        <ele>2740.8600000000001</ele>
        <time>2015-09-19T11:35:16Z</time>
      </trkpt>
      <trkpt lat="45.86916103027761" lon="7.972235977649689">
        <ele>2740.3800000000001</ele>
        <time>2015-09-19T11:35:18Z</time>
      </trkpt>
      <trkpt lat="45.869128340855241" lon="7.972303284332156">
        <ele>2739.8899999999999</ele>
        <time>2015-09-19T11:35:23Z</time>
      </trkpt>
      <trkpt lat="45.869117109104991" lon="7.972351564094424">
        <ele>2740.3800000000001</ele>
        <time>2015-09-19T11:35:27Z</time>
      </trkpt>
      <trkpt lat="45.869081318378448" lon="7.972428593784571">
        <ele>2739.8899999999999</ele>
        <time>2015-09-19T11:35:33Z</time>
      </trkpt>
      <trkpt lat="45.869079306721687" lon="7.972442591562867">
        <ele>2740.3800000000001</ele>
        <time>2015-09-19T11:35:34Z</time>
      </trkpt>
      <trkpt lat="45.869048042222857" lon="7.97251945361495">
        <ele>2741.8200000000002</ele>
        <time>2015-09-19T11:35:43Z</time>
      </trkpt>
      <trkpt lat="45.869038570672274" lon="7.97252967953682">
        <ele>2741.3400000000001</ele>
        <time>2015-09-19T11:35:44Z</time>
      </trkpt>
      <trkpt lat="45.869004623964429" lon="7.972608217969537">
        <ele>2742.3000000000002</ele>
        <time>2015-09-19T11:35:53Z</time>
      </trkpt>
      <trkpt lat="45.869001103565097" lon="7.972619868814945">
        <ele>2742.3000000000002</ele>
        <time>2015-09-19T11:35:55Z</time>
      </trkpt>
      <trkpt lat="45.868984339758754" lon="7.972651300951839">
        <ele>2742.3000000000002</ele>
        <time>2015-09-19T11:35:58Z</time>
      </trkpt>
      <trkpt lat="45.868937820196152" lon="7.972730845212936">
        <ele>2743.2600000000002</ele>
        <time>2015-09-19T11:36:08Z</time>
      </trkpt>
      <trkpt lat="45.868913093581796" lon="7.972799073904753">
        <ele>2744.6999999999998</ele>
        <time>2015-09-19T11:36:17Z</time>
      </trkpt>
      <trkpt lat="45.868845619261265" lon="7.972915917634964">
        <ele>2744.6999999999998</ele>
        <time>2015-09-19T11:36:29Z</time>
      </trkpt>
      <trkpt lat="45.868831118568778" lon="7.972931927070022">
        <ele>2744.2199999999998</ele>
        <time>2015-09-19T11:36:31Z</time>
      </trkpt>
      <trkpt lat="45.868823239579797" lon="7.972938716411591">
        <ele>2744.2199999999998</ele>
        <time>2015-09-19T11:36:32Z</time>
      </trkpt>
      <trkpt lat="45.86877353489399" lon="7.972979703918099">
        <ele>2743.2600000000002</ele>
        <time>2015-09-19T11:36:42Z</time>
      </trkpt>
      <trkpt lat="45.868792226538062" lon="7.972990013659">
        <ele>2744.2199999999998</ele>
        <time>2015-09-19T11:36:57Z</time>
      </trkpt>
      <trkpt lat="45.868806475773454" lon="7.973038963973522">
        <ele>2742.3000000000002</ele>
        <time>2015-09-19T11:37:05Z</time>
      </trkpt>
      <trkpt lat="45.868801530450583" lon="7.973071988672018">
        <ele>2739.8899999999999</ele>
        <time>2015-09-19T11:37:09Z</time>
      </trkpt>
      <trkpt lat="45.868785604834557" lon="7.973108449950814">
        <ele>2738.4499999999998</ele>
        <time>2015-09-19T11:37:15Z</time>
      </trkpt>
      <trkpt lat="45.868772026151419" lon="7.973115490749478">
        <ele>2737.0100000000002</ele>
        <time>2015-09-19T11:37:24Z</time>
      </trkpt>
      <trkpt lat="45.868804967030883" lon="7.973133511841297">
        <ele>2735.5700000000002</ele>
        <time>2015-09-19T11:37:31Z</time>
      </trkpt>
      <trkpt lat="45.868795579299331" lon="7.973164860159159">
        <ele>2733.1700000000001</ele>
        <time>2015-09-19T11:37:39Z</time>
      </trkpt>
      <trkpt lat="45.868847295641899" lon="7.973171314224601">
        <ele>2730.2800000000002</ele>
        <time>2015-09-19T11:37:50Z</time>
      </trkpt>
      <trkpt lat="45.868846876546741" lon="7.973194113001227">
        <ele>2728.3600000000001</ele>
        <time>2015-09-19T11:37:56Z</time>
      </trkpt>
      <trkpt lat="45.86881116963923" lon="7.973243482410908">
        <ele>2725.96</ele>
        <time>2015-09-19T11:38:07Z</time>
      </trkpt>
      <trkpt lat="45.868821563199162" lon="7.973273238167167">
        <ele>2724.5100000000002</ele>
        <time>2015-09-19T11:38:16Z</time>
      </trkpt>
      <trkpt lat="45.868840087205172" lon="7.973270304501057">
        <ele>2723.5500000000002</ele>
        <time>2015-09-19T11:38:29Z</time>
      </trkpt>
      <trkpt lat="45.868876045569777" lon="7.973284386098385">
        <ele>2720.6700000000001</ele>
        <time>2015-09-19T11:38:38Z</time>
      </trkpt>
      <trkpt lat="45.868842853233218" lon="7.973310118541122">
        <ele>2719.71</ele>
        <time>2015-09-19T11:38:47Z</time>
      </trkpt>
      <trkpt lat="45.868839668110013" lon="7.973338030278683">
        <ele>2718.27</ele>
        <time>2015-09-19T11:38:55Z</time>
      </trkpt>
      <trkpt lat="45.868798932060599" lon="7.973357141017914">
        <ele>2717.3000000000002</ele>
        <time>2015-09-19T11:39:05Z</time>
      </trkpt>
      <trkpt lat="45.86882877163589" lon="7.97337700612843">
        <ele>2715.3800000000001</ele>
        <time>2015-09-19T11:39:13Z</time>
      </trkpt>
      <trkpt lat="45.868806894868612" lon="7.97337549738586">
        <ele>2714.4200000000001</ele>
        <time>2015-09-19T11:39:23Z</time>
      </trkpt>
      <trkpt lat="45.868774121627212" lon="7.973383711650968">
        <ele>2712.98</ele>
        <time>2015-09-19T11:39:34Z</time>
      </trkpt>
      <trkpt lat="45.868729026988149" lon="7.973445570096374">
        <ele>2709.6100000000001</ele>
        <time>2015-09-19T11:39:45Z</time>
      </trkpt>
      <trkpt lat="45.868715615943074" lon="7.973465686663985">
        <ele>2709.1300000000001</ele>
        <time>2015-09-19T11:39:47Z</time>
      </trkpt>
      <trkpt lat="45.868702037259936" lon="7.973496783524752">
        <ele>2707.6900000000001</ele>
        <time>2015-09-19T11:39:52Z</time>
      </trkpt>
      <trkpt lat="45.868697091937065" lon="7.973515726625919">
        <ele>2707.21</ele>
        <time>2015-09-19T11:39:54Z</time>
      </trkpt>
      <trkpt lat="45.868687033653259" lon="7.973541123792529">
        <ele>2705.77</ele>
        <time>2015-09-19T11:40:04Z</time>
      </trkpt>
      <trkpt lat="45.868711173534393" lon="7.973517403006554">
        <ele>2703.8499999999999</ele>
        <time>2015-09-19T11:40:16Z</time>
      </trkpt>
      <trkpt lat="45.868716537952423" lon="7.973545230925083">
        <ele>2702.8800000000001</ele>
        <time>2015-09-19T11:40:29Z</time>
      </trkpt>
      <trkpt lat="45.86871637031436" lon="7.973549338057637">
        <ele>2702.4000000000001</ele>
        <time>2015-09-19T11:40:42Z</time>
      </trkpt>
      <trkpt lat="45.868730368092656" lon="7.973561240360141">
        <ele>2700.96</ele>
        <time>2015-09-19T11:40:54Z</time>
      </trkpt>
      <trkpt lat="45.868716621771455" lon="7.973525952547789">
        <ele>2703.8499999999999</ele>
        <time>2015-09-19T11:41:04Z</time>
      </trkpt>
      <trkpt lat="45.86873346939683" lon="7.973552523180842">
        <ele>2701.9200000000001</ele>
        <time>2015-09-19T11:41:15Z</time>
      </trkpt>
      <trkpt lat="45.868744449689984" lon="7.973570879548788">
        <ele>2700</ele>
        <time>2015-09-19T11:41:26Z</time>
      </trkpt>
      <trkpt lat="45.868743192404509" lon="7.973578004166484">
        <ele>2698.0799999999999</ele>
        <time>2015-09-19T11:41:39Z</time>
      </trkpt>
      <trkpt lat="45.868742018938065" lon="7.973583871498704">
        <ele>2697.1199999999999</ele>
        <time>2015-09-19T11:41:47Z</time>
      </trkpt>
      <trkpt lat="45.868741516023874" lon="7.973587224259973">
        <ele>2696.6399999999999</ele>
        <time>2015-09-19T11:42:03Z</time>
      </trkpt>
      <trkpt lat="45.868726512417197" lon="7.973607508465648">
        <ele>2695.1900000000001</ele>
        <time>2015-09-19T11:42:15Z</time>
      </trkpt>
      <trkpt lat="45.868720561265945" lon="7.973627625033259">
        <ele>2694.23</ele>
        <time>2015-09-19T11:42:28Z</time>
      </trkpt>
      <trkpt lat="45.868717292323709" lon="7.973650675266981">
        <ele>2692.79</ele>
        <time>2015-09-19T11:42:40Z</time>
      </trkpt>
      <trkpt lat="45.868716454133391" lon="7.973610693588853">
        <ele>2693.27</ele>
        <time>2015-09-19T11:42:50Z</time>
      </trkpt>
      <trkpt lat="45.868719471618533" lon="7.973603568971157">
        <ele>2693.27</ele>
        <time>2015-09-19T11:43:06Z</time>
      </trkpt>
      <trkpt lat="45.868728859350085" lon="7.973643383011222">
        <ele>2691.8299999999999</ele>
        <time>2015-09-19T11:43:18Z</time>
      </trkpt>
      <trkpt lat="45.868731206282973" lon="7.973668277263641">
        <ele>2689.9099999999999</ele>
        <time>2015-09-19T11:43:26Z</time>
      </trkpt>
      <trkpt lat="45.868718968704343" lon="7.973668863996863">
        <ele>2688.9400000000001</ele>
        <time>2015-09-19T11:43:36Z</time>
      </trkpt>
      <trkpt lat="45.868714274838567" lon="7.973667774349451">
        <ele>2687.98</ele>
        <time>2015-09-19T11:43:46Z</time>
      </trkpt>
      <trkpt lat="45.868747048079967" lon="7.973688561469317">
        <ele>2687.02</ele>
        <time>2015-09-19T11:43:59Z</time>
      </trkpt>
      <trkpt lat="45.868781246244907" lon="7.973699374124408">
        <ele>2685.5799999999999</ele>
        <time>2015-09-19T11:44:09Z</time>
      </trkpt>
      <trkpt lat="45.868762554600835" lon="7.973739439621568">
        <ele>2682.6999999999998</ele>
        <time>2015-09-19T11:44:18Z</time>
      </trkpt>
      <trkpt lat="45.868711927905679" lon="7.973765591159463">
        <ele>2681.25</ele>
        <time>2015-09-19T11:44:28Z</time>
      </trkpt>
      <trkpt lat="45.868666497990489" lon="7.973815631121397">
        <ele>2679.3299999999999</ele>
        <time>2015-09-19T11:44:36Z</time>
      </trkpt>
      <trkpt lat="45.868697427213192" lon="7.973828203976154">
        <ele>2677.4099999999999</ele>
        <time>2015-09-19T11:44:45Z</time>
      </trkpt>
      <trkpt lat="45.868730200454593" lon="7.973832814022899">
        <ele>2675.0100000000002</ele>
        <time>2015-09-19T11:44:53Z</time>
      </trkpt>
      <trkpt lat="45.868720728904009" lon="7.973868018016219">
        <ele>2673.0799999999999</ele>
        <time>2015-09-19T11:45:01Z</time>
      </trkpt>
      <trkpt lat="45.868686614558101" lon="7.973926942795515">
        <ele>2670.1999999999998</ele>
        <time>2015-09-19T11:45:11Z</time>
      </trkpt>
      <trkpt lat="45.868662977591157" lon="7.973927026614547">
        <ele>2668.7600000000002</ele>
        <time>2015-09-19T11:45:16Z</time>
      </trkpt>
      <trkpt lat="45.86867337115109" lon="7.97392132692039">
        <ele>2667.8000000000002</ele>
        <time>2015-09-19T11:45:26Z</time>
      </trkpt>
      <trkpt lat="45.868686866015196" lon="7.973948232829571">
        <ele>2666.8299999999999</ele>
        <time>2015-09-19T11:45:38Z</time>
      </trkpt>
      <trkpt lat="45.868693822994828" lon="7.973982850089669">
        <ele>2664.4299999999998</ele>
        <time>2015-09-19T11:45:46Z</time>
      </trkpt>
      <trkpt lat="45.868661217391491" lon="7.973977485671639">
        <ele>2663.9499999999998</ele>
        <time>2015-09-19T11:46:03Z</time>
      </trkpt>
      <trkpt lat="45.868652919307351" lon="7.974017802625895">
        <ele>2661.5500000000002</ele>
        <time>2015-09-19T11:46:11Z</time>
      </trkpt>
      <trkpt lat="45.868653673678637" lon="7.974040936678648">
        <ele>2660.1100000000001</ele>
        <time>2015-09-19T11:46:20Z</time>
      </trkpt>
      <trkpt lat="45.868634730577469" lon="7.974077481776476">
        <ele>2657.2199999999998</ele>
        <time>2015-09-19T11:46:30Z</time>
      </trkpt>
      <trkpt lat="45.868626767769456" lon="7.974096089601517">
        <ele>2656.2600000000002</ele>
        <time>2015-09-19T11:46:33Z</time>
      </trkpt>
      <trkpt lat="45.868624672293663" lon="7.974138082936406">
        <ele>2653.3800000000001</ele>
        <time>2015-09-19T11:46:41Z</time>
      </trkpt>
      <trkpt lat="45.868671275675297" lon="7.974152164533734">
        <ele>2650.9699999999998</ele>
        <time>2015-09-19T11:46:50Z</time>
      </trkpt>
      <trkpt lat="45.868694996461272" lon="7.97416222281754">
        <ele>2649.5300000000002</ele>
        <time>2015-09-19T11:47:00Z</time>
      </trkpt>
      <trkpt lat="45.868724668398499" lon="7.974188709631562">
        <ele>2647.1300000000001</ele>
        <time>2015-09-19T11:47:09Z</time>
      </trkpt>
      <trkpt lat="45.868768254294991" lon="7.974180579185486">
        <ele>2644.2399999999998</ele>
        <time>2015-09-19T11:47:18Z</time>
      </trkpt>
      <trkpt lat="45.868786778301001" lon="7.974192816764116">
        <ele>2642.8000000000002</ele>
        <time>2015-09-19T11:47:28Z</time>
      </trkpt>
      <trkpt lat="45.868817288428545" lon="7.974180160090327">
        <ele>2641.8400000000001</ele>
        <time>2015-09-19T11:47:39Z</time>
      </trkpt>
      <trkpt lat="45.868884511291981" lon="7.974172448739409">
        <ele>2639.9200000000001</ele>
        <time>2015-09-19T11:47:47Z</time>
      </trkpt>
      <trkpt lat="45.868975538760424" lon="7.974160211160779">
        <ele>2637.5100000000002</ele>
        <time>2015-09-19T11:47:59Z</time>
      </trkpt>
      <trkpt lat="45.868982998654246" lon="7.974165910854936">
        <ele>2637.5100000000002</ele>
        <time>2015-09-19T11:48:00Z</time>
      </trkpt>
      <trkpt lat="45.869045443832874" lon="7.974217711016536">
        <ele>2635.5900000000001</ele>
        <time>2015-09-19T11:48:09Z</time>
      </trkpt>
      <trkpt lat="45.869079641997814" lon="7.97424185089767">
        <ele>2634.6300000000001</ele>
        <time>2015-09-19T11:48:14Z</time>
      </trkpt>
      <trkpt lat="45.869089867919683" lon="7.97424822114408">
        <ele>2634.6300000000001</ele>
        <time>2015-09-19T11:48:15Z</time>
      </trkpt>
      <trkpt lat="45.869101183488965" lon="7.97425945289433">
        <ele>2634.1500000000001</ele>
        <time>2015-09-19T11:48:16Z</time>
      </trkpt>
      <trkpt lat="45.86916203610599" lon="7.974269511178136">
        <ele>2632.71</ele>
        <time>2015-09-19T11:48:24Z</time>
      </trkpt>
      <trkpt lat="45.869137477129698" lon="7.974255764856935">
        <ele>2634.1500000000001</ele>
        <time>2015-09-19T11:48:31Z</time>
      </trkpt>
      <trkpt lat="45.869143093004823" lon="7.974251825362444">
        <ele>2633.6700000000001</ele>
        <time>2015-09-19T11:48:40Z</time>
      </trkpt>
      <trkpt lat="45.869152564555407" lon="7.974291052669287">
        <ele>2633.1900000000001</ele>
        <time>2015-09-19T11:48:58Z</time>
      </trkpt>
      <trkpt lat="45.869157761335373" lon="7.97427118755877">
        <ele>2633.1900000000001</ele>
        <time>2015-09-19T11:49:16Z</time>
      </trkpt>
      <trkpt lat="45.869151055812836" lon="7.974270600825548">
        <ele>2632.71</ele>
        <time>2015-09-19T11:49:22Z</time>
      </trkpt>
      <trkpt lat="45.869125491008162" lon="7.974273702129722">
        <ele>2632.71</ele>
        <time>2015-09-19T11:49:40Z</time>
      </trkpt>
      <trkpt lat="45.869137141853571" lon="7.974259871989489">
        <ele>2632.23</ele>
        <time>2015-09-19T11:49:50Z</time>
      </trkpt>
      <trkpt lat="45.869139321148396" lon="7.974293399602175">
        <ele>2632.71</ele>
        <time>2015-09-19T11:50:09Z</time>
      </trkpt>
      <trkpt lat="45.869134711101651" lon="7.974285520613194">
        <ele>2632.23</ele>
        <time>2015-09-19T11:50:33Z</time>
      </trkpt>
      <trkpt lat="45.869137058034539" lon="7.97429314814508">
        <ele>2632.23</ele>
        <time>2015-09-19T11:50:56Z</time>
      </trkpt>
      <trkpt lat="45.869162119925022" lon="7.974264565855265">
        <ele>2634.6300000000001</ele>
        <time>2015-09-19T11:51:09Z</time>
      </trkpt>
      <trkpt lat="45.869184667244554" lon="7.974284514784813">
        <ele>2632.23</ele>
        <time>2015-09-19T11:51:20Z</time>
      </trkpt>
      <trkpt lat="45.869198078289628" lon="7.974337739869952">
        <ele>2630.3000000000002</ele>
        <time>2015-09-19T11:51:24Z</time>
      </trkpt>
      <trkpt lat="45.869197323918343" lon="7.974368249997497">
        <ele>2629.3400000000001</ele>
        <time>2015-09-19T11:51:27Z</time>
      </trkpt>
      <trkpt lat="45.869190450757742" lon="7.974392808973789">
        <ele>2627.9000000000001</ele>
        <time>2015-09-19T11:51:29Z</time>
      </trkpt>
      <trkpt lat="45.869196821004152" lon="7.974397670477629">
        <ele>2626.9400000000001</ele>
        <time>2015-09-19T11:51:32Z</time>
      </trkpt>
      <trkpt lat="45.869218613952398" lon="7.974456176161766">
        <ele>2623.5799999999999</ele>
        <time>2015-09-19T11:51:40Z</time>
      </trkpt>
      <trkpt lat="45.869193552061915" lon="7.974514933302999">
        <ele>2621.1700000000001</ele>
        <time>2015-09-19T11:51:49Z</time>
      </trkpt>
      <trkpt lat="45.869223056361079" lon="7.974552735686302">
        <ele>2619.25</ele>
        <time>2015-09-19T11:51:57Z</time>
      </trkpt>
      <trkpt lat="45.869236383587122" lon="7.974606798961759">
        <ele>2616.8499999999999</ele>
        <time>2015-09-19T11:52:06Z</time>
      </trkpt>
      <trkpt lat="45.869292793795466" lon="7.974606631323695">
        <ele>2614.4400000000001</ele>
        <time>2015-09-19T11:52:15Z</time>
      </trkpt>
      <trkpt lat="45.869312072172761" lon="7.974671088159084">
        <ele>2611.0799999999999</ele>
        <time>2015-09-19T11:52:24Z</time>
      </trkpt>
      <trkpt lat="45.869303941726685" lon="7.97471727244556">
        <ele>2608.6700000000001</ele>
        <time>2015-09-19T11:52:33Z</time>
      </trkpt>
      <trkpt lat="45.869318526238203" lon="7.974777370691299">
        <ele>2606.27</ele>
        <time>2015-09-19T11:52:42Z</time>
      </trkpt>
      <trkpt lat="45.869301846250892" lon="7.974847359582782">
        <ele>2602.9099999999999</ele>
        <time>2015-09-19T11:52:52Z</time>
      </trkpt>
      <trkpt lat="45.869248704984784" lon="7.974886670708656">
        <ele>2600.5</ele>
        <time>2015-09-19T11:53:03Z</time>
      </trkpt>
      <trkpt lat="45.86926999501884" lon="7.974932435899973">
        <ele>2598.5799999999999</ele>
        <time>2015-09-19T11:53:14Z</time>
      </trkpt>
      <trkpt lat="45.869292290881276" lon="7.974931178614497">
        <ele>2597.6199999999999</ele>
        <time>2015-09-19T11:53:29Z</time>
      </trkpt>
      <trkpt lat="45.869330009445548" lon="7.974958084523678">
        <ele>2595.2199999999998</ele>
        <time>2015-09-19T11:53:37Z</time>
      </trkpt>
      <trkpt lat="45.869293548166752" lon="7.974970154464245">
        <ele>2594.25</ele>
        <time>2015-09-19T11:53:48Z</time>
      </trkpt>
      <trkpt lat="45.86926949210465" lon="7.974972585216165">
        <ele>2593.77</ele>
        <time>2015-09-19T11:54:05Z</time>
      </trkpt>
      <trkpt lat="45.869259936735034" lon="7.974981050938368">
        <ele>2593.77</ele>
        <time>2015-09-19T11:54:06Z</time>
      </trkpt>
      <trkpt lat="45.869215931743383" lon="7.975022960454226">
        <ele>2591.8499999999999</ele>
        <time>2015-09-19T11:54:16Z</time>
      </trkpt>
      <trkpt lat="45.869206627830863" lon="7.975039221346378">
        <ele>2589.9299999999998</ele>
        <time>2015-09-19T11:54:26Z</time>
      </trkpt>
      <trkpt lat="45.869219871237874" lon="7.975056571885943">
        <ele>2588.4899999999998</ele>
        <time>2015-09-19T11:54:34Z</time>
      </trkpt>
      <trkpt lat="45.869219116866589" lon="7.975063361227512">
        <ele>2587.5300000000002</ele>
        <time>2015-09-19T11:54:46Z</time>
      </trkpt>
      <trkpt lat="45.869233869016171" lon="7.975088004022837">
        <ele>2586.0799999999999</ele>
        <time>2015-09-19T11:55:01Z</time>
      </trkpt>
      <trkpt lat="45.869218865409493" lon="7.975114155560732">
        <ele>2586.0799999999999</ele>
        <time>2015-09-19T11:55:12Z</time>
      </trkpt>
      <trkpt lat="45.869218278676271" lon="7.975099487230182">
        <ele>2584.6399999999999</ele>
        <time>2015-09-19T11:55:34Z</time>
      </trkpt>
      <trkpt lat="45.86926756426692" lon="7.975111305713654">
        <ele>2582.7199999999998</ele>
        <time>2015-09-19T11:55:45Z</time>
      </trkpt>
      <trkpt lat="45.869303354993463" lon="7.975106444209814">
        <ele>2581.2800000000002</ele>
        <time>2015-09-19T11:55:55Z</time>
      </trkpt>
      <trkpt lat="45.869353227317333" lon="7.9751106351614">
        <ele>2578.8699999999999</ele>
        <time>2015-09-19T11:56:04Z</time>
      </trkpt>
      <trkpt lat="45.869349958375096" lon="7.975104935467243">
        <ele>2577.9099999999999</ele>
        <time>2015-09-19T11:56:12Z</time>
      </trkpt>
      <trkpt lat="45.869418438524008" lon="7.975146425887942">
        <ele>2575.5100000000002</ele>
        <time>2015-09-19T11:56:23Z</time>
      </trkpt>
      <trkpt lat="45.869440985843539" lon="7.975185737013817">
        <ele>2573.1100000000001</ele>
        <time>2015-09-19T11:56:31Z</time>
      </trkpt>
      <trkpt lat="45.869475184008479" lon="7.975233430042863">
        <ele>2570.6999999999998</ele>
        <time>2015-09-19T11:56:40Z</time>
      </trkpt>
      <trkpt lat="45.869497396051884" lon="7.975262766703963">
        <ele>2568.7800000000002</ele>
        <time>2015-09-19T11:56:49Z</time>
      </trkpt>
      <trkpt lat="45.869480296969414" lon="7.975297132506967">
        <ele>2567.8200000000002</ele>
        <time>2015-09-19T11:56:57Z</time>
      </trkpt>
      <trkpt lat="45.869467472657561" lon="7.975338120013475">
        <ele>2565.9000000000001</ele>
        <time>2015-09-19T11:57:06Z</time>
      </trkpt>
      <trkpt lat="45.869496641680598" lon="7.975361505523324">
        <ele>2564.9299999999998</ele>
        <time>2015-09-19T11:57:16Z</time>
      </trkpt>
      <trkpt lat="45.869547268375754" lon="7.975396877154708">
        <ele>2562.0500000000002</ele>
        <time>2015-09-19T11:57:26Z</time>
      </trkpt>
      <trkpt lat="45.869544334709644" lon="7.975458735600114">
        <ele>2559.1700000000001</ele>
        <time>2015-09-19T11:57:35Z</time>
      </trkpt>
      <trkpt lat="45.869580041617155" lon="7.97549519687891">
        <ele>2556.2800000000002</ele>
        <time>2015-09-19T11:57:44Z</time>
      </trkpt>
      <trkpt lat="45.869580795988441" lon="7.975500477477908">
        <ele>2556.2800000000002</ele>
        <time>2015-09-19T11:57:45Z</time>
      </trkpt>
      <trkpt lat="45.869596302509308" lon="7.975534256547689">
        <ele>2553.4000000000001</ele>
        <time>2015-09-19T11:57:54Z</time>
      </trkpt>
      <trkpt lat="45.869611138477921" lon="7.975584883242846">
        <ele>2551.48</ele>
        <time>2015-09-19T11:58:02Z</time>
      </trkpt>
      <trkpt lat="45.869603008031845" lon="7.975592343136668">
        <ele>2551</ele>
        <time>2015-09-19T11:58:03Z</time>
      </trkpt>
      <trkpt lat="45.869589596986771" lon="7.975660068914294">
        <ele>2548.1100000000001</ele>
        <time>2015-09-19T11:58:13Z</time>
      </trkpt>
      <trkpt lat="45.869578784331679" lon="7.975692674517632">
        <ele>2547.1500000000001</ele>
        <time>2015-09-19T11:58:20Z</time>
      </trkpt>
      <trkpt lat="45.869640056043863" lon="7.975689321756363">
        <ele>2544.75</ele>
        <time>2015-09-19T11:58:28Z</time>
      </trkpt>
      <trkpt lat="45.869651790708303" lon="7.975746234878898">
        <ele>2542.3400000000001</ele>
        <time>2015-09-19T11:58:36Z</time>
      </trkpt>
      <trkpt lat="45.86964525282383" lon="7.975756293162704">
        <ele>2541.8600000000001</ele>
        <time>2015-09-19T11:58:37Z</time>
      </trkpt>
      <trkpt lat="45.869665369391441" lon="7.975809266790748">
        <ele>2538.5</ele>
        <time>2015-09-19T11:58:45Z</time>
      </trkpt>
      <trkpt lat="45.869662100449204" lon="7.975801974534988">
        <ele>2538.5</ele>
        <time>2015-09-19T11:58:46Z</time>
      </trkpt>
      <trkpt lat="45.869630835950375" lon="7.975847404450178">
        <ele>2537.0599999999999</ele>
        <time>2015-09-19T11:58:55Z</time>
      </trkpt>
      <trkpt lat="45.869623376056552" lon="7.975866012275219">
        <ele>2535.6100000000001</ele>
        <time>2015-09-19T11:58:57Z</time>
      </trkpt>
      <trkpt lat="45.869642654433846" lon="7.975918734446168">
        <ele>2533.6900000000001</ele>
        <time>2015-09-19T11:59:07Z</time>
      </trkpt>
      <trkpt lat="45.869614407420158" lon="7.975981179624796">
        <ele>2530.8099999999999</ele>
        <time>2015-09-19T11:59:17Z</time>
      </trkpt>
      <trkpt lat="45.869609210640192" lon="7.975990315899253">
        <ele>2530.8099999999999</ele>
        <time>2015-09-19T11:59:18Z</time>
      </trkpt>
      <trkpt lat="45.86964039131999" lon="7.976000541821122">
        <ele>2528.4000000000001</ele>
        <time>2015-09-19T11:59:27Z</time>
      </trkpt>
      <trkpt lat="45.869637038558722" lon="7.976021077483892">
        <ele>2526.96</ele>
        <time>2015-09-19T11:59:34Z</time>
      </trkpt>
      <trkpt lat="45.869652712717652" lon="7.9760776553303">
        <ele>2525.04</ele>
        <time>2015-09-19T11:59:43Z</time>
      </trkpt>
      <trkpt lat="45.869649527594447" lon="7.976128784939647">
        <ele>2523.1199999999999</ele>
        <time>2015-09-19T11:59:53Z</time>
      </trkpt>
      <trkpt lat="45.869647767394781" lon="7.9762002825737">
        <ele>2520.23</ele>
        <time>2015-09-19T12:00:02Z</time>
      </trkpt>
      <trkpt lat="45.869677774608135" lon="7.976262560114265">
        <ele>2516.8699999999999</ele>
        <time>2015-09-19T12:00:12Z</time>
      </trkpt>
      <trkpt lat="45.869637792930007" lon="7.976325005292893">
        <ele>2515.4299999999998</ele>
        <time>2015-09-19T12:00:24Z</time>
      </trkpt>
      <trkpt lat="45.869668303057551" lon="7.976386779919267">
        <ele>2513.02</ele>
        <time>2015-09-19T12:00:33Z</time>
      </trkpt>
      <trkpt lat="45.869659753516316" lon="7.976456517353654">
        <ele>2510.1399999999999</ele>
        <time>2015-09-19T12:00:42Z</time>
      </trkpt>
      <trkpt lat="45.869645001366735" lon="7.976521980017424">
        <ele>2507.7399999999998</ele>
        <time>2015-09-19T12:00:52Z</time>
      </trkpt>
      <trkpt lat="45.869649946689606" lon="7.976613258942962">
        <ele>2504.8499999999999</ele>
        <time>2015-09-19T12:01:03Z</time>
      </trkpt>
      <trkpt lat="45.869628824293613" lon="7.97664980404079">
        <ele>2503.8899999999999</ele>
        <time>2015-09-19T12:01:13Z</time>
      </trkpt>
      <trkpt lat="45.869632260873914" lon="7.976725660264492">
        <ele>2501.0100000000002</ele>
        <time>2015-09-19T12:01:25Z</time>
      </trkpt>
      <trkpt lat="45.86959982290864" lon="7.976808892562985">
        <ele>2498.1199999999999</ele>
        <time>2015-09-19T12:01:35Z</time>
      </trkpt>
      <trkpt lat="45.869598649442196" lon="7.97688877210021">
        <ele>2495.2399999999998</ele>
        <time>2015-09-19T12:01:44Z</time>
      </trkpt>
      <trkpt lat="45.869614407420158" lon="7.97692934051156">
        <ele>2493.8000000000002</ele>
        <time>2015-09-19T12:01:52Z</time>
      </trkpt>
      <trkpt lat="45.869624214246869" lon="7.976987259462476">
        <ele>2490.9099999999999</ele>
        <time>2015-09-19T12:02:01Z</time>
      </trkpt>
      <trkpt lat="45.869587417691946" lon="7.977051800116897">
        <ele>2488.0300000000002</ele>
        <time>2015-09-19T12:02:12Z</time>
      </trkpt>
      <trkpt lat="45.869596470147371" lon="7.977014249190688">
        <ele>2488.0300000000002</ele>
        <time>2015-09-19T12:02:29Z</time>
      </trkpt>
      <trkpt lat="45.869598481804132" lon="7.977037886157632">
        <ele>2488.0300000000002</ele>
        <time>2015-09-19T12:02:38Z</time>
      </trkpt>
      <trkpt lat="45.869595967233181" lon="7.977040149271488">
        <ele>2488.0300000000002</ele>
        <time>2015-09-19T12:02:58Z</time>
      </trkpt>
      <trkpt lat="45.869594039395452" lon="7.977044759318233">
        <ele>2488.0300000000002</ele>
        <time>2015-09-19T12:03:16Z</time>
      </trkpt>
      <trkpt lat="45.869607366621494" lon="7.977116173133254">
        <ele>2485.1500000000001</ele>
        <time>2015-09-19T12:03:26Z</time>
      </trkpt>
      <trkpt lat="45.869617592543364" lon="7.977173253893852">
        <ele>2483.2199999999998</ele>
        <time>2015-09-19T12:03:34Z</time>
      </trkpt>
      <trkpt lat="45.869622370228171" lon="7.977213654667139">
        <ele>2482.2600000000002</ele>
        <time>2015-09-19T12:03:37Z</time>
      </trkpt>
      <trkpt lat="45.869623627513647" lon="7.977298060432077">
        <ele>2478.9000000000001</ele>
        <time>2015-09-19T12:03:49Z</time>
      </trkpt>
      <trkpt lat="45.869609713554382" lon="7.977392356842756">
        <ele>2475.5300000000002</ele>
        <time>2015-09-19T12:04:00Z</time>
      </trkpt>
      <trkpt lat="45.869605522602797" lon="7.977404342964292">
        <ele>2475.0500000000002</ele>
        <time>2015-09-19T12:04:01Z</time>
      </trkpt>
      <trkpt lat="45.869607534259558" lon="7.977484641596675">
        <ele>2472.6500000000001</ele>
        <time>2015-09-19T12:04:09Z</time>
      </trkpt>
      <trkpt lat="45.869619101285934" lon="7.977543901652098">
        <ele>2470.73</ele>
        <time>2015-09-19T12:04:15Z</time>
      </trkpt>
      <trkpt lat="45.869683558121324" lon="7.977659991011024">
        <ele>2467.8400000000001</ele>
        <time>2015-09-19T12:04:28Z</time>
      </trkpt>
      <trkpt lat="45.869726473465562" lon="7.97773458994925">
        <ele>2465.9200000000001</ele>
        <time>2015-09-19T12:04:38Z</time>
      </trkpt>
      <trkpt lat="45.869756899774075" lon="7.977810446172953">
        <ele>2464</ele>
        <time>2015-09-19T12:04:47Z</time>
      </trkpt>
      <trkpt lat="45.869777603074908" lon="7.977858558297157">
        <ele>2463.04</ele>
        <time>2015-09-19T12:04:54Z</time>
      </trkpt>
      <trkpt lat="45.869824541732669" lon="7.977911364287138">
        <ele>2462.0700000000002</ele>
        <time>2015-09-19T12:05:03Z</time>
      </trkpt>
      <trkpt lat="45.869840467348695" lon="7.977972803637385">
        <ele>2459.6700000000001</ele>
        <time>2015-09-19T12:05:12Z</time>
      </trkpt>
      <trkpt lat="45.869920263066888" lon="7.978018904104829">
        <ele>2459.6700000000001</ele>
        <time>2015-09-19T12:05:22Z</time>
      </trkpt>
      <trkpt lat="45.869940798729658" lon="7.97806634567678">
        <ele>2457.75</ele>
        <time>2015-09-19T12:05:31Z</time>
      </trkpt>
      <trkpt lat="45.869922526180744" lon="7.978096269071102">
        <ele>2456.3099999999999</ele>
        <time>2015-09-19T12:05:36Z</time>
      </trkpt>
      <trkpt lat="45.869935350492597" lon="7.97819584608078">
        <ele>2452.9400000000001</ele>
        <time>2015-09-19T12:05:47Z</time>
      </trkpt>
      <trkpt lat="45.869938284158707" lon="7.978273630142212">
        <ele>2450.54</ele>
        <time>2015-09-19T12:05:57Z</time>
      </trkpt>
      <trkpt lat="45.869973320513964" lon="7.97827547416091">
        <ele>2449.5799999999999</ele>
        <time>2015-09-19T12:06:02Z</time>
      </trkpt>
      <trkpt lat="45.870013469830155" lon="7.97831118106842">
        <ele>2449.0999999999999</ele>
        <time>2015-09-19T12:06:07Z</time>
      </trkpt>
      <trkpt lat="45.870024533942342" lon="7.978362310677767">
        <ele>2448.1300000000001</ele>
        <time>2015-09-19T12:06:12Z</time>
      </trkpt>
      <trkpt lat="45.870045404881239" lon="7.978387624025345">
        <ele>2447.6500000000001</ele>
        <time>2015-09-19T12:06:15Z</time>
      </trkpt>
      <trkpt lat="45.870126206427813" lon="7.978461803868413">
        <ele>2447.1700000000001</ele>
        <time>2015-09-19T12:06:26Z</time>
      </trkpt>
      <trkpt lat="45.870144981890917" lon="7.978555429726839">
        <ele>2445.73</ele>
        <time>2015-09-19T12:06:35Z</time>
      </trkpt>
      <trkpt lat="45.870141042396426" lon="7.978587448596954">
        <ele>2443.3299999999999</ele>
        <time>2015-09-19T12:06:43Z</time>
      </trkpt>
      <trkpt lat="45.870166607201099" lon="7.978658191859722">
        <ele>2440.9200000000001</ele>
        <time>2015-09-19T12:06:52Z</time>
      </trkpt>
      <trkpt lat="45.870161997154355" lon="7.978725666180253">
        <ele>2438.52</ele>
        <time>2015-09-19T12:07:03Z</time>
      </trkpt>
      <trkpt lat="45.870202984660864" lon="7.978785512968898">
        <ele>2436.5999999999999</ele>
        <time>2015-09-19T12:07:12Z</time>
      </trkpt>
      <trkpt lat="45.870185382664204" lon="7.97889213077724">
        <ele>2434.6799999999998</ele>
        <time>2015-09-19T12:07:22Z</time>
      </trkpt>
      <trkpt lat="45.870177503675222" lon="7.978943679481745">
        <ele>2433.23</ele>
        <time>2015-09-19T12:07:27Z</time>
      </trkpt>
      <trkpt lat="45.870195860043168" lon="7.979087848216295">
        <ele>2431.79</ele>
        <time>2015-09-19T12:07:39Z</time>
      </trkpt>
      <trkpt lat="45.870220921933651" lon="7.979105953127146">
        <ele>2431.3099999999999</ele>
        <time>2015-09-19T12:07:50Z</time>
      </trkpt>
      <trkpt lat="45.870270878076553" lon="7.979102181270719">
        <ele>2431.3099999999999</ele>
        <time>2015-09-19T12:07:57Z</time>
      </trkpt>
      <trkpt lat="45.870295269414783" lon="7.979116598144174">
        <ele>2432.27</ele>
        <time>2015-09-19T12:08:03Z</time>
      </trkpt>
      <trkpt lat="45.870317313820124" lon="7.979125147685409">
        <ele>2432.75</ele>
        <time>2015-09-19T12:08:13Z</time>
      </trkpt>
      <trkpt lat="45.870313541963696" lon="7.979120872914791">
        <ele>2432.27</ele>
        <time>2015-09-19T12:08:32Z</time>
      </trkpt>
      <trkpt lat="45.870304489508271" lon="7.979143336415291">
        <ele>2432.27</ele>
        <time>2015-09-19T12:08:57Z</time>
      </trkpt>
      <trkpt lat="45.870303064584732" lon="7.979118945077062">
        <ele>2432.27</ele>
        <time>2015-09-19T12:09:17Z</time>
      </trkpt>
      <trkpt lat="45.870314799249172" lon="7.979127746075392">
        <ele>2431.79</ele>
        <time>2015-09-19T12:09:32Z</time>
      </trkpt>
      <trkpt lat="45.870331227779388" lon="7.979106204584241">
        <ele>2432.27</ele>
        <time>2015-09-19T12:09:57Z</time>
      </trkpt>
      <trkpt lat="45.870333993807435" lon="7.97912129200995">
        <ele>2431.79</ele>
        <time>2015-09-19T12:10:24Z</time>
      </trkpt>
      <trkpt lat="45.870333071798086" lon="7.979122381657362">
        <ele>2432.27</ele>
        <time>2015-09-19T12:10:42Z</time>
      </trkpt>
      <trkpt lat="45.870331143960357" lon="7.979117520153523">
        <ele>2432.27</ele>
        <time>2015-09-19T12:11:05Z</time>
      </trkpt>
      <trkpt lat="45.870333574712276" lon="7.979118609800935">
        <ele>2431.79</ele>
        <time>2015-09-19T12:11:27Z</time>
      </trkpt>
      <trkpt lat="45.870330892503262" lon="7.979106539860368">
        <ele>2432.27</ele>
        <time>2015-09-19T12:11:51Z</time>
      </trkpt>
      <trkpt lat="45.870338939130306" lon="7.979095475748181">
        <ele>2432.27</ele>
        <time>2015-09-19T12:12:15Z</time>
      </trkpt>
      <trkpt lat="45.870340866968036" lon="7.979089943692088">
        <ele>2432.27</ele>
        <time>2015-09-19T12:12:37Z</time>
      </trkpt>
      <trkpt lat="45.870341621339321" lon="7.979100001975894">
        <ele>2432.27</ele>
        <time>2015-09-19T12:13:06Z</time>
      </trkpt>
      <trkpt lat="45.870331479236484" lon="7.979111652821302">
        <ele>2432.27</ele>
        <time>2015-09-19T12:13:31Z</time>
      </trkpt>
      <trkpt lat="45.870334412902594" lon="7.979107545688748">
        <ele>2432.27</ele>
        <time>2015-09-19T12:13:54Z</time>
      </trkpt>
      <trkpt lat="45.870342627167702" lon="7.979093967005611">
        <ele>2432.27</ele>
        <time>2015-09-19T12:14:17Z</time>
      </trkpt>
      <trkpt lat="45.870337514206767" lon="7.97909002751112">
        <ele>2432.75</ele>
        <time>2015-09-19T12:14:40Z</time>
      </trkpt>
      <trkpt lat="45.870334831997752" lon="7.979101426899433">
        <ele>2432.27</ele>
        <time>2015-09-19T12:15:06Z</time>
      </trkpt>
      <trkpt lat="45.870326030999422" lon="7.979113161563873">
        <ele>2433.23</ele>
        <time>2015-09-19T12:15:18Z</time>
      </trkpt>
      <trkpt lat="45.87031614035368" lon="7.979121124371886">
        <ele>2432.75</ele>
        <time>2015-09-19T12:15:39Z</time>
      </trkpt>
      <trkpt lat="45.870317565277219" lon="7.979115089401603">
        <ele>2432.75</ele>
        <time>2015-09-19T12:15:52Z</time>
      </trkpt>
      <trkpt lat="45.870333490893245" lon="7.979129925370216">
        <ele>2432.75</ele>
        <time>2015-09-19T12:16:04Z</time>
      </trkpt>
      <trkpt lat="45.870290910825133" lon="7.979130260646343">
        <ele>2432.75</ele>
        <time>2015-09-19T12:16:19Z</time>
      </trkpt>
      <trkpt lat="45.870298789814115" lon="7.979136211797595">
        <ele>2432.75</ele>
        <time>2015-09-19T12:16:45Z</time>
      </trkpt>
      <trkpt lat="45.870306417346001" lon="7.979128668084741">
        <ele>2433.23</ele>
        <time>2015-09-19T12:17:04Z</time>
      </trkpt>
      <trkpt lat="45.870293090119958" lon="7.97910369001329">
        <ele>2433.23</ele>
        <time>2015-09-19T12:17:32Z</time>
      </trkpt>
      <trkpt lat="45.870287390425801" lon="7.979106707498431">
        <ele>2433.23</ele>
        <time>2015-09-19T12:17:56Z</time>
      </trkpt>
      <trkpt lat="45.870284959673882" lon="7.979122130200267">
        <ele>2433.23</ele>
        <time>2015-09-19T12:18:27Z</time>
      </trkpt>
      <trkpt lat="45.870283618569374" lon="7.979117436334491">
        <ele>2432.75</ele>
        <time>2015-09-19T12:18:46Z</time>
      </trkpt>
      <trkpt lat="45.87028437294066" lon="7.979121711105108">
        <ele>2433.23</ele>
        <time>2015-09-19T12:19:10Z</time>
      </trkpt>
      <trkpt lat="45.870290575549006" lon="7.979119028896093">
        <ele>2433.23</ele>
        <time>2015-09-19T12:19:36Z</time>
      </trkpt>
      <trkpt lat="45.870286133140326" lon="7.979109054431319">
        <ele>2433.23</ele>
        <time>2015-09-19T12:20:00Z</time>
      </trkpt>
      <trkpt lat="45.870281439274549" lon="7.979119196534157">
        <ele>2432.75</ele>
        <time>2015-09-19T12:20:30Z</time>
      </trkpt>
      <trkpt lat="45.870272889733315" lon="7.979121124371886">
        <ele>2433.23</ele>
        <time>2015-09-19T12:20:56Z</time>
      </trkpt>
      <trkpt lat="45.870278337970376" lon="7.979129254817963">
        <ele>2433.23</ele>
        <time>2015-09-19T12:21:23Z</time>
      </trkpt>
      <trkpt lat="45.870270375162363" lon="7.979131266474724">
        <ele>2433.23</ele>
        <time>2015-09-19T12:21:54Z</time>
      </trkpt>
      <trkpt lat="45.870277164503932" lon="7.97913009300828">
        <ele>2433.23</ele>
        <time>2015-09-19T12:22:03Z</time>
      </trkpt>
      <trkpt lat="45.87029711343348" lon="7.979137469083071">
        <ele>2433.71</ele>
        <time>2015-09-19T12:22:10Z</time>
      </trkpt>
      <trkpt lat="45.870286552235484" lon="7.979131517931819">
        <ele>2434.1999999999998</ele>
        <time>2015-09-19T12:22:27Z</time>
      </trkpt>
      <trkpt lat="45.870280684903264" lon="7.979129841551185">
        <ele>2434.1999999999998</ele>
        <time>2015-09-19T12:22:46Z</time>
      </trkpt>
      <trkpt lat="45.870341118425131" lon="7.979143168777227">
        <ele>2434.1999999999998</ele>
        <time>2015-09-19T12:23:06Z</time>
      </trkpt>
      <trkpt lat="45.870325528085232" lon="7.979134200140834">
        <ele>2434.1999999999998</ele>
        <time>2015-09-19T12:23:32Z</time>
      </trkpt>
      <trkpt lat="45.870326282456517" lon="7.979141911491752">
        <ele>2434.1999999999998</ele>
        <time>2015-09-19T12:23:52Z</time>
      </trkpt>
      <trkpt lat="45.870361318811774" lon="7.979165548458695">
        <ele>2433.23</ele>
        <time>2015-09-19T12:24:03Z</time>
      </trkpt>
      <trkpt lat="45.870347740128636" lon="7.979204189032316">
        <ele>2431.79</ele>
        <time>2015-09-19T12:24:10Z</time>
      </trkpt>
      <trkpt lat="45.870369616895914" lon="7.979229418560863">
        <ele>2430.3499999999999</ele>
        <time>2015-09-19T12:24:14Z</time>
      </trkpt>
      <trkpt lat="45.87038897909224" lon="7.979246014729142">
        <ele>2429.8699999999999</ele>
        <time>2015-09-19T12:24:17Z</time>
      </trkpt>
      <trkpt lat="45.870448490604758" lon="7.979278452694416">
        <ele>2428.4299999999998</ele>
        <time>2015-09-19T12:24:24Z</time>
      </trkpt>
      <trkpt lat="45.870488556101918" lon="7.979365540668368">
        <ele>2426.02</ele>
        <time>2015-09-19T12:24:33Z</time>
      </trkpt>
      <trkpt lat="45.870479755103588" lon="7.979377945885062">
        <ele>2425.0599999999999</ele>
        <time>2015-09-19T12:24:40Z</time>
      </trkpt>
      <trkpt lat="45.870502050966024" lon="7.979422537609935">
        <ele>2423.6199999999999</ele>
        <time>2015-09-19T12:24:49Z</time>
      </trkpt>
      <trkpt lat="45.870541445910931" lon="7.979487581178546">
        <ele>2421.2199999999998</ele>
        <time>2015-09-19T12:24:59Z</time>
      </trkpt>
      <trkpt lat="45.87056340649724" lon="7.979501495137811">
        <ele>2420.2600000000002</ele>
        <time>2015-09-19T12:25:03Z</time>
      </trkpt>
      <trkpt lat="45.870600454509258" lon="7.979585146531463">
        <ele>2418.3299999999999</ele>
        <time>2015-09-19T12:25:13Z</time>
      </trkpt>
      <trkpt lat="45.870636831969023" lon="7.979656979441643">
        <ele>2416.4099999999999</ele>
        <time>2015-09-19T12:25:22Z</time>
      </trkpt>
      <trkpt lat="45.8706518355757" lon="7.979680029675365">
        <ele>2415.4499999999998</ele>
        <time>2015-09-19T12:25:28Z</time>
      </trkpt>
      <trkpt lat="45.870667425915599" lon="7.979688076302409">
        <ele>2417.3699999999999</ele>
        <time>2015-09-19T12:25:30Z</time>
      </trkpt>
      <trkpt lat="45.870694499462843" lon="7.97974331304431">
        <ele>2416.4099999999999</ele>
        <time>2015-09-19T12:25:35Z</time>
      </trkpt>
      <trkpt lat="45.870686117559671" lon="7.979880440980196">
        <ele>2413.0500000000002</ele>
        <time>2015-09-19T12:25:47Z</time>
      </trkpt>
      <trkpt lat="45.870690476149321" lon="7.979888068512082">
        <ele>2412.5700000000002</ele>
        <time>2015-09-19T12:25:48Z</time>
      </trkpt>
      <trkpt lat="45.870769182220101" lon="7.980003403499723">
        <ele>2412.0900000000001</ele>
        <time>2015-09-19T12:26:00Z</time>
      </trkpt>
      <trkpt lat="45.870823496952653" lon="7.980025867000222">
        <ele>2412.5700000000002</ele>
        <time>2015-09-19T12:26:09Z</time>
      </trkpt>
      <trkpt lat="45.870855432003736" lon="7.980033410713077">
        <ele>2413.0500000000002</ele>
        <time>2015-09-19T12:26:13Z</time>
      </trkpt>
      <trkpt lat="45.870888372883201" lon="7.980089485645294">
        <ele>2412.5700000000002</ele>
        <time>2015-09-19T12:26:18Z</time>
      </trkpt>
      <trkpt lat="45.870901281014085" lon="7.980107758194208">
        <ele>2412.5700000000002</ele>
        <time>2015-09-19T12:26:20Z</time>
      </trkpt>
      <trkpt lat="45.870962552726269" lon="7.980190990492702">
        <ele>2413.0500000000002</ele>
        <time>2015-09-19T12:26:29Z</time>
      </trkpt>
      <trkpt lat="45.871003624051809" lon="7.980232816189528">
        <ele>2413.0500000000002</ele>
        <time>2015-09-19T12:26:35Z</time>
      </trkpt>
      <trkpt lat="45.871031200513244" lon="7.980263577774167">
        <ele>2413.0500000000002</ele>
        <time>2015-09-19T12:26:41Z</time>
      </trkpt>
      <trkpt lat="45.871026841923594" lon="7.980317138135433">
        <ele>2413.0500000000002</ele>
        <time>2015-09-19T12:26:48Z</time>
      </trkpt>
      <trkpt lat="45.871056597679853" lon="7.980349073186517">
        <ele>2413.0500000000002</ele>
        <time>2015-09-19T12:26:52Z</time>
      </trkpt>
      <trkpt lat="45.871073864400387" lon="7.980366172268987">
        <ele>2413.0500000000002</ele>
        <time>2015-09-19T12:26:54Z</time>
      </trkpt>
      <trkpt lat="45.871131448075175" lon="7.980419313535094">
        <ele>2412.5700000000002</ele>
        <time>2015-09-19T12:27:03Z</time>
      </trkpt>
      <trkpt lat="45.871147708967328" lon="7.98044596798718">
        <ele>2412.0900000000001</ele>
        <time>2015-09-19T12:27:06Z</time>
      </trkpt>
      <trkpt lat="45.871148211881518" lon="7.98047136515379">
        <ele>2411.5999999999999</ele>
        <time>2015-09-19T12:27:08Z</time>
      </trkpt>
      <trkpt lat="45.871148044243455" lon="7.980502210557461">
        <ele>2411.5999999999999</ele>
        <time>2015-09-19T12:27:10Z</time>
      </trkpt>
      <trkpt lat="45.87116195820272" lon="7.980529619380832">
        <ele>2411.1199999999999</ele>
        <time>2015-09-19T12:27:18Z</time>
      </trkpt>
      <trkpt lat="45.871194144710898" lon="7.98050413839519">
        <ele>2411.5999999999999</ele>
        <time>2015-09-19T12:27:28Z</time>
      </trkpt>
      <trkpt lat="45.871241167187691" lon="7.98050070181489">
        <ele>2412.5700000000002</ele>
        <time>2015-09-19T12:27:36Z</time>
      </trkpt>
      <trkpt lat="45.871256170794368" lon="7.980475975200534">
        <ele>2413.0500000000002</ele>
        <time>2015-09-19T12:27:41Z</time>
      </trkpt>
      <trkpt lat="45.871311323717237" lon="7.980529954656959">
        <ele>2413.5300000000002</ele>
        <time>2015-09-19T12:27:49Z</time>
      </trkpt>
      <trkpt lat="45.871363542973995" lon="7.980586951598525">
        <ele>2414.0100000000002</ele>
        <time>2015-09-19T12:27:57Z</time>
      </trkpt>
      <trkpt lat="45.871375361457467" lon="7.980587454512715">
        <ele>2414.0100000000002</ele>
        <time>2015-09-19T12:27:59Z</time>
      </trkpt>
      <trkpt lat="45.871407547965646" lon="7.980690719559789">
        <ele>2413.5300000000002</ele>
        <time>2015-09-19T12:28:09Z</time>
      </trkpt>
      <trkpt lat="45.871440907940269" lon="7.980782752856612">
        <ele>2412.0900000000001</ele>
        <time>2015-09-19T12:28:20Z</time>
      </trkpt>
      <trkpt lat="45.871446188539267" lon="7.980909403413534">
        <ele>2410.6399999999999</ele>
        <time>2015-09-19T12:28:29Z</time>
      </trkpt>
      <trkpt lat="45.871448200196028" lon="7.980982577428222">
        <ele>2409.1999999999998</ele>
        <time>2015-09-19T12:28:39Z</time>
      </trkpt>
      <trkpt lat="45.871453480795026" lon="7.981067234650254">
        <ele>2407.7600000000002</ele>
        <time>2015-09-19T12:28:48Z</time>
      </trkpt>
      <trkpt lat="45.871460186317563" lon="7.981074275448918">
        <ele>2407.2800000000002</ele>
        <time>2015-09-19T12:28:49Z</time>
      </trkpt>
      <trkpt lat="45.871482146903872" lon="7.981160776689649">
        <ele>2405.8400000000001</ele>
        <time>2015-09-19T12:28:58Z</time>
      </trkpt>
      <trkpt lat="45.871490864083171" lon="7.981192292645574">
        <ele>2405.3600000000001</ele>
        <time>2015-09-19T12:29:00Z</time>
      </trkpt>
      <trkpt lat="45.871530426666141" lon="7.981264460831881">
        <ele>2403.9099999999999</ele>
        <time>2015-09-19T12:29:09Z</time>
      </trkpt>
      <trkpt lat="45.871525062248111" lon="7.981285247951746">
        <ele>2404.3899999999999</ele>
        <time>2015-09-19T12:29:11Z</time>
      </trkpt>
      <trkpt lat="45.871523385867476" lon="7.981365043669939">
        <ele>2402.4699999999998</ele>
        <time>2015-09-19T12:29:20Z</time>
      </trkpt>
      <trkpt lat="45.87156998924911" lon="7.98147602006793">
        <ele>2401.9899999999998</ele>
        <time>2015-09-19T12:29:30Z</time>
      </trkpt>
      <trkpt lat="45.871644001454115" lon="7.981577441096306">
        <ele>2401.0300000000002</ele>
        <time>2015-09-19T12:29:40Z</time>
      </trkpt>
      <trkpt lat="45.871668644249439" lon="7.981691937893629">
        <ele>2399.5900000000001</ele>
        <time>2015-09-19T12:29:50Z</time>
      </trkpt>
      <trkpt lat="45.871666045859456" lon="7.981700822710991">
        <ele>2399.5900000000001</ele>
        <time>2015-09-19T12:29:51Z</time>
      </trkpt>
      <trkpt lat="45.87165204808116" lon="7.98175404779613">
        <ele>2398.6300000000001</ele>
        <time>2015-09-19T12:29:55Z</time>
      </trkpt>
      <trkpt lat="45.871624555438757" lon="7.981849852949381">
        <ele>2395.2600000000002</ele>
        <time>2015-09-19T12:30:05Z</time>
      </trkpt>
      <trkpt lat="45.871582981199026" lon="7.98195680603385">
        <ele>2393.8200000000002</ele>
        <time>2015-09-19T12:30:14Z</time>
      </trkpt>
      <trkpt lat="45.87156998924911" lon="7.981971725821495">
        <ele>2393.3400000000001</ele>
        <time>2015-09-19T12:30:16Z</time>
      </trkpt>
      <trkpt lat="45.871560266241431" lon="7.982031237334013">
        <ele>2392.3800000000001</ele>
        <time>2015-09-19T12:30:28Z</time>
      </trkpt>
      <trkpt lat="45.871552303433418" lon="7.9820716381073">
        <ele>2391.4200000000001</ele>
        <time>2015-09-19T12:30:50Z</time>
      </trkpt>
      <trkpt lat="45.871540987864137" lon="7.982105752453208">
        <ele>2389.9699999999998</ele>
        <time>2015-09-19T12:30:54Z</time>
      </trkpt>
      <trkpt lat="45.871528750285506" lon="7.982207257300615">
        <ele>2387.5700000000002</ele>
        <time>2015-09-19T12:31:05Z</time>
      </trkpt>
      <trkpt lat="45.871514417231083" lon="7.982250843197107">
        <ele>2385.6500000000001</ele>
        <time>2015-09-19T12:31:10Z</time>
      </trkpt>
      <trkpt lat="45.871487511321902" lon="7.982337847352028">
        <ele>2382.7600000000002</ele>
        <time>2015-09-19T12:31:20Z</time>
      </trkpt>
      <trkpt lat="45.871469993144274" lon="7.982334243133664">
        <ele>2383.25</ele>
        <time>2015-09-19T12:31:28Z</time>
      </trkpt>
      <trkpt lat="45.871422383934259" lon="7.982320329174399">
        <ele>2382.2800000000002</ele>
        <time>2015-09-19T12:31:36Z</time>
      </trkpt>
      <trkpt lat="45.871394220739603" lon="7.98236676491797">
        <ele>2381.3200000000002</ele>
        <time>2015-09-19T12:31:46Z</time>
      </trkpt>
      <trkpt lat="45.871371170505881" lon="7.982433484867215">
        <ele>2378.9200000000001</ele>
        <time>2015-09-19T12:31:57Z</time>
      </trkpt>
      <trkpt lat="45.871367147192359" lon="7.982487296685576">
        <ele>2376.52</ele>
        <time>2015-09-19T12:32:02Z</time>
      </trkpt>
      <trkpt lat="45.871364045888186" lon="7.982495259493589">
        <ele>2376.04</ele>
        <time>2015-09-19T12:32:03Z</time>
      </trkpt>
      <trkpt lat="45.871327416971326" lon="7.982565918937326">
        <ele>2373.6300000000001</ele>
        <time>2015-09-19T12:32:12Z</time>
      </trkpt>
      <trkpt lat="45.871271342039108" lon="7.982644373551011">
        <ele>2371.71</ele>
        <time>2015-09-19T12:32:23Z</time>
      </trkpt>
      <trkpt lat="45.871273269876838" lon="7.98267119564116">
        <ele>2371.23</ele>
        <time>2015-09-19T12:32:25Z</time>
      </trkpt>
      <trkpt lat="45.871278550475836" lon="7.982736155390739">
        <ele>2370.75</ele>
        <time>2015-09-19T12:32:30Z</time>
      </trkpt>
      <trkpt lat="45.871313167735934" lon="7.98282559029758">
        <ele>2370.75</ele>
        <time>2015-09-19T12:32:41Z</time>
      </trkpt>
      <trkpt lat="45.871300175786018" lon="7.98280949704349">
        <ele>2370.75</ele>
        <time>2015-09-19T12:32:56Z</time>
      </trkpt>
      <trkpt lat="45.871300175786018" lon="7.982826679944992">
        <ele>2370.75</ele>
        <time>2015-09-19T12:33:11Z</time>
      </trkpt>
      <trkpt lat="45.871306881308556" lon="7.982840929180384">
        <ele>2370.75</ele>
        <time>2015-09-19T12:33:29Z</time>
      </trkpt>
      <trkpt lat="45.871316604316235" lon="7.982844617217779">
        <ele>2369.79</ele>
        <time>2015-09-19T12:33:40Z</time>
      </trkpt>
      <trkpt lat="45.871304953470826" lon="7.982836067676544">
        <ele>2369.79</ele>
        <time>2015-09-19T12:33:57Z</time>
      </trkpt>
      <trkpt lat="45.871298918500543" lon="7.982812765985727">
        <ele>2369.79</ele>
        <time>2015-09-19T12:34:16Z</time>
      </trkpt>
      <trkpt lat="45.871302271261811" lon="7.982822824269533">
        <ele>2369.79</ele>
        <time>2015-09-19T12:34:39Z</time>
      </trkpt>
      <trkpt lat="45.871316604316235" lon="7.982814274728298">
        <ele>2369.79</ele>
        <time>2015-09-19T12:34:56Z</time>
      </trkpt>
      <trkpt lat="45.871295733377337" lon="7.982807485386729">
        <ele>2369.79</ele>
        <time>2015-09-19T12:35:11Z</time>
      </trkpt>
      <trkpt lat="45.87128508836031" lon="7.98281486146152">
        <ele>2369.79</ele>
        <time>2015-09-19T12:35:38Z</time>
      </trkpt>
      <trkpt lat="45.871295146644115" lon="7.982810251414776">
        <ele>2369.79</ele>
        <time>2015-09-19T12:35:52Z</time>
      </trkpt>
      <trkpt lat="45.871281819418073" lon="7.982797846198082">
        <ele>2369.3099999999999</ele>
        <time>2015-09-19T12:36:14Z</time>
      </trkpt>
      <trkpt lat="45.871284753084183" lon="7.982796169817448">
        <ele>2369.3099999999999</ele>
        <time>2015-09-19T12:36:30Z</time>
      </trkpt>
      <trkpt lat="45.871308976784348" lon="7.982804216444492">
        <ele>2370.27</ele>
        <time>2015-09-19T12:36:44Z</time>
      </trkpt>
      <trkpt lat="45.871302271261811" lon="7.982817124575377">
        <ele>2369.79</ele>
        <time>2015-09-19T12:36:56Z</time>
      </trkpt>
      <trkpt lat="45.871297577396035" lon="7.982816118746996">
        <ele>2369.79</ele>
        <time>2015-09-19T12:37:12Z</time>
      </trkpt>
      <trkpt lat="45.871299002319574" lon="7.982805809006095">
        <ele>2369.79</ele>
        <time>2015-09-19T12:37:28Z</time>
      </trkpt>
      <trkpt lat="45.871294140815735" lon="7.982803964987397">
        <ele>2369.79</ele>
        <time>2015-09-19T12:37:40Z</time>
      </trkpt>
      <trkpt lat="45.871302019804716" lon="7.982816202566028">
        <ele>2369.79</ele>
        <time>2015-09-19T12:37:54Z</time>
      </trkpt>
      <trkpt lat="45.871305037289858" lon="7.982821483165026">
        <ele>2369.79</ele>
        <time>2015-09-19T12:38:08Z</time>
      </trkpt>
      <trkpt lat="45.871371338143945" lon="7.982793403789401">
        <ele>2368.8299999999999</ele>
        <time>2015-09-19T12:38:18Z</time>
      </trkpt>
      <trkpt lat="45.871387263759971" lon="7.982801031321287">
        <ele>2367.8600000000001</ele>
        <time>2015-09-19T12:38:30Z</time>
      </trkpt>
      <trkpt lat="45.871404865756631" lon="7.982850736007094">
        <ele>2366.9000000000001</ele>
        <time>2015-09-19T12:38:40Z</time>
      </trkpt>
      <trkpt lat="45.871427245438099" lon="7.982902619987726">
        <ele>2364.98</ele>
        <time>2015-09-19T12:38:48Z</time>
      </trkpt>
      <trkpt lat="45.871442668139935" lon="7.982924161478877">
        <ele>2364.5</ele>
        <time>2015-09-19T12:38:56Z</time>
      </trkpt>
      <trkpt lat="45.871390029788017" lon="7.982952492311597">
        <ele>2364.5</ele>
        <time>2015-09-19T12:39:08Z</time>
      </trkpt>
      <trkpt lat="45.871382988989353" lon="7.982935644686222">
        <ele>2365.46</ele>
        <time>2015-09-19T12:39:38Z</time>
      </trkpt>
      <trkpt lat="45.871415426954627" lon="7.982929609715939">
        <ele>2364.02</ele>
        <time>2015-09-19T12:39:49Z</time>
      </trkpt>
      <trkpt lat="45.871478291228414" lon="7.983007812872529">
        <ele>2362.0999999999999</ele>
        <time>2015-09-19T12:39:59Z</time>
      </trkpt>
      <trkpt lat="45.871495641767979" lon="7.983065480366349">
        <ele>2360.1700000000001</ele>
        <time>2015-09-19T12:40:08Z</time>
      </trkpt>
      <trkpt lat="45.871541239321232" lon="7.983056511729956">
        <ele>2359.21</ele>
        <time>2015-09-19T12:40:13Z</time>
      </trkpt>
      <trkpt lat="45.871570743620396" lon="7.983087608590722">
        <ele>2357.77</ele>
        <time>2015-09-19T12:40:16Z</time>
      </trkpt>
      <trkpt lat="45.871582897379994" lon="7.983148125931621">
        <ele>2355.3699999999999</ele>
        <time>2015-09-19T12:40:24Z</time>
      </trkpt>
      <trkpt lat="45.871611395850778" lon="7.983197411522269">
        <ele>2353.4400000000001</ele>
        <time>2015-09-19T12:40:34Z</time>
      </trkpt>
      <trkpt lat="45.871621537953615" lon="7.983219204470515">
        <ele>2352.96</ele>
        <time>2015-09-19T12:40:36Z</time>
      </trkpt>
      <trkpt lat="45.871651712805033" lon="7.983334539458156">
        <ele>2349.5999999999999</ele>
        <time>2015-09-19T12:40:46Z</time>
      </trkpt>
      <trkpt lat="45.871648192405701" lon="7.983369408175349">
        <ele>2348.6399999999999</ele>
        <time>2015-09-19T12:40:49Z</time>
      </trkpt>
      <trkpt lat="45.871639810502529" lon="7.983396649360657">
        <ele>2347.6799999999998</ele>
        <time>2015-09-19T12:40:51Z</time>
      </trkpt>
      <trkpt lat="45.871651461347938" lon="7.983483485877514">
        <ele>2344.79</ele>
        <time>2015-09-19T12:41:01Z</time>
      </trkpt>
      <trkpt lat="45.871693203225732" lon="7.983587337657809">
        <ele>2341.9099999999999</ele>
        <time>2015-09-19T12:41:09Z</time>
      </trkpt>
      <trkpt lat="45.87174735032022" lon="7.98368314281106">
        <ele>2339.9899999999998</ele>
        <time>2015-09-19T12:41:18Z</time>
      </trkpt>
      <trkpt lat="45.871760258451104" lon="7.983743911609054">
        <ele>2338.0599999999999</ele>
        <time>2015-09-19T12:41:22Z</time>
      </trkpt>
      <trkpt lat="45.871765790507197" lon="7.983751036226749">
        <ele>2338.0599999999999</ele>
        <time>2015-09-19T12:41:23Z</time>
      </trkpt>
      <trkpt lat="45.871789930388331" lon="7.983753047883511">
        <ele>2337.0999999999999</ele>
        <time>2015-09-19T12:41:26Z</time>
      </trkpt>
      <trkpt lat="45.871812729164958" lon="7.983741061761975">
        <ele>2336.6199999999999</ele>
        <time>2015-09-19T12:41:28Z</time>
      </trkpt>
      <trkpt lat="45.871898643672466" lon="7.983819013461471">
        <ele>2334.2199999999998</ele>
        <time>2015-09-19T12:41:38Z</time>
      </trkpt>
      <trkpt lat="45.87191448546946" lon="7.983898306265473">
        <ele>2331.8099999999999</ele>
        <time>2015-09-19T12:41:46Z</time>
      </trkpt>
      <trkpt lat="45.871921861544251" lon="7.984031159430742">
        <ele>2327.9699999999998</ele>
        <time>2015-09-19T12:41:58Z</time>
      </trkpt>
      <trkpt lat="45.871923873201013" lon="7.984074661508203">
        <ele>2326.5300000000002</ele>
        <time>2015-09-19T12:42:06Z</time>
      </trkpt>
      <trkpt lat="45.871928399428725" lon="7.984135178849101">
        <ele>2325.0900000000001</ele>
        <time>2015-09-19T12:42:12Z</time>
      </trkpt>
      <trkpt lat="45.871936278417706" lon="7.984249005094171">
        <ele>2322.1999999999998</ele>
        <time>2015-09-19T12:42:22Z</time>
      </trkpt>
      <trkpt lat="45.87191984988749" lon="7.984279096126556">
        <ele>2321.2399999999998</ele>
        <time>2015-09-19T12:42:26Z</time>
      </trkpt>
      <trkpt lat="45.871903002262115" lon="7.984312707558274">
        <ele>2320.2800000000002</ele>
        <time>2015-09-19T12:42:31Z</time>
      </trkpt>
      <trkpt lat="45.871883807703853" lon="7.984401555731893">
        <ele>2317.8800000000001</ele>
        <time>2015-09-19T12:42:38Z</time>
      </trkpt>
      <trkpt lat="45.871829744428396" lon="7.984515633434057">
        <ele>2314.9899999999998</ele>
        <time>2015-09-19T12:42:50Z</time>
      </trkpt>
      <trkpt lat="45.871843826025724" lon="7.984547903761268">
        <ele>2314.0300000000002</ele>
        <time>2015-09-19T12:42:53Z</time>
      </trkpt>
      <trkpt lat="45.871846927329898" lon="7.984588639810681">
        <ele>2312.1100000000001</ele>
        <time>2015-09-19T12:42:56Z</time>
      </trkpt>
      <trkpt lat="45.871844664216042" lon="7.984614036977291">
        <ele>2311.1500000000001</ele>
        <time>2015-09-19T12:42:59Z</time>
      </trkpt>
      <trkpt lat="45.871815411373973" lon="7.984713865444064">
        <ele>2308.2600000000002</ele>
        <time>2015-09-19T12:43:09Z</time>
      </trkpt>
      <trkpt lat="45.871792696416378" lon="7.984735574573278">
        <ele>2306.3400000000001</ele>
        <time>2015-09-19T12:43:13Z</time>
      </trkpt>
      <trkpt lat="45.871770484372973" lon="7.984777819365263">
        <ele>2303.46</ele>
        <time>2015-09-19T12:43:23Z</time>
      </trkpt>
      <trkpt lat="45.871753133833408" lon="7.984791314229369">
        <ele>2302.0100000000002</ele>
        <time>2015-09-19T12:43:28Z</time>
      </trkpt>
      <trkpt lat="45.871730921790004" lon="7.984869349747896">
        <ele>2300.0900000000001</ele>
        <time>2015-09-19T12:43:37Z</time>
      </trkpt>
      <trkpt lat="45.871739806607366" lon="7.984869014471769">
        <ele>2300.0900000000001</ele>
        <time>2015-09-19T12:43:38Z</time>
      </trkpt>
      <trkpt lat="45.871781380847096" lon="7.984883850440383">
        <ele>2299.6100000000001</ele>
        <time>2015-09-19T12:43:42Z</time>
      </trkpt>
      <trkpt lat="45.871807867661119" lon="7.98492475412786">
        <ele>2299.1300000000001</ele>
        <time>2015-09-19T12:43:46Z</time>
      </trkpt>
      <trkpt lat="45.871811890974641" lon="7.984918635338545">
        <ele>2299.1300000000001</ele>
        <time>2015-09-19T12:43:58Z</time>
      </trkpt>
      <trkpt lat="45.871827648952603" lon="7.984973536804318">
        <ele>2297.6900000000001</ele>
        <time>2015-09-19T12:44:09Z</time>
      </trkpt>
      <trkpt lat="45.87183678522706" lon="7.985041933134198">
        <ele>2295.2800000000002</ele>
        <time>2015-09-19T12:44:17Z</time>
      </trkpt>
      <trkpt lat="45.871829241514206" lon="7.985127009451389">
        <ele>2293.3600000000001</ele>
        <time>2015-09-19T12:44:28Z</time>
      </trkpt>
      <trkpt lat="45.87182848714292" lon="7.985224826261401">
        <ele>2290.96</ele>
        <time>2015-09-19T12:44:38Z</time>
      </trkpt>
      <trkpt lat="45.871859919279814" lon="7.985259862616658">
        <ele>2289.52</ele>
        <time>2015-09-19T12:44:47Z</time>
      </trkpt>
      <trkpt lat="45.871858829632401" lon="7.985269920900464">
        <ele>2289.04</ele>
        <time>2015-09-19T12:44:48Z</time>
      </trkpt>
      <trkpt lat="45.871843323111534" lon="7.985318703576922">
        <ele>2287.5900000000001</ele>
        <time>2015-09-19T12:44:53Z</time>
      </trkpt>
      <trkpt lat="45.87183871306479" lon="7.985448706895113">
        <ele>2284.71</ele>
        <time>2015-09-19T12:45:06Z</time>
      </trkpt>
      <trkpt lat="45.87183678522706" lon="7.985513582825661">
        <ele>2282.79</ele>
        <time>2015-09-19T12:45:11Z</time>
      </trkpt>
      <trkpt lat="45.871881041675806" lon="7.985585415735841">
        <ele>2279.9000000000001</ele>
        <time>2015-09-19T12:45:20Z</time>
      </trkpt>
      <trkpt lat="45.87189101614058" lon="7.98563227057457">
        <ele>2277.98</ele>
        <time>2015-09-19T12:45:24Z</time>
      </trkpt>
      <trkpt lat="45.871889172121882" lon="7.985667893663049">
        <ele>2277.02</ele>
        <time>2015-09-19T12:45:27Z</time>
      </trkpt>
      <trkpt lat="45.871881293132901" lon="7.985737798735499">
        <ele>2275.0999999999999</ele>
        <time>2015-09-19T12:45:31Z</time>
      </trkpt>
      <trkpt lat="45.871886657550931" lon="7.985762441530824">
        <ele>2274.6199999999999</ele>
        <time>2015-09-19T12:45:33Z</time>
      </trkpt>
      <trkpt lat="45.87187148630619" lon="7.98585556447506">
        <ele>2273.1700000000001</ele>
        <time>2015-09-19T12:45:40Z</time>
      </trkpt>
      <trkpt lat="45.87187634781003" lon="7.985885068774223">
        <ele>2274.1399999999999</ele>
        <time>2015-09-19T12:45:42Z</time>
      </trkpt>
      <trkpt lat="45.871886992827058" lon="7.985940389335156">
        <ele>2271.73</ele>
        <time>2015-09-19T12:45:50Z</time>
      </trkpt>
      <trkpt lat="45.871891267597675" lon="7.985956817865372">
        <ele>2271.25</ele>
        <time>2015-09-19T12:45:52Z</time>
      </trkpt>
      <trkpt lat="45.871917083859444" lon="7.986059999093413">
        <ele>2269.3299999999999</ele>
        <time>2015-09-19T12:45:58Z</time>
      </trkpt>
      <trkpt lat="45.87191984988749" lon="7.986112218350172">
        <ele>2268.3699999999999</ele>
        <time>2015-09-19T12:46:02Z</time>
      </trkpt>
      <trkpt lat="45.871947929263115" lon="7.986199641600251">
        <ele>2265.96</ele>
        <time>2015-09-19T12:46:13Z</time>
      </trkpt>
      <trkpt lat="45.871957065537572" lon="7.986212382093072">
        <ele>2265.96</ele>
        <time>2015-09-19T12:46:24Z</time>
      </trkpt>
      <trkpt lat="45.871961591765285" lon="7.986204754561186">
        <ele>2265.96</ele>
        <time>2015-09-19T12:46:37Z</time>
      </trkpt>
      <trkpt lat="45.87195111438632" lon="7.986229145899415">
        <ele>2265.48</ele>
        <time>2015-09-19T12:46:45Z</time>
      </trkpt>
      <trkpt lat="45.871964022517204" lon="7.986270971596241">
        <ele>2265</ele>
        <time>2015-09-19T12:46:55Z</time>
      </trkpt>
      <trkpt lat="45.872016157954931" lon="7.986345570534468">
        <ele>2263.5599999999999</ele>
        <time>2015-09-19T12:47:07Z</time>
      </trkpt>
      <trkpt lat="45.872040716931224" lon="7.986358059570193">
        <ele>2262.1199999999999</ele>
        <time>2015-09-19T12:47:12Z</time>
      </trkpt>
      <trkpt lat="45.872071981430054" lon="7.986368369311094">
        <ele>2260.6799999999998</ele>
        <time>2015-09-19T12:47:18Z</time>
      </trkpt>
      <trkpt lat="45.872161835432053" lon="7.986436011269689">
        <ele>2258.27</ele>
        <time>2015-09-19T12:47:30Z</time>
      </trkpt>
      <trkpt lat="45.872161081060767" lon="7.986542964354157">
        <ele>2255.3899999999999</ele>
        <time>2015-09-19T12:47:41Z</time>
      </trkpt>
      <trkpt lat="45.872206427156925" lon="7.98656752333045">
        <ele>2253.9499999999998</ele>
        <time>2015-09-19T12:47:52Z</time>
      </trkpt>
      <trkpt lat="45.87226870469749" lon="7.986619910225272">
        <ele>2251.0599999999999</ele>
        <time>2015-09-19T12:48:03Z</time>
      </trkpt>
      <trkpt lat="45.872253030538559" lon="7.986702555790544">
        <ele>2248.6599999999999</ele>
        <time>2015-09-19T12:48:12Z</time>
      </trkpt>
      <trkpt lat="45.872224364429712" lon="7.986823339015245">
        <ele>2246.2600000000002</ele>
        <time>2015-09-19T12:48:23Z</time>
      </trkpt>
      <trkpt lat="45.872225118800998" lon="7.986831972375512">
        <ele>2246.2600000000002</ele>
        <time>2015-09-19T12:48:24Z</time>
      </trkpt>
      <trkpt lat="45.872227884829044" lon="7.986959796398878">
        <ele>2242.8899999999999</ele>
        <time>2015-09-19T12:48:36Z</time>
      </trkpt>
      <trkpt lat="45.872262753546238" lon="7.986980499699712">
        <ele>2240.9699999999998</ele>
        <time>2015-09-19T12:48:43Z</time>
      </trkpt>
      <trkpt lat="45.872281026095152" lon="7.986981505528092">
        <ele>2240.4899999999998</ele>
        <time>2015-09-19T12:48:45Z</time>
      </trkpt>
      <trkpt lat="45.872338945046067" lon="7.98701411113143">
        <ele>2238.5700000000002</ele>
        <time>2015-09-19T12:48:53Z</time>
      </trkpt>
      <trkpt lat="45.872359313070774" lon="7.987075299024582">
        <ele>2237.1300000000001</ele>
        <time>2015-09-19T12:48:58Z</time>
      </trkpt>
      <trkpt lat="45.872296113520861" lon="7.98713724128902">
        <ele>2235.1999999999998</ele>
        <time>2015-09-19T12:49:08Z</time>
      </trkpt>
      <trkpt lat="45.872286893427372" lon="7.987201362848282">
        <ele>2233.7600000000002</ele>
        <time>2015-09-19T12:49:16Z</time>
      </trkpt>
      <trkpt lat="45.872258897870779" lon="7.987247714772821">
        <ele>2232.3200000000002</ele>
        <time>2015-09-19T12:49:26Z</time>
      </trkpt>
      <trkpt lat="45.872261580079794" lon="7.98730437643826">
        <ele>2230.8800000000001</ele>
        <time>2015-09-19T12:49:31Z</time>
      </trkpt>
      <trkpt lat="45.872209947556257" lon="7.987420046702027">
        <ele>2228.9499999999998</ele>
        <time>2015-09-19T12:49:41Z</time>
      </trkpt>
      <trkpt lat="45.872203912585974" lon="7.98743823543191">
        <ele>2228.4699999999998</ele>
        <time>2015-09-19T12:49:43Z</time>
      </trkpt>
      <trkpt lat="45.872178515419364" lon="7.987517444416881">
        <ele>2227.5100000000002</ele>
        <time>2015-09-19T12:49:51Z</time>
      </trkpt>
      <trkpt lat="45.872165188193321" lon="7.987549211829901">
        <ele>2226.0700000000002</ele>
        <time>2015-09-19T12:49:54Z</time>
      </trkpt>
      <trkpt lat="45.872144568711519" lon="7.987662116065621">
        <ele>2222.71</ele>
        <time>2015-09-19T12:50:05Z</time>
      </trkpt>
      <trkpt lat="45.872121686115861" lon="7.98769966699183">
        <ele>2221.7399999999998</ele>
        <time>2015-09-19T12:50:14Z</time>
      </trkpt>
      <trkpt lat="45.872074998915195" lon="7.987780217081308">
        <ele>2219.3400000000001</ele>
        <time>2015-09-19T12:50:25Z</time>
      </trkpt>
      <trkpt lat="45.872053625062108" lon="7.98784383572638">
        <ele>2216.9400000000001</ele>
        <time>2015-09-19T12:50:34Z</time>
      </trkpt>
      <trkpt lat="45.872032837942243" lon="7.987886499613524">
        <ele>2215.98</ele>
        <time>2015-09-19T12:50:43Z</time>
      </trkpt>
      <trkpt lat="45.872057816013694" lon="7.987889600917697">
        <ele>2214.0500000000002</ele>
        <time>2015-09-19T12:50:51Z</time>
      </trkpt>
      <trkpt lat="45.872054379433393" lon="7.987982304766774">
        <ele>2211.1700000000001</ele>
        <time>2015-09-19T12:51:01Z</time>
      </trkpt>
      <trkpt lat="45.872055301442742" lon="7.988016838207841">
        <ele>2210.21</ele>
        <time>2015-09-19T12:51:05Z</time>
      </trkpt>
      <trkpt lat="45.872054379433393" lon="7.988059753552079">
        <ele>2208.77</ele>
        <time>2015-09-19T12:51:10Z</time>
      </trkpt>
      <trkpt lat="45.872021187096834" lon="7.988150864839554">
        <ele>2207.8099999999999</ele>
        <time>2015-09-19T12:51:19Z</time>
      </trkpt>
      <trkpt lat="45.87200241163373" lon="7.988223619759083">
        <ele>2206.3600000000001</ele>
        <time>2015-09-19T12:51:26Z</time>
      </trkpt>
      <trkpt lat="45.871958239004016" lon="7.988305343315005">
        <ele>2204.4400000000001</ele>
        <time>2015-09-19T12:51:36Z</time>
      </trkpt>
      <trkpt lat="45.871919430792332" lon="7.988339206203818">
        <ele>2204.4400000000001</ele>
        <time>2015-09-19T12:51:45Z</time>
      </trkpt>
      <trkpt lat="45.871875677257776" lon="7.988371895626187">
        <ele>2202.52</ele>
        <time>2015-09-19T12:51:52Z</time>
      </trkpt>
      <trkpt lat="45.871834605932236" lon="7.98844532109797">
        <ele>2201.0799999999999</ele>
        <time>2015-09-19T12:52:01Z</time>
      </trkpt>
      <trkpt lat="45.871831169351935" lon="7.988531403243542">
        <ele>2198.1900000000001</ele>
        <time>2015-09-19T12:52:13Z</time>
      </trkpt>
      <trkpt lat="45.87187978439033" lon="7.988600134849548">
        <ele>2196.27</ele>
        <time>2015-09-19T12:52:24Z</time>
      </trkpt>
      <trkpt lat="45.871920604258776" lon="7.988662412390113">
        <ele>2193.3899999999999</ele>
        <time>2015-09-19T12:52:34Z</time>
      </trkpt>
      <trkpt lat="45.871939212083817" lon="7.988765928894281">
        <ele>2190.02</ele>
        <time>2015-09-19T12:52:45Z</time>
      </trkpt>
      <trkpt lat="45.871943905949593" lon="7.988832062110305">
        <ele>2188.5799999999999</ele>
        <time>2015-09-19T12:52:52Z</time>
      </trkpt>
      <trkpt lat="45.87193158455193" lon="7.988912025466561">
        <ele>2186.6599999999999</ele>
        <time>2015-09-19T12:52:59Z</time>
      </trkpt>
      <trkpt lat="45.871914653107524" lon="7.988976314663887">
        <ele>2185.6900000000001</ele>
        <time>2015-09-19T12:53:05Z</time>
      </trkpt>
      <trkpt lat="45.871939295902848" lon="7.989003639668226">
        <ele>2183.77</ele>
        <time>2015-09-19T12:53:13Z</time>
      </trkpt>
      <trkpt lat="45.872012469917536" lon="7.988971704617143">
        <ele>2181.8499999999999</ele>
        <time>2015-09-19T12:53:23Z</time>
      </trkpt>
      <trkpt lat="45.872032167389989" lon="7.989002214744687">
        <ele>2180.4099999999999</ele>
        <time>2015-09-19T12:53:27Z</time>
      </trkpt>
      <trkpt lat="45.872056558728218" lon="7.989042028784752">
        <ele>2178.48</ele>
        <time>2015-09-19T12:53:34Z</time>
      </trkpt>
      <trkpt lat="45.87212847545743" lon="7.989036999642849">
        <ele>2174.6399999999999</ele>
        <time>2015-09-19T12:53:44Z</time>
      </trkpt>
      <trkpt lat="45.872153704985976" lon="7.989011853933334">
        <ele>2174.1599999999999</ele>
        <time>2015-09-19T12:53:48Z</time>
      </trkpt>
      <trkpt lat="45.872181365266442" lon="7.988999867811799">
        <ele>2173.1999999999998</ele>
        <time>2015-09-19T12:53:52Z</time>
      </trkpt>
      <trkpt lat="45.872255209833384" lon="7.988956281915307">
        <ele>2170.3099999999999</ele>
        <time>2015-09-19T12:54:01Z</time>
      </trkpt>
      <trkpt lat="45.872265016660094" lon="7.988958796486259">
        <ele>2170.3099999999999</ele>
        <time>2015-09-19T12:54:03Z</time>
      </trkpt>
      <trkpt lat="45.872280606999993" lon="7.988953264430165">
        <ele>2169.3499999999999</ele>
        <time>2015-09-19T12:54:05Z</time>
      </trkpt>
      <trkpt lat="45.872310530394316" lon="7.988938260823488">
        <ele>2168.8699999999999</ele>
        <time>2015-09-19T12:54:09Z</time>
      </trkpt>
      <trkpt lat="45.872338693588972" lon="7.988994838669896">
        <ele>2166.9499999999998</ele>
        <time>2015-09-19T12:54:18Z</time>
      </trkpt>
      <trkpt lat="45.872325031086802" lon="7.989031635224819">
        <ele>2165.9899999999998</ele>
        <time>2015-09-19T12:54:21Z</time>
      </trkpt>
      <trkpt lat="45.872300304472446" lon="7.989095505326986">
        <ele>2165.0300000000002</ele>
        <time>2015-09-19T12:54:27Z</time>
      </trkpt>
      <trkpt lat="45.872294437140226" lon="7.989146215841174">
        <ele>2163.5799999999999</ele>
        <time>2015-09-19T12:54:31Z</time>
      </trkpt>
      <trkpt lat="45.872263005003333" lon="7.989228274673224">
        <ele>2163.0999999999999</ele>
        <time>2015-09-19T12:54:38Z</time>
      </trkpt>
      <trkpt lat="45.872260322794318" lon="7.989257359877229">
        <ele>2163.0999999999999</ele>
        <time>2015-09-19T12:54:40Z</time>
      </trkpt>
      <trkpt lat="45.872246660292149" lon="7.989348638802767">
        <ele>2163.0999999999999</ele>
        <time>2015-09-19T12:54:48Z</time>
      </trkpt>
      <trkpt lat="45.872244061902165" lon="7.989380238577724">
        <ele>2163.0999999999999</ele>
        <time>2015-09-19T12:54:50Z</time>
      </trkpt>
      <trkpt lat="45.872221933677793" lon="7.989456849172711">
        <ele>2163.0999999999999</ele>
        <time>2015-09-19T12:54:59Z</time>
      </trkpt>
      <trkpt lat="45.872208522632718" lon="7.989453999325633">
        <ele>2162.6199999999999</ele>
        <time>2015-09-19T12:55:03Z</time>
      </trkpt>
      <trkpt lat="45.872178347781301" lon="7.989436900243163">
        <ele>2163.5799999999999</ele>
        <time>2015-09-19T12:55:08Z</time>
      </trkpt>
      <trkpt lat="45.872121015563607" lon="7.989480905234814">
        <ele>2164.0599999999999</ele>
        <time>2015-09-19T12:55:17Z</time>
      </trkpt>
      <trkpt lat="45.872111711651087" lon="7.989452322944999">
        <ele>2164.0599999999999</ele>
        <time>2015-09-19T12:55:31Z</time>
      </trkpt>
      <trkpt lat="45.872132079675794" lon="7.989483419805765">
        <ele>2164.0599999999999</ele>
        <time>2015-09-19T12:55:44Z</time>
      </trkpt>
      <trkpt lat="45.872118668630719" lon="7.989530442282558">
        <ele>2163.5799999999999</ele>
        <time>2015-09-19T12:56:02Z</time>
      </trkpt>
      <trkpt lat="45.872116321697831" lon="7.989500099793077">
        <ele>2163.5799999999999</ele>
        <time>2015-09-19T12:56:16Z</time>
      </trkpt>
      <trkpt lat="45.872120847925544" lon="7.989491634070873">
        <ele>2163.5799999999999</ele>
        <time>2015-09-19T12:56:32Z</time>
      </trkpt>
      <trkpt lat="45.872095115482807" lon="7.989569250494242">
        <ele>2162.6199999999999</ele>
        <time>2015-09-19T12:56:42Z</time>
      </trkpt>
      <trkpt lat="45.872052954509854" lon="7.989632869139314">
        <ele>2163.0999999999999</ele>
        <time>2015-09-19T12:56:51Z</time>
      </trkpt>
      <trkpt lat="45.872045829892159" lon="7.989647286012769">
        <ele>2163.5799999999999</ele>
        <time>2015-09-19T12:56:53Z</time>
      </trkpt>
      <trkpt lat="45.872037783265114" lon="7.989668492227793">
        <ele>2163.5799999999999</ele>
        <time>2015-09-19T12:56:55Z</time>
      </trkpt>
      <trkpt lat="45.871975589543581" lon="7.989705707877874">
        <ele>2164.5500000000002</ele>
        <time>2015-09-19T12:57:05Z</time>
      </trkpt>
      <trkpt lat="45.871923789381981" lon="7.989738648757339">
        <ele>2164.0599999999999</ele>
        <time>2015-09-19T12:57:13Z</time>
      </trkpt>
      <trkpt lat="45.87189587764442" lon="7.989753987640142">
        <ele>2164.0599999999999</ele>
        <time>2015-09-19T12:57:23Z</time>
      </trkpt>
      <trkpt lat="45.871896632015705" lon="7.989822635427117">
        <ele>2162.1399999999999</ele>
        <time>2015-09-19T12:57:31Z</time>
      </trkpt>
      <trkpt lat="45.87188707664609" lon="7.989910813048482">
        <ele>2160.6999999999998</ele>
        <time>2015-09-19T12:57:42Z</time>
      </trkpt>
      <trkpt lat="45.871921610087156" lon="7.989927995949984">
        <ele>2158.7800000000002</ele>
        <time>2015-09-19T12:57:51Z</time>
      </trkpt>
      <trkpt lat="45.871923454105854" lon="7.990021873265505">
        <ele>2155.4099999999999</ele>
        <time>2015-09-19T12:58:01Z</time>
      </trkpt>
      <trkpt lat="45.871958993375301" lon="7.989994967356324">
        <ele>2153.9699999999998</ele>
        <time>2015-09-19T12:58:08Z</time>
      </trkpt>
      <trkpt lat="45.871996460482478" lon="7.989942580461502">
        <ele>2152.0500000000002</ele>
        <time>2015-09-19T12:58:17Z</time>
      </trkpt>
      <trkpt lat="45.872018085792661" lon="7.989999409765005">
        <ele>2149.6500000000001</ele>
        <time>2015-09-19T12:58:27Z</time>
      </trkpt>
      <trkpt lat="45.872071059420705" lon="7.990061519667506">
        <ele>2147.7199999999998</ele>
        <time>2015-09-19T12:58:38Z</time>
      </trkpt>
      <trkpt lat="45.872115148231387" lon="7.990082139149308">
        <ele>2145.3200000000002</ele>
        <time>2015-09-19T12:58:47Z</time>
      </trkpt>
      <trkpt lat="45.872137108817697" lon="7.990133268758655">
        <ele>2143.8800000000001</ele>
        <time>2015-09-19T12:58:55Z</time>
      </trkpt>
      <trkpt lat="45.872147921472788" lon="7.99022882245481">
        <ele>2141.4699999999998</ele>
        <time>2015-09-19T12:59:05Z</time>
      </trkpt>
      <trkpt lat="45.872139539569616" lon="7.990318508818746">
        <ele>2140.0300000000002</ele>
        <time>2015-09-19T12:59:15Z</time>
      </trkpt>
      <trkpt lat="45.872148424386978" lon="7.990396041423082">
        <ele>2138.1100000000001</ele>
        <time>2015-09-19T12:59:23Z</time>
      </trkpt>
      <trkpt lat="45.872116908431053" lon="7.990458738058806">
        <ele>2136.6700000000001</ele>
        <time>2015-09-19T12:59:32Z</time>
      </trkpt>
      <trkpt lat="45.872119925916195" lon="7.990474663674831">
        <ele>2136.6700000000001</ele>
        <time>2015-09-19T12:59:34Z</time>
      </trkpt>
      <trkpt lat="45.872117327526212" lon="7.990537108853459">
        <ele>2135.71</ele>
        <time>2015-09-19T12:59:39Z</time>
      </trkpt>
      <trkpt lat="45.872110789641738" lon="7.990630986168981">
        <ele>2134.2600000000002</ele>
        <time>2015-09-19T12:59:47Z</time>
      </trkpt>
      <trkpt lat="45.872097043320537" lon="7.990617072209716">
        <ele>2134.2600000000002</ele>
        <time>2015-09-19T13:00:02Z</time>
      </trkpt>
      <trkpt lat="45.872102994471788" lon="7.990678008645773">
        <ele>2133.7800000000002</ele>
        <time>2015-09-19T13:00:13Z</time>
      </trkpt>
      <trkpt lat="45.872090589255095" lon="7.990673147141933">
        <ele>2133.7800000000002</ele>
        <time>2015-09-19T13:00:28Z</time>
      </trkpt>
      <trkpt lat="45.872092265635729" lon="7.990703238174319">
        <ele>2133.7800000000002</ele>
        <time>2015-09-19T13:00:45Z</time>
      </trkpt>
      <trkpt lat="45.872092852368951" lon="7.990749171003699">
        <ele>2132.8200000000002</ele>
        <time>2015-09-19T13:00:52Z</time>
      </trkpt>
      <trkpt lat="45.872093271464109" lon="7.990815807133913">
        <ele>2131.8600000000001</ele>
        <time>2015-09-19T13:00:59Z</time>
      </trkpt>
      <trkpt lat="45.87205178104341" lon="7.990886718034744">
        <ele>2131.3800000000001</ele>
        <time>2015-09-19T13:01:07Z</time>
      </trkpt>
      <trkpt lat="45.871999645605683" lon="7.990923095494509">
        <ele>2131.8600000000001</ele>
        <time>2015-09-19T13:01:18Z</time>
      </trkpt>
      <trkpt lat="45.871997717767954" lon="7.991010099649429">
        <ele>2131.3800000000001</ele>
        <time>2015-09-19T13:01:27Z</time>
      </trkpt>
      <trkpt lat="45.871940637007356" lon="7.991131469607353">
        <ele>2131.3800000000001</ele>
        <time>2015-09-19T13:01:38Z</time>
      </trkpt>
      <trkpt lat="45.871933260932565" lon="7.991137085482478">
        <ele>2131.3800000000001</ele>
        <time>2015-09-19T13:01:39Z</time>
      </trkpt>
      <trkpt lat="45.871922532096505" lon="7.991268681362271">
        <ele>2130.4200000000001</ele>
        <time>2015-09-19T13:01:50Z</time>
      </trkpt>
      <trkpt lat="45.87191104888916" lon="7.991344956681132">
        <ele>2128.98</ele>
        <time>2015-09-19T13:01:58Z</time>
      </trkpt>
      <trkpt lat="45.871911467984319" lon="7.991406982764602">
        <ele>2128.5</ele>
        <time>2015-09-19T13:02:04Z</time>
      </trkpt>
      <trkpt lat="45.871897805482149" lon="7.991488119587302">
        <ele>2127.0500000000002</ele>
        <time>2015-09-19T13:02:12Z</time>
      </trkpt>
      <trkpt lat="45.871901661157608" lon="7.991565987467766">
        <ele>2125.1300000000001</ele>
        <time>2015-09-19T13:02:21Z</time>
      </trkpt>
      <trkpt lat="45.871887411922216" lon="7.991652740165591">
        <ele>2123.6900000000001</ele>
        <time>2015-09-19T13:02:30Z</time>
      </trkpt>
      <trkpt lat="45.871873581781983" lon="7.991723651066423">
        <ele>2122.73</ele>
        <time>2015-09-19T13:02:39Z</time>
      </trkpt>
      <trkpt lat="45.871893027797341" lon="7.991774110123515">
        <ele>2121.29</ele>
        <time>2015-09-19T13:02:46Z</time>
      </trkpt>
      <trkpt lat="45.871900236234069" lon="7.991852648556233">
        <ele>2119.8400000000001</ele>
        <time>2015-09-19T13:02:55Z</time>
      </trkpt>
      <trkpt lat="45.871884813532233" lon="7.991883410140872">
        <ele>2121.29</ele>
        <time>2015-09-19T13:03:04Z</time>
      </trkpt>
      <trkpt lat="45.871897386386991" lon="7.991969995200634">
        <ele>2120.8099999999999</ele>
        <time>2015-09-19T13:03:12Z</time>
      </trkpt>
      <trkpt lat="45.871882466599345" lon="7.992080887779594">
        <ele>2118.8800000000001</ele>
        <time>2015-09-19T13:03:22Z</time>
      </trkpt>
      <trkpt lat="45.871872073039412" lon="7.99212958663702">
        <ele>2117.9200000000001</ele>
        <time>2015-09-19T13:03:27Z</time>
      </trkpt>
      <trkpt lat="45.871876766905189" lon="7.992237126454711">
        <ele>2116.48</ele>
        <time>2015-09-19T13:03:36Z</time>
      </trkpt>
      <trkpt lat="45.871885232627392" lon="7.992305690422654">
        <ele>2115.52</ele>
        <time>2015-09-19T13:03:45Z</time>
      </trkpt>
      <trkpt lat="45.871902080252767" lon="7.992382301017642">
        <ele>2113.5999999999999</ele>
        <time>2015-09-19T13:03:59Z</time>
      </trkpt>
      <trkpt lat="45.871919933706522" lon="7.992428904399276">
        <ele>2112.1500000000001</ele>
        <time>2015-09-19T13:04:03Z</time>
      </trkpt>
      <trkpt lat="45.871991850435734" lon="7.992410380393267">
        <ele>2110.71</ele>
        <time>2015-09-19T13:04:11Z</time>
      </trkpt>
      <trkpt lat="45.871976763010025" lon="7.992510627955198">
        <ele>2108.3099999999999</ele>
        <time>2015-09-19T13:04:19Z</time>
      </trkpt>
      <trkpt lat="45.872044488787651" lon="7.992490930482745">
        <ele>2106.3899999999999</ele>
        <time>2015-09-19T13:04:30Z</time>
      </trkpt>
      <trkpt lat="45.872086985036731" lon="7.99251708202064">
        <ele>2104.9400000000001</ele>
        <time>2015-09-19T13:04:40Z</time>
      </trkpt>
      <trkpt lat="45.872113723307848" lon="7.992509622126818">
        <ele>2103.02</ele>
        <time>2015-09-19T13:04:49Z</time>
      </trkpt>
      <trkpt lat="45.872150184586644" lon="7.992523033171892">
        <ele>2100.6199999999999</ele>
        <time>2015-09-19T13:05:00Z</time>
      </trkpt>
      <trkpt lat="45.872193016111851" lon="7.992485649883747">
        <ele>2098.6999999999998</ele>
        <time>2015-09-19T13:05:10Z</time>
      </trkpt>
      <trkpt lat="45.87220910936594" lon="7.992471987381578">
        <ele>2097.73</ele>
        <time>2015-09-19T13:05:13Z</time>
      </trkpt>
      <trkpt lat="45.872270213440061" lon="7.992503503337503">
        <ele>2095.8099999999999</ele>
        <time>2015-09-19T13:05:24Z</time>
      </trkpt>
      <trkpt lat="45.872282618656754" lon="7.99259620718658">
        <ele>2093.8899999999999</ele>
        <time>2015-09-19T13:05:33Z</time>
      </trkpt>
      <trkpt lat="45.872284378856421" lon="7.99266217276454">
        <ele>2092.4499999999998</ele>
        <time>2015-09-19T13:05:44Z</time>
      </trkpt>
      <trkpt lat="45.872300136834383" lon="7.992723360657692">
        <ele>2090.52</ele>
        <time>2015-09-19T13:05:53Z</time>
      </trkpt>
      <trkpt lat="45.872274488210678" lon="7.992828385904431">
        <ele>2088.5999999999999</ele>
        <time>2015-09-19T13:06:04Z</time>
      </trkpt>
      <trkpt lat="45.87228630669415" lon="7.992893848568201">
        <ele>2086.6799999999998</ele>
        <time>2015-09-19T13:06:14Z</time>
      </trkpt>
      <trkpt lat="45.872265184298158" lon="7.992974817752838">
        <ele>2084.2800000000002</ele>
        <time>2015-09-19T13:06:25Z</time>
      </trkpt>
      <trkpt lat="45.872261663898826" lon="7.993005579337478">
        <ele>2083.3099999999999</ele>
        <time>2015-09-19T13:06:29Z</time>
      </trkpt>
      <trkpt lat="45.872281864285469" lon="7.99310490489006">
        <ele>2081.3899999999999</ele>
        <time>2015-09-19T13:06:40Z</time>
      </trkpt>
      <trkpt lat="45.872253868728876" lon="7.99316349439323">
        <ele>2079.9499999999998</ele>
        <time>2015-09-19T13:06:48Z</time>
      </trkpt>
      <trkpt lat="45.872256383299828" lon="7.993226945400238">
        <ele>2077.5500000000002</ele>
        <time>2015-09-19T13:06:57Z</time>
      </trkpt>
      <trkpt lat="45.872254204005003" lon="7.993338843807578">
        <ele>2074.6599999999999</ele>
        <time>2015-09-19T13:07:08Z</time>
      </trkpt>
      <trkpt lat="45.872270548716187" lon="7.993449820205569">
        <ele>2072.7399999999998</ele>
        <time>2015-09-19T13:07:17Z</time>
      </trkpt>
      <trkpt lat="45.872248588129878" lon="7.993600694462657">
        <ele>2071.3000000000002</ele>
        <time>2015-09-19T13:07:29Z</time>
      </trkpt>
      <trkpt lat="45.872238026931882" lon="7.993691051378846">
        <ele>2069.3800000000001</ele>
        <time>2015-09-19T13:07:39Z</time>
      </trkpt>
      <trkpt lat="45.872248839586973" lon="7.993760453537107">
        <ele>2067.4499999999998</ele>
        <time>2015-09-19T13:07:51Z</time>
      </trkpt>
      <trkpt lat="45.872227884829044" lon="7.99382315017283">
        <ele>2065.5300000000002</ele>
        <time>2015-09-19T13:08:01Z</time>
      </trkpt>
      <trkpt lat="45.872266860678792" lon="7.993826670572162">
        <ele>2063.6100000000001</ele>
        <time>2015-09-19T13:08:10Z</time>
      </trkpt>
      <trkpt lat="45.872317990288138" lon="7.993832537904382">
        <ele>2061.6799999999998</ele>
        <time>2015-09-19T13:08:19Z</time>
      </trkpt>
      <trkpt lat="45.872365431860089" lon="7.993785347789526">
        <ele>2059.7600000000002</ele>
        <time>2015-09-19T13:08:31Z</time>
      </trkpt>
      <trkpt lat="45.872389990836382" lon="7.993812337517738">
        <ele>2057.8400000000001</ele>
        <time>2015-09-19T13:08:41Z</time>
      </trkpt>
      <trkpt lat="45.872417064383626" lon="7.993838908150792">
        <ele>2056.4000000000001</ele>
        <time>2015-09-19T13:08:49Z</time>
      </trkpt>
      <trkpt lat="45.872436175122857" lon="7.993814600631595">
        <ele>2055.4400000000001</ele>
        <time>2015-09-19T13:08:58Z</time>
      </trkpt>
      <trkpt lat="45.87247833609581" lon="7.993809403851628">
        <ele>2053.9899999999998</ele>
        <time>2015-09-19T13:09:08Z</time>
      </trkpt>
      <trkpt lat="45.87248713709414" lon="7.993839243426919">
        <ele>2053.5100000000002</ele>
        <time>2015-09-19T13:09:22Z</time>
      </trkpt>
      <trkpt lat="45.872508762404323" lon="7.993785096332431">
        <ele>2053.5100000000002</ele>
        <time>2015-09-19T13:09:33Z</time>
      </trkpt>
      <trkpt lat="45.872499374672771" lon="7.993770930916071">
        <ele>2052.5500000000002</ele>
        <time>2015-09-19T13:09:46Z</time>
      </trkpt>
      <trkpt lat="45.872512115165591" lon="7.993750646710396">
        <ele>2053.0300000000002</ele>
        <time>2015-09-19T13:09:56Z</time>
      </trkpt>
      <trkpt lat="45.872548157349229" lon="7.993734888732433">
        <ele>2050.1500000000001</ele>
        <time>2015-09-19T13:09:59Z</time>
      </trkpt>
      <trkpt lat="45.872595431283116" lon="7.993687698617578">
        <ele>2048.71</ele>
        <time>2015-09-19T13:10:05Z</time>
      </trkpt>
      <trkpt lat="45.872629126533866" lon="7.993667582049966">
        <ele>2048.23</ele>
        <time>2015-09-19T13:10:09Z</time>
      </trkpt>
      <trkpt lat="45.872660055756569" lon="7.993583343923092">
        <ele>2045.8199999999999</ele>
        <time>2015-09-19T13:10:19Z</time>
      </trkpt>
      <trkpt lat="45.872664330527186" lon="7.993577644228935">
        <ele>2045.3399999999999</ele>
        <time>2015-09-19T13:10:20Z</time>
      </trkpt>
      <trkpt lat="45.872696014121175" lon="7.99365165643394">
        <ele>2043.4200000000001</ele>
        <time>2015-09-19T13:10:30Z</time>
      </trkpt>
      <trkpt lat="45.87270213291049" lon="7.99370882101357">
        <ele>2041.5</ele>
        <time>2015-09-19T13:10:41Z</time>
      </trkpt>
      <trkpt lat="45.872739516198635" lon="7.993741678074002">
        <ele>2039.5699999999999</ele>
        <time>2015-09-19T13:10:52Z</time>
      </trkpt>
      <trkpt lat="45.872754855081439" lon="7.993748048320413">
        <ele>2039.0899999999999</ele>
        <time>2015-09-19T13:10:59Z</time>
      </trkpt>
      <trkpt lat="45.872797099873424" lon="7.993720639497042">
        <ele>2037.1700000000001</ele>
        <time>2015-09-19T13:11:08Z</time>
      </trkpt>
      <trkpt lat="45.872792322188616" lon="7.993806889280677">
        <ele>2035.25</ele>
        <time>2015-09-19T13:11:18Z</time>
      </trkpt>
      <trkpt lat="45.872835908085108" lon="7.993790125474334">
        <ele>2033.3299999999999</ele>
        <time>2015-09-19T13:11:27Z</time>
      </trkpt>
      <trkpt lat="45.872874297201633" lon="7.993748635053635">
        <ele>2031.4000000000001</ele>
        <time>2015-09-19T13:11:37Z</time>
      </trkpt>
      <trkpt lat="45.872910590842366" lon="7.993710916489363">
        <ele>2029.48</ele>
        <time>2015-09-19T13:11:46Z</time>
      </trkpt>
      <trkpt lat="45.872930707409978" lon="7.993638915941119">
        <ele>2027.5599999999999</ele>
        <time>2015-09-19T13:11:56Z</time>
      </trkpt>
      <trkpt lat="45.872942442074418" lon="7.993620224297047">
        <ele>2026.5999999999999</ele>
        <time>2015-09-19T13:12:00Z</time>
      </trkpt>
      <trkpt lat="45.872967503964901" lon="7.993548139929771">
        <ele>2024.1900000000001</ele>
        <time>2015-09-19T13:12:12Z</time>
      </trkpt>
      <trkpt lat="45.873012933880091" lon="7.993582086637616">
        <ele>2022.27</ele>
        <time>2015-09-19T13:12:19Z</time>
      </trkpt>
      <trkpt lat="45.873079653829336" lon="7.993670683354139">
        <ele>2019.8699999999999</ele>
        <time>2015-09-19T13:12:30Z</time>
      </trkpt>
      <trkpt lat="45.873118378221989" lon="7.993716113269329">
        <ele>2017.9400000000001</ele>
        <time>2015-09-19T13:12:38Z</time>
      </trkpt>
      <trkpt lat="45.87313748896122" lon="7.993722734972835">
        <ele>2016.98</ele>
        <time>2015-09-19T13:12:40Z</time>
      </trkpt>
      <trkpt lat="45.873148972168565" lon="7.99381828866899">
        <ele>2015.0599999999999</ele>
        <time>2015-09-19T13:12:50Z</time>
      </trkpt>
      <trkpt lat="45.873147211968899" lon="7.993825748562813">
        <ele>2015.0599999999999</ele>
        <time>2015-09-19T13:12:51Z</time>
      </trkpt>
      <trkpt lat="45.873149391263723" lon="7.993898335844278">
        <ele>2012.6600000000001</ele>
        <time>2015-09-19T13:13:00Z</time>
      </trkpt>
      <trkpt lat="45.873150061815977" lon="7.993916776031256">
        <ele>2012.6600000000001</ele>
        <time>2015-09-19T13:13:02Z</time>
      </trkpt>
      <trkpt lat="45.873127598315477" lon="7.993967738002539">
        <ele>2011.22</ele>
        <time>2015-09-19T13:13:12Z</time>
      </trkpt>
      <trkpt lat="45.873129442334175" lon="7.99398198723793">
        <ele>2010.25</ele>
        <time>2015-09-19T13:13:20Z</time>
      </trkpt>
      <trkpt lat="45.873137405142188" lon="7.994003193452954">
        <ele>2009.29</ele>
        <time>2015-09-19T13:13:29Z</time>
      </trkpt>
      <trkpt lat="45.873188618570566" lon="7.994011072441936">
        <ele>2007.3699999999999</ele>
        <time>2015-09-19T13:13:40Z</time>
      </trkpt>
      <trkpt lat="45.873242933303118" lon="7.99396731890738">
        <ele>2004.49</ele>
        <time>2015-09-19T13:13:52Z</time>
      </trkpt>
      <trkpt lat="45.873290961608291" lon="7.993971258401871">
        <ele>2002.0799999999999</ele>
        <time>2015-09-19T13:14:01Z</time>
      </trkpt>
      <trkpt lat="45.873363548889756" lon="7.993947453796864">
        <ele>1999.2</ele>
        <time>2015-09-19T13:14:13Z</time>
      </trkpt>
      <trkpt lat="45.873400093987584" lon="7.993940580636263">
        <ele>1998.24</ele>
        <time>2015-09-19T13:14:23Z</time>
      </trkpt>
      <trkpt lat="45.873434627428651" lon="7.993948291987181">
        <ele>1996.8</ele>
        <time>2015-09-19T13:14:29Z</time>
      </trkpt>
      <trkpt lat="45.873494558036327" lon="7.993927085772157">
        <ele>1994.3900000000001</ele>
        <time>2015-09-19T13:14:38Z</time>
      </trkpt>
      <trkpt lat="45.873557925224304" lon="7.993909232318401">
        <ele>1991.99</ele>
        <time>2015-09-19T13:14:48Z</time>
      </trkpt>
      <trkpt lat="45.873598912730813" lon="7.993874363601208">
        <ele>1990.0699999999999</ele>
        <time>2015-09-19T13:14:59Z</time>
      </trkpt>
      <trkpt lat="45.873614922165871" lon="7.99392431974411">
        <ele>1990.0699999999999</ele>
        <time>2015-09-19T13:15:18Z</time>
      </trkpt>
      <trkpt lat="45.87362757883966" lon="7.99392918124795">
        <ele>1990.55</ele>
        <time>2015-09-19T13:15:28Z</time>
      </trkpt>
      <trkpt lat="45.873634871095419" lon="7.993974108248949">
        <ele>1988.6199999999999</ele>
        <time>2015-09-19T13:15:39Z</time>
      </trkpt>
      <trkpt lat="45.873600002378225" lon="7.994062872603536">
        <ele>1985.74</ele>
        <time>2015-09-19T13:15:48Z</time>
      </trkpt>
      <trkpt lat="45.873578125610948" lon="7.994145015254617">
        <ele>1984.3</ele>
        <time>2015-09-19T13:15:54Z</time>
      </trkpt>
      <trkpt lat="45.873548537492752" lon="7.994221290573478">
        <ele>1981.9000000000001</ele>
        <time>2015-09-19T13:16:01Z</time>
      </trkpt>
      <trkpt lat="45.873559433966875" lon="7.994230510666966">
        <ele>1980.9300000000001</ele>
        <time>2015-09-19T13:16:04Z</time>
      </trkpt>
      <trkpt lat="45.873573431745172" lon="7.994221290573478">
        <ele>1980.45</ele>
        <time>2015-09-19T13:16:06Z</time>
      </trkpt>
      <trkpt lat="45.873587010428309" lon="7.994241574779153">
        <ele>1979.49</ele>
        <time>2015-09-19T13:16:08Z</time>
      </trkpt>
      <trkpt lat="45.87359287776053" lon="7.994224894791842">
        <ele>1978.53</ele>
        <time>2015-09-19T13:16:11Z</time>
      </trkpt>
      <trkpt lat="45.873647443950176" lon="7.99419648014009">
        <ele>1976.1300000000001</ele>
        <time>2015-09-19T13:16:20Z</time>
      </trkpt>
      <trkpt lat="45.873704692348838" lon="7.994172256439924">
        <ele>1973.72</ele>
        <time>2015-09-19T13:16:32Z</time>
      </trkpt>
      <trkpt lat="45.873764455318451" lon="7.99422238022089">
        <ele>1971.3199999999999</ele>
        <time>2015-09-19T13:16:43Z</time>
      </trkpt>
      <trkpt lat="45.873817848041654" lon="7.994163790717721">
        <ele>1969.4000000000001</ele>
        <time>2015-09-19T13:16:53Z</time>
      </trkpt>
      <trkpt lat="45.873852884396911" lon="7.994154570624232">
        <ele>1967.48</ele>
        <time>2015-09-19T13:17:00Z</time>
      </trkpt>
      <trkpt lat="45.873912395909429" lon="7.994080223143101">
        <ele>1965.55</ele>
        <time>2015-09-19T13:17:12Z</time>
      </trkpt>
      <trkpt lat="45.87390317581594" lon="7.994071254506707">
        <ele>1966.03</ele>
        <time>2015-09-19T13:17:33Z</time>
      </trkpt>
      <trkpt lat="45.873939050361514" lon="7.994029261171818">
        <ele>1965.0699999999999</ele>
        <time>2015-09-19T13:17:47Z</time>
      </trkpt>
      <trkpt lat="45.873963693156838" lon="7.993966732174158">
        <ele>1963.6300000000001</ele>
        <time>2015-09-19T13:17:57Z</time>
      </trkpt>
      <trkpt lat="45.873959669843316" lon="7.993931947275996">
        <ele>1962.1900000000001</ele>
        <time>2015-09-19T13:18:04Z</time>
      </trkpt>
      <trkpt lat="45.873948773369193" lon="7.99392088316381">
        <ele>1961.71</ele>
        <time>2015-09-19T13:18:06Z</time>
      </trkpt>
      <trkpt lat="45.873956652358174" lon="7.99380948767066">
        <ele>1960.75</ele>
        <time>2015-09-19T13:18:14Z</time>
      </trkpt>
      <trkpt lat="45.873998980969191" lon="7.993738241493702">
        <ele>1959.3</ele>
        <time>2015-09-19T13:18:24Z</time>
      </trkpt>
      <trkpt lat="45.874057067558169" lon="7.993731535971165">
        <ele>1958.8199999999999</ele>
        <time>2015-09-19T13:18:34Z</time>
      </trkpt>
      <trkpt lat="45.874108448624611" lon="7.993688955903053">
        <ele>1957.3800000000001</ele>
        <time>2015-09-19T13:18:45Z</time>
      </trkpt>
      <trkpt lat="45.874146418645978" lon="7.993598263710737">
        <ele>1954.02</ele>
        <time>2015-09-19T13:18:56Z</time>
      </trkpt>
      <trkpt lat="45.874154884368181" lon="7.993571441620588">
        <ele>1954.02</ele>
        <time>2015-09-19T13:18:59Z</time>
      </trkpt>
      <trkpt lat="45.874198721721768" lon="7.99349432811141">
        <ele>1952.0899999999999</ele>
        <time>2015-09-19T13:19:08Z</time>
      </trkpt>
      <trkpt lat="45.874226465821266" lon="7.993412772193551">
        <ele>1951.1300000000001</ele>
        <time>2015-09-19T13:19:19Z</time>
      </trkpt>
      <trkpt lat="45.874225124716759" lon="7.993418890982866">
        <ele>1951.1300000000001</ele>
        <time>2015-09-19T13:19:20Z</time>
      </trkpt>
      <trkpt lat="45.874221436679363" lon="7.99331059679389">
        <ele>1949.6900000000001</ele>
        <time>2015-09-19T13:19:31Z</time>
      </trkpt>
      <trkpt lat="45.874202074483037" lon="7.993255108594894">
        <ele>1948.25</ele>
        <time>2015-09-19T13:19:37Z</time>
      </trkpt>
      <trkpt lat="45.874168043956161" lon="7.993142707273364">
        <ele>1947.29</ele>
        <time>2015-09-19T13:19:48Z</time>
      </trkpt>
      <trkpt lat="45.874147089198232" lon="7.993092751130462">
        <ele>1947.29</ele>
        <time>2015-09-19T13:19:59Z</time>
      </trkpt>
      <trkpt lat="45.87414943613112" lon="7.993058133870363">
        <ele>1946.8099999999999</ele>
        <time>2015-09-19T13:20:03Z</time>
      </trkpt>
      <trkpt lat="45.874165613204241" lon="7.992946989834309">
        <ele>1945.8499999999999</ele>
        <time>2015-09-19T13:20:13Z</time>
      </trkpt>
      <trkpt lat="45.874210875481367" lon="7.992855375632644">
        <ele>1945.8499999999999</ele>
        <time>2015-09-19T13:20:22Z</time>
      </trkpt>
      <trkpt lat="45.874253371730447" lon="7.992756301537156">
        <ele>1944.8800000000001</ele>
        <time>2015-09-19T13:20:33Z</time>
      </trkpt>
      <trkpt lat="45.874265441671014" lon="7.992715816944838">
        <ele>1944.4000000000001</ele>
        <time>2015-09-19T13:20:42Z</time>
      </trkpt>
      <trkpt lat="45.874319337308407" lon="7.992757894098759">
        <ele>1942</ele>
        <time>2015-09-19T13:20:53Z</time>
      </trkpt>
      <trkpt lat="45.87431313470006" lon="7.992779770866036">
        <ele>1942</ele>
        <time>2015-09-19T13:21:02Z</time>
      </trkpt>
      <trkpt lat="45.87433559820056" lon="7.99277943558991">
        <ele>1941.52</ele>
        <time>2015-09-19T13:21:17Z</time>
      </trkpt>
      <trkpt lat="45.874323779717088" lon="7.992759570479393">
        <ele>1942</ele>
        <time>2015-09-19T13:21:26Z</time>
      </trkpt>
      <trkpt lat="45.874319672584534" lon="7.992752864956856">
        <ele>1941.52</ele>
        <time>2015-09-19T13:21:37Z</time>
      </trkpt>
      <trkpt lat="45.874363761395216" lon="7.992618000134826">
        <ele>1940.5599999999999</ele>
        <time>2015-09-19T13:21:48Z</time>
      </trkpt>
      <trkpt lat="45.874403910711408" lon="7.992554297670722">
        <ele>1939.5999999999999</ele>
        <time>2015-09-19T13:21:57Z</time>
      </trkpt>
      <trkpt lat="45.874457219615579" lon="7.992497133091092">
        <ele>1939.5999999999999</ele>
        <time>2015-09-19T13:22:05Z</time>
      </trkpt>
      <trkpt lat="45.874491669237614" lon="7.992389844730496">
        <ele>1939.5999999999999</ele>
        <time>2015-09-19T13:22:17Z</time>
      </trkpt>
      <trkpt lat="45.874488903209567" lon="7.992389341816306">
        <ele>1939.1199999999999</ele>
        <time>2015-09-19T13:22:29Z</time>
      </trkpt>
      <trkpt lat="45.874487981200218" lon="7.992412392050028">
        <ele>1938.6400000000001</ele>
        <time>2015-09-19T13:22:37Z</time>
      </trkpt>
      <trkpt lat="45.874467780813575" lon="7.99239101819694">
        <ele>1939.1199999999999</ele>
        <time>2015-09-19T13:22:46Z</time>
      </trkpt>
      <trkpt lat="45.874492758885026" lon="7.992404513061047">
        <ele>1938.6400000000001</ele>
        <time>2015-09-19T13:22:48Z</time>
      </trkpt>
      <trkpt lat="45.874498961493373" lon="7.992387497797608">
        <ele>1939.1199999999999</ele>
        <time>2015-09-19T13:22:53Z</time>
      </trkpt>
      <trkpt lat="45.874498039484024" lon="7.992381295189261">
        <ele>1939.1199999999999</ele>
        <time>2015-09-19T13:22:54Z</time>
      </trkpt>
      <trkpt lat="45.874527040868998" lon="7.992290183901787">
        <ele>1938.6400000000001</ele>
        <time>2015-09-19T13:23:03Z</time>
      </trkpt>
      <trkpt lat="45.874535841867328" lon="7.992261936888099">
        <ele>1938.1600000000001</ele>
        <time>2015-09-19T13:23:12Z</time>
      </trkpt>
      <trkpt lat="45.874559478834271" lon="7.992363441735506">
        <ele>1936.71</ele>
        <time>2015-09-19T13:23:21Z</time>
      </trkpt>
      <trkpt lat="45.874574985355139" lon="7.992438711225987">
        <ele>1934.79</ele>
        <time>2015-09-19T13:23:31Z</time>
      </trkpt>
      <trkpt lat="45.874577080830932" lon="7.992437789216638">
        <ele>1934.79</ele>
        <time>2015-09-19T13:23:32Z</time>
      </trkpt>
      <trkpt lat="45.874578421935439" lon="7.992466371506453">
        <ele>1934.3099999999999</ele>
        <time>2015-09-19T13:23:43Z</time>
      </trkpt>
      <trkpt lat="45.874576577916741" lon="7.992421863600612">
        <ele>1934.79</ele>
        <time>2015-09-19T13:23:47Z</time>
      </trkpt>
      <trkpt lat="45.874553108587861" lon="7.992366962134838">
        <ele>1935.75</ele>
        <time>2015-09-19T13:23:57Z</time>
      </trkpt>
      <trkpt lat="45.874538188800216" lon="7.992280460894108">
        <ele>1937.1900000000001</ele>
        <time>2015-09-19T13:24:07Z</time>
      </trkpt>
      <trkpt lat="45.874540619552135" lon="7.992261182516813">
        <ele>1937.6700000000001</ele>
        <time>2015-09-19T13:24:09Z</time>
      </trkpt>
      <trkpt lat="45.874540116637945" lon="7.992229666560888">
        <ele>1938.6400000000001</ele>
        <time>2015-09-19T13:24:12Z</time>
      </trkpt>
      <trkpt lat="45.874596275389194" lon="7.992183649912477">
        <ele>1940.5599999999999</ele>
        <time>2015-09-19T13:24:21Z</time>
      </trkpt>
      <trkpt lat="45.874601807445288" lon="7.992195971310139">
        <ele>1940.5599999999999</ele>
        <time>2015-09-19T13:24:29Z</time>
      </trkpt>
      <trkpt lat="45.874555706977844" lon="7.992271324619651">
        <ele>1938.6400000000001</ele>
        <time>2015-09-19T13:24:35Z</time>
      </trkpt>
      <trkpt lat="45.874554617330432" lon="7.992300242185593">
        <ele>1937.6700000000001</ele>
        <time>2015-09-19T13:24:37Z</time>
      </trkpt>
      <trkpt lat="45.874579260125756" lon="7.992382049560547">
        <ele>1935.75</ele>
        <time>2015-09-19T13:24:45Z</time>
      </trkpt>
      <trkpt lat="45.874569118022919" lon="7.99251071177423">
        <ele>1933.3499999999999</ele>
        <time>2015-09-19T13:24:54Z</time>
      </trkpt>
      <trkpt lat="45.874555539339781" lon="7.992592351511121">
        <ele>1932.3900000000001</ele>
        <time>2015-09-19T13:25:02Z</time>
      </trkpt>
      <trkpt lat="45.874533075839281" lon="7.99263333901763">
        <ele>1931.4300000000001</ele>
        <time>2015-09-19T13:25:06Z</time>
      </trkpt>
      <trkpt lat="45.874551683664322" lon="7.99277356825769">
        <ele>1928.54</ele>
        <time>2015-09-19T13:25:16Z</time>
      </trkpt>
      <trkpt lat="45.87457112967968" lon="7.992765940725803">
        <ele>1927.5799999999999</ele>
        <time>2015-09-19T13:25:19Z</time>
      </trkpt>
      <trkpt lat="45.874586049467325" lon="7.992701483890414">
        <ele>1927.0999999999999</ele>
        <time>2015-09-19T13:25:23Z</time>
      </trkpt>
      <trkpt lat="45.874649165198207" lon="7.992655131965876">
        <ele>1925.6600000000001</ele>
        <time>2015-09-19T13:25:30Z</time>
      </trkpt>
      <trkpt lat="45.874672215431929" lon="7.992611629888415">
        <ele>1926.1400000000001</ele>
        <time>2015-09-19T13:25:33Z</time>
      </trkpt>
      <trkpt lat="45.874683614820242" lon="7.992511801421642">
        <ele>1924.22</ele>
        <time>2015-09-19T13:25:38Z</time>
      </trkpt>
      <trkpt lat="45.874693589285016" lon="7.992460168898106">
        <ele>1924.7</ele>
        <time>2015-09-19T13:25:42Z</time>
      </trkpt>
      <trkpt lat="45.874740108847618" lon="7.992463856935501">
        <ele>1923.25</ele>
        <time>2015-09-19T13:25:47Z</time>
      </trkpt>
      <trkpt lat="45.874771876260638" lon="7.992494534701109">
        <ele>1922.29</ele>
        <time>2015-09-19T13:25:50Z</time>
      </trkpt>
      <trkpt lat="45.874799033626914" lon="7.992527140304446">
        <ele>1920.8499999999999</ele>
        <time>2015-09-19T13:25:53Z</time>
      </trkpt>
      <trkpt lat="45.874880338087678" lon="7.992457570508122">
        <ele>1918.9300000000001</ele>
        <time>2015-09-19T13:26:01Z</time>
      </trkpt>
      <trkpt lat="45.874916799366474" lon="7.992465700954199">
        <ele>1918.45</ele>
        <time>2015-09-19T13:26:05Z</time>
      </trkpt>
      <trkpt lat="45.874891402199864" lon="7.99256251193583">
        <ele>1915.5599999999999</ele>
        <time>2015-09-19T13:26:15Z</time>
      </trkpt>
      <trkpt lat="45.874967593699694" lon="7.992535186931491">
        <ele>1913.6400000000001</ele>
        <time>2015-09-19T13:26:24Z</time>
      </trkpt>
      <trkpt lat="45.875070272013545" lon="7.992483302950859">
        <ele>1911.24</ele>
        <time>2015-09-19T13:26:36Z</time>
      </trkpt>
      <trkpt lat="45.87510664947331" lon="7.992465030401945">
        <ele>1909.8</ele>
        <time>2015-09-19T13:26:46Z</time>
      </trkpt>
      <trkpt lat="45.875108912587166" lon="7.992463354021311">
        <ele>1909.3199999999999</ele>
        <time>2015-09-19T13:26:47Z</time>
      </trkpt>
      <trkpt lat="45.875117965042591" lon="7.9925796110183">
        <ele>1907.3900000000001</ele>
        <time>2015-09-19T13:26:57Z</time>
      </trkpt>
      <trkpt lat="45.875139925628901" lon="7.992619927972555">
        <ele>1905.47</ele>
        <time>2015-09-19T13:27:06Z</time>
      </trkpt>
      <trkpt lat="45.87521905079484" lon="7.992567960172892">
        <ele>1903.55</ele>
        <time>2015-09-19T13:27:17Z</time>
      </trkpt>
      <trkpt lat="45.875256936997175" lon="7.992566199973226">
        <ele>1902.5899999999999</ele>
        <time>2015-09-19T13:27:22Z</time>
      </trkpt>
      <trkpt lat="45.875317957252264" lon="7.992478357627988">
        <ele>1901.6300000000001</ele>
        <time>2015-09-19T13:27:35Z</time>
      </trkpt>
      <trkpt lat="45.875358525663614" lon="7.992456229403615">
        <ele>1900.6600000000001</ele>
        <time>2015-09-19T13:27:43Z</time>
      </trkpt>
      <trkpt lat="45.875415187329054" lon="7.992442399263382">
        <ele>1899.22</ele>
        <time>2015-09-19T13:27:54Z</time>
      </trkpt>
      <trkpt lat="45.875472687184811" lon="7.992408871650696">
        <ele>1898.74</ele>
        <time>2015-09-19T13:28:05Z</time>
      </trkpt>
      <trkpt lat="45.875493306666613" lon="7.9924242105335">
        <ele>1896.8199999999999</ele>
        <time>2015-09-19T13:28:09Z</time>
      </trkpt>
      <trkpt lat="45.875533288344741" lon="7.992371153086424">
        <ele>1895.3800000000001</ele>
        <time>2015-09-19T13:28:17Z</time>
      </trkpt>
      <trkpt lat="45.875593218952417" lon="7.992352545261383">
        <ele>1893.45</ele>
        <time>2015-09-19T13:28:27Z</time>
      </trkpt>
      <trkpt lat="45.875636301934719" lon="7.992326393723488">
        <ele>1892.49</ele>
        <time>2015-09-19T13:28:35Z</time>
      </trkpt>
      <trkpt lat="45.875662285834551" lon="7.992302840575576">
        <ele>1892.01</ele>
        <time>2015-09-19T13:28:40Z</time>
      </trkpt>
      <trkpt lat="45.8756891079247" lon="7.992308372631669">
        <ele>1892.01</ele>
        <time>2015-09-19T13:28:44Z</time>
      </trkpt>
      <trkpt lat="45.875715594738722" lon="7.992330165579915">
        <ele>1891.53</ele>
        <time>2015-09-19T13:28:48Z</time>
      </trkpt>
      <trkpt lat="45.875760857015848" lon="7.992412811145186">
        <ele>1889.6099999999999</ele>
        <time>2015-09-19T13:28:59Z</time>
      </trkpt>
      <trkpt lat="45.875794216990471" lon="7.99237341620028">
        <ele>1888.1700000000001</ele>
        <time>2015-09-19T13:29:08Z</time>
      </trkpt>
      <trkpt lat="45.875812154263258" lon="7.99243544228375">
        <ele>1886.72</ele>
        <time>2015-09-19T13:29:16Z</time>
      </trkpt>
      <trkpt lat="45.875813076272607" lon="7.992495456710458">
        <ele>1885.28</ele>
        <time>2015-09-19T13:29:23Z</time>
      </trkpt>
      <trkpt lat="45.875827744603157" lon="7.992497468367219">
        <ele>1884.3199999999999</ele>
        <time>2015-09-19T13:29:29Z</time>
      </trkpt>
      <trkpt lat="45.875853896141052" lon="7.992518926039338">
        <ele>1883.3599999999999</ele>
        <time>2015-09-19T13:29:32Z</time>
      </trkpt>
      <trkpt lat="45.875910054892302" lon="7.992580030113459">
        <ele>1881.9200000000001</ele>
        <time>2015-09-19T13:29:43Z</time>
      </trkpt>
      <trkpt lat="45.875985575839877" lon="7.992631997913122">
        <ele>1880</ele>
        <time>2015-09-19T13:29:53Z</time>
      </trkpt>
      <trkpt lat="45.876003429293633" lon="7.992691760882735">
        <ele>1878.0699999999999</ele>
        <time>2015-09-19T13:30:02Z</time>
      </trkpt>
      <trkpt lat="45.876049110665917" lon="7.992682289332151">
        <ele>1877.1099999999999</ele>
        <time>2015-09-19T13:30:11Z</time>
      </trkpt>
      <trkpt lat="45.87608783505857" lon="7.992657814174891">
        <ele>1876.1500000000001</ele>
        <time>2015-09-19T13:30:19Z</time>
      </trkpt>
      <trkpt lat="45.876100407913327" lon="7.992597380653024">
        <ele>1875.6700000000001</ele>
        <time>2015-09-19T13:30:27Z</time>
      </trkpt>
      <trkpt lat="45.876118596643209" lon="7.992551531642675">
        <ele>1875.6700000000001</ele>
        <time>2015-09-19T13:30:35Z</time>
      </trkpt>
      <trkpt lat="45.876131169497967" lon="7.992538204416633">
        <ele>1875.6700000000001</ele>
        <time>2015-09-19T13:30:38Z</time>
      </trkpt>
      <trkpt lat="45.876199398189783" lon="7.992546502500773">
        <ele>1874.71</ele>
        <time>2015-09-19T13:30:47Z</time>
      </trkpt>
      <trkpt lat="45.876221358776093" lon="7.992531247437">
        <ele>1874.23</ele>
        <time>2015-09-19T13:30:52Z</time>
      </trkpt>
      <trkpt lat="45.876281457021832" lon="7.992521272972226">
        <ele>1872.79</ele>
        <time>2015-09-19T13:31:01Z</time>
      </trkpt>
      <trkpt lat="45.876340549439192" lon="7.992514232173562">
        <ele>1870.8599999999999</ele>
        <time>2015-09-19T13:31:10Z</time>
      </trkpt>
      <trkpt lat="45.876400982961059" lon="7.992497803643346">
        <ele>1869.9000000000001</ele>
        <time>2015-09-19T13:31:20Z</time>
      </trkpt>
      <trkpt lat="45.876444904133677" lon="7.9924794472754">
        <ele>1868.46</ele>
        <time>2015-09-19T13:31:30Z</time>
      </trkpt>
      <trkpt lat="45.876489914953709" lon="7.992450278252363">
        <ele>1867.5</ele>
        <time>2015-09-19T13:31:39Z</time>
      </trkpt>
      <trkpt lat="45.876494944095612" lon="7.992451200261712">
        <ele>1867.5</ele>
        <time>2015-09-19T13:31:41Z</time>
      </trkpt>
      <trkpt lat="45.876559652388096" lon="7.992488751187921">
        <ele>1866.0599999999999</ele>
        <time>2015-09-19T13:31:51Z</time>
      </trkpt>
      <trkpt lat="45.876593347638845" lon="7.992419265210629">
        <ele>1865.0899999999999</ele>
        <time>2015-09-19T13:32:01Z</time>
      </trkpt>
      <trkpt lat="45.876646237447858" lon="7.992408704012632">
        <ele>1863.6500000000001</ele>
        <time>2015-09-19T13:32:10Z</time>
      </trkpt>
      <trkpt lat="45.876664342358708" lon="7.992466706782579">
        <ele>1862.21</ele>
        <time>2015-09-19T13:32:19Z</time>
      </trkpt>
      <trkpt lat="45.876670042052865" lon="7.992468802258372">
        <ele>1862.21</ele>
        <time>2015-09-19T13:32:20Z</time>
      </trkpt>
      <trkpt lat="45.876715639606118" lon="7.992490595206618">
        <ele>1860.29</ele>
        <time>2015-09-19T13:32:30Z</time>
      </trkpt>
      <trkpt lat="45.876763332635164" lon="7.992554716765881">
        <ele>1857.8900000000001</ele>
        <time>2015-09-19T13:32:40Z</time>
      </trkpt>
      <trkpt lat="45.876769870519638" lon="7.992612970992923">
        <ele>1855.96</ele>
        <time>2015-09-19T13:32:49Z</time>
      </trkpt>
      <trkpt lat="45.876772468909621" lon="7.992667956277728">
        <ele>1854.04</ele>
        <time>2015-09-19T13:33:00Z</time>
      </trkpt>
      <trkpt lat="45.876807756721973" lon="7.992669381201267">
        <ele>1853.0799999999999</ele>
        <time>2015-09-19T13:33:10Z</time>
      </trkpt>
      <trkpt lat="45.876808175817132" lon="7.992730820551515">
        <ele>1851.1600000000001</ele>
        <time>2015-09-19T13:33:15Z</time>
      </trkpt>
      <trkpt lat="45.876838183030486" lon="7.992779016494751">
        <ele>1850.1900000000001</ele>
        <time>2015-09-19T13:33:23Z</time>
      </trkpt>
      <trkpt lat="45.876857126131654" lon="7.992812711745501">
        <ele>1848.75</ele>
        <time>2015-09-19T13:33:30Z</time>
      </trkpt>
      <trkpt lat="45.876829549670219" lon="7.992885299026966">
        <ele>1846.8299999999999</ele>
        <time>2015-09-19T13:33:38Z</time>
      </trkpt>
      <trkpt lat="45.876848911866546" lon="7.99291186966002">
        <ele>1845.3900000000001</ele>
        <time>2015-09-19T13:33:47Z</time>
      </trkpt>
      <trkpt lat="45.876875901594758" lon="7.992907930165529">
        <ele>1844.4300000000001</ele>
        <time>2015-09-19T13:33:54Z</time>
      </trkpt>
      <trkpt lat="45.876886965706944" lon="7.992995772510767">
        <ele>1842.5</ele>
        <time>2015-09-19T13:34:05Z</time>
      </trkpt>
      <trkpt lat="45.876902472227812" lon="7.992970794439316">
        <ele>1841.54</ele>
        <time>2015-09-19T13:34:11Z</time>
      </trkpt>
      <trkpt lat="45.876920325681567" lon="7.992893094196916">
        <ele>1839.1400000000001</ele>
        <time>2015-09-19T13:34:22Z</time>
      </trkpt>
      <trkpt lat="45.87698545306921" lon="7.992888148874044">
        <ele>1838.6600000000001</ele>
        <time>2015-09-19T13:34:33Z</time>
      </trkpt>
      <trkpt lat="45.877021159976721" lon="7.993000969290733">
        <ele>1838.1800000000001</ele>
        <time>2015-09-19T13:34:43Z</time>
      </trkpt>
      <trkpt lat="45.877030128613114" lon="7.993065426126123">
        <ele>1836.26</ele>
        <time>2015-09-19T13:34:53Z</time>
      </trkpt>
      <trkpt lat="45.877044377848506" lon="7.993108341470361">
        <ele>1834.8099999999999</ele>
        <time>2015-09-19T13:35:02Z</time>
      </trkpt>
      <trkpt lat="45.87705384939909" lon="7.993123261258006">
        <ele>1834.3299999999999</ele>
        <time>2015-09-19T13:35:05Z</time>
      </trkpt>
      <trkpt lat="45.877104559913278" lon="7.993182186037302">
        <ele>1831.9300000000001</ele>
        <time>2015-09-19T13:35:17Z</time>
      </trkpt>
      <trkpt lat="45.877138003706932" lon="7.993248403072357">
        <ele>1830.01</ele>
        <time>2015-09-19T13:35:28Z</time>
      </trkpt>
      <trkpt lat="45.877143116667867" lon="7.993311183527112">
        <ele>1828.0799999999999</ele>
        <time>2015-09-19T13:35:40Z</time>
      </trkpt>
      <trkpt lat="45.877153510227799" lon="7.993375472724438">
        <ele>1825.6800000000001</ele>
        <time>2015-09-19T13:35:52Z</time>
      </trkpt>
      <trkpt lat="45.87720681913197" lon="7.993401540443301">
        <ele>1823.28</ele>
        <time>2015-09-19T13:36:03Z</time>
      </trkpt>
      <trkpt lat="45.877276137471199" lon="7.993404222652316">
        <ele>1821.3499999999999</ele>
        <time>2015-09-19T13:36:14Z</time>
      </trkpt>
      <trkpt lat="45.877253171056509" lon="7.993490723893046">
        <ele>1819.4300000000001</ele>
        <time>2015-09-19T13:36:24Z</time>
      </trkpt>
      <trkpt lat="45.877268593758345" lon="7.993558030575514">
        <ele>1817.03</ele>
        <time>2015-09-19T13:36:34Z</time>
      </trkpt>
      <trkpt lat="45.877273706719279" lon="7.993596587330103">
        <ele>1815.1099999999999</ele>
        <time>2015-09-19T13:36:45Z</time>
      </trkpt>
      <trkpt lat="45.877286782488227" lon="7.993595916777849">
        <ele>1815.5899999999999</ele>
        <time>2015-09-19T13:36:56Z</time>
      </trkpt>
      <trkpt lat="45.877313353121281" lon="7.99365215934813">
        <ele>1813.6600000000001</ele>
        <time>2015-09-19T13:37:05Z</time>
      </trkpt>
      <trkpt lat="45.877315700054169" lon="7.993666576221585">
        <ele>1812.22</ele>
        <time>2015-09-19T13:37:15Z</time>
      </trkpt>
      <trkpt lat="45.877355514094234" lon="7.993712844327092">
        <ele>1810.3</ele>
        <time>2015-09-19T13:37:25Z</time>
      </trkpt>
      <trkpt lat="45.877335648983717" lon="7.993787275627255">
        <ele>1808.3800000000001</ele>
        <time>2015-09-19T13:37:37Z</time>
      </trkpt>
      <trkpt lat="45.877356939017773" lon="7.993864389136434">
        <ele>1805.97</ele>
        <time>2015-09-19T13:37:48Z</time>
      </trkpt>
      <trkpt lat="45.877381330356002" lon="7.993833376094699">
        <ele>1805.01</ele>
        <time>2015-09-19T13:37:54Z</time>
      </trkpt>
      <trkpt lat="45.877414103597403" lon="7.993888696655631">
        <ele>1803.0899999999999</ele>
        <time>2015-09-19T13:38:03Z</time>
      </trkpt>
      <trkpt lat="45.877413181588054" lon="7.993953907862306">
        <ele>1802.1300000000001</ele>
        <time>2015-09-19T13:38:11Z</time>
      </trkpt>
      <trkpt lat="45.877416618168354" lon="7.994013922289014">
        <ele>1799.73</ele>
        <time>2015-09-19T13:38:21Z</time>
      </trkpt>
      <trkpt lat="45.877424329519272" lon="7.994060274213553">
        <ele>1798.28</ele>
        <time>2015-09-19T13:38:30Z</time>
      </trkpt>
      <trkpt lat="45.87745500728488" lon="7.994106458500028">
        <ele>1796.8399999999999</ele>
        <time>2015-09-19T13:38:38Z</time>
      </trkpt>
      <trkpt lat="45.877479985356331" lon="7.994150295853615">
        <ele>1795.4000000000001</ele>
        <time>2015-09-19T13:38:46Z</time>
      </trkpt>
      <trkpt lat="45.877526169642806" lon="7.994168400764465">
        <ele>1793.48</ele>
        <time>2015-09-19T13:38:55Z</time>
      </trkpt>
      <trkpt lat="45.877572102472186" lon="7.994140153750777">
        <ele>1792.03</ele>
        <time>2015-09-19T13:39:03Z</time>
      </trkpt>
      <trkpt lat="45.877635302022099" lon="7.994153313338757">
        <ele>1790.5899999999999</ele>
        <time>2015-09-19T13:39:13Z</time>
      </trkpt>
      <trkpt lat="45.877701854333282" lon="7.994156330823898">
        <ele>1789.6300000000001</ele>
        <time>2015-09-19T13:39:23Z</time>
      </trkpt>
      <trkpt lat="45.877749128267169" lon="7.994175190106034">
        <ele>1787.71</ele>
        <time>2015-09-19T13:39:31Z</time>
      </trkpt>
      <trkpt lat="45.877759102731943" lon="7.994225230067968">
        <ele>1786.75</ele>
        <time>2015-09-19T13:39:41Z</time>
      </trkpt>
      <trkpt lat="45.877724150195718" lon="7.994296560063958">
        <ele>1784.8199999999999</ele>
        <time>2015-09-19T13:39:51Z</time>
      </trkpt>
      <trkpt lat="45.877744015306234" lon="7.9942961409688">
        <ele>1783.3800000000001</ele>
        <time>2015-09-19T13:40:00Z</time>
      </trkpt>
      <trkpt lat="45.877782739698887" lon="7.994322376325727">
        <ele>1782.4200000000001</ele>
        <time>2015-09-19T13:40:13Z</time>
      </trkpt>
      <trkpt lat="45.877802772447467" lon="7.994379876181483">
        <ele>1780.5</ele>
        <time>2015-09-19T13:40:23Z</time>
      </trkpt>
      <trkpt lat="45.877827247604728" lon="7.994365459308028">
        <ele>1779.54</ele>
        <time>2015-09-19T13:40:28Z</time>
      </trkpt>
      <trkpt lat="45.877889106050134" lon="7.994428155943751">
        <ele>1777.6099999999999</ele>
        <time>2015-09-19T13:40:40Z</time>
      </trkpt>
      <trkpt lat="45.877907797694206" lon="7.994486577808857">
        <ele>1776.1700000000001</ele>
        <time>2015-09-19T13:40:49Z</time>
      </trkpt>
      <trkpt lat="45.877921124920249" lon="7.994512477889657">
        <ele>1775.21</ele>
        <time>2015-09-19T13:40:53Z</time>
      </trkpt>
      <trkpt lat="45.877976110205054" lon="7.994554555043578">
        <ele>1774.25</ele>
        <time>2015-09-19T13:41:03Z</time>
      </trkpt>
      <trkpt lat="45.878004776313901" lon="7.994602667167783">
        <ele>1772.3299999999999</ele>
        <time>2015-09-19T13:41:12Z</time>
      </trkpt>
      <trkpt lat="45.878041572868824" lon="7.994656730443239">
        <ele>1771.3699999999999</ele>
        <time>2015-09-19T13:41:23Z</time>
      </trkpt>
      <trkpt lat="45.878063030540943" lon="7.994721606373787">
        <ele>1769.9200000000001</ele>
        <time>2015-09-19T13:41:37Z</time>
      </trkpt>
      <trkpt lat="45.87810586206615" lon="7.9947554692626">
        <ele>1768.48</ele>
        <time>2015-09-19T13:41:47Z</time>
      </trkpt>
      <trkpt lat="45.878080297261477" lon="7.99478916451335">
        <ele>1767.52</ele>
        <time>2015-09-19T13:41:55Z</time>
      </trkpt>
      <trkpt lat="45.878051295876503" lon="7.994832079857588">
        <ele>1766.5599999999999</ele>
        <time>2015-09-19T13:42:08Z</time>
      </trkpt>
      <trkpt lat="45.878066215664148" lon="7.994890753179789">
        <ele>1764.1600000000001</ele>
        <time>2015-09-19T13:42:19Z</time>
      </trkpt>
      <trkpt lat="45.878136036917567" lon="7.994925202801824">
        <ele>1763.2</ele>
        <time>2015-09-19T13:42:28Z</time>
      </trkpt>
      <trkpt lat="45.878203511238098" lon="7.994910115376115">
        <ele>1762.71</ele>
        <time>2015-09-19T13:42:39Z</time>
      </trkpt>
      <trkpt lat="45.878242570906878" lon="7.994886310771108">
        <ele>1763.2</ele>
        <time>2015-09-19T13:42:47Z</time>
      </trkpt>
      <trkpt lat="45.878296382725239" lon="7.994868624955416">
        <ele>1764.1600000000001</ele>
        <time>2015-09-19T13:42:57Z</time>
      </trkpt>
      <trkpt lat="45.878376765176654" lon="7.994883796200156">
        <ele>1762.23</ele>
        <time>2015-09-19T13:43:08Z</time>
      </trkpt>
      <trkpt lat="45.878441641107202" lon="7.994850603863597">
        <ele>1761.75</ele>
        <time>2015-09-19T13:43:20Z</time>
      </trkpt>
      <trkpt lat="45.878510707989335" lon="7.994833420962095">
        <ele>1762.71</ele>
        <time>2015-09-19T13:43:30Z</time>
      </trkpt>
      <trkpt lat="45.878584887832403" lon="7.994864182546735">
        <ele>1761.75</ele>
        <time>2015-09-19T13:43:41Z</time>
      </trkpt>
      <trkpt lat="45.878639537841082" lon="7.994888238608837">
        <ele>1760.3099999999999</ele>
        <time>2015-09-19T13:43:49Z</time>
      </trkpt>
      <trkpt lat="45.878659235313535" lon="7.994886478409171">
        <ele>1759.8299999999999</ele>
        <time>2015-09-19T13:43:51Z</time>
      </trkpt>
      <trkpt lat="45.878729056566954" lon="7.994915898889303">
        <ele>1758.3900000000001</ele>
        <time>2015-09-19T13:44:01Z</time>
      </trkpt>
      <trkpt lat="45.878762248903513" lon="7.995000053197146">
        <ele>1756.95</ele>
        <time>2015-09-19T13:44:13Z</time>
      </trkpt>
      <trkpt lat="45.878775995224714" lon="7.995014721527696">
        <ele>1755.02</ele>
        <time>2015-09-19T13:44:16Z</time>
      </trkpt>
      <trkpt lat="45.878833997994661" lon="7.995024276897311">
        <ele>1753.5799999999999</ele>
        <time>2015-09-19T13:44:24Z</time>
      </trkpt>
      <trkpt lat="45.878897029906511" lon="7.995083034038544">
        <ele>1750.7</ele>
        <time>2015-09-19T13:44:35Z</time>
      </trkpt>
      <trkpt lat="45.878948494791985" lon="7.99509116448462">
        <ele>1749.26</ele>
        <time>2015-09-19T13:44:42Z</time>
      </trkpt>
      <trkpt lat="45.878993505612016" lon="7.99507942982018">
        <ele>1748.29</ele>
        <time>2015-09-19T13:44:52Z</time>
      </trkpt>
      <trkpt lat="45.879012197256088" lon="7.995157716795802">
        <ele>1746.3699999999999</ele>
        <time>2015-09-19T13:45:01Z</time>
      </trkpt>
      <trkpt lat="45.879022423177958" lon="7.995170708745718">
        <ele>1745.8900000000001</ele>
        <time>2015-09-19T13:45:03Z</time>
      </trkpt>
      <trkpt lat="45.879056872799993" lon="7.995238602161408">
        <ele>1743.97</ele>
        <time>2015-09-19T13:45:13Z</time>
      </trkpt>
      <trkpt lat="45.879090400412679" lon="7.995242876932025">
        <ele>1743.97</ele>
        <time>2015-09-19T13:45:22Z</time>
      </trkpt>
      <trkpt lat="45.879172291606665" lon="7.995303142815828">
        <ele>1741.5699999999999</ele>
        <time>2015-09-19T13:45:34Z</time>
      </trkpt>
      <trkpt lat="45.879236664623022" lon="7.995321499183774">
        <ele>1741.0799999999999</ele>
        <time>2015-09-19T13:45:44Z</time>
      </trkpt>
      <trkpt lat="45.879315203055739" lon="7.995314709842205">
        <ele>1740.1199999999999</ele>
        <time>2015-09-19T13:45:55Z</time>
      </trkpt>
      <trkpt lat="45.879395669326186" lon="7.99535796046257">
        <ele>1738.2</ele>
        <time>2015-09-19T13:46:06Z</time>
      </trkpt>
      <trkpt lat="45.879419557750225" lon="7.995379585772753">
        <ele>1738.2</ele>
        <time>2015-09-19T13:46:09Z</time>
      </trkpt>
      <trkpt lat="45.879521565511823" lon="7.995417220517993">
        <ele>1736.76</ele>
        <time>2015-09-19T13:46:21Z</time>
      </trkpt>
      <trkpt lat="45.879579484462738" lon="7.995424596592784">
        <ele>1736.76</ele>
        <time>2015-09-19T13:46:29Z</time>
      </trkpt>
      <trkpt lat="45.879636649042368" lon="7.995441611856222">
        <ele>1735.3199999999999</ele>
        <time>2015-09-19T13:46:37Z</time>
      </trkpt>
      <trkpt lat="45.879645282402635" lon="7.995471619069576">
        <ele>1734.8399999999999</ele>
        <time>2015-09-19T13:46:47Z</time>
      </trkpt>
      <trkpt lat="45.87960940785706" lon="7.995553929358721">
        <ele>1733.3900000000001</ele>
        <time>2015-09-19T13:46:57Z</time>
      </trkpt>
      <trkpt lat="45.879649389535189" lon="7.995613105595112">
        <ele>1730.99</ele>
        <time>2015-09-19T13:47:07Z</time>
      </trkpt>
      <trkpt lat="45.879712840542197" lon="7.995691644027829">
        <ele>1729.55</ele>
        <time>2015-09-19T13:47:19Z</time>
      </trkpt>
      <trkpt lat="45.87973203510046" lon="7.995721902698278">
        <ele>1728.5899999999999</ele>
        <time>2015-09-19T13:47:28Z</time>
      </trkpt>
      <trkpt lat="45.879755169153214" lon="7.995747132226825">
        <ele>1727.6300000000001</ele>
        <time>2015-09-19T13:47:40Z</time>
      </trkpt>
      <trkpt lat="45.87971979752183" lon="7.995788790285587">
        <ele>1726.6700000000001</ele>
        <time>2015-09-19T13:47:51Z</time>
      </trkpt>
      <trkpt lat="45.879705799743533" lon="7.995798597112298">
        <ele>1726.1800000000001</ele>
        <time>2015-09-19T13:48:00Z</time>
      </trkpt>
      <trkpt lat="45.879720468074083" lon="7.995837572962046">
        <ele>1725.22</ele>
        <time>2015-09-19T13:48:17Z</time>
      </trkpt>
      <trkpt lat="45.879758019000292" lon="7.995916111394763">
        <ele>1722.8199999999999</ele>
        <time>2015-09-19T13:48:27Z</time>
      </trkpt>
      <trkpt lat="45.879760282114148" lon="7.995921391993761">
        <ele>1722.8199999999999</ele>
        <time>2015-09-19T13:48:28Z</time>
      </trkpt>
      <trkpt lat="45.879812501370907" lon="7.995977969840169">
        <ele>1722.3399999999999</ele>
        <time>2015-09-19T13:48:36Z</time>
      </trkpt>
      <trkpt lat="45.879871342331171" lon="7.996023567393422">
        <ele>1721.8599999999999</ele>
        <time>2015-09-19T13:48:47Z</time>
      </trkpt>
      <trkpt lat="45.87992406450212" lon="7.996093975380063">
        <ele>1721.8599999999999</ele>
        <time>2015-09-19T13:48:59Z</time>
      </trkpt>
      <trkpt lat="45.879937978461385" lon="7.996104033663869">
        <ele>1719.46</ele>
        <time>2015-09-19T13:49:01Z</time>
      </trkpt>
      <trkpt lat="45.879959352314472" lon="7.996132951229811">
        <ele>1718.49</ele>
        <time>2015-09-19T13:49:11Z</time>
      </trkpt>
      <trkpt lat="45.879964046180248" lon="7.996133454144001">
        <ele>1718.49</ele>
        <time>2015-09-19T13:49:24Z</time>
      </trkpt>
      <trkpt lat="45.879963207989931" lon="7.996152900159359">
        <ele>1717.53</ele>
        <time>2015-09-19T13:49:36Z</time>
      </trkpt>
      <trkpt lat="45.879958681762218" lon="7.996135130524635">
        <ele>1718.01</ele>
        <time>2015-09-19T13:49:53Z</time>
      </trkpt>
      <trkpt lat="45.879957675933838" lon="7.996119959279895">
        <ele>1717.53</ele>
        <time>2015-09-19T13:50:03Z</time>
      </trkpt>
      <trkpt lat="45.880018193274736" lon="7.996116271242499">
        <ele>1716.5699999999999</ele>
        <time>2015-09-19T13:50:12Z</time>
      </trkpt>
      <trkpt lat="45.880103101953864" lon="7.996155666187406">
        <ele>1715.6099999999999</ele>
        <time>2015-09-19T13:50:23Z</time>
      </trkpt>
      <trkpt lat="45.880143251270056" lon="7.996228756383061">
        <ele>1713.6900000000001</ele>
        <time>2015-09-19T13:50:33Z</time>
      </trkpt>
      <trkpt lat="45.88021282106638" lon="7.996223978698254">
        <ele>1712.73</ele>
        <time>2015-09-19T13:50:40Z</time>
      </trkpt>
      <trkpt lat="45.880241151899099" lon="7.99623990431428">
        <ele>1712.25</ele>
        <time>2015-09-19T13:50:43Z</time>
      </trkpt>
      <trkpt lat="45.880303345620632" lon="7.996253818273544">
        <ele>1711.28</ele>
        <time>2015-09-19T13:50:51Z</time>
      </trkpt>
      <trkpt lat="45.880340980365872" lon="7.996215764433146">
        <ele>1709.8399999999999</ele>
        <time>2015-09-19T13:50:57Z</time>
      </trkpt>
      <trkpt lat="45.880366545170546" lon="7.996205873787403">
        <ele>1709.8399999999999</ele>
        <time>2015-09-19T13:51:00Z</time>
      </trkpt>
      <trkpt lat="45.880465535447001" lon="7.996072182431817">
        <ele>1708.8800000000001</ele>
        <time>2015-09-19T13:51:14Z</time>
      </trkpt>
      <trkpt lat="45.880551366135478" lon="7.995919464156032">
        <ele>1708.8800000000001</ele>
        <time>2015-09-19T13:51:26Z</time>
      </trkpt>
      <trkpt lat="45.880578774958849" lon="7.995874285697937">
        <ele>1708.4000000000001</ele>
        <time>2015-09-19T13:51:29Z</time>
      </trkpt>
      <trkpt lat="45.880611380562186" lon="7.995796669274569">
        <ele>1707.4400000000001</ele>
        <time>2015-09-19T13:51:38Z</time>
      </trkpt>
      <trkpt lat="45.880628814920783" lon="7.995754759758711">
        <ele>1706</ele>
        <time>2015-09-19T13:51:42Z</time>
      </trkpt>
      <trkpt lat="45.880714813247323" lon="7.995703294873238">
        <ele>1706</ele>
        <time>2015-09-19T13:51:53Z</time>
      </trkpt>
      <trkpt lat="45.880779437720776" lon="7.995643867179751">
        <ele>1704.55</ele>
        <time>2015-09-19T13:52:02Z</time>
      </trkpt>
      <trkpt lat="45.880842721089721" lon="7.995532304048538">
        <ele>1703.1099999999999</ele>
        <time>2015-09-19T13:52:13Z</time>
      </trkpt>
      <trkpt lat="45.880888067185879" lon="7.995489304885268">
        <ele>1702.6300000000001</ele>
        <time>2015-09-19T13:52:19Z</time>
      </trkpt>
      <trkpt lat="45.880968114361167" lon="7.99538679420948">
        <ele>1701.6700000000001</ele>
        <time>2015-09-19T13:52:29Z</time>
      </trkpt>
      <trkpt lat="45.880978759378195" lon="7.995365923270583">
        <ele>1701.6700000000001</ele>
        <time>2015-09-19T13:52:33Z</time>
      </trkpt>
      <trkpt lat="45.881019243970513" lon="7.995350416749716">
        <ele>1701.6700000000001</ele>
        <time>2015-09-19T13:52:41Z</time>
      </trkpt>
      <trkpt lat="45.881106667220592" lon="7.995371287688613">
        <ele>1699.27</ele>
        <time>2015-09-19T13:52:52Z</time>
      </trkpt>
      <trkpt lat="45.881176320835948" lon="7.995378496125341">
        <ele>1697.3399999999999</ele>
        <time>2015-09-19T13:53:02Z</time>
      </trkpt>
      <trkpt lat="45.881215464323759" lon="7.995367348194122">
        <ele>1696.8599999999999</ele>
        <time>2015-09-19T13:53:06Z</time>
      </trkpt>
      <trkpt lat="45.881287464872003" lon="7.995279086753726">
        <ele>1695.4200000000001</ele>
        <time>2015-09-19T13:53:17Z</time>
      </trkpt>
      <trkpt lat="45.881295008584857" lon="7.995226448401809">
        <ele>1694.46</ele>
        <time>2015-09-19T13:53:24Z</time>
      </trkpt>
      <trkpt lat="45.88131713680923" lon="7.995078507810831">
        <ele>1693.02</ele>
        <time>2015-09-19T13:53:34Z</time>
      </trkpt>
      <trkpt lat="45.881355945020914" lon="7.994969291612506">
        <ele>1693.5</ele>
        <time>2015-09-19T13:53:44Z</time>
      </trkpt>
      <trkpt lat="45.881413696333766" lon="7.994827050715685">
        <ele>1692.54</ele>
        <time>2015-09-19T13:53:57Z</time>
      </trkpt>
      <trkpt lat="45.881436495110393" lon="7.994666621088982">
        <ele>1690.6199999999999</ele>
        <time>2015-09-19T13:54:09Z</time>
      </trkpt>
      <trkpt lat="45.881439009681344" lon="7.994633764028549">
        <ele>1690.6199999999999</ele>
        <time>2015-09-19T13:54:12Z</time>
      </trkpt>
      <trkpt lat="45.881431549787521" lon="7.994558243080974">
        <ele>1692.0599999999999</ele>
        <time>2015-09-19T13:54:17Z</time>
      </trkpt>
      <trkpt lat="45.881429454311728" lon="7.994453050196171">
        <ele>1690.1400000000001</ele>
        <time>2015-09-19T13:54:26Z</time>
      </trkpt>
      <trkpt lat="45.881424844264984" lon="7.994424300268292">
        <ele>1690.1400000000001</ele>
        <time>2015-09-19T13:54:28Z</time>
      </trkpt>
      <trkpt lat="45.881412019953132" lon="7.994271833449602">
        <ele>1691.0999999999999</ele>
        <time>2015-09-19T13:54:41Z</time>
      </trkpt>
      <trkpt lat="45.881396681070328" lon="7.994230929762125">
        <ele>1691.5799999999999</ele>
        <time>2015-09-19T13:54:45Z</time>
      </trkpt>
      <trkpt lat="45.88136550039053" lon="7.994086425751448">
        <ele>1692.54</ele>
        <time>2015-09-19T13:54:57Z</time>
      </trkpt>
      <trkpt lat="45.881369356065989" lon="7.994062621146441">
        <ele>1692.0599999999999</ele>
        <time>2015-09-19T13:54:59Z</time>
      </trkpt>
      <trkpt lat="45.881389304995537" lon="7.99403864890337">
        <ele>1692.0599999999999</ele>
        <time>2015-09-19T13:55:01Z</time>
      </trkpt>
      <trkpt lat="45.881405062973499" lon="7.993850726634264">
        <ele>1690.1400000000001</ele>
        <time>2015-09-19T13:55:13Z</time>
      </trkpt>
      <trkpt lat="45.881396178156137" lon="7.993727764114738">
        <ele>1690.6199999999999</ele>
        <time>2015-09-19T13:55:22Z</time>
      </trkpt>
      <trkpt lat="45.881372289732099" lon="7.993591474369168">
        <ele>1692.0599999999999</ele>
        <time>2015-09-19T13:55:34Z</time>
      </trkpt>
      <trkpt lat="45.881368601694703" lon="7.993520395830274">
        <ele>1693.02</ele>
        <time>2015-09-19T13:55:42Z</time>
      </trkpt>
      <trkpt lat="45.881375893950462" lon="7.993336748331785">
        <ele>1693.98</ele>
        <time>2015-09-19T13:55:57Z</time>
      </trkpt>
      <trkpt lat="45.881396848708391" lon="7.993246139958501">
        <ele>1693.98</ele>
        <time>2015-09-19T13:56:04Z</time>
      </trkpt>
      <trkpt lat="45.881407996639609" lon="7.99309317022562">
        <ele>1693.5</ele>
        <time>2015-09-19T13:56:15Z</time>
      </trkpt>
      <trkpt lat="45.88145149871707" lon="7.992954282090068">
        <ele>1693.98</ele>
        <time>2015-09-19T13:56:27Z</time>
      </trkpt>
      <trkpt lat="45.881508998572826" lon="7.992831151932478">
        <ele>1693.5</ele>
        <time>2015-09-19T13:56:39Z</time>
      </trkpt>
      <trkpt lat="45.881541268900037" lon="7.992710284888744">
        <ele>1693.02</ele>
        <time>2015-09-19T13:56:49Z</time>
      </trkpt>
      <trkpt lat="45.88157613761723" lon="7.992522865533829">
        <ele>1693.5</ele>
        <time>2015-09-19T13:57:02Z</time>
      </trkpt>
      <trkpt lat="45.881597260013223" lon="7.992467125877738">
        <ele>1693.5</ele>
        <time>2015-09-19T13:57:07Z</time>
      </trkpt>
      <trkpt lat="45.881616622209549" lon="7.992402585223317">
        <ele>1693.5</ele>
        <time>2015-09-19T13:57:19Z</time>
      </trkpt>
      <trkpt lat="45.881634475663304" lon="7.992316754534841">
        <ele>1693.5</ele>
        <time>2015-09-19T13:57:27Z</time>
      </trkpt>
      <trkpt lat="45.881649227812886" lon="7.992142662405968">
        <ele>1693.5</ele>
        <time>2015-09-19T13:57:39Z</time>
      </trkpt>
      <trkpt lat="45.881651071831584" lon="7.992129921913147">
        <ele>1693.5</ele>
        <time>2015-09-19T13:57:40Z</time>
      </trkpt>
      <trkpt lat="45.881649143993855" lon="7.991912662982941">
        <ele>1693.5</ele>
        <time>2015-09-19T13:57:55Z</time>
      </trkpt>
      <trkpt lat="45.881637074053288" lon="7.991865472868085">
        <ele>1693.02</ele>
        <time>2015-09-19T13:57:58Z</time>
      </trkpt>
      <trkpt lat="45.881621902808547" lon="7.991683082655072">
        <ele>1693.5</ele>
        <time>2015-09-19T13:58:09Z</time>
      </trkpt>
      <trkpt lat="45.8816191367805" lon="7.99164972268045">
        <ele>1693.5</ele>
        <time>2015-09-19T13:58:12Z</time>
      </trkpt>
      <trkpt lat="45.881627853959799" lon="7.991500776261091">
        <ele>1693.98</ele>
        <time>2015-09-19T13:58:24Z</time>
      </trkpt>
      <trkpt lat="45.881666578352451" lon="7.991405809298158">
        <ele>1693.5</ele>
        <time>2015-09-19T13:58:34Z</time>
      </trkpt>
      <trkpt lat="45.881701782345772" lon="7.991395080462098">
        <ele>1693.98</ele>
        <time>2015-09-19T13:58:42Z</time>
      </trkpt>
      <trkpt lat="45.881733885034919" lon="7.991398265585303">
        <ele>1694.9400000000001</ele>
        <time>2015-09-19T13:58:54Z</time>
      </trkpt>
      <trkpt lat="45.881776297464967" lon="7.991431038826704">
        <ele>1696.8599999999999</ele>
        <time>2015-09-19T13:59:03Z</time>
      </trkpt>
      <trkpt lat="45.881817955523729" lon="7.991477055475116">
        <ele>1697.8299999999999</ele>
        <time>2015-09-19T13:59:13Z</time>
      </trkpt>
      <trkpt lat="45.881867073476315" lon="7.99152365885675">
        <ele>1698.79</ele>
        <time>2015-09-19T13:59:23Z</time>
      </trkpt>
      <trkpt lat="45.881895907223225" lon="7.991506727412343">
        <ele>1699.27</ele>
        <time>2015-09-19T13:59:28Z</time>
      </trkpt>
      <trkpt lat="45.881944606080651" lon="7.991484683007002">
        <ele>1699.75</ele>
        <time>2015-09-19T13:59:34Z</time>
      </trkpt>
      <trkpt lat="45.882006464526057" lon="7.991386028006673">
        <ele>1700.23</ele>
        <time>2015-09-19T13:59:46Z</time>
      </trkpt>
      <trkpt lat="45.882026245817542" lon="7.991383513435721">
        <ele>1700.23</ele>
        <time>2015-09-19T13:59:48Z</time>
      </trkpt>
      <trkpt lat="45.882115261629224" lon="7.991382507607341">
        <ele>1700.71</ele>
        <time>2015-09-19T14:00:00Z</time>
      </trkpt>
      <trkpt lat="45.882146945223212" lon="7.991389380767942">
        <ele>1700.71</ele>
        <time>2015-09-19T14:00:11Z</time>
      </trkpt>
      <trkpt lat="45.882221711799502" lon="7.991407234221697">
        <ele>1699.27</ele>
        <time>2015-09-19T14:00:22Z</time>
      </trkpt>
      <trkpt lat="45.882286839187145" lon="7.991407820954919">
        <ele>1697.8299999999999</ele>
        <time>2015-09-19T14:00:31Z</time>
      </trkpt>
      <trkpt lat="45.882342578843236" lon="7.991368677467108">
        <ele>1696.3800000000001</ele>
        <time>2015-09-19T14:00:41Z</time>
      </trkpt>
      <trkpt lat="45.882409382611513" lon="7.991376975551248">
        <ele>1694.9400000000001</ele>
        <time>2015-09-19T14:00:52Z</time>
      </trkpt>
      <trkpt lat="45.882455818355083" lon="7.991397175937891">
        <ele>1693.5</ele>
        <time>2015-09-19T14:01:01Z</time>
      </trkpt>
      <trkpt lat="45.882529160007834" lon="7.991409078240395">
        <ele>1692.0599999999999</ele>
        <time>2015-09-19T14:01:12Z</time>
      </trkpt>
      <trkpt lat="45.882590264081955" lon="7.991413185372949">
        <ele>1691.0999999999999</ele>
        <time>2015-09-19T14:01:20Z</time>
      </trkpt>
      <trkpt lat="45.882596047595143" lon="7.991402707993984">
        <ele>1690.6199999999999</ele>
        <time>2015-09-19T14:01:22Z</time>
      </trkpt>
      <trkpt lat="45.882683303207159" lon="7.991401283070445">
        <ele>1688.6900000000001</ele>
        <time>2015-09-19T14:01:35Z</time>
      </trkpt>
      <trkpt lat="45.882728816941381" lon="7.99139809794724">
        <ele>1687.73</ele>
        <time>2015-09-19T14:01:45Z</time>
      </trkpt>
      <trkpt lat="45.882813641801476" lon="7.991388374939561">
        <ele>1685.3299999999999</ele>
        <time>2015-09-19T14:01:56Z</time>
      </trkpt>
      <trkpt lat="45.882871812209487" lon="7.991428021341562">
        <ele>1684.8499999999999</ele>
        <time>2015-09-19T14:02:06Z</time>
      </trkpt>
      <trkpt lat="45.882937693968415" lon="7.991474121809006">
        <ele>1683.4100000000001</ele>
        <time>2015-09-19T14:02:16Z</time>
      </trkpt>
      <trkpt lat="45.882972562685609" lon="7.991540338844061">
        <ele>1681.48</ele>
        <time>2015-09-19T14:02:27Z</time>
      </trkpt>
      <trkpt lat="45.882994187995791" lon="7.991561628878117">
        <ele>1680.52</ele>
        <time>2015-09-19T14:02:34Z</time>
      </trkpt>
      <trkpt lat="45.883110444992781" lon="7.991569088771939">
        <ele>1677.6400000000001</ele>
        <time>2015-09-19T14:02:48Z</time>
      </trkpt>
      <trkpt lat="45.883183786645532" lon="7.99157939851284">
        <ele>1675.23</ele>
        <time>2015-09-19T14:02:59Z</time>
      </trkpt>
      <trkpt lat="45.883164340630174" lon="7.991646621376276">
        <ele>1674.75</ele>
        <time>2015-09-19T14:03:05Z</time>
      </trkpt>
      <trkpt lat="45.883077252656221" lon="7.99173966050148">
        <ele>1672.3499999999999</ele>
        <time>2015-09-19T14:03:17Z</time>
      </trkpt>
      <trkpt lat="45.882996032014489" lon="7.991813588887453">
        <ele>1669.95</ele>
        <time>2015-09-19T14:03:27Z</time>
      </trkpt>
      <trkpt lat="45.882914727553725" lon="7.991858096793294">
        <ele>1668.02</ele>
        <time>2015-09-19T14:03:37Z</time>
      </trkpt>
      <trkpt lat="45.88293693959713" lon="7.991867987439036">
        <ele>1666.0999999999999</ele>
        <time>2015-09-19T14:03:48Z</time>
      </trkpt>
      <trkpt lat="45.883034337311983" lon="7.991861198097467">
        <ele>1663.7</ele>
        <time>2015-09-19T14:04:00Z</time>
      </trkpt>
      <trkpt lat="45.883143302053213" lon="7.991873854771256">
        <ele>1661.78</ele>
        <time>2015-09-19T14:04:12Z</time>
      </trkpt>
      <trkpt lat="45.883238771930337" lon="7.991886930540204">
        <ele>1659.8499999999999</ele>
        <time>2015-09-19T14:04:23Z</time>
      </trkpt>
      <trkpt lat="45.883177667856216" lon="7.991968486458063">
        <ele>1657.45</ele>
        <time>2015-09-19T14:04:33Z</time>
      </trkpt>
      <trkpt lat="45.883105080574751" lon="7.992018274962902">
        <ele>1655.53</ele>
        <time>2015-09-19T14:04:43Z</time>
      </trkpt>
      <trkpt lat="45.883073564618826" lon="7.992026405408979">
        <ele>1655.05</ele>
        <time>2015-09-19T14:04:46Z</time>
      </trkpt>
      <trkpt lat="45.882992511615157" lon="7.992090275511146">
        <ele>1653.1199999999999</ele>
        <time>2015-09-19T14:04:57Z</time>
      </trkpt>
      <trkpt lat="45.882924618199468" lon="7.992155654355884">
        <ele>1651.2</ele>
        <time>2015-09-19T14:05:08Z</time>
      </trkpt>
      <trkpt lat="45.882936017587781" lon="7.992205275222659">
        <ele>1649.28</ele>
        <time>2015-09-19T14:05:19Z</time>
      </trkpt>
      <trkpt lat="45.88296920992434" lon="7.992186164483428">
        <ele>1647.8399999999999</ele>
        <time>2015-09-19T14:05:27Z</time>
      </trkpt>
      <trkpt lat="45.883051687851548" lon="7.992190355435014">
        <ele>1645.9100000000001</ele>
        <time>2015-09-19T14:05:40Z</time>
      </trkpt>
      <trkpt lat="45.883142715319991" lon="7.992236623540521">
        <ele>1643.99</ele>
        <time>2015-09-19T14:05:51Z</time>
      </trkpt>
      <trkpt lat="45.883110109716654" lon="7.992296470329166">
        <ele>1642.0699999999999</ele>
        <time>2015-09-19T14:06:00Z</time>
      </trkpt>
      <trkpt lat="45.883051184937358" lon="7.992359334602952">
        <ele>1640.6300000000001</ele>
        <time>2015-09-19T14:06:10Z</time>
      </trkpt>
      <trkpt lat="45.883057303726673" lon="7.992402082309127">
        <ele>1639.1900000000001</ele>
        <time>2015-09-19T14:06:20Z</time>
      </trkpt>
      <trkpt lat="45.883109522983432" lon="7.992367381229997">
        <ele>1637.74</ele>
        <time>2015-09-19T14:06:29Z</time>
      </trkpt>
      <trkpt lat="45.883134081959724" lon="7.992371572181583">
        <ele>1636.78</ele>
        <time>2015-09-19T14:06:40Z</time>
      </trkpt>
      <trkpt lat="45.883164927363396" lon="7.992402333766222">
        <ele>1634.8599999999999</ele>
        <time>2015-09-19T14:06:51Z</time>
      </trkpt>
      <trkpt lat="45.883161574602127" lon="7.99246134236455">
        <ele>1633.9000000000001</ele>
        <time>2015-09-19T14:06:59Z</time>
      </trkpt>
      <trkpt lat="45.88315729983151" lon="7.992506939917803">
        <ele>1632.46</ele>
        <time>2015-09-19T14:07:09Z</time>
      </trkpt>
      <trkpt lat="45.883180601522326" lon="7.992480369284749">
        <ele>1631.49</ele>
        <time>2015-09-19T14:07:13Z</time>
      </trkpt>
      <trkpt lat="45.883211446925998" lon="7.992457821965218">
        <ele>1630.53</ele>
        <time>2015-09-19T14:07:22Z</time>
      </trkpt>
      <trkpt lat="45.883209519088268" lon="7.992534684017301">
        <ele>1629.0899999999999</ele>
        <time>2015-09-19T14:07:29Z</time>
      </trkpt>
      <trkpt lat="45.883167693391442" lon="7.992605930194259">
        <ele>1627.6500000000001</ele>
        <time>2015-09-19T14:07:39Z</time>
      </trkpt>
      <trkpt lat="45.88322083465755" lon="7.992547256872058">
        <ele>1626.21</ele>
        <time>2015-09-19T14:07:49Z</time>
      </trkpt>
      <trkpt lat="45.88323843665421" lon="7.992549603804946">
        <ele>1625.25</ele>
        <time>2015-09-19T14:07:59Z</time>
      </trkpt>
      <trkpt lat="45.883202813565731" lon="7.992610456421971">
        <ele>1623.3199999999999</ele>
        <time>2015-09-19T14:08:08Z</time>
      </trkpt>
      <trkpt lat="45.88314950466156" lon="7.992725288495421">
        <ele>1621.4000000000001</ele>
        <time>2015-09-19T14:08:21Z</time>
      </trkpt>
      <trkpt lat="45.883185630664229" lon="7.992735095322132">
        <ele>1619.96</ele>
        <time>2015-09-19T14:08:33Z</time>
      </trkpt>
      <trkpt lat="45.88325897231698" lon="7.992689330130816">
        <ele>1618.52</ele>
        <time>2015-09-19T14:08:44Z</time>
      </trkpt>
      <trkpt lat="45.883290991187096" lon="7.992674075067043">
        <ele>1617.0699999999999</ele>
        <time>2015-09-19T14:08:53Z</time>
      </trkpt>
      <trkpt lat="45.88335326872766" lon="7.992596542462707">
        <ele>1615.6300000000001</ele>
        <time>2015-09-19T14:09:04Z</time>
      </trkpt>
      <trkpt lat="45.883354609832168" lon="7.992661418393254">
        <ele>1614.1900000000001</ele>
        <time>2015-09-19T14:09:12Z</time>
      </trkpt>
      <trkpt lat="45.883312029764056" lon="7.992769377306104">
        <ele>1612.27</ele>
        <time>2015-09-19T14:09:24Z</time>
      </trkpt>
      <trkpt lat="45.883314711973071" lon="7.992819249629974">
        <ele>1610.8299999999999</ele>
        <time>2015-09-19T14:09:33Z</time>
      </trkpt>
      <trkpt lat="45.883388975635171" lon="7.992769377306104">
        <ele>1608.4200000000001</ele>
        <time>2015-09-19T14:09:45Z</time>
      </trkpt>
      <trkpt lat="45.883454186841846" lon="7.992753367871046">
        <ele>1606.98</ele>
        <time>2015-09-19T14:09:55Z</time>
      </trkpt>
      <trkpt lat="45.883426526561379" lon="7.992842383682728">
        <ele>1604.5799999999999</ele>
        <time>2015-09-19T14:10:04Z</time>
      </trkpt>
      <trkpt lat="45.883377073332667" lon="7.992908349260688">
        <ele>1603.1400000000001</ele>
        <time>2015-09-19T14:10:15Z</time>
      </trkpt>
      <trkpt lat="45.883373385295272" lon="7.992950845509768">
        <ele>1601.6900000000001</ele>
        <time>2015-09-19T14:10:26Z</time>
      </trkpt>
      <trkpt lat="45.883444966748357" lon="7.992919581010938">
        <ele>1600.25</ele>
        <time>2015-09-19T14:10:39Z</time>
      </trkpt>
      <trkpt lat="45.883471453562379" lon="7.992911031469703">
        <ele>1599.29</ele>
        <time>2015-09-19T14:10:52Z</time>
      </trkpt>
      <trkpt lat="45.883553344756365" lon="7.992859734222293">
        <ele>1597.3699999999999</ele>
        <time>2015-09-19T14:11:04Z</time>
      </trkpt>
      <trkpt lat="45.883567677810788" lon="7.99294120632112">
        <ele>1595.9300000000001</ele>
        <time>2015-09-19T14:11:13Z</time>
      </trkpt>
      <trkpt lat="45.883492324501276" lon="7.99307020381093">
        <ele>1593.52</ele>
        <time>2015-09-19T14:11:25Z</time>
      </trkpt>
      <trkpt lat="45.883425436913967" lon="7.993133822456002">
        <ele>1591.5999999999999</ele>
        <time>2015-09-19T14:11:35Z</time>
      </trkpt>
      <trkpt lat="45.883405487984419" lon="7.993179587647319">
        <ele>1590.1600000000001</ele>
        <time>2015-09-19T14:11:43Z</time>
      </trkpt>
      <trkpt lat="45.883452594280243" lon="7.993176151067019">
        <ele>1587.75</ele>
        <time>2015-09-19T14:11:54Z</time>
      </trkpt>
      <trkpt lat="45.883517637848854" lon="7.993182605132461">
        <ele>1585.8299999999999</ele>
        <time>2015-09-19T14:12:06Z</time>
      </trkpt>
      <trkpt lat="45.883505987003446" lon="7.993256030604243">
        <ele>1584.3900000000001</ele>
        <time>2015-09-19T14:12:15Z</time>
      </trkpt>
      <trkpt lat="45.88347882963717" lon="7.99331889487803">
        <ele>1582.95</ele>
        <time>2015-09-19T14:12:28Z</time>
      </trkpt>
      <trkpt lat="45.883535156026483" lon="7.993294922634959">
        <ele>1580.54</ele>
        <time>2015-09-19T14:12:39Z</time>
      </trkpt>
      <trkpt lat="45.883592236787081" lon="7.993302969262004">
        <ele>1578.6199999999999</ele>
        <time>2015-09-19T14:12:50Z</time>
      </trkpt>
      <trkpt lat="45.883669434115291" lon="7.99329835921526">
        <ele>1576.7</ele>
        <time>2015-09-19T14:13:02Z</time>
      </trkpt>
      <trkpt lat="45.883717378601432" lon="7.993251504376531">
        <ele>1575.74</ele>
        <time>2015-09-19T14:13:11Z</time>
      </trkpt>
      <trkpt lat="45.883786864578724" lon="7.993260724470019">
        <ele>1574.3</ele>
        <time>2015-09-19T14:13:22Z</time>
      </trkpt>
      <trkpt lat="45.883862217888236" lon="7.993274386972189">
        <ele>1572.8499999999999</ele>
        <time>2015-09-19T14:13:32Z</time>
      </trkpt>
      <trkpt lat="45.883909659460187" lon="7.99333356320858">
        <ele>1571.4100000000001</ele>
        <time>2015-09-19T14:13:42Z</time>
      </trkpt>
      <trkpt lat="45.883969506248832" lon="7.993396846577525">
        <ele>1569.49</ele>
        <time>2015-09-19T14:13:55Z</time>
      </trkpt>
      <trkpt lat="45.884021976962686" lon="7.993447808548808">
        <ele>1568.05</ele>
        <time>2015-09-19T14:14:06Z</time>
      </trkpt>
      <trkpt lat="45.884077213704586" lon="7.993488293141127">
        <ele>1566.6099999999999</ele>
        <time>2015-09-19T14:14:17Z</time>
      </trkpt>
      <trkpt lat="45.884142424911261" lon="7.99354906193912">
        <ele>1565.1600000000001</ele>
        <time>2015-09-19T14:14:29Z</time>
      </trkpt>
      <trkpt lat="45.884142760187387" lon="7.993597341701388">
        <ele>1563.24</ele>
        <time>2015-09-19T14:14:39Z</time>
      </trkpt>
      <trkpt lat="45.884074280038476" lon="7.993629276752472">
        <ele>1561.8</ele>
        <time>2015-09-19T14:14:49Z</time>
      </trkpt>
      <trkpt lat="45.884014097973704" lon="7.993654506281018">
        <ele>1560.3599999999999</ele>
        <time>2015-09-19T14:14:59Z</time>
      </trkpt>
      <trkpt lat="45.884048631414771" lon="7.993664145469666">
        <ele>1558.9200000000001</ele>
        <time>2015-09-19T14:15:10Z</time>
      </trkpt>
      <trkpt lat="45.884100347757339" lon="7.993695577606559">
        <ele>1557.95</ele>
        <time>2015-09-19T14:15:20Z</time>
      </trkpt>
      <trkpt lat="45.884155416861176" lon="7.993730027228594">
        <ele>1556.03</ele>
        <time>2015-09-19T14:15:32Z</time>
      </trkpt>
      <trkpt lat="45.884149130433798" lon="7.993764644488692">
        <ele>1555.0699999999999</ele>
        <time>2015-09-19T14:15:41Z</time>
      </trkpt>
      <trkpt lat="45.884071178734303" lon="7.993799177929759">
        <ele>1552.6700000000001</ele>
        <time>2015-09-19T14:15:53Z</time>
      </trkpt>
      <trkpt lat="45.88401292450726" lon="7.993824323639274">
        <ele>1551.22</ele>
        <time>2015-09-19T14:16:05Z</time>
      </trkpt>
      <trkpt lat="45.884078722447157" lon="7.993825078010559">
        <ele>1549.3</ele>
        <time>2015-09-19T14:16:15Z</time>
      </trkpt>
      <trkpt lat="45.884156255051494" lon="7.993851397186518">
        <ele>1547.8599999999999</ele>
        <time>2015-09-19T14:16:25Z</time>
      </trkpt>
      <trkpt lat="45.884158685803413" lon="7.993891378864646">
        <ele>1546.4200000000001</ele>
        <time>2015-09-19T14:16:35Z</time>
      </trkpt>
      <trkpt lat="45.884091127663851" lon="7.993942089378834">
        <ele>1544.98</ele>
        <time>2015-09-19T14:16:46Z</time>
      </trkpt>
      <trkpt lat="45.884063551202416" lon="7.993982071056962">
        <ele>1543.05</ele>
        <time>2015-09-19T14:16:57Z</time>
      </trkpt>
      <trkpt lat="45.884113591164351" lon="7.993994895368815">
        <ele>1541.6099999999999</ele>
        <time>2015-09-19T14:17:06Z</time>
      </trkpt>
      <trkpt lat="45.884175198152661" lon="7.994008976966143">
        <ele>1539.6900000000001</ele>
        <time>2015-09-19T14:17:17Z</time>
      </trkpt>
      <trkpt lat="45.884231105446815" lon="7.993991877883673">
        <ele>1538.25</ele>
        <time>2015-09-19T14:17:27Z</time>
      </trkpt>
      <trkpt lat="45.884309895336628" lon="7.994021130725741">
        <ele>1536.3199999999999</ele>
        <time>2015-09-19T14:17:39Z</time>
      </trkpt>
      <trkpt lat="45.884372843429446" lon="7.994072511792183">
        <ele>1535.3599999999999</ele>
        <time>2015-09-19T14:17:49Z</time>
      </trkpt>
      <trkpt lat="45.884436629712582" lon="7.994127245619893">
        <ele>1533.4400000000001</ele>
        <time>2015-09-19T14:18:01Z</time>
      </trkpt>
      <trkpt lat="45.884359516203403" lon="7.99413294531405">
        <ele>1532.48</ele>
        <time>2015-09-19T14:18:10Z</time>
      </trkpt>
      <trkpt lat="45.884296149015427" lon="7.99413881264627">
        <ele>1530.5599999999999</ele>
        <time>2015-09-19T14:18:22Z</time>
      </trkpt>
      <trkpt lat="45.884346188977361" lon="7.99416471272707">
        <ele>1529.1099999999999</ele>
        <time>2015-09-19T14:18:32Z</time>
      </trkpt>
      <trkpt lat="45.884393379092216" lon="7.994171250611544">
        <ele>1527.6700000000001</ele>
        <time>2015-09-19T14:18:42Z</time>
      </trkpt>
      <trkpt lat="45.884385583922267" lon="7.994217434898019">
        <ele>1526.23</ele>
        <time>2015-09-19T14:18:51Z</time>
      </trkpt>
      <trkpt lat="45.884323976933956" lon="7.994276443496347">
        <ele>1524.3099999999999</ele>
        <time>2015-09-19T14:19:03Z</time>
      </trkpt>
      <trkpt lat="45.884302603080869" lon="7.994314916431904">
        <ele>1522.3900000000001</ele>
        <time>2015-09-19T14:19:13Z</time>
      </trkpt>
      <trkpt lat="45.884378543123603" lon="7.994293123483658">
        <ele>1520.9400000000001</ele>
        <time>2015-09-19T14:19:23Z</time>
      </trkpt>
      <trkpt lat="45.884361108765006" lon="7.99433914013207">
        <ele>1519.98</ele>
        <time>2015-09-19T14:19:29Z</time>
      </trkpt>
      <trkpt lat="45.88428751565516" lon="7.994369063526392">
        <ele>1518.54</ele>
        <time>2015-09-19T14:19:40Z</time>
      </trkpt>
      <trkpt lat="45.884295897558331" lon="7.994400663301349">
        <ele>1517.5799999999999</ele>
        <time>2015-09-19T14:19:50Z</time>
      </trkpt>
      <trkpt lat="45.884360522031784" lon="7.994378618896008">
        <ele>1516.1400000000001</ele>
        <time>2015-09-19T14:20:00Z</time>
      </trkpt>
      <trkpt lat="45.88441894389689" lon="7.994390521198511">
        <ele>1514.21</ele>
        <time>2015-09-19T14:20:11Z</time>
      </trkpt>
      <trkpt lat="45.884444005787373" lon="7.994398986920714">
        <ele>1513.73</ele>
        <time>2015-09-19T14:20:15Z</time>
      </trkpt>
      <trkpt lat="45.884529920294881" lon="7.994464533403516">
        <ele>1511.8099999999999</ele>
        <time>2015-09-19T14:20:25Z</time>
      </trkpt>
      <trkpt lat="45.884569985792041" lon="7.994556985795498">
        <ele>1509.8900000000001</ele>
        <time>2015-09-19T14:20:37Z</time>
      </trkpt>
      <trkpt lat="45.884619522839785" lon="7.994645833969116">
        <ele>1507.97</ele>
        <time>2015-09-19T14:20:49Z</time>
      </trkpt>
      <trkpt lat="45.884670903906226" lon="7.99470123834908">
        <ele>1506.04</ele>
        <time>2015-09-19T14:21:00Z</time>
      </trkpt>
      <trkpt lat="45.884720608592033" lon="7.994768796488643">
        <ele>1504.5999999999999</ele>
        <time>2015-09-19T14:21:09Z</time>
      </trkpt>
      <trkpt lat="45.884762350469828" lon="7.994816657155752">
        <ele>1503.1600000000001</ele>
        <time>2015-09-19T14:21:18Z</time>
      </trkpt>
      <trkpt lat="45.884824376553297" lon="7.994842389598489">
        <ele>1501.24</ele>
        <time>2015-09-19T14:21:28Z</time>
      </trkpt>
      <trkpt lat="45.884865699335933" lon="7.994896452873945">
        <ele>1499.79</ele>
        <time>2015-09-19T14:21:38Z</time>
      </trkpt>
      <trkpt lat="45.884922863915563" lon="7.994941212236881">
        <ele>1498.3499999999999</ele>
        <time>2015-09-19T14:21:48Z</time>
      </trkpt>
      <trkpt lat="45.884986482560635" lon="7.994948923587799">
        <ele>1497.3900000000001</ele>
        <time>2015-09-19T14:21:59Z</time>
      </trkpt>
      <trkpt lat="45.88503803126514" lon="7.994968872517347">
        <ele>1496.9100000000001</ele>
        <time>2015-09-19T14:22:04Z</time>
      </trkpt>
      <trkpt lat="45.885140877217054" lon="7.994993012398481">
        <ele>1494.99</ele>
        <time>2015-09-19T14:22:14Z</time>
      </trkpt>
      <trkpt lat="45.885220672935247" lon="7.994991671293974">
        <ele>1493.55</ele>
        <time>2015-09-19T14:22:24Z</time>
      </trkpt>
      <trkpt lat="45.885328715667129" lon="7.994937021285296">
        <ele>1492.0999999999999</ele>
        <time>2015-09-19T14:22:35Z</time>
      </trkpt>
      <trkpt lat="45.885431226342916" lon="7.994969291612506">
        <ele>1490.6600000000001</ele>
        <time>2015-09-19T14:22:46Z</time>
      </trkpt>
      <trkpt lat="45.88551202788949" lon="7.995003489777446">
        <ele>1488.74</ele>
        <time>2015-09-19T14:22:56Z</time>
      </trkpt>
      <trkpt lat="45.885612107813358" lon="7.995039112865925">
        <ele>1486.8199999999999</ele>
        <time>2015-09-19T14:23:08Z</time>
      </trkpt>
      <trkpt lat="45.885695507749915" lon="7.995114969089627">
        <ele>1484.8900000000001</ele>
        <time>2015-09-19T14:23:21Z</time>
      </trkpt>
      <trkpt lat="45.8857446257025" lon="7.995206583291292">
        <ele>1483.45</ele>
        <time>2015-09-19T14:23:30Z</time>
      </trkpt>
      <trkpt lat="45.885796006768942" lon="7.995291827246547">
        <ele>1481.53</ele>
        <time>2015-09-19T14:23:41Z</time>
      </trkpt>
      <trkpt lat="45.885865157470107" lon="7.995349830016494">
        <ele>1480.0899999999999</ele>
        <time>2015-09-19T14:23:52Z</time>
      </trkpt>
      <trkpt lat="45.885951155796647" lon="7.995410934090614">
        <ele>1479.1300000000001</ele>
        <time>2015-09-19T14:24:02Z</time>
      </trkpt>
      <trkpt lat="45.886009326204658" lon="7.995492406189442">
        <ele>1478.1600000000001</ele>
        <time>2015-09-19T14:24:11Z</time>
      </trkpt>
      <trkpt lat="45.886101108044386" lon="7.995509169995785">
        <ele>1477.2</ele>
        <time>2015-09-19T14:24:22Z</time>
      </trkpt>
      <trkpt lat="45.886175120249391" lon="7.995555689558387">
        <ele>1476.24</ele>
        <time>2015-09-19T14:24:31Z</time>
      </trkpt>
      <trkpt lat="45.88628894649446" lon="7.995654512196779">
        <ele>1474.8</ele>
        <time>2015-09-19T14:24:44Z</time>
      </trkpt>
      <trkpt lat="45.886389445513487" lon="7.995726931840181">
        <ele>1472.8800000000001</ele>
        <time>2015-09-19T14:24:56Z</time>
      </trkpt>
      <trkpt lat="45.886474186554551" lon="7.995813097804785">
        <ele>1470.95</ele>
        <time>2015-09-19T14:25:10Z</time>
      </trkpt>
      <trkpt lat="45.88657627813518" lon="7.995846876874566">
        <ele>1469.03</ele>
        <time>2015-09-19T14:25:23Z</time>
      </trkpt>
      <trkpt lat="45.886597651988268" lon="7.995855510234833">
        <ele>1468.55</ele>
        <time>2015-09-19T14:25:26Z</time>
      </trkpt>
      <trkpt lat="45.886717597022653" lon="7.995941424742341">
        <ele>1467.1099999999999</ele>
        <time>2015-09-19T14:25:38Z</time>
      </trkpt>
      <trkpt lat="45.886782053858042" lon="7.996049886569381">
        <ele>1464.71</ele>
        <time>2015-09-19T14:25:49Z</time>
      </trkpt>
      <trkpt lat="45.88684156537056" lon="7.996144685894251">
        <ele>1462.3</ele>
        <time>2015-09-19T14:26:01Z</time>
      </trkpt>
      <trkpt lat="45.886897807940841" lon="7.996234456077218">
        <ele>1460.3800000000001</ele>
        <time>2015-09-19T14:26:12Z</time>
      </trkpt>
      <trkpt lat="45.886961007490754" lon="7.996323304250836">
        <ele>1458.46</ele>
        <time>2015-09-19T14:26:24Z</time>
      </trkpt>
      <trkpt lat="45.887016244232655" lon="7.996398154646158">
        <ele>1457.5</ele>
        <time>2015-09-19T14:26:33Z</time>
      </trkpt>
      <trkpt lat="45.887026721611619" lon="7.996419360861182">
        <ele>1456.53</ele>
        <time>2015-09-19T14:26:35Z</time>
      </trkpt>
      <trkpt lat="45.887065948918462" lon="7.996540563181043">
        <ele>1454.6099999999999</ele>
        <time>2015-09-19T14:26:46Z</time>
      </trkpt>
      <trkpt lat="45.887058908119798" lon="7.996670147404075">
        <ele>1453.1700000000001</ele>
        <time>2015-09-19T14:26:58Z</time>
      </trkpt>
      <trkpt lat="45.887062512338161" lon="7.996791433542967">
        <ele>1451.25</ele>
        <time>2015-09-19T14:27:09Z</time>
      </trkpt>
      <trkpt lat="45.887064943090081" lon="7.996794702485204">
        <ele>1451.25</ele>
        <time>2015-09-19T14:27:22Z</time>
      </trkpt>
      <trkpt lat="45.887033008038998" lon="7.996784560382366">
        <ele>1450.77</ele>
        <time>2015-09-19T14:27:39Z</time>
      </trkpt>
      <trkpt lat="45.887028900906444" lon="7.996816160157323">
        <ele>1450.77</ele>
        <time>2015-09-19T14:27:59Z</time>
      </trkpt>
      <trkpt lat="45.887048430740833" lon="7.996816830709577">
        <ele>1450.77</ele>
        <time>2015-09-19T14:28:14Z</time>
      </trkpt>
      <trkpt lat="45.887040216475725" lon="7.996830912306905">
        <ele>1450.77</ele>
        <time>2015-09-19T14:28:25Z</time>
      </trkpt>
      <trkpt lat="45.88705119676888" lon="7.996812975034118">
        <ele>1450.29</ele>
        <time>2015-09-19T14:28:40Z</time>
      </trkpt>
      <trkpt lat="45.887079192325473" lon="7.996849436312914">
        <ele>1450.29</ele>
        <time>2015-09-19T14:29:00Z</time>
      </trkpt>
      <trkpt lat="45.887072989717126" lon="7.996913976967335">
        <ele>1449.3199999999999</ele>
        <time>2015-09-19T14:29:12Z</time>
      </trkpt>
      <trkpt lat="45.886990763247013" lon="7.997049177065492">
        <ele>1447.8800000000001</ele>
        <time>2015-09-19T14:29:26Z</time>
      </trkpt>
      <trkpt lat="45.886956565082073" lon="7.997150765731931">
        <ele>1445.96</ele>
        <time>2015-09-19T14:29:38Z</time>
      </trkpt>
      <trkpt lat="45.886919014155865" lon="7.997299963608384">
        <ele>1444.04</ele>
        <time>2015-09-19T14:29:51Z</time>
      </trkpt>
      <trkpt lat="45.886868638917804" lon="7.997389817610383">
        <ele>1442.1099999999999</ele>
        <time>2015-09-19T14:30:01Z</time>
      </trkpt>
      <trkpt lat="45.886814491823316" lon="7.997508002445102">
        <ele>1440.1900000000001</ele>
        <time>2015-09-19T14:30:11Z</time>
      </trkpt>
      <trkpt lat="45.886715333908796" lon="7.997591318562627">
        <ele>1437.79</ele>
        <time>2015-09-19T14:30:24Z</time>
      </trkpt>
      <trkpt lat="45.886604022234678" lon="7.997624091804028">
        <ele>1436.3499999999999</ele>
        <time>2015-09-19T14:30:36Z</time>
      </trkpt>
      <trkpt lat="45.886572003364563" lon="7.997621241956949">
        <ele>1435.3900000000001</ele>
        <time>2015-09-19T14:30:39Z</time>
      </trkpt>
      <trkpt lat="45.886467816308141" lon="7.997585367411375">
        <ele>1433.9400000000001</ele>
        <time>2015-09-19T14:30:50Z</time>
      </trkpt>
      <trkpt lat="45.886429594829679" lon="7.997582349926233">
        <ele>1433.46</ele>
        <time>2015-09-19T14:31:00Z</time>
      </trkpt>
      <trkpt lat="45.886334963142872" lon="7.997592324391007">
        <ele>1432.98</ele>
        <time>2015-09-19T14:31:10Z</time>
      </trkpt>
      <trkpt lat="45.88627184741199" lon="7.997624427080154">
        <ele>1432.02</ele>
        <time>2015-09-19T14:31:17Z</time>
      </trkpt>
      <trkpt lat="45.886195320636034" lon="7.997739091515541">
        <ele>1430.0999999999999</ele>
        <time>2015-09-19T14:31:30Z</time>
      </trkpt>
      <trkpt lat="45.886200517416" lon="7.99786264076829">
        <ele>1427.7</ele>
        <time>2015-09-19T14:31:43Z</time>
      </trkpt>
      <trkpt lat="45.886219292879105" lon="7.997888037934899">
        <ele>1427.21</ele>
        <time>2015-09-19T14:31:46Z</time>
      </trkpt>
      <trkpt lat="45.88623664341867" lon="7.998060788959265">
        <ele>1426.73</ele>
        <time>2015-09-19T14:31:58Z</time>
      </trkpt>
      <trkpt lat="45.886218035593629" lon="7.998122982680798">
        <ele>1426.25</ele>
        <time>2015-09-19T14:32:03Z</time>
      </trkpt>
      <trkpt lat="45.886168666183949" lon="7.998155001550913">
        <ele>1425.77</ele>
        <time>2015-09-19T14:32:07Z</time>
      </trkpt>
      <trkpt lat="45.886145532131195" lon="7.998171849176288">
        <ele>1425.77</ele>
        <time>2015-09-19T14:32:09Z</time>
      </trkpt>
      <trkpt lat="45.886115776374936" lon="7.998215099796653">
        <ele>1425.77</ele>
        <time>2015-09-19T14:32:13Z</time>
      </trkpt>
      <trkpt lat="45.886024329811335" lon="7.998354407027364">
        <ele>1427.21</ele>
        <time>2015-09-19T14:32:26Z</time>
      </trkpt>
      <trkpt lat="45.885980408638716" lon="7.998493378981948">
        <ele>1428.6600000000001</ele>
        <time>2015-09-19T14:32:37Z</time>
      </trkpt>
      <trkpt lat="45.885892398655415" lon="7.998628411442041">
        <ele>1429.1400000000001</ele>
        <time>2015-09-19T14:32:49Z</time>
      </trkpt>
      <trkpt lat="45.885879658162594" lon="7.998697645962238">
        <ele>1429.1400000000001</ele>
        <time>2015-09-19T14:33:00Z</time>
      </trkpt>
      <trkpt lat="45.88577295653522" lon="7.998590776696801">
        <ele>1428.1800000000001</ele>
        <time>2015-09-19T14:33:10Z</time>
      </trkpt>
      <trkpt lat="45.885619902983308" lon="7.998558506369591">
        <ele>1427.7</ele>
        <time>2015-09-19T14:33:23Z</time>
      </trkpt>
      <trkpt lat="45.885504651814699" lon="7.998548867180944">
        <ele>1427.21</ele>
        <time>2015-09-19T14:33:35Z</time>
      </trkpt>
      <trkpt lat="45.885377917438745" lon="7.998547777533531">
        <ele>1427.21</ele>
        <time>2015-09-19T14:33:45Z</time>
      </trkpt>
      <trkpt lat="45.885321507230401" lon="7.99862346611917">
        <ele>1425.29</ele>
        <time>2015-09-19T14:33:55Z</time>
      </trkpt>
      <trkpt lat="45.885197455063462" lon="7.998818513005972">
        <ele>1422.4100000000001</ele>
        <time>2015-09-19T14:34:11Z</time>
      </trkpt>
      <trkpt lat="45.885202819481492" lon="7.998861595988274">
        <ele>1421.9300000000001</ele>
        <time>2015-09-19T14:34:22Z</time>
      </trkpt>
      <trkpt lat="45.885209357365966" lon="7.998857572674751">
        <ele>1422.4100000000001</ele>
        <time>2015-09-19T14:34:23Z</time>
      </trkpt>
      <trkpt lat="45.885340701788664" lon="7.998916413635016">
        <ele>1423.3699999999999</ele>
        <time>2015-09-19T14:34:37Z</time>
      </trkpt>
      <trkpt lat="45.885367775335908" lon="7.998923538252711">
        <ele>1423.3699999999999</ele>
        <time>2015-09-19T14:34:40Z</time>
      </trkpt>
      <trkpt lat="45.885419240221381" lon="7.998931081965566">
        <ele>1423.3699999999999</ele>
        <time>2015-09-19T14:34:50Z</time>
      </trkpt>
      <trkpt lat="45.88541722856462" lon="7.998908869922161">
        <ele>1423.3699999999999</ele>
        <time>2015-09-19T14:34:59Z</time>
      </trkpt>
      <trkpt lat="45.88540943339467" lon="7.998900655657053">
        <ele>1423.3699999999999</ele>
        <time>2015-09-19T14:35:12Z</time>
      </trkpt>
      <trkpt lat="45.88544019497931" lon="7.99898648634553">
        <ele>1422.8900000000001</ele>
        <time>2015-09-19T14:35:21Z</time>
      </trkpt>
      <trkpt lat="45.885512949898839" lon="7.999080615118146">
        <ele>1422.8900000000001</ele>
        <time>2015-09-19T14:35:32Z</time>
      </trkpt>
      <trkpt lat="45.885526109486818" lon="7.999090170487762">
        <ele>1422.8900000000001</ele>
        <time>2015-09-19T14:35:34Z</time>
      </trkpt>
      <trkpt lat="45.885660890489817" lon="7.999162506312132">
        <ele>1421.9300000000001</ele>
        <time>2015-09-19T14:35:49Z</time>
      </trkpt>
      <trkpt lat="45.885719479992986" lon="7.999267363920808">
        <ele>1420.97</ele>
        <time>2015-09-19T14:35:57Z</time>
      </trkpt>
      <trkpt lat="45.885731047019362" lon="7.999362833797932">
        <ele>1420</ele>
        <time>2015-09-19T14:36:06Z</time>
      </trkpt>
      <trkpt lat="45.88573532178998" lon="7.999457465484738">
        <ele>1420</ele>
        <time>2015-09-19T14:36:17Z</time>
      </trkpt>
      <trkpt lat="45.885747307911515" lon="7.999484455212951">
        <ele>1420</ele>
        <time>2015-09-19T14:36:28Z</time>
      </trkpt>
      <trkpt lat="45.88575292378664" lon="7.999499794095755">
        <ele>1420</ele>
        <time>2015-09-19T14:36:43Z</time>
      </trkpt>
    </trkseg>
  </trk>

</gpx>